<?xml version="1.0" encoding="UTF-8" standalone="no" ?>
<gpx xmlns="http://www.topografix.com/GPX/1/1" xmlns:xsi="http://www.w3.org/2001/XMLSchema-instance" xsi:schemaLocation="http://www.topografix.com/GPX/1/1 http://www.topografix.com/GPX/1/1/gpx.xsd" version="1.1" creator="VisuGPX - https://www.visugpx.com">
  <metadata>
    <name>54 VTT Lambermont</name>
    <desc><![CDATA[VTT Lambermont 2022 58 km]]></desc>
  </metadata>
  <trk>
    <name><![CDATA[54 VTT Lambermont]]></name>
    <trkseg>
      <trkpt lat="49.70671" lon="5.19021">
        <ele>263.20001220703</ele>
        <time>2022-07-31T05:44:13.000Z</time>
      </trkpt>
      <trkpt lat="49.70669" lon="5.19019">
        <ele>262.60000610352</ele>
        <time>2022-07-31T05:44:23.000Z</time>
      </trkpt>
      <trkpt lat="49.70664" lon="5.19015">
        <ele>261.60000610352</ele>
        <time>2022-07-31T05:44:25.000Z</time>
      </trkpt>
      <trkpt lat="49.70656" lon="5.19018">
        <ele>261</ele>
        <time>2022-07-31T05:44:27.000Z</time>
      </trkpt>
      <trkpt lat="49.70652" lon="5.19022">
        <ele>261.20001220703</ele>
        <time>2022-07-31T05:44:28.000Z</time>
      </trkpt>
      <trkpt lat="49.70648" lon="5.19028">
        <ele>261.20001220703</ele>
        <time>2022-07-31T05:44:29.000Z</time>
      </trkpt>
      <trkpt lat="49.70635" lon="5.19046">
        <ele>260.60000610352</ele>
        <time>2022-07-31T05:44:32.000Z</time>
      </trkpt>
      <trkpt lat="49.70624" lon="5.19058">
        <ele>259.60000610352</ele>
        <time>2022-07-31T05:44:34.000Z</time>
      </trkpt>
      <trkpt lat="49.70613" lon="5.19071">
        <ele>259.39999389648</ele>
        <time>2022-07-31T05:44:36.000Z</time>
      </trkpt>
      <trkpt lat="49.70602" lon="5.19085">
        <ele>259.39999389648</ele>
        <time>2022-07-31T05:44:38.000Z</time>
      </trkpt>
      <trkpt lat="49.70592" lon="5.19102">
        <ele>259.20001220703</ele>
        <time>2022-07-31T05:44:40.000Z</time>
      </trkpt>
      <trkpt lat="49.70583" lon="5.19122">
        <ele>257.60000610352</ele>
        <time>2022-07-31T05:44:42.000Z</time>
      </trkpt>
      <trkpt lat="49.70579" lon="5.19134">
        <ele>256.39999389648</ele>
        <time>2022-07-31T05:44:43.000Z</time>
      </trkpt>
      <trkpt lat="49.70576" lon="5.19146">
        <ele>255.19999694824</ele>
        <time>2022-07-31T05:44:44.000Z</time>
      </trkpt>
      <trkpt lat="49.70574" lon="5.19159">
        <ele>254.80000305176</ele>
        <time>2022-07-31T05:44:45.000Z</time>
      </trkpt>
      <trkpt lat="49.70573" lon="5.19173">
        <ele>254</ele>
        <time>2022-07-31T05:44:46.000Z</time>
      </trkpt>
      <trkpt lat="49.70571" lon="5.19186">
        <ele>253.80000305176</ele>
        <time>2022-07-31T05:44:47.000Z</time>
      </trkpt>
      <trkpt lat="49.7057" lon="5.192">
        <ele>253.39999389648</ele>
        <time>2022-07-31T05:44:48.000Z</time>
      </trkpt>
      <trkpt lat="49.70569" lon="5.19241">
        <ele>252.80000305176</ele>
        <time>2022-07-31T05:44:51.000Z</time>
      </trkpt>
      <trkpt lat="49.7057" lon="5.19268">
        <ele>251.60000610352</ele>
        <time>2022-07-31T05:44:53.000Z</time>
      </trkpt>
      <trkpt lat="49.70571" lon="5.19293">
        <ele>250.39999389648</ele>
        <time>2022-07-31T05:44:55.000Z</time>
      </trkpt>
      <trkpt lat="49.70573" lon="5.19322">
        <ele>249.19999694824</ele>
        <time>2022-07-31T05:44:58.000Z</time>
      </trkpt>
      <trkpt lat="49.70573" lon="5.19335">
        <ele>248.80000305176</ele>
        <time>2022-07-31T05:45:00.000Z</time>
      </trkpt>
      <trkpt lat="49.70569" lon="5.19342">
        <ele>247.60000610352</ele>
        <time>2022-07-31T05:45:02.000Z</time>
      </trkpt>
      <trkpt lat="49.70554" lon="5.19344">
        <ele>245.80000305176</ele>
        <time>2022-07-31T05:45:05.000Z</time>
      </trkpt>
      <trkpt lat="49.70548" lon="5.19345">
        <ele>245.19999694824</ele>
        <time>2022-07-31T05:45:06.000Z</time>
      </trkpt>
      <trkpt lat="49.70533" lon="5.19348">
        <ele>243.39999389648</ele>
        <time>2022-07-31T05:45:08.000Z</time>
      </trkpt>
      <trkpt lat="49.70525" lon="5.19351">
        <ele>242.80000305176</ele>
        <time>2022-07-31T05:45:09.000Z</time>
      </trkpt>
      <trkpt lat="49.70518" lon="5.19354">
        <ele>242.39999389648</ele>
        <time>2022-07-31T05:45:10.000Z</time>
      </trkpt>
      <trkpt lat="49.70511" lon="5.19357">
        <ele>242.19999694824</ele>
        <time>2022-07-31T05:45:11.000Z</time>
      </trkpt>
      <trkpt lat="49.70505" lon="5.19358">
        <ele>241.80000305176</ele>
        <time>2022-07-31T05:45:12.000Z</time>
      </trkpt>
      <trkpt lat="49.70494" lon="5.19353">
        <ele>242</ele>
        <time>2022-07-31T05:45:14.000Z</time>
      </trkpt>
      <trkpt lat="49.70486" lon="5.1933">
        <ele>242.80000305176</ele>
        <time>2022-07-31T05:45:17.000Z</time>
      </trkpt>
      <trkpt lat="49.70484" lon="5.19311">
        <ele>243.60000610352</ele>
        <time>2022-07-31T05:45:19.000Z</time>
      </trkpt>
      <trkpt lat="49.7048" lon="5.1927">
        <ele>245</ele>
        <time>2022-07-31T05:45:23.000Z</time>
      </trkpt>
      <trkpt lat="49.70479" lon="5.1926">
        <ele>244.80000305176</ele>
        <time>2022-07-31T05:45:24.000Z</time>
      </trkpt>
      <trkpt lat="49.70473" lon="5.19198">
        <ele>243.19999694824</ele>
        <time>2022-07-31T05:45:30.000Z</time>
      </trkpt>
      <trkpt lat="49.70472" lon="5.19187">
        <ele>242.60000610352</ele>
        <time>2022-07-31T05:45:31.000Z</time>
      </trkpt>
      <trkpt lat="49.7047" lon="5.19166">
        <ele>242</ele>
        <time>2022-07-31T05:45:33.000Z</time>
      </trkpt>
      <trkpt lat="49.7047" lon="5.19105">
        <ele>242.39999389648</ele>
        <time>2022-07-31T05:45:39.000Z</time>
      </trkpt>
      <trkpt lat="49.70471" lon="5.19067">
        <ele>243</ele>
        <time>2022-07-31T05:45:43.000Z</time>
      </trkpt>
      <trkpt lat="49.70472" lon="5.19029">
        <ele>243.39999389648</ele>
        <time>2022-07-31T05:45:47.000Z</time>
      </trkpt>
      <trkpt lat="49.70476" lon="5.18966">
        <ele>242.39999389648</ele>
        <time>2022-07-31T05:45:54.000Z</time>
      </trkpt>
      <trkpt lat="49.7048" lon="5.18905">
        <ele>241</ele>
        <time>2022-07-31T05:46:01.000Z</time>
      </trkpt>
      <trkpt lat="49.70481" lon="5.18865">
        <ele>241.60000610352</ele>
        <time>2022-07-31T05:46:06.000Z</time>
      </trkpt>
      <trkpt lat="49.70482" lon="5.18841">
        <ele>241.60000610352</ele>
        <time>2022-07-31T05:46:09.000Z</time>
      </trkpt>
      <trkpt lat="49.70484" lon="5.18833">
        <ele>241.39999389648</ele>
        <time>2022-07-31T05:46:10.000Z</time>
      </trkpt>
      <trkpt lat="49.70485" lon="5.18826">
        <ele>241</ele>
        <time>2022-07-31T05:46:11.000Z</time>
      </trkpt>
      <trkpt lat="49.70486" lon="5.18812">
        <ele>240.80000305176</ele>
        <time>2022-07-31T05:46:13.000Z</time>
      </trkpt>
      <trkpt lat="49.70488" lon="5.18784">
        <ele>240.19999694824</ele>
        <time>2022-07-31T05:46:17.000Z</time>
      </trkpt>
      <trkpt lat="49.70489" lon="5.18777">
        <ele>240</ele>
        <time>2022-07-31T05:46:18.000Z</time>
      </trkpt>
      <trkpt lat="49.70491" lon="5.18753">
        <ele>239.60000610352</ele>
        <time>2022-07-31T05:46:22.000Z</time>
      </trkpt>
      <trkpt lat="49.70492" lon="5.18746">
        <ele>239.60000610352</ele>
        <time>2022-07-31T05:46:23.000Z</time>
      </trkpt>
      <trkpt lat="49.70494" lon="5.18718">
        <ele>241.60000610352</ele>
        <time>2022-07-31T05:46:27.000Z</time>
      </trkpt>
      <trkpt lat="49.70494" lon="5.18703">
        <ele>243.80000305176</ele>
        <time>2022-07-31T05:46:29.000Z</time>
      </trkpt>
      <trkpt lat="49.70492" lon="5.18663">
        <ele>250.19999694824</ele>
        <time>2022-07-31T05:46:35.000Z</time>
      </trkpt>
      <trkpt lat="49.7049" lon="5.1865">
        <ele>252</ele>
        <time>2022-07-31T05:46:37.000Z</time>
      </trkpt>
      <trkpt lat="49.70488" lon="5.18637">
        <ele>253.39999389648</ele>
        <time>2022-07-31T05:46:39.000Z</time>
      </trkpt>
      <trkpt lat="49.70487" lon="5.18624">
        <ele>254</ele>
        <time>2022-07-31T05:46:41.000Z</time>
      </trkpt>
      <trkpt lat="49.70486" lon="5.18611">
        <ele>254.39999389648</ele>
        <time>2022-07-31T05:46:43.000Z</time>
      </trkpt>
      <trkpt lat="49.70485" lon="5.18605">
        <ele>254.60000610352</ele>
        <time>2022-07-31T05:46:44.000Z</time>
      </trkpt>
      <trkpt lat="49.70483" lon="5.18592">
        <ele>255</ele>
        <time>2022-07-31T05:46:46.000Z</time>
      </trkpt>
      <trkpt lat="49.70479" lon="5.18574">
        <ele>255.80000305176</ele>
        <time>2022-07-31T05:46:49.000Z</time>
      </trkpt>
      <trkpt lat="49.70475" lon="5.18557">
        <ele>258</ele>
        <time>2022-07-31T05:46:52.000Z</time>
      </trkpt>
      <trkpt lat="49.70476" lon="5.18544">
        <ele>257.79998779297</ele>
        <time>2022-07-31T05:46:54.000Z</time>
      </trkpt>
      <trkpt lat="49.70475" lon="5.18537">
        <ele>257.79998779297</ele>
        <time>2022-07-31T05:46:55.000Z</time>
      </trkpt>
      <trkpt lat="49.70473" lon="5.18514">
        <ele>257.39999389648</ele>
        <time>2022-07-31T05:46:58.000Z</time>
      </trkpt>
      <trkpt lat="49.70467" lon="5.18448">
        <ele>255.19999694824</ele>
        <time>2022-07-31T05:47:06.000Z</time>
      </trkpt>
      <trkpt lat="49.70465" lon="5.18416">
        <ele>258.20001220703</ele>
        <time>2022-07-31T05:47:10.000Z</time>
      </trkpt>
      <trkpt lat="49.70466" lon="5.18401">
        <ele>259.79998779297</ele>
        <time>2022-07-31T05:47:12.000Z</time>
      </trkpt>
      <trkpt lat="49.70468" lon="5.18356">
        <ele>263.79998779297</ele>
        <time>2022-07-31T05:47:19.000Z</time>
      </trkpt>
      <trkpt lat="49.70472" lon="5.18326">
        <ele>266.39999389648</ele>
        <time>2022-07-31T05:47:24.000Z</time>
      </trkpt>
      <trkpt lat="49.70474" lon="5.18313">
        <ele>266.79998779297</ele>
        <time>2022-07-31T05:47:26.000Z</time>
      </trkpt>
      <trkpt lat="49.7048" lon="5.18263">
        <ele>267</ele>
        <time>2022-07-31T05:47:34.000Z</time>
      </trkpt>
      <trkpt lat="49.7048" lon="5.18213">
        <ele>270.79998779297</ele>
        <time>2022-07-31T05:47:41.000Z</time>
      </trkpt>
      <trkpt lat="49.70477" lon="5.1817">
        <ele>270.39999389648</ele>
        <time>2022-07-31T05:47:47.000Z</time>
      </trkpt>
      <trkpt lat="49.70476" lon="5.18156">
        <ele>269.20001220703</ele>
        <time>2022-07-31T05:47:49.000Z</time>
      </trkpt>
      <trkpt lat="49.70474" lon="5.18112">
        <ele>266.60000610352</ele>
        <time>2022-07-31T05:47:56.000Z</time>
      </trkpt>
      <trkpt lat="49.70473" lon="5.18085">
        <ele>267.39999389648</ele>
        <time>2022-07-31T05:48:01.000Z</time>
      </trkpt>
      <trkpt lat="49.70474" lon="5.1808">
        <ele>267.79998779297</ele>
        <time>2022-07-31T05:48:02.000Z</time>
      </trkpt>
      <trkpt lat="49.70472" lon="5.18058">
        <ele>269.20001220703</ele>
        <time>2022-07-31T05:48:06.000Z</time>
      </trkpt>
      <trkpt lat="49.7047" lon="5.18036">
        <ele>270.20001220703</ele>
        <time>2022-07-31T05:48:10.000Z</time>
      </trkpt>
      <trkpt lat="49.70468" lon="5.18013">
        <ele>271</ele>
        <time>2022-07-31T05:48:14.000Z</time>
      </trkpt>
      <trkpt lat="49.70466" lon="5.17991">
        <ele>272.60000610352</ele>
        <time>2022-07-31T05:48:18.000Z</time>
      </trkpt>
      <trkpt lat="49.70463" lon="5.17953">
        <ele>272.79998779297</ele>
        <time>2022-07-31T05:48:25.000Z</time>
      </trkpt>
      <trkpt lat="49.70462" lon="5.17916">
        <ele>273</ele>
        <time>2022-07-31T05:48:31.000Z</time>
      </trkpt>
      <trkpt lat="49.70461" lon="5.17855">
        <ele>276.79998779297</ele>
        <time>2022-07-31T05:48:41.000Z</time>
      </trkpt>
      <trkpt lat="49.70458" lon="5.17807">
        <ele>278</ele>
        <time>2022-07-31T05:48:49.000Z</time>
      </trkpt>
      <trkpt lat="49.70457" lon="5.17778">
        <ele>278</ele>
        <time>2022-07-31T05:48:54.000Z</time>
      </trkpt>
      <trkpt lat="49.70455" lon="5.17743">
        <ele>278.60000610352</ele>
        <time>2022-07-31T05:49:01.000Z</time>
      </trkpt>
      <trkpt lat="49.70453" lon="5.17711">
        <ele>278.20001220703</ele>
        <time>2022-07-31T05:49:07.000Z</time>
      </trkpt>
      <trkpt lat="49.7045" lon="5.17678">
        <ele>276.20001220703</ele>
        <time>2022-07-31T05:49:13.000Z</time>
      </trkpt>
      <trkpt lat="49.70449" lon="5.17673">
        <ele>275.79998779297</ele>
        <time>2022-07-31T05:49:14.000Z</time>
      </trkpt>
      <trkpt lat="49.70442" lon="5.17639">
        <ele>272.39999389648</ele>
        <time>2022-07-31T05:49:21.000Z</time>
      </trkpt>
      <trkpt lat="49.70436" lon="5.1761">
        <ele>271.39999389648</ele>
        <time>2022-07-31T05:49:27.000Z</time>
      </trkpt>
      <trkpt lat="49.70433" lon="5.176">
        <ele>271.20001220703</ele>
        <time>2022-07-31T05:49:29.000Z</time>
      </trkpt>
      <trkpt lat="49.70423" lon="5.17571">
        <ele>275.60000610352</ele>
        <time>2022-07-31T05:49:35.000Z</time>
      </trkpt>
      <trkpt lat="49.70416" lon="5.1755">
        <ele>277.20001220703</ele>
        <time>2022-07-31T05:49:40.000Z</time>
      </trkpt>
      <trkpt lat="49.7041" lon="5.17538">
        <ele>276.79998779297</ele>
        <time>2022-07-31T05:49:43.000Z</time>
      </trkpt>
      <trkpt lat="49.70409" lon="5.17533">
        <ele>276.60000610352</ele>
        <time>2022-07-31T05:49:44.000Z</time>
      </trkpt>
      <trkpt lat="49.70397" lon="5.17506">
        <ele>275.39999389648</ele>
        <time>2022-07-31T05:49:50.000Z</time>
      </trkpt>
      <trkpt lat="49.70395" lon="5.17502">
        <ele>275.20001220703</ele>
        <time>2022-07-31T05:49:51.000Z</time>
      </trkpt>
      <trkpt lat="49.70386" lon="5.17482">
        <ele>274.60000610352</ele>
        <time>2022-07-31T05:49:55.000Z</time>
      </trkpt>
      <trkpt lat="49.7038" lon="5.17472">
        <ele>274.79998779297</ele>
        <time>2022-07-31T05:49:57.000Z</time>
      </trkpt>
      <trkpt lat="49.70371" lon="5.17459">
        <ele>275.20001220703</ele>
        <time>2022-07-31T05:50:00.000Z</time>
      </trkpt>
      <trkpt lat="49.70355" lon="5.17439">
        <ele>275.20001220703</ele>
        <time>2022-07-31T05:50:05.000Z</time>
      </trkpt>
      <trkpt lat="49.70335" lon="5.17416">
        <ele>274.20001220703</ele>
        <time>2022-07-31T05:50:11.000Z</time>
      </trkpt>
      <trkpt lat="49.70331" lon="5.17413">
        <ele>273.79998779297</ele>
        <time>2022-07-31T05:50:12.000Z</time>
      </trkpt>
      <trkpt lat="49.70313" lon="5.17393">
        <ele>272.39999389648</ele>
        <time>2022-07-31T05:50:17.000Z</time>
      </trkpt>
      <trkpt lat="49.7031" lon="5.17389">
        <ele>272</ele>
        <time>2022-07-31T05:50:18.000Z</time>
      </trkpt>
      <trkpt lat="49.70293" lon="5.17369">
        <ele>271.20001220703</ele>
        <time>2022-07-31T05:50:22.000Z</time>
      </trkpt>
      <trkpt lat="49.70284" lon="5.17358">
        <ele>270.60000610352</ele>
        <time>2022-07-31T05:50:24.000Z</time>
      </trkpt>
      <trkpt lat="49.70279" lon="5.17352">
        <ele>270.20001220703</ele>
        <time>2022-07-31T05:50:25.000Z</time>
      </trkpt>
      <trkpt lat="49.70265" lon="5.17334">
        <ele>269.39999389648</ele>
        <time>2022-07-31T05:50:28.000Z</time>
      </trkpt>
      <trkpt lat="49.70255" lon="5.17322">
        <ele>268.79998779297</ele>
        <time>2022-07-31T05:50:30.000Z</time>
      </trkpt>
      <trkpt lat="49.7025" lon="5.17316">
        <ele>267.79998779297</ele>
        <time>2022-07-31T05:50:31.000Z</time>
      </trkpt>
      <trkpt lat="49.7023" lon="5.17293">
        <ele>264.39999389648</ele>
        <time>2022-07-31T05:50:35.000Z</time>
      </trkpt>
      <trkpt lat="49.70224" lon="5.17286">
        <ele>263.60000610352</ele>
        <time>2022-07-31T05:50:36.000Z</time>
      </trkpt>
      <trkpt lat="49.70202" lon="5.17259">
        <ele>260.79998779297</ele>
        <time>2022-07-31T05:50:40.000Z</time>
      </trkpt>
      <trkpt lat="49.7019" lon="5.17246">
        <ele>259.79998779297</ele>
        <time>2022-07-31T05:50:42.000Z</time>
      </trkpt>
      <trkpt lat="49.70185" lon="5.17239">
        <ele>259.20001220703</ele>
        <time>2022-07-31T05:50:43.000Z</time>
      </trkpt>
      <trkpt lat="49.70174" lon="5.17224">
        <ele>256.79998779297</ele>
        <time>2022-07-31T05:50:45.000Z</time>
      </trkpt>
      <trkpt lat="49.70164" lon="5.17211">
        <ele>254.80000305176</ele>
        <time>2022-07-31T05:50:47.000Z</time>
      </trkpt>
      <trkpt lat="49.70159" lon="5.17205">
        <ele>254.19999694824</ele>
        <time>2022-07-31T05:50:48.000Z</time>
      </trkpt>
      <trkpt lat="49.70134" lon="5.17174">
        <ele>250.80000305176</ele>
        <time>2022-07-31T05:50:53.000Z</time>
      </trkpt>
      <trkpt lat="49.7013" lon="5.17169">
        <ele>250.19999694824</ele>
        <time>2022-07-31T05:50:54.000Z</time>
      </trkpt>
      <trkpt lat="49.7012" lon="5.17161">
        <ele>249.39999389648</ele>
        <time>2022-07-31T05:50:56.000Z</time>
      </trkpt>
      <trkpt lat="49.70112" lon="5.17154">
        <ele>248.80000305176</ele>
        <time>2022-07-31T05:50:58.000Z</time>
      </trkpt>
      <trkpt lat="49.7011" lon="5.17149">
        <ele>248.39999389648</ele>
        <time>2022-07-31T05:50:59.000Z</time>
      </trkpt>
      <trkpt lat="49.70114" lon="5.17139">
        <ele>247.19999694824</ele>
        <time>2022-07-31T05:51:02.000Z</time>
      </trkpt>
      <trkpt lat="49.70124" lon="5.17142">
        <ele>247</ele>
        <time>2022-07-31T05:51:05.000Z</time>
      </trkpt>
      <trkpt lat="49.70129" lon="5.17142">
        <ele>247</ele>
        <time>2022-07-31T05:51:06.000Z</time>
      </trkpt>
      <trkpt lat="49.70142" lon="5.17144">
        <ele>246.60000610352</ele>
        <time>2022-07-31T05:51:09.000Z</time>
      </trkpt>
      <trkpt lat="49.70155" lon="5.17144">
        <ele>246.19999694824</ele>
        <time>2022-07-31T05:51:11.000Z</time>
      </trkpt>
      <trkpt lat="49.70162" lon="5.17144">
        <ele>245.80000305176</ele>
        <time>2022-07-31T05:51:12.000Z</time>
      </trkpt>
      <trkpt lat="49.7017" lon="5.17143">
        <ele>245.19999694824</ele>
        <time>2022-07-31T05:51:13.000Z</time>
      </trkpt>
      <trkpt lat="49.70186" lon="5.17144">
        <ele>244.60000610352</ele>
        <time>2022-07-31T05:51:15.000Z</time>
      </trkpt>
      <trkpt lat="49.70202" lon="5.17144">
        <ele>243</ele>
        <time>2022-07-31T05:51:17.000Z</time>
      </trkpt>
      <trkpt lat="49.7021" lon="5.17144">
        <ele>242</ele>
        <time>2022-07-31T05:51:18.000Z</time>
      </trkpt>
      <trkpt lat="49.70218" lon="5.17144">
        <ele>241.39999389648</ele>
        <time>2022-07-31T05:51:19.000Z</time>
      </trkpt>
      <trkpt lat="49.70236" lon="5.17144">
        <ele>240.19999694824</ele>
        <time>2022-07-31T05:51:21.000Z</time>
      </trkpt>
      <trkpt lat="49.70255" lon="5.17145">
        <ele>238.19999694824</ele>
        <time>2022-07-31T05:51:23.000Z</time>
      </trkpt>
      <trkpt lat="49.70273" lon="5.17145">
        <ele>235.80000305176</ele>
        <time>2022-07-31T05:51:25.000Z</time>
      </trkpt>
      <trkpt lat="49.70291" lon="5.17146">
        <ele>234.39999389648</ele>
        <time>2022-07-31T05:51:27.000Z</time>
      </trkpt>
      <trkpt lat="49.70311" lon="5.17147">
        <ele>232.19999694824</ele>
        <time>2022-07-31T05:51:29.000Z</time>
      </trkpt>
      <trkpt lat="49.70321" lon="5.17148">
        <ele>232</ele>
        <time>2022-07-31T05:51:30.000Z</time>
      </trkpt>
      <trkpt lat="49.70331" lon="5.17149">
        <ele>231.60000610352</ele>
        <time>2022-07-31T05:51:31.000Z</time>
      </trkpt>
      <trkpt lat="49.70351" lon="5.17156">
        <ele>230.80000305176</ele>
        <time>2022-07-31T05:51:33.000Z</time>
      </trkpt>
      <trkpt lat="49.70362" lon="5.17159">
        <ele>230.60000610352</ele>
        <time>2022-07-31T05:51:34.000Z</time>
      </trkpt>
      <trkpt lat="49.70372" lon="5.17163">
        <ele>230.60000610352</ele>
        <time>2022-07-31T05:51:35.000Z</time>
      </trkpt>
      <trkpt lat="49.70392" lon="5.17171">
        <ele>231</ele>
        <time>2022-07-31T05:51:37.000Z</time>
      </trkpt>
      <trkpt lat="49.70412" lon="5.17179">
        <ele>230.80000305176</ele>
        <time>2022-07-31T05:51:39.000Z</time>
      </trkpt>
      <trkpt lat="49.70432" lon="5.17187">
        <ele>229.80000305176</ele>
        <time>2022-07-31T05:51:41.000Z</time>
      </trkpt>
      <trkpt lat="49.70442" lon="5.17191">
        <ele>229</ele>
        <time>2022-07-31T05:51:42.000Z</time>
      </trkpt>
      <trkpt lat="49.70452" lon="5.17196">
        <ele>228</ele>
        <time>2022-07-31T05:51:43.000Z</time>
      </trkpt>
      <trkpt lat="49.70472" lon="5.17203">
        <ele>224.80000305176</ele>
        <time>2022-07-31T05:51:45.000Z</time>
      </trkpt>
      <trkpt lat="49.70492" lon="5.17212">
        <ele>221.80000305176</ele>
        <time>2022-07-31T05:51:47.000Z</time>
      </trkpt>
      <trkpt lat="49.70511" lon="5.17224">
        <ele>218.80000305176</ele>
        <time>2022-07-31T05:51:49.000Z</time>
      </trkpt>
      <trkpt lat="49.70536" lon="5.17244">
        <ele>217</ele>
        <time>2022-07-31T05:51:52.000Z</time>
      </trkpt>
      <trkpt lat="49.7055" lon="5.17256">
        <ele>217</ele>
        <time>2022-07-31T05:51:54.000Z</time>
      </trkpt>
      <trkpt lat="49.70562" lon="5.17268">
        <ele>217</ele>
        <time>2022-07-31T05:51:56.000Z</time>
      </trkpt>
      <trkpt lat="49.70573" lon="5.17278">
        <ele>216.60000610352</ele>
        <time>2022-07-31T05:51:58.000Z</time>
      </trkpt>
      <trkpt lat="49.70576" lon="5.17285">
        <ele>216.60000610352</ele>
        <time>2022-07-31T05:51:59.000Z</time>
      </trkpt>
      <trkpt lat="49.7058" lon="5.17298">
        <ele>216.60000610352</ele>
        <time>2022-07-31T05:52:01.000Z</time>
      </trkpt>
      <trkpt lat="49.70583" lon="5.17302">
        <ele>216.60000610352</ele>
        <time>2022-07-31T05:52:02.000Z</time>
      </trkpt>
      <trkpt lat="49.70591" lon="5.17311">
        <ele>216.39999389648</ele>
        <time>2022-07-31T05:52:04.000Z</time>
      </trkpt>
      <trkpt lat="49.70622" lon="5.17326">
        <ele>216</ele>
        <time>2022-07-31T05:52:10.000Z</time>
      </trkpt>
      <trkpt lat="49.70644" lon="5.17331">
        <ele>216</ele>
        <time>2022-07-31T05:52:14.000Z</time>
      </trkpt>
      <trkpt lat="49.70658" lon="5.17333">
        <ele>215.80000305176</ele>
        <time>2022-07-31T05:52:17.000Z</time>
      </trkpt>
      <trkpt lat="49.70697" lon="5.17342">
        <ele>215.60000610352</ele>
        <time>2022-07-31T05:52:25.000Z</time>
      </trkpt>
      <trkpt lat="49.70708" lon="5.17346">
        <ele>215.80000305176</ele>
        <time>2022-07-31T05:52:27.000Z</time>
      </trkpt>
      <trkpt lat="49.70715" lon="5.17355">
        <ele>216</ele>
        <time>2022-07-31T05:52:29.000Z</time>
      </trkpt>
      <trkpt lat="49.70722" lon="5.1738">
        <ele>217</ele>
        <time>2022-07-31T05:52:33.000Z</time>
      </trkpt>
      <trkpt lat="49.70723" lon="5.17392">
        <ele>217.39999389648</ele>
        <time>2022-07-31T05:52:35.000Z</time>
      </trkpt>
      <trkpt lat="49.70724" lon="5.17406">
        <ele>217.80000305176</ele>
        <time>2022-07-31T05:52:37.000Z</time>
      </trkpt>
      <trkpt lat="49.70724" lon="5.17412">
        <ele>218</ele>
        <time>2022-07-31T05:52:38.000Z</time>
      </trkpt>
      <trkpt lat="49.70725" lon="5.17425">
        <ele>218.60000610352</ele>
        <time>2022-07-31T05:52:40.000Z</time>
      </trkpt>
      <trkpt lat="49.70729" lon="5.1745">
        <ele>219.60000610352</ele>
        <time>2022-07-31T05:52:44.000Z</time>
      </trkpt>
      <trkpt lat="49.70731" lon="5.17456">
        <ele>220</ele>
        <time>2022-07-31T05:52:45.000Z</time>
      </trkpt>
      <trkpt lat="49.70736" lon="5.17472">
        <ele>221.19999694824</ele>
        <time>2022-07-31T05:52:48.000Z</time>
      </trkpt>
      <trkpt lat="49.70742" lon="5.1748">
        <ele>222.19999694824</ele>
        <time>2022-07-31T05:52:50.000Z</time>
      </trkpt>
      <trkpt lat="49.70749" lon="5.17485">
        <ele>223</ele>
        <time>2022-07-31T05:52:52.000Z</time>
      </trkpt>
      <trkpt lat="49.70759" lon="5.17489">
        <ele>224</ele>
        <time>2022-07-31T05:52:55.000Z</time>
      </trkpt>
      <trkpt lat="49.70763" lon="5.17491">
        <ele>224.19999694824</ele>
        <time>2022-07-31T05:52:56.000Z</time>
      </trkpt>
      <trkpt lat="49.70781" lon="5.17497">
        <ele>225.19999694824</ele>
        <time>2022-07-31T05:53:01.000Z</time>
      </trkpt>
      <trkpt lat="49.70788" lon="5.17499">
        <ele>225.60000610352</ele>
        <time>2022-07-31T05:53:03.000Z</time>
      </trkpt>
      <trkpt lat="49.70799" lon="5.17502">
        <ele>226.39999389648</ele>
        <time>2022-07-31T05:53:06.000Z</time>
      </trkpt>
      <trkpt lat="49.70813" lon="5.17507">
        <ele>227.19999694824</ele>
        <time>2022-07-31T05:53:10.000Z</time>
      </trkpt>
      <trkpt lat="49.70827" lon="5.17513">
        <ele>228.19999694824</ele>
        <time>2022-07-31T05:53:14.000Z</time>
      </trkpt>
      <trkpt lat="49.70841" lon="5.17518">
        <ele>228.80000305176</ele>
        <time>2022-07-31T05:53:18.000Z</time>
      </trkpt>
      <trkpt lat="49.70859" lon="5.17525">
        <ele>229</ele>
        <time>2022-07-31T05:53:23.000Z</time>
      </trkpt>
      <trkpt lat="49.70866" lon="5.17528">
        <ele>229</ele>
        <time>2022-07-31T05:53:25.000Z</time>
      </trkpt>
      <trkpt lat="49.70873" lon="5.17532">
        <ele>229.39999389648</ele>
        <time>2022-07-31T05:53:27.000Z</time>
      </trkpt>
      <trkpt lat="49.70889" lon="5.1754">
        <ele>230.19999694824</ele>
        <time>2022-07-31T05:53:31.000Z</time>
      </trkpt>
      <trkpt lat="49.70903" lon="5.17548">
        <ele>231.80000305176</ele>
        <time>2022-07-31T05:53:35.000Z</time>
      </trkpt>
      <trkpt lat="49.70906" lon="5.1755">
        <ele>232.19999694824</ele>
        <time>2022-07-31T05:53:36.000Z</time>
      </trkpt>
      <trkpt lat="49.7092" lon="5.17557">
        <ele>234</ele>
        <time>2022-07-31T05:53:40.000Z</time>
      </trkpt>
      <trkpt lat="49.70938" lon="5.17566">
        <ele>235.60000610352</ele>
        <time>2022-07-31T05:53:45.000Z</time>
      </trkpt>
      <trkpt lat="49.70965" lon="5.17572">
        <ele>235.60000610352</ele>
        <time>2022-07-31T05:53:52.000Z</time>
      </trkpt>
      <trkpt lat="49.70969" lon="5.17573">
        <ele>235.39999389648</ele>
        <time>2022-07-31T05:53:53.000Z</time>
      </trkpt>
      <trkpt lat="49.70982" lon="5.17572">
        <ele>234.60000610352</ele>
        <time>2022-07-31T05:53:56.000Z</time>
      </trkpt>
      <trkpt lat="49.71003" lon="5.1757">
        <ele>233.39999389648</ele>
        <time>2022-07-31T05:54:01.000Z</time>
      </trkpt>
      <trkpt lat="49.71038" lon="5.17568">
        <ele>234.19999694824</ele>
        <time>2022-07-31T05:54:10.000Z</time>
      </trkpt>
      <trkpt lat="49.71042" lon="5.17568">
        <ele>234.39999389648</ele>
        <time>2022-07-31T05:54:11.000Z</time>
      </trkpt>
      <trkpt lat="49.71073" lon="5.17567">
        <ele>235.60000610352</ele>
        <time>2022-07-31T05:54:18.000Z</time>
      </trkpt>
      <trkpt lat="49.71112" lon="5.17573">
        <ele>236.80000305176</ele>
        <time>2022-07-31T05:54:27.000Z</time>
      </trkpt>
      <trkpt lat="49.71143" lon="5.17584">
        <ele>240</ele>
        <time>2022-07-31T05:54:35.000Z</time>
      </trkpt>
      <trkpt lat="49.71169" lon="5.17593">
        <ele>240.39999389648</ele>
        <time>2022-07-31T05:54:42.000Z</time>
      </trkpt>
      <trkpt lat="49.71173" lon="5.17594">
        <ele>240.60000610352</ele>
        <time>2022-07-31T05:54:43.000Z</time>
      </trkpt>
      <trkpt lat="49.71192" lon="5.17599">
        <ele>242</ele>
        <time>2022-07-31T05:54:48.000Z</time>
      </trkpt>
      <trkpt lat="49.71204" lon="5.17604">
        <ele>243.19999694824</ele>
        <time>2022-07-31T05:54:52.000Z</time>
      </trkpt>
      <trkpt lat="49.71214" lon="5.17613">
        <ele>244.60000610352</ele>
        <time>2022-07-31T05:54:56.000Z</time>
      </trkpt>
      <trkpt lat="49.71217" lon="5.17618">
        <ele>245.39999389648</ele>
        <time>2022-07-31T05:54:58.000Z</time>
      </trkpt>
      <trkpt lat="49.7122" lon="5.17621">
        <ele>245.60000610352</ele>
        <time>2022-07-31T05:54:59.000Z</time>
      </trkpt>
      <trkpt lat="49.71228" lon="5.17623">
        <ele>246</ele>
        <time>2022-07-31T05:55:02.000Z</time>
      </trkpt>
      <trkpt lat="49.71233" lon="5.17623">
        <ele>245.80000305176</ele>
        <time>2022-07-31T05:55:03.000Z</time>
      </trkpt>
      <trkpt lat="49.71257" lon="5.1762">
        <ele>244.39999389648</ele>
        <time>2022-07-31T05:55:07.000Z</time>
      </trkpt>
      <trkpt lat="49.7128" lon="5.17615">
        <ele>241.60000610352</ele>
        <time>2022-07-31T05:55:10.000Z</time>
      </trkpt>
      <trkpt lat="49.71297" lon="5.17612">
        <ele>240.19999694824</ele>
        <time>2022-07-31T05:55:12.000Z</time>
      </trkpt>
      <trkpt lat="49.71315" lon="5.17612">
        <ele>238.60000610352</ele>
        <time>2022-07-31T05:55:14.000Z</time>
      </trkpt>
      <trkpt lat="49.71325" lon="5.17614">
        <ele>237.80000305176</ele>
        <time>2022-07-31T05:55:15.000Z</time>
      </trkpt>
      <trkpt lat="49.71335" lon="5.17616">
        <ele>236.60000610352</ele>
        <time>2022-07-31T05:55:16.000Z</time>
      </trkpt>
      <trkpt lat="49.71345" lon="5.17622">
        <ele>235.80000305176</ele>
        <time>2022-07-31T05:55:17.000Z</time>
      </trkpt>
      <trkpt lat="49.71355" lon="5.17628">
        <ele>234.80000305176</ele>
        <time>2022-07-31T05:55:18.000Z</time>
      </trkpt>
      <trkpt lat="49.71366" lon="5.17635">
        <ele>233.60000610352</ele>
        <time>2022-07-31T05:55:19.000Z</time>
      </trkpt>
      <trkpt lat="49.71376" lon="5.17643">
        <ele>232.60000610352</ele>
        <time>2022-07-31T05:55:20.000Z</time>
      </trkpt>
      <trkpt lat="49.71386" lon="5.1765">
        <ele>231.60000610352</ele>
        <time>2022-07-31T05:55:21.000Z</time>
      </trkpt>
      <trkpt lat="49.71396" lon="5.17656">
        <ele>230.80000305176</ele>
        <time>2022-07-31T05:55:22.000Z</time>
      </trkpt>
      <trkpt lat="49.71405" lon="5.17663">
        <ele>230.19999694824</ele>
        <time>2022-07-31T05:55:23.000Z</time>
      </trkpt>
      <trkpt lat="49.71413" lon="5.17669">
        <ele>229.60000610352</ele>
        <time>2022-07-31T05:55:24.000Z</time>
      </trkpt>
      <trkpt lat="49.71421" lon="5.17675">
        <ele>229</ele>
        <time>2022-07-31T05:55:25.000Z</time>
      </trkpt>
      <trkpt lat="49.71444" lon="5.17692">
        <ele>228.80000305176</ele>
        <time>2022-07-31T05:55:28.000Z</time>
      </trkpt>
      <trkpt lat="49.7145" lon="5.17696">
        <ele>228.39999389648</ele>
        <time>2022-07-31T05:55:29.000Z</time>
      </trkpt>
      <trkpt lat="49.71455" lon="5.17698">
        <ele>228</ele>
        <time>2022-07-31T05:55:30.000Z</time>
      </trkpt>
      <trkpt lat="49.71466" lon="5.17692">
        <ele>226.80000305176</ele>
        <time>2022-07-31T05:55:32.000Z</time>
      </trkpt>
      <trkpt lat="49.71476" lon="5.17682">
        <ele>226</ele>
        <time>2022-07-31T05:55:34.000Z</time>
      </trkpt>
      <trkpt lat="49.71493" lon="5.17666">
        <ele>224.80000305176</ele>
        <time>2022-07-31T05:55:37.000Z</time>
      </trkpt>
      <trkpt lat="49.71499" lon="5.17661">
        <ele>224.39999389648</ele>
        <time>2022-07-31T05:55:38.000Z</time>
      </trkpt>
      <trkpt lat="49.71511" lon="5.17648">
        <ele>223.60000610352</ele>
        <time>2022-07-31T05:55:40.000Z</time>
      </trkpt>
      <trkpt lat="49.71523" lon="5.17634">
        <ele>222.60000610352</ele>
        <time>2022-07-31T05:55:42.000Z</time>
      </trkpt>
      <trkpt lat="49.71535" lon="5.17621">
        <ele>222</ele>
        <time>2022-07-31T05:55:44.000Z</time>
      </trkpt>
      <trkpt lat="49.71554" lon="5.17597">
        <ele>223.39999389648</ele>
        <time>2022-07-31T05:55:48.000Z</time>
      </trkpt>
      <trkpt lat="49.71557" lon="5.17574">
        <ele>223.60000610352</ele>
        <time>2022-07-31T05:55:51.000Z</time>
      </trkpt>
      <trkpt lat="49.71554" lon="5.1756">
        <ele>223.60000610352</ele>
        <time>2022-07-31T05:55:53.000Z</time>
      </trkpt>
      <trkpt lat="49.71553" lon="5.17553">
        <ele>223.80000305176</ele>
        <time>2022-07-31T05:55:54.000Z</time>
      </trkpt>
      <trkpt lat="49.71551" lon="5.17539">
        <ele>224</ele>
        <time>2022-07-31T05:55:56.000Z</time>
      </trkpt>
      <trkpt lat="49.71541" lon="5.175">
        <ele>223.80000305176</ele>
        <time>2022-07-31T05:56:03.000Z</time>
      </trkpt>
      <trkpt lat="49.7153" lon="5.1748">
        <ele>223.19999694824</ele>
        <time>2022-07-31T05:56:07.000Z</time>
      </trkpt>
      <trkpt lat="49.71523" lon="5.17472">
        <ele>222.80000305176</ele>
        <time>2022-07-31T05:56:09.000Z</time>
      </trkpt>
      <trkpt lat="49.71514" lon="5.17464">
        <ele>222.60000610352</ele>
        <time>2022-07-31T05:56:11.000Z</time>
      </trkpt>
      <trkpt lat="49.71495" lon="5.17443">
        <ele>222</ele>
        <time>2022-07-31T05:56:16.000Z</time>
      </trkpt>
      <trkpt lat="49.71499" lon="5.1743">
        <ele>222.80000305176</ele>
        <time>2022-07-31T05:56:19.000Z</time>
      </trkpt>
      <trkpt lat="49.71509" lon="5.17424">
        <ele>223.19999694824</ele>
        <time>2022-07-31T05:56:22.000Z</time>
      </trkpt>
      <trkpt lat="49.71512" lon="5.1742">
        <ele>223.19999694824</ele>
        <time>2022-07-31T05:56:23.000Z</time>
      </trkpt>
      <trkpt lat="49.71532" lon="5.174">
        <ele>224</ele>
        <time>2022-07-31T05:56:28.000Z</time>
      </trkpt>
      <trkpt lat="49.71536" lon="5.17398">
        <ele>224.19999694824</ele>
        <time>2022-07-31T05:56:29.000Z</time>
      </trkpt>
      <trkpt lat="49.71548" lon="5.17407">
        <ele>225.60000610352</ele>
        <time>2022-07-31T05:56:32.000Z</time>
      </trkpt>
      <trkpt lat="49.71551" lon="5.1741">
        <ele>226</ele>
        <time>2022-07-31T05:56:33.000Z</time>
      </trkpt>
      <trkpt lat="49.71564" lon="5.17423">
        <ele>227.19999694824</ele>
        <time>2022-07-31T05:56:37.000Z</time>
      </trkpt>
      <trkpt lat="49.71571" lon="5.17426">
        <ele>228</ele>
        <time>2022-07-31T05:56:39.000Z</time>
      </trkpt>
      <trkpt lat="49.71577" lon="5.17427">
        <ele>228.60000610352</ele>
        <time>2022-07-31T05:56:41.000Z</time>
      </trkpt>
      <trkpt lat="49.7158" lon="5.17424">
        <ele>228.80000305176</ele>
        <time>2022-07-31T05:56:42.000Z</time>
      </trkpt>
      <trkpt lat="49.71582" lon="5.1742">
        <ele>229</ele>
        <time>2022-07-31T05:56:43.000Z</time>
      </trkpt>
      <trkpt lat="49.7159" lon="5.17409">
        <ele>229.19999694824</ele>
        <time>2022-07-31T05:56:46.000Z</time>
      </trkpt>
      <trkpt lat="49.71601" lon="5.17394">
        <ele>228.80000305176</ele>
        <time>2022-07-31T05:56:50.000Z</time>
      </trkpt>
      <trkpt lat="49.7161" lon="5.17381">
        <ele>228.60000610352</ele>
        <time>2022-07-31T05:56:53.000Z</time>
      </trkpt>
      <trkpt lat="49.71613" lon="5.17377">
        <ele>228.39999389648</ele>
        <time>2022-07-31T05:56:54.000Z</time>
      </trkpt>
      <trkpt lat="49.71637" lon="5.17346">
        <ele>229.39999389648</ele>
        <time>2022-07-31T05:57:01.000Z</time>
      </trkpt>
      <trkpt lat="49.71661" lon="5.17319">
        <ele>230.60000610352</ele>
        <time>2022-07-31T05:57:08.000Z</time>
      </trkpt>
      <trkpt lat="49.71677" lon="5.17293">
        <ele>230.19999694824</ele>
        <time>2022-07-31T05:57:14.000Z</time>
      </trkpt>
      <trkpt lat="49.71691" lon="5.17266">
        <ele>229.39999389648</ele>
        <time>2022-07-31T05:57:20.000Z</time>
      </trkpt>
      <trkpt lat="49.71698" lon="5.17252">
        <ele>228.80000305176</ele>
        <time>2022-07-31T05:57:23.000Z</time>
      </trkpt>
      <trkpt lat="49.71697" lon="5.17244">
        <ele>228.19999694824</ele>
        <time>2022-07-31T05:57:24.000Z</time>
      </trkpt>
      <trkpt lat="49.71691" lon="5.17208">
        <ele>225.80000305176</ele>
        <time>2022-07-31T05:57:28.000Z</time>
      </trkpt>
      <trkpt lat="49.7169" lon="5.17197">
        <ele>225.60000610352</ele>
        <time>2022-07-31T05:57:29.000Z</time>
      </trkpt>
      <trkpt lat="49.7169" lon="5.17187">
        <ele>225.60000610352</ele>
        <time>2022-07-31T05:57:30.000Z</time>
      </trkpt>
      <trkpt lat="49.7169" lon="5.17171">
        <ele>226</ele>
        <time>2022-07-31T05:57:32.000Z</time>
      </trkpt>
      <trkpt lat="49.71695" lon="5.17163">
        <ele>226</ele>
        <time>2022-07-31T05:57:34.000Z</time>
      </trkpt>
      <trkpt lat="49.71697" lon="5.17159">
        <ele>226</ele>
        <time>2022-07-31T05:57:35.000Z</time>
      </trkpt>
      <trkpt lat="49.717" lon="5.17148">
        <ele>226.39999389648</ele>
        <time>2022-07-31T05:57:37.000Z</time>
      </trkpt>
      <trkpt lat="49.717" lon="5.17135">
        <ele>226.80000305176</ele>
        <time>2022-07-31T05:57:39.000Z</time>
      </trkpt>
      <trkpt lat="49.71699" lon="5.171">
        <ele>227</ele>
        <time>2022-07-31T05:57:45.000Z</time>
      </trkpt>
      <trkpt lat="49.71702" lon="5.17076">
        <ele>228</ele>
        <time>2022-07-31T05:57:50.000Z</time>
      </trkpt>
      <trkpt lat="49.71704" lon="5.17067">
        <ele>227.80000305176</ele>
        <time>2022-07-31T05:57:52.000Z</time>
      </trkpt>
      <trkpt lat="49.71708" lon="5.17048">
        <ele>228</ele>
        <time>2022-07-31T05:57:56.000Z</time>
      </trkpt>
      <trkpt lat="49.71709" lon="5.17044">
        <ele>228.19999694824</ele>
        <time>2022-07-31T05:57:57.000Z</time>
      </trkpt>
      <trkpt lat="49.7171" lon="5.17034">
        <ele>228.39999389648</ele>
        <time>2022-07-31T05:57:59.000Z</time>
      </trkpt>
      <trkpt lat="49.71712" lon="5.17017">
        <ele>228.60000610352</ele>
        <time>2022-07-31T05:58:03.000Z</time>
      </trkpt>
      <trkpt lat="49.71724" lon="5.17007">
        <ele>228.60000610352</ele>
        <time>2022-07-31T05:58:07.000Z</time>
      </trkpt>
      <trkpt lat="49.71731" lon="5.17005">
        <ele>228.60000610352</ele>
        <time>2022-07-31T05:58:09.000Z</time>
      </trkpt>
      <trkpt lat="49.71754" lon="5.16998">
        <ele>229.39999389648</ele>
        <time>2022-07-31T05:58:15.000Z</time>
      </trkpt>
      <trkpt lat="49.71772" lon="5.16997">
        <ele>229.80000305176</ele>
        <time>2022-07-31T05:58:19.000Z</time>
      </trkpt>
      <trkpt lat="49.71786" lon="5.17002">
        <ele>230</ele>
        <time>2022-07-31T05:58:22.000Z</time>
      </trkpt>
      <trkpt lat="49.71813" lon="5.17025">
        <ele>228.60000610352</ele>
        <time>2022-07-31T05:58:28.000Z</time>
      </trkpt>
      <trkpt lat="49.71832" lon="5.17051">
        <ele>226.80000305176</ele>
        <time>2022-07-31T05:58:33.000Z</time>
      </trkpt>
      <trkpt lat="49.71838" lon="5.17065">
        <ele>226.39999389648</ele>
        <time>2022-07-31T05:58:35.000Z</time>
      </trkpt>
      <trkpt lat="49.71847" lon="5.17085">
        <ele>226.39999389648</ele>
        <time>2022-07-31T05:58:38.000Z</time>
      </trkpt>
      <trkpt lat="49.71851" lon="5.17089">
        <ele>226.60000610352</ele>
        <time>2022-07-31T05:58:39.000Z</time>
      </trkpt>
      <trkpt lat="49.71855" lon="5.17091">
        <ele>226.60000610352</ele>
        <time>2022-07-31T05:58:40.000Z</time>
      </trkpt>
      <trkpt lat="49.71869" lon="5.17086">
        <ele>226.39999389648</ele>
        <time>2022-07-31T05:58:43.000Z</time>
      </trkpt>
      <trkpt lat="49.71878" lon="5.17079">
        <ele>226.39999389648</ele>
        <time>2022-07-31T05:58:45.000Z</time>
      </trkpt>
      <trkpt lat="49.71892" lon="5.17069">
        <ele>227.19999694824</ele>
        <time>2022-07-31T05:58:48.000Z</time>
      </trkpt>
      <trkpt lat="49.71897" lon="5.17067">
        <ele>227.60000610352</ele>
        <time>2022-07-31T05:58:49.000Z</time>
      </trkpt>
      <trkpt lat="49.71907" lon="5.1707">
        <ele>228.80000305176</ele>
        <time>2022-07-31T05:58:51.000Z</time>
      </trkpt>
      <trkpt lat="49.71917" lon="5.17082">
        <ele>229.60000610352</ele>
        <time>2022-07-31T05:58:54.000Z</time>
      </trkpt>
      <trkpt lat="49.7192" lon="5.17087">
        <ele>229.60000610352</ele>
        <time>2022-07-31T05:58:55.000Z</time>
      </trkpt>
      <trkpt lat="49.71931" lon="5.17109">
        <ele>230.80000305176</ele>
        <time>2022-07-31T05:58:59.000Z</time>
      </trkpt>
      <trkpt lat="49.7194" lon="5.17127">
        <ele>233</ele>
        <time>2022-07-31T05:59:02.000Z</time>
      </trkpt>
      <trkpt lat="49.71944" lon="5.17132">
        <ele>233.80000305176</ele>
        <time>2022-07-31T05:59:03.000Z</time>
      </trkpt>
      <trkpt lat="49.71947" lon="5.17138">
        <ele>234.39999389648</ele>
        <time>2022-07-31T05:59:04.000Z</time>
      </trkpt>
      <trkpt lat="49.71955" lon="5.17148">
        <ele>235.60000610352</ele>
        <time>2022-07-31T05:59:06.000Z</time>
      </trkpt>
      <trkpt lat="49.71962" lon="5.17157">
        <ele>236.60000610352</ele>
        <time>2022-07-31T05:59:08.000Z</time>
      </trkpt>
      <trkpt lat="49.71965" lon="5.17162">
        <ele>236.80000305176</ele>
        <time>2022-07-31T05:59:09.000Z</time>
      </trkpt>
      <trkpt lat="49.71978" lon="5.17174">
        <ele>237.80000305176</ele>
        <time>2022-07-31T05:59:12.000Z</time>
      </trkpt>
      <trkpt lat="49.72019" lon="5.17204">
        <ele>237.39999389648</ele>
        <time>2022-07-31T05:59:21.000Z</time>
      </trkpt>
      <trkpt lat="49.72052" lon="5.17233">
        <ele>237.60000610352</ele>
        <time>2022-07-31T05:59:29.000Z</time>
      </trkpt>
      <trkpt lat="49.72075" lon="5.17259">
        <ele>237.39999389648</ele>
        <time>2022-07-31T05:59:35.000Z</time>
      </trkpt>
      <trkpt lat="49.72079" lon="5.17263">
        <ele>237.39999389648</ele>
        <time>2022-07-31T05:59:36.000Z</time>
      </trkpt>
      <trkpt lat="49.72095" lon="5.17279">
        <ele>237.80000305176</ele>
        <time>2022-07-31T05:59:41.000Z</time>
      </trkpt>
      <trkpt lat="49.72106" lon="5.17288">
        <ele>238.39999389648</ele>
        <time>2022-07-31T05:59:44.000Z</time>
      </trkpt>
      <trkpt lat="49.7213" lon="5.17308">
        <ele>240.39999389648</ele>
        <time>2022-07-31T05:59:50.000Z</time>
      </trkpt>
      <trkpt lat="49.72151" lon="5.17329">
        <ele>242</ele>
        <time>2022-07-31T05:59:56.000Z</time>
      </trkpt>
      <trkpt lat="49.72169" lon="5.17354">
        <ele>241.80000305176</ele>
        <time>2022-07-31T06:00:02.000Z</time>
      </trkpt>
      <trkpt lat="49.72173" lon="5.17359">
        <ele>242</ele>
        <time>2022-07-31T06:00:03.000Z</time>
      </trkpt>
      <trkpt lat="49.72178" lon="5.17371">
        <ele>242.60000610352</ele>
        <time>2022-07-31T06:00:05.000Z</time>
      </trkpt>
      <trkpt lat="49.72187" lon="5.1739">
        <ele>243.60000610352</ele>
        <time>2022-07-31T06:00:08.000Z</time>
      </trkpt>
      <trkpt lat="49.72189" lon="5.17397">
        <ele>243.60000610352</ele>
        <time>2022-07-31T06:00:09.000Z</time>
      </trkpt>
      <trkpt lat="49.72198" lon="5.1743">
        <ele>243</ele>
        <time>2022-07-31T06:00:14.000Z</time>
      </trkpt>
      <trkpt lat="49.72199" lon="5.17436">
        <ele>242.80000305176</ele>
        <time>2022-07-31T06:00:15.000Z</time>
      </trkpt>
      <trkpt lat="49.72203" lon="5.17462">
        <ele>242.80000305176</ele>
        <time>2022-07-31T06:00:19.000Z</time>
      </trkpt>
      <trkpt lat="49.72204" lon="5.17475">
        <ele>242.39999389648</ele>
        <time>2022-07-31T06:00:21.000Z</time>
      </trkpt>
      <trkpt lat="49.72206" lon="5.17482">
        <ele>242.39999389648</ele>
        <time>2022-07-31T06:00:22.000Z</time>
      </trkpt>
      <trkpt lat="49.72209" lon="5.17494">
        <ele>242.39999389648</ele>
        <time>2022-07-31T06:00:24.000Z</time>
      </trkpt>
      <trkpt lat="49.72219" lon="5.1754">
        <ele>241.60000610352</ele>
        <time>2022-07-31T06:00:31.000Z</time>
      </trkpt>
      <trkpt lat="49.72226" lon="5.17561">
        <ele>241.60000610352</ele>
        <time>2022-07-31T06:00:34.000Z</time>
      </trkpt>
      <trkpt lat="49.72232" lon="5.17575">
        <ele>241.39999389648</ele>
        <time>2022-07-31T06:00:36.000Z</time>
      </trkpt>
      <trkpt lat="49.72233" lon="5.17582">
        <ele>241.19999694824</ele>
        <time>2022-07-31T06:00:37.000Z</time>
      </trkpt>
      <trkpt lat="49.72247" lon="5.17613">
        <ele>241.60000610352</ele>
        <time>2022-07-31T06:00:42.000Z</time>
      </trkpt>
      <trkpt lat="49.72265" lon="5.17632">
        <ele>242.39999389648</ele>
        <time>2022-07-31T06:00:47.000Z</time>
      </trkpt>
      <trkpt lat="49.72271" lon="5.17635">
        <ele>242.60000610352</ele>
        <time>2022-07-31T06:00:48.000Z</time>
      </trkpt>
      <trkpt lat="49.72281" lon="5.17641">
        <ele>243</ele>
        <time>2022-07-31T06:00:50.000Z</time>
      </trkpt>
      <trkpt lat="49.72301" lon="5.17651">
        <ele>242.39999389648</ele>
        <time>2022-07-31T06:00:54.000Z</time>
      </trkpt>
      <trkpt lat="49.72325" lon="5.17665">
        <ele>241.60000610352</ele>
        <time>2022-07-31T06:01:00.000Z</time>
      </trkpt>
      <trkpt lat="49.7233" lon="5.17667">
        <ele>241.60000610352</ele>
        <time>2022-07-31T06:01:01.000Z</time>
      </trkpt>
      <trkpt lat="49.72333" lon="5.1767">
        <ele>241.39999389648</ele>
        <time>2022-07-31T06:01:02.000Z</time>
      </trkpt>
      <trkpt lat="49.72346" lon="5.17682">
        <ele>240.80000305176</ele>
        <time>2022-07-31T06:01:07.000Z</time>
      </trkpt>
      <trkpt lat="49.72355" lon="5.17689">
        <ele>241.19999694824</ele>
        <time>2022-07-31T06:01:10.000Z</time>
      </trkpt>
      <trkpt lat="49.72369" lon="5.17701">
        <ele>242.19999694824</ele>
        <time>2022-07-31T06:01:14.000Z</time>
      </trkpt>
      <trkpt lat="49.72387" lon="5.17713">
        <ele>245.39999389648</ele>
        <time>2022-07-31T06:01:18.000Z</time>
      </trkpt>
      <trkpt lat="49.72397" lon="5.1772">
        <ele>247.19999694824</ele>
        <time>2022-07-31T06:01:20.000Z</time>
      </trkpt>
      <trkpt lat="49.72408" lon="5.17732">
        <ele>248.39999389648</ele>
        <time>2022-07-31T06:01:22.000Z</time>
      </trkpt>
      <trkpt lat="49.72415" lon="5.17746">
        <ele>249</ele>
        <time>2022-07-31T06:01:24.000Z</time>
      </trkpt>
      <trkpt lat="49.72418" lon="5.17752">
        <ele>249</ele>
        <time>2022-07-31T06:01:25.000Z</time>
      </trkpt>
      <trkpt lat="49.72429" lon="5.17782">
        <ele>250</ele>
        <time>2022-07-31T06:01:30.000Z</time>
      </trkpt>
      <trkpt lat="49.7244" lon="5.17807">
        <ele>251.60000610352</ele>
        <time>2022-07-31T06:01:34.000Z</time>
      </trkpt>
      <trkpt lat="49.72451" lon="5.17838">
        <ele>254</ele>
        <time>2022-07-31T06:01:39.000Z</time>
      </trkpt>
      <trkpt lat="49.72454" lon="5.17843">
        <ele>254.60000610352</ele>
        <time>2022-07-31T06:01:40.000Z</time>
      </trkpt>
      <trkpt lat="49.72459" lon="5.17855">
        <ele>255.60000610352</ele>
        <time>2022-07-31T06:01:42.000Z</time>
      </trkpt>
      <trkpt lat="49.72465" lon="5.17875">
        <ele>257.39999389648</ele>
        <time>2022-07-31T06:01:45.000Z</time>
      </trkpt>
      <trkpt lat="49.72467" lon="5.17882">
        <ele>258</ele>
        <time>2022-07-31T06:01:46.000Z</time>
      </trkpt>
      <trkpt lat="49.7247" lon="5.17895">
        <ele>258</ele>
        <time>2022-07-31T06:01:48.000Z</time>
      </trkpt>
      <trkpt lat="49.72474" lon="5.17914">
        <ele>258.20001220703</ele>
        <time>2022-07-31T06:01:51.000Z</time>
      </trkpt>
      <trkpt lat="49.7249" lon="5.17971">
        <ele>259</ele>
        <time>2022-07-31T06:02:00.000Z</time>
      </trkpt>
      <trkpt lat="49.72501" lon="5.18008">
        <ele>258.39999389648</ele>
        <time>2022-07-31T06:02:06.000Z</time>
      </trkpt>
      <trkpt lat="49.72503" lon="5.18014">
        <ele>258.20001220703</ele>
        <time>2022-07-31T06:02:07.000Z</time>
      </trkpt>
      <trkpt lat="49.72513" lon="5.18067">
        <ele>257.20001220703</ele>
        <time>2022-07-31T06:02:15.000Z</time>
      </trkpt>
      <trkpt lat="49.72515" lon="5.18094">
        <ele>256.20001220703</ele>
        <time>2022-07-31T06:02:19.000Z</time>
      </trkpt>
      <trkpt lat="49.72514" lon="5.18107">
        <ele>255.39999389648</ele>
        <time>2022-07-31T06:02:21.000Z</time>
      </trkpt>
      <trkpt lat="49.72511" lon="5.18163">
        <ele>252</ele>
        <time>2022-07-31T06:02:29.000Z</time>
      </trkpt>
      <trkpt lat="49.72512" lon="5.1817">
        <ele>251.60000610352</ele>
        <time>2022-07-31T06:02:30.000Z</time>
      </trkpt>
      <trkpt lat="49.72512" lon="5.18199">
        <ele>250.39999389648</ele>
        <time>2022-07-31T06:02:34.000Z</time>
      </trkpt>
      <trkpt lat="49.72513" lon="5.1822">
        <ele>250.39999389648</ele>
        <time>2022-07-31T06:02:37.000Z</time>
      </trkpt>
      <trkpt lat="49.72516" lon="5.18249">
        <ele>250.39999389648</ele>
        <time>2022-07-31T06:02:41.000Z</time>
      </trkpt>
      <trkpt lat="49.72518" lon="5.18282">
        <ele>251</ele>
        <time>2022-07-31T06:02:46.000Z</time>
      </trkpt>
      <trkpt lat="49.72523" lon="5.18321">
        <ele>251</ele>
        <time>2022-07-31T06:02:52.000Z</time>
      </trkpt>
      <trkpt lat="49.72525" lon="5.1834">
        <ele>251.60000610352</ele>
        <time>2022-07-31T06:02:55.000Z</time>
      </trkpt>
      <trkpt lat="49.72532" lon="5.18373">
        <ele>251.19999694824</ele>
        <time>2022-07-31T06:03:01.000Z</time>
      </trkpt>
      <trkpt lat="49.72534" lon="5.18378">
        <ele>251</ele>
        <time>2022-07-31T06:03:02.000Z</time>
      </trkpt>
      <trkpt lat="49.72545" lon="5.18425">
        <ele>252.39999389648</ele>
        <time>2022-07-31T06:03:11.000Z</time>
      </trkpt>
      <trkpt lat="49.72553" lon="5.18465">
        <ele>253.60000610352</ele>
        <time>2022-07-31T06:03:19.000Z</time>
      </trkpt>
      <trkpt lat="49.72557" lon="5.1848">
        <ele>253.80000305176</ele>
        <time>2022-07-31T06:03:22.000Z</time>
      </trkpt>
      <trkpt lat="49.72562" lon="5.18505">
        <ele>253.60000610352</ele>
        <time>2022-07-31T06:03:27.000Z</time>
      </trkpt>
      <trkpt lat="49.7257" lon="5.18534">
        <ele>253</ele>
        <time>2022-07-31T06:03:33.000Z</time>
      </trkpt>
      <trkpt lat="49.72573" lon="5.18544">
        <ele>252.80000305176</ele>
        <time>2022-07-31T06:03:35.000Z</time>
      </trkpt>
      <trkpt lat="49.72579" lon="5.18574">
        <ele>251.60000610352</ele>
        <time>2022-07-31T06:03:41.000Z</time>
      </trkpt>
      <trkpt lat="49.72582" lon="5.18583">
        <ele>251</ele>
        <time>2022-07-31T06:03:43.000Z</time>
      </trkpt>
      <trkpt lat="49.72594" lon="5.18615">
        <ele>251</ele>
        <time>2022-07-31T06:03:50.000Z</time>
      </trkpt>
      <trkpt lat="49.72596" lon="5.18619">
        <ele>251.60000610352</ele>
        <time>2022-07-31T06:03:51.000Z</time>
      </trkpt>
      <trkpt lat="49.72612" lon="5.18649">
        <ele>254.19999694824</ele>
        <time>2022-07-31T06:03:58.000Z</time>
      </trkpt>
      <trkpt lat="49.72614" lon="5.18653">
        <ele>254.60000610352</ele>
        <time>2022-07-31T06:03:59.000Z</time>
      </trkpt>
      <trkpt lat="49.72632" lon="5.18683">
        <ele>257.60000610352</ele>
        <time>2022-07-31T06:04:06.000Z</time>
      </trkpt>
      <trkpt lat="49.7264" lon="5.18693">
        <ele>258.79998779297</ele>
        <time>2022-07-31T06:04:08.000Z</time>
      </trkpt>
      <trkpt lat="49.72654" lon="5.18712">
        <ele>260.79998779297</ele>
        <time>2022-07-31T06:04:12.000Z</time>
      </trkpt>
      <trkpt lat="49.7266" lon="5.18725">
        <ele>262.20001220703</ele>
        <time>2022-07-31T06:04:15.000Z</time>
      </trkpt>
      <trkpt lat="49.72667" lon="5.18739">
        <ele>263.60000610352</ele>
        <time>2022-07-31T06:04:18.000Z</time>
      </trkpt>
      <trkpt lat="49.72677" lon="5.18761">
        <ele>265.79998779297</ele>
        <time>2022-07-31T06:04:23.000Z</time>
      </trkpt>
      <trkpt lat="49.72681" lon="5.18769">
        <ele>266.79998779297</ele>
        <time>2022-07-31T06:04:25.000Z</time>
      </trkpt>
      <trkpt lat="49.727" lon="5.18802">
        <ele>269.79998779297</ele>
        <time>2022-07-31T06:04:33.000Z</time>
      </trkpt>
      <trkpt lat="49.72703" lon="5.18806">
        <ele>269.79998779297</ele>
        <time>2022-07-31T06:04:34.000Z</time>
      </trkpt>
      <trkpt lat="49.72716" lon="5.18829">
        <ele>269.79998779297</ele>
        <time>2022-07-31T06:04:39.000Z</time>
      </trkpt>
      <trkpt lat="49.72732" lon="5.18851">
        <ele>269.20001220703</ele>
        <time>2022-07-31T06:04:44.000Z</time>
      </trkpt>
      <trkpt lat="49.72749" lon="5.18869">
        <ele>268.60000610352</ele>
        <time>2022-07-31T06:04:49.000Z</time>
      </trkpt>
      <trkpt lat="49.72763" lon="5.18874">
        <ele>268.60000610352</ele>
        <time>2022-07-31T06:04:53.000Z</time>
      </trkpt>
      <trkpt lat="49.72773" lon="5.18875">
        <ele>269</ele>
        <time>2022-07-31T06:04:57.000Z</time>
      </trkpt>
      <trkpt lat="49.72781" lon="5.18874">
        <ele>269.20001220703</ele>
        <time>2022-07-31T06:05:00.000Z</time>
      </trkpt>
      <trkpt lat="49.7279" lon="5.18871">
        <ele>269.79998779297</ele>
        <time>2022-07-31T06:05:03.000Z</time>
      </trkpt>
      <trkpt lat="49.72796" lon="5.18868">
        <ele>270.60000610352</ele>
        <time>2022-07-31T06:05:06.000Z</time>
      </trkpt>
      <trkpt lat="49.72809" lon="5.18865">
        <ele>272.60000610352</ele>
        <time>2022-07-31T06:05:10.000Z</time>
      </trkpt>
      <trkpt lat="49.72813" lon="5.18869">
        <ele>273.20001220703</ele>
        <time>2022-07-31T06:05:11.000Z</time>
      </trkpt>
      <trkpt lat="49.72818" lon="5.18871">
        <ele>274.20001220703</ele>
        <time>2022-07-31T06:05:12.000Z</time>
      </trkpt>
      <trkpt lat="49.72825" lon="5.18879">
        <ele>275.39999389648</ele>
        <time>2022-07-31T06:05:15.000Z</time>
      </trkpt>
      <trkpt lat="49.72827" lon="5.18882">
        <ele>275.79998779297</ele>
        <time>2022-07-31T06:05:16.000Z</time>
      </trkpt>
      <trkpt lat="49.7283" lon="5.18885">
        <ele>276</ele>
        <time>2022-07-31T06:05:17.000Z</time>
      </trkpt>
      <trkpt lat="49.72836" lon="5.18903">
        <ele>276.60000610352</ele>
        <time>2022-07-31T06:05:22.000Z</time>
      </trkpt>
      <trkpt lat="49.72838" lon="5.18909">
        <ele>276.79998779297</ele>
        <time>2022-07-31T06:05:24.000Z</time>
      </trkpt>
      <trkpt lat="49.72843" lon="5.18919">
        <ele>277.39999389648</ele>
        <time>2022-07-31T06:05:28.000Z</time>
      </trkpt>
      <trkpt lat="49.72845" lon="5.18921">
        <ele>277.60000610352</ele>
        <time>2022-07-31T06:05:30.000Z</time>
      </trkpt>
      <trkpt lat="49.72847" lon="5.18917">
        <ele>277.79998779297</ele>
        <time>2022-07-31T06:09:39.000Z</time>
      </trkpt>
      <trkpt lat="49.72841" lon="5.18896">
        <ele>277.60000610352</ele>
        <time>2022-07-31T06:09:43.000Z</time>
      </trkpt>
      <trkpt lat="49.72839" lon="5.18882">
        <ele>277.79998779297</ele>
        <time>2022-07-31T06:09:45.000Z</time>
      </trkpt>
      <trkpt lat="49.7284" lon="5.18876">
        <ele>278</ele>
        <time>2022-07-31T06:09:46.000Z</time>
      </trkpt>
      <trkpt lat="49.72842" lon="5.18866">
        <ele>278.39999389648</ele>
        <time>2022-07-31T06:09:48.000Z</time>
      </trkpt>
      <trkpt lat="49.72847" lon="5.18863">
        <ele>278.79998779297</ele>
        <time>2022-07-31T06:09:50.000Z</time>
      </trkpt>
      <trkpt lat="49.72849" lon="5.18863">
        <ele>279</ele>
        <time>2022-07-31T06:09:51.000Z</time>
      </trkpt>
      <trkpt lat="49.7286" lon="5.18862">
        <ele>280.20001220703</ele>
        <time>2022-07-31T06:09:57.000Z</time>
      </trkpt>
      <trkpt lat="49.72876" lon="5.18861">
        <ele>282</ele>
        <time>2022-07-31T06:10:03.000Z</time>
      </trkpt>
      <trkpt lat="49.7288" lon="5.18861">
        <ele>282.79998779297</ele>
        <time>2022-07-31T06:10:04.000Z</time>
      </trkpt>
      <trkpt lat="49.72899" lon="5.18858">
        <ele>286.60000610352</ele>
        <time>2022-07-31T06:10:10.000Z</time>
      </trkpt>
      <trkpt lat="49.7292" lon="5.18849">
        <ele>289</ele>
        <time>2022-07-31T06:10:16.000Z</time>
      </trkpt>
      <trkpt lat="49.72922" lon="5.18847">
        <ele>289.39999389648</ele>
        <time>2022-07-31T06:10:17.000Z</time>
      </trkpt>
      <trkpt lat="49.72934" lon="5.18836">
        <ele>290.20001220703</ele>
        <time>2022-07-31T06:10:22.000Z</time>
      </trkpt>
      <trkpt lat="49.72936" lon="5.18833">
        <ele>290.60000610352</ele>
        <time>2022-07-31T06:10:23.000Z</time>
      </trkpt>
      <trkpt lat="49.72946" lon="5.18822">
        <ele>292</ele>
        <time>2022-07-31T06:10:27.000Z</time>
      </trkpt>
      <trkpt lat="49.72954" lon="5.18815">
        <ele>292.39999389648</ele>
        <time>2022-07-31T06:10:30.000Z</time>
      </trkpt>
      <trkpt lat="49.72967" lon="5.18804">
        <ele>292</ele>
        <time>2022-07-31T06:10:34.000Z</time>
      </trkpt>
      <trkpt lat="49.72978" lon="5.18796">
        <ele>292</ele>
        <time>2022-07-31T06:10:37.000Z</time>
      </trkpt>
      <trkpt lat="49.72992" lon="5.1878">
        <ele>292</ele>
        <time>2022-07-31T06:10:43.000Z</time>
      </trkpt>
      <trkpt lat="49.73002" lon="5.1877">
        <ele>292.39999389648</ele>
        <time>2022-07-31T06:10:48.000Z</time>
      </trkpt>
      <trkpt lat="49.73007" lon="5.18765">
        <ele>292.39999389648</ele>
        <time>2022-07-31T06:10:50.000Z</time>
      </trkpt>
      <trkpt lat="49.73012" lon="5.18759">
        <ele>292.20001220703</ele>
        <time>2022-07-31T06:10:52.000Z</time>
      </trkpt>
      <trkpt lat="49.73015" lon="5.18756">
        <ele>292</ele>
        <time>2022-07-31T06:10:53.000Z</time>
      </trkpt>
      <trkpt lat="49.73021" lon="5.18749">
        <ele>292</ele>
        <time>2022-07-31T06:10:56.000Z</time>
      </trkpt>
      <trkpt lat="49.73034" lon="5.18733">
        <ele>293</ele>
        <time>2022-07-31T06:11:02.000Z</time>
      </trkpt>
      <trkpt lat="49.7305" lon="5.18716">
        <ele>293.39999389648</ele>
        <time>2022-07-31T06:11:07.000Z</time>
      </trkpt>
      <trkpt lat="49.73059" lon="5.18705">
        <ele>293.39999389648</ele>
        <time>2022-07-31T06:11:10.000Z</time>
      </trkpt>
      <trkpt lat="49.73072" lon="5.1869">
        <ele>294.39999389648</ele>
        <time>2022-07-31T06:11:14.000Z</time>
      </trkpt>
      <trkpt lat="49.7308" lon="5.18681">
        <ele>294.60000610352</ele>
        <time>2022-07-31T06:11:17.000Z</time>
      </trkpt>
      <trkpt lat="49.73097" lon="5.18658">
        <ele>294</ele>
        <time>2022-07-31T06:11:24.000Z</time>
      </trkpt>
      <trkpt lat="49.73114" lon="5.18637">
        <ele>293.79998779297</ele>
        <time>2022-07-31T06:11:31.000Z</time>
      </trkpt>
      <trkpt lat="49.73116" lon="5.18634">
        <ele>293.79998779297</ele>
        <time>2022-07-31T06:11:32.000Z</time>
      </trkpt>
      <trkpt lat="49.73128" lon="5.18613">
        <ele>295.39999389648</ele>
        <time>2022-07-31T06:11:39.000Z</time>
      </trkpt>
      <trkpt lat="49.73153" lon="5.18581">
        <ele>298.20001220703</ele>
        <time>2022-07-31T06:11:47.000Z</time>
      </trkpt>
      <trkpt lat="49.7316" lon="5.18572">
        <ele>299</ele>
        <time>2022-07-31T06:11:49.000Z</time>
      </trkpt>
      <trkpt lat="49.73177" lon="5.18547">
        <ele>301.39999389648</ele>
        <time>2022-07-31T06:11:55.000Z</time>
      </trkpt>
      <trkpt lat="49.732" lon="5.18512">
        <ele>303</ele>
        <time>2022-07-31T06:12:04.000Z</time>
      </trkpt>
      <trkpt lat="49.73202" lon="5.18508">
        <ele>302.79998779297</ele>
        <time>2022-07-31T06:12:05.000Z</time>
      </trkpt>
      <trkpt lat="49.73221" lon="5.18482">
        <ele>302.20001220703</ele>
        <time>2022-07-31T06:12:12.000Z</time>
      </trkpt>
      <trkpt lat="49.73238" lon="5.18457">
        <ele>300.60000610352</ele>
        <time>2022-07-31T06:12:19.000Z</time>
      </trkpt>
      <trkpt lat="49.73242" lon="5.18451">
        <ele>300.79998779297</ele>
        <time>2022-07-31T06:12:21.000Z</time>
      </trkpt>
      <trkpt lat="49.73256" lon="5.1843">
        <ele>298.39999389648</ele>
        <time>2022-07-31T06:12:27.000Z</time>
      </trkpt>
      <trkpt lat="49.73264" lon="5.18423">
        <ele>300</ele>
        <time>2022-07-31T06:12:30.000Z</time>
      </trkpt>
      <trkpt lat="49.73273" lon="5.18414">
        <ele>300.39999389648</ele>
        <time>2022-07-31T06:12:34.000Z</time>
      </trkpt>
      <trkpt lat="49.73283" lon="5.18404">
        <ele>300.20001220703</ele>
        <time>2022-07-31T06:12:38.000Z</time>
      </trkpt>
      <trkpt lat="49.73291" lon="5.18397">
        <ele>301.20001220703</ele>
        <time>2022-07-31T06:12:41.000Z</time>
      </trkpt>
      <trkpt lat="49.73303" lon="5.18386">
        <ele>301</ele>
        <time>2022-07-31T06:12:46.000Z</time>
      </trkpt>
      <trkpt lat="49.73318" lon="5.18369">
        <ele>301</ele>
        <time>2022-07-31T06:12:52.000Z</time>
      </trkpt>
      <trkpt lat="49.73326" lon="5.1836">
        <ele>302.20001220703</ele>
        <time>2022-07-31T06:12:55.000Z</time>
      </trkpt>
      <trkpt lat="49.73339" lon="5.18345">
        <ele>303.39999389648</ele>
        <time>2022-07-31T06:13:01.000Z</time>
      </trkpt>
      <trkpt lat="49.73347" lon="5.18336">
        <ele>305.60000610352</ele>
        <time>2022-07-31T06:13:04.000Z</time>
      </trkpt>
      <trkpt lat="49.73358" lon="5.18326">
        <ele>306.39999389648</ele>
        <time>2022-07-31T06:13:08.000Z</time>
      </trkpt>
      <trkpt lat="49.73368" lon="5.18314">
        <ele>307.20001220703</ele>
        <time>2022-07-31T06:13:13.000Z</time>
      </trkpt>
      <trkpt lat="49.73377" lon="5.18305">
        <ele>308</ele>
        <time>2022-07-31T06:13:16.000Z</time>
      </trkpt>
      <trkpt lat="49.73392" lon="5.18291">
        <ele>308.39999389648</ele>
        <time>2022-07-31T06:13:21.000Z</time>
      </trkpt>
      <trkpt lat="49.73395" lon="5.18288">
        <ele>308.20001220703</ele>
        <time>2022-07-31T06:13:22.000Z</time>
      </trkpt>
      <trkpt lat="49.73415" lon="5.18276">
        <ele>307</ele>
        <time>2022-07-31T06:13:29.000Z</time>
      </trkpt>
      <trkpt lat="49.7342" lon="5.18273">
        <ele>306.20001220703</ele>
        <time>2022-07-31T06:13:31.000Z</time>
      </trkpt>
      <trkpt lat="49.73435" lon="5.18267">
        <ele>305.79998779297</ele>
        <time>2022-07-31T06:13:35.000Z</time>
      </trkpt>
      <trkpt lat="49.7345" lon="5.18261">
        <ele>305</ele>
        <time>2022-07-31T06:13:40.000Z</time>
      </trkpt>
      <trkpt lat="49.73458" lon="5.1826">
        <ele>305.20001220703</ele>
        <time>2022-07-31T06:13:42.000Z</time>
      </trkpt>
      <trkpt lat="49.7348" lon="5.18256">
        <ele>307</ele>
        <time>2022-07-31T06:13:47.000Z</time>
      </trkpt>
      <trkpt lat="49.73493" lon="5.18257">
        <ele>307.39999389648</ele>
        <time>2022-07-31T06:13:50.000Z</time>
      </trkpt>
      <trkpt lat="49.73516" lon="5.18261">
        <ele>307.79998779297</ele>
        <time>2022-07-31T06:13:55.000Z</time>
      </trkpt>
      <trkpt lat="49.73526" lon="5.18265">
        <ele>308</ele>
        <time>2022-07-31T06:13:58.000Z</time>
      </trkpt>
      <trkpt lat="49.73545" lon="5.18285">
        <ele>309.39999389648</ele>
        <time>2022-07-31T06:14:04.000Z</time>
      </trkpt>
      <trkpt lat="49.73566" lon="5.18322">
        <ele>312</ele>
        <time>2022-07-31T06:14:13.000Z</time>
      </trkpt>
      <trkpt lat="49.7357" lon="5.18331">
        <ele>312.60000610352</ele>
        <time>2022-07-31T06:14:15.000Z</time>
      </trkpt>
      <trkpt lat="49.73586" lon="5.18363">
        <ele>315.79998779297</ele>
        <time>2022-07-31T06:14:22.000Z</time>
      </trkpt>
      <trkpt lat="49.73588" lon="5.18367">
        <ele>315.79998779297</ele>
        <time>2022-07-31T06:14:23.000Z</time>
      </trkpt>
      <trkpt lat="49.73601" lon="5.18393">
        <ele>316</ele>
        <time>2022-07-31T06:14:29.000Z</time>
      </trkpt>
      <trkpt lat="49.73606" lon="5.18407">
        <ele>315.60000610352</ele>
        <time>2022-07-31T06:14:32.000Z</time>
      </trkpt>
      <trkpt lat="49.73618" lon="5.18442">
        <ele>313.79998779297</ele>
        <time>2022-07-31T06:14:39.000Z</time>
      </trkpt>
      <trkpt lat="49.73619" lon="5.18447">
        <ele>313.60000610352</ele>
        <time>2022-07-31T06:14:40.000Z</time>
      </trkpt>
      <trkpt lat="49.73627" lon="5.18487">
        <ele>313.39999389648</ele>
        <time>2022-07-31T06:14:48.000Z</time>
      </trkpt>
      <trkpt lat="49.73636" lon="5.18522">
        <ele>314.39999389648</ele>
        <time>2022-07-31T06:14:55.000Z</time>
      </trkpt>
      <trkpt lat="49.73638" lon="5.18527">
        <ele>314.60000610352</ele>
        <time>2022-07-31T06:14:56.000Z</time>
      </trkpt>
      <trkpt lat="49.73653" lon="5.18562">
        <ele>316.39999389648</ele>
        <time>2022-07-31T06:15:03.000Z</time>
      </trkpt>
      <trkpt lat="49.73657" lon="5.18571">
        <ele>317.20001220703</ele>
        <time>2022-07-31T06:15:05.000Z</time>
      </trkpt>
      <trkpt lat="49.73668" lon="5.18601">
        <ele>318.39999389648</ele>
        <time>2022-07-31T06:15:11.000Z</time>
      </trkpt>
      <trkpt lat="49.73673" lon="5.18617">
        <ele>317.39999389648</ele>
        <time>2022-07-31T06:15:14.000Z</time>
      </trkpt>
      <trkpt lat="49.73684" lon="5.18652">
        <ele>317.39999389648</ele>
        <time>2022-07-31T06:15:21.000Z</time>
      </trkpt>
      <trkpt lat="49.73688" lon="5.18666">
        <ele>317.60000610352</ele>
        <time>2022-07-31T06:15:24.000Z</time>
      </trkpt>
      <trkpt lat="49.73694" lon="5.18691">
        <ele>318.39999389648</ele>
        <time>2022-07-31T06:15:29.000Z</time>
      </trkpt>
      <trkpt lat="49.737" lon="5.18716">
        <ele>319.39999389648</ele>
        <time>2022-07-31T06:15:34.000Z</time>
      </trkpt>
      <trkpt lat="49.73704" lon="5.18727">
        <ele>320.39999389648</ele>
        <time>2022-07-31T06:15:36.000Z</time>
      </trkpt>
      <trkpt lat="49.73709" lon="5.18742">
        <ele>322</ele>
        <time>2022-07-31T06:15:39.000Z</time>
      </trkpt>
      <trkpt lat="49.73715" lon="5.18772">
        <ele>324.60000610352</ele>
        <time>2022-07-31T06:15:45.000Z</time>
      </trkpt>
      <trkpt lat="49.7372" lon="5.18792">
        <ele>325.60000610352</ele>
        <time>2022-07-31T06:15:49.000Z</time>
      </trkpt>
      <trkpt lat="49.73725" lon="5.18814">
        <ele>325.60000610352</ele>
        <time>2022-07-31T06:15:53.000Z</time>
      </trkpt>
      <trkpt lat="49.7373" lon="5.18835">
        <ele>324.60000610352</ele>
        <time>2022-07-31T06:15:57.000Z</time>
      </trkpt>
      <trkpt lat="49.73737" lon="5.18855">
        <ele>323.79998779297</ele>
        <time>2022-07-31T06:16:01.000Z</time>
      </trkpt>
      <trkpt lat="49.73741" lon="5.18875">
        <ele>324.79998779297</ele>
        <time>2022-07-31T06:16:05.000Z</time>
      </trkpt>
      <trkpt lat="49.73744" lon="5.1889">
        <ele>325.60000610352</ele>
        <time>2022-07-31T06:16:08.000Z</time>
      </trkpt>
      <trkpt lat="49.73749" lon="5.18909">
        <ele>327</ele>
        <time>2022-07-31T06:16:12.000Z</time>
      </trkpt>
      <trkpt lat="49.73752" lon="5.1892">
        <ele>327.79998779297</ele>
        <time>2022-07-31T06:16:14.000Z</time>
      </trkpt>
      <trkpt lat="49.73761" lon="5.1894">
        <ele>329.39999389648</ele>
        <time>2022-07-31T06:16:19.000Z</time>
      </trkpt>
      <trkpt lat="49.73765" lon="5.18945">
        <ele>330</ele>
        <time>2022-07-31T06:16:21.000Z</time>
      </trkpt>
      <trkpt lat="49.73775" lon="5.18949">
        <ele>330.39999389648</ele>
        <time>2022-07-31T06:16:24.000Z</time>
      </trkpt>
      <trkpt lat="49.73786" lon="5.18949">
        <ele>330.39999389648</ele>
        <time>2022-07-31T06:16:27.000Z</time>
      </trkpt>
      <trkpt lat="49.73796" lon="5.18945">
        <ele>330</ele>
        <time>2022-07-31T06:16:30.000Z</time>
      </trkpt>
      <trkpt lat="49.73807" lon="5.18937">
        <ele>329.79998779297</ele>
        <time>2022-07-31T06:16:34.000Z</time>
      </trkpt>
      <trkpt lat="49.73811" lon="5.18932">
        <ele>329.60000610352</ele>
        <time>2022-07-31T06:16:36.000Z</time>
      </trkpt>
      <trkpt lat="49.73819" lon="5.18925">
        <ele>329.60000610352</ele>
        <time>2022-07-31T06:16:40.000Z</time>
      </trkpt>
      <trkpt lat="49.73824" lon="5.18921">
        <ele>329.79998779297</ele>
        <time>2022-07-31T06:16:42.000Z</time>
      </trkpt>
      <trkpt lat="49.73832" lon="5.18913">
        <ele>329.79998779297</ele>
        <time>2022-07-31T06:16:45.000Z</time>
      </trkpt>
      <trkpt lat="49.73839" lon="5.18903">
        <ele>330</ele>
        <time>2022-07-31T06:16:48.000Z</time>
      </trkpt>
      <trkpt lat="49.73844" lon="5.18897">
        <ele>330.39999389648</ele>
        <time>2022-07-31T06:16:50.000Z</time>
      </trkpt>
      <trkpt lat="49.73854" lon="5.1888">
        <ele>331</ele>
        <time>2022-07-31T06:16:55.000Z</time>
      </trkpt>
      <trkpt lat="49.73856" lon="5.18877">
        <ele>331.39999389648</ele>
        <time>2022-07-31T06:16:56.000Z</time>
      </trkpt>
      <trkpt lat="49.73864" lon="5.18865">
        <ele>333</ele>
        <time>2022-07-31T06:17:00.000Z</time>
      </trkpt>
      <trkpt lat="49.73869" lon="5.18859">
        <ele>333.60000610352</ele>
        <time>2022-07-31T06:17:02.000Z</time>
      </trkpt>
      <trkpt lat="49.7388" lon="5.18847">
        <ele>334</ele>
        <time>2022-07-31T06:17:06.000Z</time>
      </trkpt>
      <trkpt lat="49.73891" lon="5.18841">
        <ele>334.60000610352</ele>
        <time>2022-07-31T06:17:09.000Z</time>
      </trkpt>
      <trkpt lat="49.73899" lon="5.18835">
        <ele>336</ele>
        <time>2022-07-31T06:17:11.000Z</time>
      </trkpt>
      <trkpt lat="49.73913" lon="5.18823">
        <ele>337.20001220703</ele>
        <time>2022-07-31T06:17:15.000Z</time>
      </trkpt>
      <trkpt lat="49.73917" lon="5.18821">
        <ele>337.60000610352</ele>
        <time>2022-07-31T06:17:16.000Z</time>
      </trkpt>
      <trkpt lat="49.73931" lon="5.18809">
        <ele>339.39999389648</ele>
        <time>2022-07-31T06:17:21.000Z</time>
      </trkpt>
      <trkpt lat="49.73943" lon="5.18796">
        <ele>339.39999389648</ele>
        <time>2022-07-31T06:17:25.000Z</time>
      </trkpt>
      <trkpt lat="49.73952" lon="5.18786">
        <ele>340.20001220703</ele>
        <time>2022-07-31T06:17:28.000Z</time>
      </trkpt>
      <trkpt lat="49.73961" lon="5.18776">
        <ele>341</ele>
        <time>2022-07-31T06:17:31.000Z</time>
      </trkpt>
      <trkpt lat="49.7397" lon="5.18769">
        <ele>340.60000610352</ele>
        <time>2022-07-31T06:17:34.000Z</time>
      </trkpt>
      <trkpt lat="49.73977" lon="5.18766">
        <ele>340.60000610352</ele>
        <time>2022-07-31T06:17:36.000Z</time>
      </trkpt>
      <trkpt lat="49.73988" lon="5.18763">
        <ele>340.79998779297</ele>
        <time>2022-07-31T06:17:40.000Z</time>
      </trkpt>
      <trkpt lat="49.73991" lon="5.18763">
        <ele>341</ele>
        <time>2022-07-31T06:17:41.000Z</time>
      </trkpt>
      <trkpt lat="49.74005" lon="5.18762">
        <ele>340.79998779297</ele>
        <time>2022-07-31T06:17:46.000Z</time>
      </trkpt>
      <trkpt lat="49.74015" lon="5.18764">
        <ele>341.79998779297</ele>
        <time>2022-07-31T06:17:50.000Z</time>
      </trkpt>
      <trkpt lat="49.74023" lon="5.18764">
        <ele>343</ele>
        <time>2022-07-31T06:17:53.000Z</time>
      </trkpt>
      <trkpt lat="49.74029" lon="5.18766">
        <ele>343.60000610352</ele>
        <time>2022-07-31T06:17:55.000Z</time>
      </trkpt>
      <trkpt lat="49.74037" lon="5.18766">
        <ele>344.60000610352</ele>
        <time>2022-07-31T06:17:57.000Z</time>
      </trkpt>
      <trkpt lat="49.74051" lon="5.18767">
        <ele>347</ele>
        <time>2022-07-31T06:18:01.000Z</time>
      </trkpt>
      <trkpt lat="49.74067" lon="5.18769">
        <ele>349.39999389648</ele>
        <time>2022-07-31T06:18:06.000Z</time>
      </trkpt>
      <trkpt lat="49.74077" lon="5.18767">
        <ele>350</ele>
        <time>2022-07-31T06:18:08.000Z</time>
      </trkpt>
      <trkpt lat="49.74083" lon="5.18764">
        <ele>350.20001220703</ele>
        <time>2022-07-31T06:18:10.000Z</time>
      </trkpt>
      <trkpt lat="49.74094" lon="5.18757">
        <ele>352.20001220703</ele>
        <time>2022-07-31T06:18:14.000Z</time>
      </trkpt>
      <trkpt lat="49.74097" lon="5.18756">
        <ele>352.39999389648</ele>
        <time>2022-07-31T06:18:15.000Z</time>
      </trkpt>
      <trkpt lat="49.74114" lon="5.18747">
        <ele>354.39999389648</ele>
        <time>2022-07-31T06:18:20.000Z</time>
      </trkpt>
      <trkpt lat="49.74128" lon="5.18741">
        <ele>355.39999389648</ele>
        <time>2022-07-31T06:18:24.000Z</time>
      </trkpt>
      <trkpt lat="49.74135" lon="5.18738">
        <ele>356.20001220703</ele>
        <time>2022-07-31T06:18:26.000Z</time>
      </trkpt>
      <trkpt lat="49.74141" lon="5.18736">
        <ele>357</ele>
        <time>2022-07-31T06:18:28.000Z</time>
      </trkpt>
      <trkpt lat="49.74153" lon="5.18731">
        <ele>358.20001220703</ele>
        <time>2022-07-31T06:18:32.000Z</time>
      </trkpt>
      <trkpt lat="49.74162" lon="5.1873">
        <ele>358.60000610352</ele>
        <time>2022-07-31T06:18:34.000Z</time>
      </trkpt>
      <trkpt lat="49.74182" lon="5.18728">
        <ele>360</ele>
        <time>2022-07-31T06:18:38.000Z</time>
      </trkpt>
      <trkpt lat="49.7419" lon="5.18727">
        <ele>360.60000610352</ele>
        <time>2022-07-31T06:18:40.000Z</time>
      </trkpt>
      <trkpt lat="49.742" lon="5.18729">
        <ele>360.79998779297</ele>
        <time>2022-07-31T06:18:43.000Z</time>
      </trkpt>
      <trkpt lat="49.7422" lon="5.18734">
        <ele>361.79998779297</ele>
        <time>2022-07-31T06:18:46.000Z</time>
      </trkpt>
      <trkpt lat="49.74238" lon="5.18739">
        <ele>362.79998779297</ele>
        <time>2022-07-31T06:18:48.000Z</time>
      </trkpt>
      <trkpt lat="49.74263" lon="5.18746">
        <ele>364.79998779297</ele>
        <time>2022-07-31T06:18:52.000Z</time>
      </trkpt>
      <trkpt lat="49.74267" lon="5.18748">
        <ele>365.20001220703</ele>
        <time>2022-07-31T06:18:53.000Z</time>
      </trkpt>
      <trkpt lat="49.74278" lon="5.18753">
        <ele>366.39999389648</ele>
        <time>2022-07-31T06:18:56.000Z</time>
      </trkpt>
      <trkpt lat="49.74288" lon="5.18757">
        <ele>367.20001220703</ele>
        <time>2022-07-31T06:18:59.000Z</time>
      </trkpt>
      <trkpt lat="49.74292" lon="5.18758">
        <ele>367.20001220703</ele>
        <time>2022-07-31T06:19:00.000Z</time>
      </trkpt>
      <trkpt lat="49.74315" lon="5.18762">
        <ele>367.60000610352</ele>
        <time>2022-07-31T06:19:05.000Z</time>
      </trkpt>
      <trkpt lat="49.74338" lon="5.18765">
        <ele>365.39999389648</ele>
        <time>2022-07-31T06:19:11.000Z</time>
      </trkpt>
      <trkpt lat="49.74342" lon="5.18765">
        <ele>365.39999389648</ele>
        <time>2022-07-31T06:19:12.000Z</time>
      </trkpt>
      <trkpt lat="49.74357" lon="5.18765">
        <ele>364.20001220703</ele>
        <time>2022-07-31T06:19:16.000Z</time>
      </trkpt>
      <trkpt lat="49.74377" lon="5.18766">
        <ele>364</ele>
        <time>2022-07-31T06:19:21.000Z</time>
      </trkpt>
      <trkpt lat="49.74382" lon="5.18767">
        <ele>364.20001220703</ele>
        <time>2022-07-31T06:19:22.000Z</time>
      </trkpt>
      <trkpt lat="49.74407" lon="5.18775">
        <ele>365.79998779297</ele>
        <time>2022-07-31T06:19:26.000Z</time>
      </trkpt>
      <trkpt lat="49.74411" lon="5.18776">
        <ele>366.20001220703</ele>
        <time>2022-07-31T06:19:27.000Z</time>
      </trkpt>
      <trkpt lat="49.7442" lon="5.18787">
        <ele>366.79998779297</ele>
        <time>2022-07-31T06:19:30.000Z</time>
      </trkpt>
      <trkpt lat="49.7442" lon="5.18792">
        <ele>366.79998779297</ele>
        <time>2022-07-31T06:19:31.000Z</time>
      </trkpt>
      <trkpt lat="49.74418" lon="5.18814">
        <ele>367.20001220703</ele>
        <time>2022-07-31T06:19:35.000Z</time>
      </trkpt>
      <trkpt lat="49.74413" lon="5.18847">
        <ele>369.20001220703</ele>
        <time>2022-07-31T06:19:41.000Z</time>
      </trkpt>
      <trkpt lat="49.74417" lon="5.18857">
        <ele>370.79998779297</ele>
        <time>2022-07-31T06:19:44.000Z</time>
      </trkpt>
      <trkpt lat="49.74418" lon="5.1886">
        <ele>371</ele>
        <time>2022-07-31T06:19:45.000Z</time>
      </trkpt>
      <trkpt lat="49.74426" lon="5.18867">
        <ele>371.79998779297</ele>
        <time>2022-07-31T06:19:48.000Z</time>
      </trkpt>
      <trkpt lat="49.74431" lon="5.18871">
        <ele>371.60000610352</ele>
        <time>2022-07-31T06:19:50.000Z</time>
      </trkpt>
      <trkpt lat="49.74433" lon="5.18873">
        <ele>371.60000610352</ele>
        <time>2022-07-31T06:19:51.000Z</time>
      </trkpt>
      <trkpt lat="49.74443" lon="5.18877">
        <ele>370.79998779297</ele>
        <time>2022-07-31T06:19:55.000Z</time>
      </trkpt>
      <trkpt lat="49.74446" lon="5.18879">
        <ele>370.60000610352</ele>
        <time>2022-07-31T06:19:56.000Z</time>
      </trkpt>
      <trkpt lat="49.74477" lon="5.18897">
        <ele>370</ele>
        <time>2022-07-31T06:20:04.000Z</time>
      </trkpt>
      <trkpt lat="49.7448" lon="5.18902">
        <ele>370.20001220703</ele>
        <time>2022-07-31T06:20:05.000Z</time>
      </trkpt>
      <trkpt lat="49.74494" lon="5.18915">
        <ele>371.39999389648</ele>
        <time>2022-07-31T06:20:08.000Z</time>
      </trkpt>
      <trkpt lat="49.74498" lon="5.1892">
        <ele>372</ele>
        <time>2022-07-31T06:20:09.000Z</time>
      </trkpt>
      <trkpt lat="49.74506" lon="5.18933">
        <ele>373.60000610352</ele>
        <time>2022-07-31T06:20:12.000Z</time>
      </trkpt>
      <trkpt lat="49.7451" lon="5.18941">
        <ele>374</ele>
        <time>2022-07-31T06:20:14.000Z</time>
      </trkpt>
      <trkpt lat="49.74515" lon="5.18958">
        <ele>375.39999389648</ele>
        <time>2022-07-31T06:20:18.000Z</time>
      </trkpt>
      <trkpt lat="49.74517" lon="5.18962">
        <ele>375.60000610352</ele>
        <time>2022-07-31T06:20:19.000Z</time>
      </trkpt>
      <trkpt lat="49.74521" lon="5.18975">
        <ele>376.60000610352</ele>
        <time>2022-07-31T06:20:23.000Z</time>
      </trkpt>
      <trkpt lat="49.74524" lon="5.18982">
        <ele>377</ele>
        <time>2022-07-31T06:20:25.000Z</time>
      </trkpt>
      <trkpt lat="49.7453" lon="5.18992">
        <ele>377.20001220703</ele>
        <time>2022-07-31T06:20:27.000Z</time>
      </trkpt>
      <trkpt lat="49.7454" lon="5.19013">
        <ele>377.39999389648</ele>
        <time>2022-07-31T06:20:30.000Z</time>
      </trkpt>
      <trkpt lat="49.74546" lon="5.19038">
        <ele>380</ele>
        <time>2022-07-31T06:20:34.000Z</time>
      </trkpt>
      <trkpt lat="49.74547" lon="5.19044">
        <ele>380.79998779297</ele>
        <time>2022-07-31T06:20:35.000Z</time>
      </trkpt>
      <trkpt lat="49.74554" lon="5.19069">
        <ele>383.20001220703</ele>
        <time>2022-07-31T06:20:39.000Z</time>
      </trkpt>
      <trkpt lat="49.74555" lon="5.19075">
        <ele>383.79998779297</ele>
        <time>2022-07-31T06:20:40.000Z</time>
      </trkpt>
      <trkpt lat="49.74554" lon="5.19092">
        <ele>386.60000610352</ele>
        <time>2022-07-31T06:20:43.000Z</time>
      </trkpt>
      <trkpt lat="49.74553" lon="5.19105">
        <ele>388.39999389648</ele>
        <time>2022-07-31T06:20:45.000Z</time>
      </trkpt>
      <trkpt lat="49.74551" lon="5.19121">
        <ele>389.79998779297</ele>
        <time>2022-07-31T06:20:48.000Z</time>
      </trkpt>
      <trkpt lat="49.74549" lon="5.19126">
        <ele>391.39999389648</ele>
        <time>2022-07-31T06:20:49.000Z</time>
      </trkpt>
      <trkpt lat="49.74542" lon="5.19151">
        <ele>396.39999389648</ele>
        <time>2022-07-31T06:20:53.000Z</time>
      </trkpt>
      <trkpt lat="49.74542" lon="5.19158">
        <ele>397</ele>
        <time>2022-07-31T06:20:54.000Z</time>
      </trkpt>
      <trkpt lat="49.74544" lon="5.19185">
        <ele>399</ele>
        <time>2022-07-31T06:20:58.000Z</time>
      </trkpt>
      <trkpt lat="49.74546" lon="5.19199">
        <ele>399.20001220703</ele>
        <time>2022-07-31T06:21:00.000Z</time>
      </trkpt>
      <trkpt lat="49.74549" lon="5.19212">
        <ele>399.39999389648</ele>
        <time>2022-07-31T06:21:02.000Z</time>
      </trkpt>
      <trkpt lat="49.74554" lon="5.19222">
        <ele>398.39999389648</ele>
        <time>2022-07-31T06:21:04.000Z</time>
      </trkpt>
      <trkpt lat="49.7456" lon="5.19232">
        <ele>397.20001220703</ele>
        <time>2022-07-31T06:21:06.000Z</time>
      </trkpt>
      <trkpt lat="49.74564" lon="5.19244">
        <ele>396.60000610352</ele>
        <time>2022-07-31T06:21:08.000Z</time>
      </trkpt>
      <trkpt lat="49.74577" lon="5.19287">
        <ele>393.79998779297</ele>
        <time>2022-07-31T06:21:15.000Z</time>
      </trkpt>
      <trkpt lat="49.74581" lon="5.19308">
        <ele>392.60000610352</ele>
        <time>2022-07-31T06:21:19.000Z</time>
      </trkpt>
      <trkpt lat="49.74582" lon="5.1932">
        <ele>392</ele>
        <time>2022-07-31T06:21:21.000Z</time>
      </trkpt>
      <trkpt lat="49.74581" lon="5.19361">
        <ele>389.60000610352</ele>
        <time>2022-07-31T06:21:28.000Z</time>
      </trkpt>
      <trkpt lat="49.7458" lon="5.19372">
        <ele>389.20001220703</ele>
        <time>2022-07-31T06:21:30.000Z</time>
      </trkpt>
      <trkpt lat="49.74572" lon="5.19405">
        <ele>389.79998779297</ele>
        <time>2022-07-31T06:21:36.000Z</time>
      </trkpt>
      <trkpt lat="49.74567" lon="5.19431">
        <ele>390.60000610352</ele>
        <time>2022-07-31T06:21:41.000Z</time>
      </trkpt>
      <trkpt lat="49.74562" lon="5.19458">
        <ele>393</ele>
        <time>2022-07-31T06:21:46.000Z</time>
      </trkpt>
      <trkpt lat="49.74561" lon="5.19463">
        <ele>393.60000610352</ele>
        <time>2022-07-31T06:21:47.000Z</time>
      </trkpt>
      <trkpt lat="49.74557" lon="5.19488">
        <ele>394.39999389648</ele>
        <time>2022-07-31T06:21:52.000Z</time>
      </trkpt>
      <trkpt lat="49.74551" lon="5.19515">
        <ele>396.79998779297</ele>
        <time>2022-07-31T06:21:57.000Z</time>
      </trkpt>
      <trkpt lat="49.7455" lon="5.19522">
        <ele>396.60000610352</ele>
        <time>2022-07-31T06:21:58.000Z</time>
      </trkpt>
      <trkpt lat="49.74548" lon="5.19542">
        <ele>396.39999389648</ele>
        <time>2022-07-31T06:22:01.000Z</time>
      </trkpt>
      <trkpt lat="49.74545" lon="5.19566">
        <ele>396.79998779297</ele>
        <time>2022-07-31T06:22:05.000Z</time>
      </trkpt>
      <trkpt lat="49.74544" lon="5.19572">
        <ele>397.60000610352</ele>
        <time>2022-07-31T06:22:06.000Z</time>
      </trkpt>
      <trkpt lat="49.7454" lon="5.19603">
        <ele>400.20001220703</ele>
        <time>2022-07-31T06:22:11.000Z</time>
      </trkpt>
      <trkpt lat="49.74538" lon="5.19629">
        <ele>402.60000610352</ele>
        <time>2022-07-31T06:22:15.000Z</time>
      </trkpt>
      <trkpt lat="49.7454" lon="5.19649">
        <ele>402.79998779297</ele>
        <time>2022-07-31T06:22:18.000Z</time>
      </trkpt>
      <trkpt lat="49.74542" lon="5.19668">
        <ele>403.20001220703</ele>
        <time>2022-07-31T06:22:21.000Z</time>
      </trkpt>
      <trkpt lat="49.74543" lon="5.19701">
        <ele>402.79998779297</ele>
        <time>2022-07-31T06:22:26.000Z</time>
      </trkpt>
      <trkpt lat="49.74546" lon="5.19732">
        <ele>403</ele>
        <time>2022-07-31T06:22:31.000Z</time>
      </trkpt>
      <trkpt lat="49.74547" lon="5.19738">
        <ele>403</ele>
        <time>2022-07-31T06:22:32.000Z</time>
      </trkpt>
      <trkpt lat="49.74551" lon="5.19761">
        <ele>404.20001220703</ele>
        <time>2022-07-31T06:22:36.000Z</time>
      </trkpt>
      <trkpt lat="49.74551" lon="5.19767">
        <ele>404.39999389648</ele>
        <time>2022-07-31T06:22:37.000Z</time>
      </trkpt>
      <trkpt lat="49.74556" lon="5.19796">
        <ele>406</ele>
        <time>2022-07-31T06:22:42.000Z</time>
      </trkpt>
      <trkpt lat="49.74559" lon="5.19807">
        <ele>406.60000610352</ele>
        <time>2022-07-31T06:22:44.000Z</time>
      </trkpt>
      <trkpt lat="49.74565" lon="5.19833">
        <ele>408.79998779297</ele>
        <time>2022-07-31T06:22:49.000Z</time>
      </trkpt>
      <trkpt lat="49.74573" lon="5.19855">
        <ele>410.20001220703</ele>
        <time>2022-07-31T06:22:53.000Z</time>
      </trkpt>
      <trkpt lat="49.74582" lon="5.19877">
        <ele>411</ele>
        <time>2022-07-31T06:22:57.000Z</time>
      </trkpt>
      <trkpt lat="49.74589" lon="5.19903">
        <ele>412.60000610352</ele>
        <time>2022-07-31T06:23:02.000Z</time>
      </trkpt>
      <trkpt lat="49.74598" lon="5.19934">
        <ele>414.60000610352</ele>
        <time>2022-07-31T06:23:07.000Z</time>
      </trkpt>
      <trkpt lat="49.746" lon="5.1994">
        <ele>414.79998779297</ele>
        <time>2022-07-31T06:23:08.000Z</time>
      </trkpt>
      <trkpt lat="49.74608" lon="5.19972">
        <ele>415.39999389648</ele>
        <time>2022-07-31T06:23:13.000Z</time>
      </trkpt>
      <trkpt lat="49.74618" lon="5.2001">
        <ele>415.60000610352</ele>
        <time>2022-07-31T06:23:19.000Z</time>
      </trkpt>
      <trkpt lat="49.74621" lon="5.20022">
        <ele>415.39999389648</ele>
        <time>2022-07-31T06:23:21.000Z</time>
      </trkpt>
      <trkpt lat="49.74631" lon="5.20054">
        <ele>415.20001220703</ele>
        <time>2022-07-31T06:23:26.000Z</time>
      </trkpt>
      <trkpt lat="49.74643" lon="5.20084">
        <ele>415.20001220703</ele>
        <time>2022-07-31T06:23:31.000Z</time>
      </trkpt>
      <trkpt lat="49.74653" lon="5.20111">
        <ele>415</ele>
        <time>2022-07-31T06:23:36.000Z</time>
      </trkpt>
      <trkpt lat="49.74655" lon="5.20117">
        <ele>415</ele>
        <time>2022-07-31T06:23:37.000Z</time>
      </trkpt>
      <trkpt lat="49.74665" lon="5.20146">
        <ele>415.60000610352</ele>
        <time>2022-07-31T06:23:42.000Z</time>
      </trkpt>
      <trkpt lat="49.74667" lon="5.20153">
        <ele>415.79998779297</ele>
        <time>2022-07-31T06:23:43.000Z</time>
      </trkpt>
      <trkpt lat="49.74671" lon="5.20167">
        <ele>416.39999389648</ele>
        <time>2022-07-31T06:23:45.000Z</time>
      </trkpt>
      <trkpt lat="49.74675" lon="5.2018">
        <ele>417</ele>
        <time>2022-07-31T06:23:47.000Z</time>
      </trkpt>
      <trkpt lat="49.74679" lon="5.20193">
        <ele>417.39999389648</ele>
        <time>2022-07-31T06:23:49.000Z</time>
      </trkpt>
      <trkpt lat="49.74686" lon="5.20217">
        <ele>418</ele>
        <time>2022-07-31T06:23:53.000Z</time>
      </trkpt>
      <trkpt lat="49.74688" lon="5.20228">
        <ele>418.39999389648</ele>
        <time>2022-07-31T06:23:55.000Z</time>
      </trkpt>
      <trkpt lat="49.74693" lon="5.20249">
        <ele>418.60000610352</ele>
        <time>2022-07-31T06:23:59.000Z</time>
      </trkpt>
      <trkpt lat="49.74694" lon="5.20254">
        <ele>419</ele>
        <time>2022-07-31T06:24:00.000Z</time>
      </trkpt>
      <trkpt lat="49.74693" lon="5.20269">
        <ele>419.60000610352</ele>
        <time>2022-07-31T06:24:03.000Z</time>
      </trkpt>
      <trkpt lat="49.74695" lon="5.20273">
        <ele>419.79998779297</ele>
        <time>2022-07-31T06:24:04.000Z</time>
      </trkpt>
      <trkpt lat="49.74704" lon="5.20285">
        <ele>419.79998779297</ele>
        <time>2022-07-31T06:24:07.000Z</time>
      </trkpt>
      <trkpt lat="49.74711" lon="5.20292">
        <ele>419.60000610352</ele>
        <time>2022-07-31T06:24:09.000Z</time>
      </trkpt>
      <trkpt lat="49.74726" lon="5.2031">
        <ele>418.79998779297</ele>
        <time>2022-07-31T06:24:13.000Z</time>
      </trkpt>
      <trkpt lat="49.7473" lon="5.20314">
        <ele>418.60000610352</ele>
        <time>2022-07-31T06:24:14.000Z</time>
      </trkpt>
      <trkpt lat="49.74738" lon="5.20324">
        <ele>418.60000610352</ele>
        <time>2022-07-31T06:24:16.000Z</time>
      </trkpt>
      <trkpt lat="49.74742" lon="5.20329">
        <ele>418.79998779297</ele>
        <time>2022-07-31T06:24:17.000Z</time>
      </trkpt>
      <trkpt lat="49.74772" lon="5.20372">
        <ele>420.79998779297</ele>
        <time>2022-07-31T06:24:25.000Z</time>
      </trkpt>
      <trkpt lat="49.74789" lon="5.204">
        <ele>421.79998779297</ele>
        <time>2022-07-31T06:24:30.000Z</time>
      </trkpt>
      <trkpt lat="49.74795" lon="5.20412">
        <ele>422.20001220703</ele>
        <time>2022-07-31T06:24:32.000Z</time>
      </trkpt>
      <trkpt lat="49.74798" lon="5.20417">
        <ele>422.60000610352</ele>
        <time>2022-07-31T06:24:33.000Z</time>
      </trkpt>
      <trkpt lat="49.74814" lon="5.20447">
        <ele>424.60000610352</ele>
        <time>2022-07-31T06:24:38.000Z</time>
      </trkpt>
      <trkpt lat="49.7482" lon="5.20459">
        <ele>425.39999389648</ele>
        <time>2022-07-31T06:24:40.000Z</time>
      </trkpt>
      <trkpt lat="49.74826" lon="5.2047">
        <ele>425.79998779297</ele>
        <time>2022-07-31T06:24:42.000Z</time>
      </trkpt>
      <trkpt lat="49.74832" lon="5.2048">
        <ele>425.79998779297</ele>
        <time>2022-07-31T06:24:44.000Z</time>
      </trkpt>
      <trkpt lat="49.74838" lon="5.2049">
        <ele>426</ele>
        <time>2022-07-31T06:24:46.000Z</time>
      </trkpt>
      <trkpt lat="49.74844" lon="5.205">
        <ele>426.20001220703</ele>
        <time>2022-07-31T06:24:48.000Z</time>
      </trkpt>
      <trkpt lat="49.74851" lon="5.20511">
        <ele>426.39999389648</ele>
        <time>2022-07-31T06:24:50.000Z</time>
      </trkpt>
      <trkpt lat="49.74854" lon="5.20516">
        <ele>426.60000610352</ele>
        <time>2022-07-31T06:24:51.000Z</time>
      </trkpt>
      <trkpt lat="49.74874" lon="5.20547">
        <ele>427.79998779297</ele>
        <time>2022-07-31T06:24:56.000Z</time>
      </trkpt>
      <trkpt lat="49.74901" lon="5.20595">
        <ele>427.39999389648</ele>
        <time>2022-07-31T06:25:03.000Z</time>
      </trkpt>
      <trkpt lat="49.74922" lon="5.20637">
        <ele>428.79998779297</ele>
        <time>2022-07-31T06:25:09.000Z</time>
      </trkpt>
      <trkpt lat="49.74944" lon="5.20679">
        <ele>428.20001220703</ele>
        <time>2022-07-31T06:25:15.000Z</time>
      </trkpt>
      <trkpt lat="49.74968" lon="5.20733">
        <ele>426.79998779297</ele>
        <time>2022-07-31T06:25:22.000Z</time>
      </trkpt>
      <trkpt lat="49.74987" lon="5.20774">
        <ele>424.20001220703</ele>
        <time>2022-07-31T06:25:27.000Z</time>
      </trkpt>
      <trkpt lat="49.74996" lon="5.20791">
        <ele>423.20001220703</ele>
        <time>2022-07-31T06:25:29.000Z</time>
      </trkpt>
      <trkpt lat="49.75004" lon="5.2081">
        <ele>421.79998779297</ele>
        <time>2022-07-31T06:25:31.000Z</time>
      </trkpt>
      <trkpt lat="49.75007" lon="5.2082">
        <ele>421.20001220703</ele>
        <time>2022-07-31T06:25:32.000Z</time>
      </trkpt>
      <trkpt lat="49.75014" lon="5.2084">
        <ele>421</ele>
        <time>2022-07-31T06:25:34.000Z</time>
      </trkpt>
      <trkpt lat="49.75019" lon="5.20862">
        <ele>421</ele>
        <time>2022-07-31T06:25:36.000Z</time>
      </trkpt>
      <trkpt lat="49.75024" lon="5.20884">
        <ele>420.79998779297</ele>
        <time>2022-07-31T06:25:38.000Z</time>
      </trkpt>
      <trkpt lat="49.75028" lon="5.20902">
        <ele>420.60000610352</ele>
        <time>2022-07-31T06:25:40.000Z</time>
      </trkpt>
      <trkpt lat="49.75031" lon="5.20925">
        <ele>419.60000610352</ele>
        <time>2022-07-31T06:25:44.000Z</time>
      </trkpt>
      <trkpt lat="49.75032" lon="5.20939">
        <ele>419</ele>
        <time>2022-07-31T06:25:46.000Z</time>
      </trkpt>
      <trkpt lat="49.75039" lon="5.20956">
        <ele>418.39999389648</ele>
        <time>2022-07-31T06:25:49.000Z</time>
      </trkpt>
      <trkpt lat="49.75042" lon="5.2096">
        <ele>418.39999389648</ele>
        <time>2022-07-31T06:25:50.000Z</time>
      </trkpt>
      <trkpt lat="49.7505" lon="5.20963">
        <ele>418.60000610352</ele>
        <time>2022-07-31T06:25:52.000Z</time>
      </trkpt>
      <trkpt lat="49.75055" lon="5.20964">
        <ele>418.79998779297</ele>
        <time>2022-07-31T06:25:53.000Z</time>
      </trkpt>
      <trkpt lat="49.75073" lon="5.20965">
        <ele>418.60000610352</ele>
        <time>2022-07-31T06:25:56.000Z</time>
      </trkpt>
      <trkpt lat="49.75079" lon="5.20966">
        <ele>418.39999389648</ele>
        <time>2022-07-31T06:25:57.000Z</time>
      </trkpt>
      <trkpt lat="49.75092" lon="5.20971">
        <ele>417.79998779297</ele>
        <time>2022-07-31T06:25:59.000Z</time>
      </trkpt>
      <trkpt lat="49.75102" lon="5.20981">
        <ele>417.39999389648</ele>
        <time>2022-07-31T06:26:01.000Z</time>
      </trkpt>
      <trkpt lat="49.75107" lon="5.20988">
        <ele>417.20001220703</ele>
        <time>2022-07-31T06:26:02.000Z</time>
      </trkpt>
      <trkpt lat="49.75119" lon="5.2101">
        <ele>416.39999389648</ele>
        <time>2022-07-31T06:26:05.000Z</time>
      </trkpt>
      <trkpt lat="49.75124" lon="5.21018">
        <ele>416.39999389648</ele>
        <time>2022-07-31T06:26:06.000Z</time>
      </trkpt>
      <trkpt lat="49.7514" lon="5.21055">
        <ele>418</ele>
        <time>2022-07-31T06:26:10.000Z</time>
      </trkpt>
      <trkpt lat="49.75144" lon="5.21064">
        <ele>418.60000610352</ele>
        <time>2022-07-31T06:26:11.000Z</time>
      </trkpt>
      <trkpt lat="49.75153" lon="5.21099">
        <ele>417.79998779297</ele>
        <time>2022-07-31T06:26:15.000Z</time>
      </trkpt>
      <trkpt lat="49.75154" lon="5.21138">
        <ele>417</ele>
        <time>2022-07-31T06:26:19.000Z</time>
      </trkpt>
      <trkpt lat="49.75154" lon="5.21148">
        <ele>416.60000610352</ele>
        <time>2022-07-31T06:26:20.000Z</time>
      </trkpt>
      <trkpt lat="49.75153" lon="5.21158">
        <ele>416.20001220703</ele>
        <time>2022-07-31T06:26:21.000Z</time>
      </trkpt>
      <trkpt lat="49.75151" lon="5.21178">
        <ele>415.20001220703</ele>
        <time>2022-07-31T06:26:23.000Z</time>
      </trkpt>
      <trkpt lat="49.75151" lon="5.21198">
        <ele>413.79998779297</ele>
        <time>2022-07-31T06:26:25.000Z</time>
      </trkpt>
      <trkpt lat="49.75152" lon="5.2123">
        <ele>411.60000610352</ele>
        <time>2022-07-31T06:26:28.000Z</time>
      </trkpt>
      <trkpt lat="49.75153" lon="5.21241">
        <ele>410.79998779297</ele>
        <time>2022-07-31T06:26:29.000Z</time>
      </trkpt>
      <trkpt lat="49.75156" lon="5.21261">
        <ele>409.20001220703</ele>
        <time>2022-07-31T06:26:31.000Z</time>
      </trkpt>
      <trkpt lat="49.7516" lon="5.21278">
        <ele>407.79998779297</ele>
        <time>2022-07-31T06:26:33.000Z</time>
      </trkpt>
      <trkpt lat="49.75167" lon="5.21294">
        <ele>406.60000610352</ele>
        <time>2022-07-31T06:26:35.000Z</time>
      </trkpt>
      <trkpt lat="49.75175" lon="5.21309">
        <ele>405.39999389648</ele>
        <time>2022-07-31T06:26:37.000Z</time>
      </trkpt>
      <trkpt lat="49.7518" lon="5.21314">
        <ele>405.20001220703</ele>
        <time>2022-07-31T06:26:38.000Z</time>
      </trkpt>
      <trkpt lat="49.75185" lon="5.21318">
        <ele>405.39999389648</ele>
        <time>2022-07-31T06:26:39.000Z</time>
      </trkpt>
      <trkpt lat="49.75193" lon="5.21324">
        <ele>405.60000610352</ele>
        <time>2022-07-31T06:26:41.000Z</time>
      </trkpt>
      <trkpt lat="49.75196" lon="5.21324">
        <ele>405.60000610352</ele>
        <time>2022-07-31T06:26:42.000Z</time>
      </trkpt>
      <trkpt lat="49.75198" lon="5.21324">
        <ele>405.79998779297</ele>
        <time>2022-07-31T06:26:43.000Z</time>
      </trkpt>
      <trkpt lat="49.75206" lon="5.21331">
        <ele>407</ele>
        <time>2022-07-31T06:30:07.000Z</time>
      </trkpt>
      <trkpt lat="49.75214" lon="5.21339">
        <ele>408.39999389648</ele>
        <time>2022-07-31T06:30:13.000Z</time>
      </trkpt>
      <trkpt lat="49.75217" lon="5.21356">
        <ele>409.60000610352</ele>
        <time>2022-07-31T06:30:19.000Z</time>
      </trkpt>
      <trkpt lat="49.75211" lon="5.21376">
        <ele>410.79998779297</ele>
        <time>2022-07-31T06:30:24.000Z</time>
      </trkpt>
      <trkpt lat="49.75191" lon="5.2139">
        <ele>408.79998779297</ele>
        <time>2022-07-31T06:30:29.000Z</time>
      </trkpt>
      <trkpt lat="49.75165" lon="5.21401">
        <ele>405.20001220703</ele>
        <time>2022-07-31T06:30:32.000Z</time>
      </trkpt>
      <trkpt lat="49.75158" lon="5.21405">
        <ele>405</ele>
        <time>2022-07-31T06:30:33.000Z</time>
      </trkpt>
      <trkpt lat="49.75144" lon="5.21414">
        <ele>404.60000610352</ele>
        <time>2022-07-31T06:30:35.000Z</time>
      </trkpt>
      <trkpt lat="49.75125" lon="5.21428">
        <ele>405.60000610352</ele>
        <time>2022-07-31T06:30:38.000Z</time>
      </trkpt>
      <trkpt lat="49.75119" lon="5.21434">
        <ele>405.79998779297</ele>
        <time>2022-07-31T06:30:39.000Z</time>
      </trkpt>
      <trkpt lat="49.75102" lon="5.21457">
        <ele>407.39999389648</ele>
        <time>2022-07-31T06:30:43.000Z</time>
      </trkpt>
      <trkpt lat="49.75081" lon="5.21491">
        <ele>408.39999389648</ele>
        <time>2022-07-31T06:30:49.000Z</time>
      </trkpt>
      <trkpt lat="49.75062" lon="5.21517">
        <ele>408.79998779297</ele>
        <time>2022-07-31T06:30:54.000Z</time>
      </trkpt>
      <trkpt lat="49.75055" lon="5.21533">
        <ele>409.20001220703</ele>
        <time>2022-07-31T06:30:59.000Z</time>
      </trkpt>
      <trkpt lat="49.75055" lon="5.21536">
        <ele>409.39999389648</ele>
        <time>2022-07-31T06:31:00.000Z</time>
      </trkpt>
      <trkpt lat="49.75057" lon="5.21545">
        <ele>409.60000610352</ele>
        <time>2022-07-31T06:31:03.000Z</time>
      </trkpt>
      <trkpt lat="49.75061" lon="5.21551">
        <ele>410</ele>
        <time>2022-07-31T06:31:06.000Z</time>
      </trkpt>
      <trkpt lat="49.75062" lon="5.21555">
        <ele>410.20001220703</ele>
        <time>2022-07-31T06:31:08.000Z</time>
      </trkpt>
      <trkpt lat="49.75062" lon="5.2156">
        <ele>410.39999389648</ele>
        <time>2022-07-31T06:31:10.000Z</time>
      </trkpt>
      <trkpt lat="49.75064" lon="5.21566">
        <ele>410.79998779297</ele>
        <time>2022-07-31T06:31:12.000Z</time>
      </trkpt>
      <trkpt lat="49.7507" lon="5.21576">
        <ele>411.60000610352</ele>
        <time>2022-07-31T06:31:15.000Z</time>
      </trkpt>
      <trkpt lat="49.75072" lon="5.21579">
        <ele>411.79998779297</ele>
        <time>2022-07-31T06:31:16.000Z</time>
      </trkpt>
      <trkpt lat="49.75083" lon="5.21592">
        <ele>413</ele>
        <time>2022-07-31T06:31:20.000Z</time>
      </trkpt>
      <trkpt lat="49.75085" lon="5.21595">
        <ele>413.39999389648</ele>
        <time>2022-07-31T06:31:21.000Z</time>
      </trkpt>
      <trkpt lat="49.75096" lon="5.21607">
        <ele>414.79998779297</ele>
        <time>2022-07-31T06:31:25.000Z</time>
      </trkpt>
      <trkpt lat="49.75102" lon="5.21614">
        <ele>415.60000610352</ele>
        <time>2022-07-31T06:31:27.000Z</time>
      </trkpt>
      <trkpt lat="49.75105" lon="5.21617">
        <ele>416</ele>
        <time>2022-07-31T06:31:28.000Z</time>
      </trkpt>
      <trkpt lat="49.7511" lon="5.21629">
        <ele>417</ele>
        <time>2022-07-31T06:31:32.000Z</time>
      </trkpt>
      <trkpt lat="49.75112" lon="5.21632">
        <ele>417.39999389648</ele>
        <time>2022-07-31T06:31:33.000Z</time>
      </trkpt>
      <trkpt lat="49.75117" lon="5.21641">
        <ele>418.20001220703</ele>
        <time>2022-07-31T06:31:36.000Z</time>
      </trkpt>
      <trkpt lat="49.75124" lon="5.21651">
        <ele>419.39999389648</ele>
        <time>2022-07-31T06:31:39.000Z</time>
      </trkpt>
      <trkpt lat="49.75126" lon="5.21656">
        <ele>419.79998779297</ele>
        <time>2022-07-31T06:31:40.000Z</time>
      </trkpt>
      <trkpt lat="49.75135" lon="5.21673">
        <ele>420.39999389648</ele>
        <time>2022-07-31T06:31:44.000Z</time>
      </trkpt>
      <trkpt lat="49.7514" lon="5.21682">
        <ele>420.60000610352</ele>
        <time>2022-07-31T06:31:46.000Z</time>
      </trkpt>
      <trkpt lat="49.75144" lon="5.2169">
        <ele>421</ele>
        <time>2022-07-31T06:31:48.000Z</time>
      </trkpt>
      <trkpt lat="49.75154" lon="5.21705">
        <ele>422.20001220703</ele>
        <time>2022-07-31T06:31:52.000Z</time>
      </trkpt>
      <trkpt lat="49.75156" lon="5.21708">
        <ele>422.60000610352</ele>
        <time>2022-07-31T06:31:53.000Z</time>
      </trkpt>
      <trkpt lat="49.75163" lon="5.21725">
        <ele>424</ele>
        <time>2022-07-31T06:31:57.000Z</time>
      </trkpt>
      <trkpt lat="49.75171" lon="5.21741">
        <ele>425.60000610352</ele>
        <time>2022-07-31T06:32:01.000Z</time>
      </trkpt>
      <trkpt lat="49.75178" lon="5.21754">
        <ele>427</ele>
        <time>2022-07-31T06:32:04.000Z</time>
      </trkpt>
      <trkpt lat="49.75181" lon="5.21759">
        <ele>427.60000610352</ele>
        <time>2022-07-31T06:32:05.000Z</time>
      </trkpt>
      <trkpt lat="49.75195" lon="5.2178">
        <ele>428.79998779297</ele>
        <time>2022-07-31T06:32:10.000Z</time>
      </trkpt>
      <trkpt lat="49.75198" lon="5.21783">
        <ele>428.79998779297</ele>
        <time>2022-07-31T06:32:11.000Z</time>
      </trkpt>
      <trkpt lat="49.75213" lon="5.21795">
        <ele>429.39999389648</ele>
        <time>2022-07-31T06:32:15.000Z</time>
      </trkpt>
      <trkpt lat="49.75217" lon="5.21798">
        <ele>429.60000610352</ele>
        <time>2022-07-31T06:32:16.000Z</time>
      </trkpt>
      <trkpt lat="49.75229" lon="5.21813">
        <ele>430</ele>
        <time>2022-07-31T06:32:20.000Z</time>
      </trkpt>
      <trkpt lat="49.75232" lon="5.21817">
        <ele>430.20001220703</ele>
        <time>2022-07-31T06:32:21.000Z</time>
      </trkpt>
      <trkpt lat="49.75243" lon="5.21832">
        <ele>431</ele>
        <time>2022-07-31T06:32:25.000Z</time>
      </trkpt>
      <trkpt lat="49.75249" lon="5.21841">
        <ele>431.39999389648</ele>
        <time>2022-07-31T06:32:27.000Z</time>
      </trkpt>
      <trkpt lat="49.75255" lon="5.21852">
        <ele>431.79998779297</ele>
        <time>2022-07-31T06:32:30.000Z</time>
      </trkpt>
      <trkpt lat="49.75261" lon="5.21866">
        <ele>432.39999389648</ele>
        <time>2022-07-31T06:32:33.000Z</time>
      </trkpt>
      <trkpt lat="49.75266" lon="5.21879">
        <ele>433</ele>
        <time>2022-07-31T06:32:36.000Z</time>
      </trkpt>
      <trkpt lat="49.75268" lon="5.21889">
        <ele>433</ele>
        <time>2022-07-31T06:32:38.000Z</time>
      </trkpt>
      <trkpt lat="49.75276" lon="5.21919">
        <ele>433.39999389648</ele>
        <time>2022-07-31T06:32:43.000Z</time>
      </trkpt>
      <trkpt lat="49.75277" lon="5.21926">
        <ele>433.20001220703</ele>
        <time>2022-07-31T06:32:44.000Z</time>
      </trkpt>
      <trkpt lat="49.75278" lon="5.2195">
        <ele>433</ele>
        <time>2022-07-31T06:32:48.000Z</time>
      </trkpt>
      <trkpt lat="49.75281" lon="5.21993">
        <ele>433.79998779297</ele>
        <time>2022-07-31T06:32:54.000Z</time>
      </trkpt>
      <trkpt lat="49.75283" lon="5.22001">
        <ele>434.20001220703</ele>
        <time>2022-07-31T06:32:55.000Z</time>
      </trkpt>
      <trkpt lat="49.75289" lon="5.22027">
        <ele>435.39999389648</ele>
        <time>2022-07-31T06:32:59.000Z</time>
      </trkpt>
      <trkpt lat="49.75293" lon="5.22059">
        <ele>436.60000610352</ele>
        <time>2022-07-31T06:33:04.000Z</time>
      </trkpt>
      <trkpt lat="49.75292" lon="5.22072">
        <ele>437.20001220703</ele>
        <time>2022-07-31T06:33:06.000Z</time>
      </trkpt>
      <trkpt lat="49.75294" lon="5.22089">
        <ele>437</ele>
        <time>2022-07-31T06:33:09.000Z</time>
      </trkpt>
      <trkpt lat="49.75308" lon="5.22112">
        <ele>436.60000610352</ele>
        <time>2022-07-31T06:33:14.000Z</time>
      </trkpt>
      <trkpt lat="49.75335" lon="5.22147">
        <ele>435.39999389648</ele>
        <time>2022-07-31T06:33:20.000Z</time>
      </trkpt>
      <trkpt lat="49.75348" lon="5.22163">
        <ele>434.79998779297</ele>
        <time>2022-07-31T06:33:23.000Z</time>
      </trkpt>
      <trkpt lat="49.75356" lon="5.22172">
        <ele>434.39999389648</ele>
        <time>2022-07-31T06:33:25.000Z</time>
      </trkpt>
      <trkpt lat="49.75363" lon="5.22183">
        <ele>434.20001220703</ele>
        <time>2022-07-31T06:33:27.000Z</time>
      </trkpt>
      <trkpt lat="49.75367" lon="5.22189">
        <ele>434</ele>
        <time>2022-07-31T06:33:28.000Z</time>
      </trkpt>
      <trkpt lat="49.75374" lon="5.222">
        <ele>433.79998779297</ele>
        <time>2022-07-31T06:33:30.000Z</time>
      </trkpt>
      <trkpt lat="49.75377" lon="5.22207">
        <ele>433.60000610352</ele>
        <time>2022-07-31T06:33:31.000Z</time>
      </trkpt>
      <trkpt lat="49.75383" lon="5.22224">
        <ele>433.39999389648</ele>
        <time>2022-07-31T06:33:33.000Z</time>
      </trkpt>
      <trkpt lat="49.7539" lon="5.22243">
        <ele>433.20001220703</ele>
        <time>2022-07-31T06:33:35.000Z</time>
      </trkpt>
      <trkpt lat="49.75395" lon="5.22254">
        <ele>432.60000610352</ele>
        <time>2022-07-31T06:33:36.000Z</time>
      </trkpt>
      <trkpt lat="49.75399" lon="5.22266">
        <ele>431.60000610352</ele>
        <time>2022-07-31T06:33:37.000Z</time>
      </trkpt>
      <trkpt lat="49.75404" lon="5.22279">
        <ele>431</ele>
        <time>2022-07-31T06:33:38.000Z</time>
      </trkpt>
      <trkpt lat="49.75407" lon="5.22294">
        <ele>430.39999389648</ele>
        <time>2022-07-31T06:33:39.000Z</time>
      </trkpt>
      <trkpt lat="49.7541" lon="5.2231">
        <ele>430.39999389648</ele>
        <time>2022-07-31T06:33:40.000Z</time>
      </trkpt>
      <trkpt lat="49.75414" lon="5.2234">
        <ele>430.39999389648</ele>
        <time>2022-07-31T06:33:42.000Z</time>
      </trkpt>
      <trkpt lat="49.75413" lon="5.22356">
        <ele>431.20001220703</ele>
        <time>2022-07-31T06:33:43.000Z</time>
      </trkpt>
      <trkpt lat="49.75411" lon="5.22372">
        <ele>431.79998779297</ele>
        <time>2022-07-31T06:33:44.000Z</time>
      </trkpt>
      <trkpt lat="49.7541" lon="5.22402">
        <ele>431.60000610352</ele>
        <time>2022-07-31T06:33:46.000Z</time>
      </trkpt>
      <trkpt lat="49.75414" lon="5.22458">
        <ele>429</ele>
        <time>2022-07-31T06:33:50.000Z</time>
      </trkpt>
      <trkpt lat="49.7542" lon="5.22503">
        <ele>428</ele>
        <time>2022-07-31T06:33:54.000Z</time>
      </trkpt>
      <trkpt lat="49.75433" lon="5.22517">
        <ele>427</ele>
        <time>2022-07-31T06:33:57.000Z</time>
      </trkpt>
      <trkpt lat="49.75439" lon="5.22522">
        <ele>426.39999389648</ele>
        <time>2022-07-31T06:33:58.000Z</time>
      </trkpt>
      <trkpt lat="49.75445" lon="5.22526">
        <ele>426</ele>
        <time>2022-07-31T06:33:59.000Z</time>
      </trkpt>
      <trkpt lat="49.75457" lon="5.22532">
        <ele>424.79998779297</ele>
        <time>2022-07-31T06:34:01.000Z</time>
      </trkpt>
      <trkpt lat="49.75476" lon="5.2254">
        <ele>423.20001220703</ele>
        <time>2022-07-31T06:34:04.000Z</time>
      </trkpt>
      <trkpt lat="49.75489" lon="5.22545">
        <ele>421.60000610352</ele>
        <time>2022-07-31T06:34:06.000Z</time>
      </trkpt>
      <trkpt lat="49.75496" lon="5.22549">
        <ele>420.60000610352</ele>
        <time>2022-07-31T06:34:07.000Z</time>
      </trkpt>
      <trkpt lat="49.75502" lon="5.22551">
        <ele>419.79998779297</ele>
        <time>2022-07-31T06:34:08.000Z</time>
      </trkpt>
      <trkpt lat="49.75517" lon="5.22556">
        <ele>417.79998779297</ele>
        <time>2022-07-31T06:34:10.000Z</time>
      </trkpt>
      <trkpt lat="49.75532" lon="5.22561">
        <ele>415.79998779297</ele>
        <time>2022-07-31T06:34:12.000Z</time>
      </trkpt>
      <trkpt lat="49.75548" lon="5.22564">
        <ele>413.60000610352</ele>
        <time>2022-07-31T06:34:14.000Z</time>
      </trkpt>
      <trkpt lat="49.75555" lon="5.22566">
        <ele>412.79998779297</ele>
        <time>2022-07-31T06:34:15.000Z</time>
      </trkpt>
      <trkpt lat="49.75561" lon="5.22571">
        <ele>412.20001220703</ele>
        <time>2022-07-31T06:34:16.000Z</time>
      </trkpt>
      <trkpt lat="49.7557" lon="5.22581">
        <ele>411.39999389648</ele>
        <time>2022-07-31T06:34:18.000Z</time>
      </trkpt>
      <trkpt lat="49.7558" lon="5.22587">
        <ele>410.60000610352</ele>
        <time>2022-07-31T06:34:20.000Z</time>
      </trkpt>
      <trkpt lat="49.75585" lon="5.22589">
        <ele>410</ele>
        <time>2022-07-31T06:34:21.000Z</time>
      </trkpt>
      <trkpt lat="49.7559" lon="5.22589">
        <ele>409.60000610352</ele>
        <time>2022-07-31T06:34:22.000Z</time>
      </trkpt>
      <trkpt lat="49.756" lon="5.22593">
        <ele>408.20001220703</ele>
        <time>2022-07-31T06:34:24.000Z</time>
      </trkpt>
      <trkpt lat="49.75606" lon="5.22596">
        <ele>407.60000610352</ele>
        <time>2022-07-31T06:34:25.000Z</time>
      </trkpt>
      <trkpt lat="49.75611" lon="5.22598">
        <ele>406.79998779297</ele>
        <time>2022-07-31T06:34:26.000Z</time>
      </trkpt>
      <trkpt lat="49.75623" lon="5.22604">
        <ele>405.39999389648</ele>
        <time>2022-07-31T06:34:28.000Z</time>
      </trkpt>
      <trkpt lat="49.75631" lon="5.22606">
        <ele>404.79998779297</ele>
        <time>2022-07-31T06:34:29.000Z</time>
      </trkpt>
      <trkpt lat="49.75638" lon="5.22608">
        <ele>404.20001220703</ele>
        <time>2022-07-31T06:34:30.000Z</time>
      </trkpt>
      <trkpt lat="49.75654" lon="5.22613">
        <ele>402.39999389648</ele>
        <time>2022-07-31T06:34:32.000Z</time>
      </trkpt>
      <trkpt lat="49.75668" lon="5.22621">
        <ele>400.60000610352</ele>
        <time>2022-07-31T06:34:34.000Z</time>
      </trkpt>
      <trkpt lat="49.75681" lon="5.22629">
        <ele>399.20001220703</ele>
        <time>2022-07-31T06:34:36.000Z</time>
      </trkpt>
      <trkpt lat="49.75701" lon="5.22642">
        <ele>397.79998779297</ele>
        <time>2022-07-31T06:34:39.000Z</time>
      </trkpt>
      <trkpt lat="49.75715" lon="5.22651">
        <ele>398</ele>
        <time>2022-07-31T06:34:41.000Z</time>
      </trkpt>
      <trkpt lat="49.7572" lon="5.22656">
        <ele>398.20001220703</ele>
        <time>2022-07-31T06:34:42.000Z</time>
      </trkpt>
      <trkpt lat="49.75724" lon="5.22661">
        <ele>398.39999389648</ele>
        <time>2022-07-31T06:34:43.000Z</time>
      </trkpt>
      <trkpt lat="49.75738" lon="5.22672">
        <ele>397.39999389648</ele>
        <time>2022-07-31T06:34:47.000Z</time>
      </trkpt>
      <trkpt lat="49.75741" lon="5.22673">
        <ele>397</ele>
        <time>2022-07-31T06:34:48.000Z</time>
      </trkpt>
      <trkpt lat="49.75758" lon="5.22684">
        <ele>394.60000610352</ele>
        <time>2022-07-31T06:34:52.000Z</time>
      </trkpt>
      <trkpt lat="49.75767" lon="5.22688">
        <ele>393</ele>
        <time>2022-07-31T06:34:54.000Z</time>
      </trkpt>
      <trkpt lat="49.75773" lon="5.22691">
        <ele>392.20001220703</ele>
        <time>2022-07-31T06:34:56.000Z</time>
      </trkpt>
      <trkpt lat="49.75775" lon="5.22693">
        <ele>392</ele>
        <time>2022-07-31T06:34:57.000Z</time>
      </trkpt>
      <trkpt lat="49.75777" lon="5.22696">
        <ele>392</ele>
        <time>2022-07-31T06:34:58.000Z</time>
      </trkpt>
      <trkpt lat="49.7578" lon="5.22701">
        <ele>392.20001220703</ele>
        <time>2022-07-31T06:35:00.000Z</time>
      </trkpt>
      <trkpt lat="49.75782" lon="5.22704">
        <ele>392.20001220703</ele>
        <time>2022-07-31T06:35:01.000Z</time>
      </trkpt>
      <trkpt lat="49.7579" lon="5.22713">
        <ele>391.20001220703</ele>
        <time>2022-07-31T06:35:05.000Z</time>
      </trkpt>
      <trkpt lat="49.75795" lon="5.22723">
        <ele>390</ele>
        <time>2022-07-31T06:36:31.000Z</time>
      </trkpt>
      <trkpt lat="49.75788" lon="5.22736">
        <ele>391.39999389648</ele>
        <time>2022-07-31T06:36:36.000Z</time>
      </trkpt>
      <trkpt lat="49.75785" lon="5.22739">
        <ele>392</ele>
        <time>2022-07-31T06:36:37.000Z</time>
      </trkpt>
      <trkpt lat="49.75777" lon="5.22747">
        <ele>393</ele>
        <time>2022-07-31T06:36:41.000Z</time>
      </trkpt>
      <trkpt lat="49.75773" lon="5.22751">
        <ele>393.39999389648</ele>
        <time>2022-07-31T06:36:43.000Z</time>
      </trkpt>
      <trkpt lat="49.7577" lon="5.22759">
        <ele>393.79998779297</ele>
        <time>2022-07-31T06:36:46.000Z</time>
      </trkpt>
      <trkpt lat="49.75769" lon="5.22762">
        <ele>393.79998779297</ele>
        <time>2022-07-31T06:36:47.000Z</time>
      </trkpt>
      <trkpt lat="49.75765" lon="5.22782">
        <ele>394.20001220703</ele>
        <time>2022-07-31T06:36:52.000Z</time>
      </trkpt>
      <trkpt lat="49.75765" lon="5.22787">
        <ele>394</ele>
        <time>2022-07-31T06:36:53.000Z</time>
      </trkpt>
      <trkpt lat="49.75764" lon="5.22798">
        <ele>393.60000610352</ele>
        <time>2022-07-31T06:36:55.000Z</time>
      </trkpt>
      <trkpt lat="49.75763" lon="5.22807">
        <ele>393</ele>
        <time>2022-07-31T06:36:57.000Z</time>
      </trkpt>
      <trkpt lat="49.75761" lon="5.2281">
        <ele>393.39999389648</ele>
        <time>2022-07-31T06:36:58.000Z</time>
      </trkpt>
      <trkpt lat="49.7576" lon="5.22823">
        <ele>394</ele>
        <time>2022-07-31T06:37:04.000Z</time>
      </trkpt>
      <trkpt lat="49.75761" lon="5.22827">
        <ele>393.60000610352</ele>
        <time>2022-07-31T06:37:05.000Z</time>
      </trkpt>
      <trkpt lat="49.7576" lon="5.22833">
        <ele>393.20001220703</ele>
        <time>2022-07-31T06:37:06.000Z</time>
      </trkpt>
      <trkpt lat="49.75759" lon="5.22847">
        <ele>391.79998779297</ele>
        <time>2022-07-31T06:37:09.000Z</time>
      </trkpt>
      <trkpt lat="49.75759" lon="5.22861">
        <ele>390.60000610352</ele>
        <time>2022-07-31T06:37:11.000Z</time>
      </trkpt>
      <trkpt lat="49.75756" lon="5.22872">
        <ele>390.20001220703</ele>
        <time>2022-07-31T06:37:12.000Z</time>
      </trkpt>
      <trkpt lat="49.75749" lon="5.22904">
        <ele>391.79998779297</ele>
        <time>2022-07-31T06:37:19.000Z</time>
      </trkpt>
      <trkpt lat="49.75743" lon="5.22926">
        <ele>395.20001220703</ele>
        <time>2022-07-31T06:37:25.000Z</time>
      </trkpt>
      <trkpt lat="49.75743" lon="5.22941">
        <ele>396.60000610352</ele>
        <time>2022-07-31T06:37:30.000Z</time>
      </trkpt>
      <trkpt lat="49.75744" lon="5.22946">
        <ele>397.20001220703</ele>
        <time>2022-07-31T06:37:31.000Z</time>
      </trkpt>
      <trkpt lat="49.75744" lon="5.22949">
        <ele>397.60000610352</ele>
        <time>2022-07-31T06:37:32.000Z</time>
      </trkpt>
      <trkpt lat="49.75744" lon="5.22953">
        <ele>398</ele>
        <time>2022-07-31T06:37:33.000Z</time>
      </trkpt>
      <trkpt lat="49.75745" lon="5.22963">
        <ele>398.79998779297</ele>
        <time>2022-07-31T06:37:35.000Z</time>
      </trkpt>
      <trkpt lat="49.75746" lon="5.22973">
        <ele>398.79998779297</ele>
        <time>2022-07-31T06:37:37.000Z</time>
      </trkpt>
      <trkpt lat="49.75749" lon="5.22982">
        <ele>398</ele>
        <time>2022-07-31T06:37:39.000Z</time>
      </trkpt>
      <trkpt lat="49.75751" lon="5.22986">
        <ele>397.39999389648</ele>
        <time>2022-07-31T06:37:40.000Z</time>
      </trkpt>
      <trkpt lat="49.75754" lon="5.22991">
        <ele>396.79998779297</ele>
        <time>2022-07-31T06:37:42.000Z</time>
      </trkpt>
      <trkpt lat="49.75759" lon="5.22997">
        <ele>395.79998779297</ele>
        <time>2022-07-31T06:37:44.000Z</time>
      </trkpt>
      <trkpt lat="49.75762" lon="5.22997">
        <ele>395</ele>
        <time>2022-07-31T06:37:45.000Z</time>
      </trkpt>
      <trkpt lat="49.75766" lon="5.22999">
        <ele>394.20001220703</ele>
        <time>2022-07-31T06:37:46.000Z</time>
      </trkpt>
      <trkpt lat="49.75783" lon="5.23">
        <ele>389.39999389648</ele>
        <time>2022-07-31T06:37:50.000Z</time>
      </trkpt>
      <trkpt lat="49.75795" lon="5.22999">
        <ele>387.20001220703</ele>
        <time>2022-07-31T06:37:54.000Z</time>
      </trkpt>
      <trkpt lat="49.75802" lon="5.22998">
        <ele>386.20001220703</ele>
        <time>2022-07-31T06:37:56.000Z</time>
      </trkpt>
      <trkpt lat="49.75807" lon="5.22997">
        <ele>385.20001220703</ele>
        <time>2022-07-31T06:37:58.000Z</time>
      </trkpt>
      <trkpt lat="49.75818" lon="5.22993">
        <ele>383.39999389648</ele>
        <time>2022-07-31T06:38:01.000Z</time>
      </trkpt>
      <trkpt lat="49.75822" lon="5.22992">
        <ele>382.60000610352</ele>
        <time>2022-07-31T06:38:02.000Z</time>
      </trkpt>
      <trkpt lat="49.75826" lon="5.22991">
        <ele>382</ele>
        <time>2022-07-31T06:38:03.000Z</time>
      </trkpt>
      <trkpt lat="49.75839" lon="5.22989">
        <ele>379.79998779297</ele>
        <time>2022-07-31T06:38:06.000Z</time>
      </trkpt>
      <trkpt lat="49.75857" lon="5.23026">
        <ele>382.60000610352</ele>
        <time>2022-07-31T06:38:46.000Z</time>
      </trkpt>
      <trkpt lat="49.75856" lon="5.23033">
        <ele>384.20001220703</ele>
        <time>2022-07-31T06:38:49.000Z</time>
      </trkpt>
      <trkpt lat="49.75854" lon="5.23046">
        <ele>386.79998779297</ele>
        <time>2022-07-31T06:38:54.000Z</time>
      </trkpt>
      <trkpt lat="49.75853" lon="5.23051">
        <ele>387.79998779297</ele>
        <time>2022-07-31T06:38:56.000Z</time>
      </trkpt>
      <trkpt lat="49.75851" lon="5.23065">
        <ele>390.60000610352</ele>
        <time>2022-07-31T06:39:01.000Z</time>
      </trkpt>
      <trkpt lat="49.7585" lon="5.23074">
        <ele>392.39999389648</ele>
        <time>2022-07-31T06:39:04.000Z</time>
      </trkpt>
      <trkpt lat="49.7585" lon="5.2308">
        <ele>393.79998779297</ele>
        <time>2022-07-31T06:39:06.000Z</time>
      </trkpt>
      <trkpt lat="49.75849" lon="5.23097">
        <ele>396.39999389648</ele>
        <time>2022-07-31T06:39:10.000Z</time>
      </trkpt>
      <trkpt lat="49.75848" lon="5.23108">
        <ele>397.39999389648</ele>
        <time>2022-07-31T06:39:13.000Z</time>
      </trkpt>
      <trkpt lat="49.75846" lon="5.23122">
        <ele>399</ele>
        <time>2022-07-31T06:39:17.000Z</time>
      </trkpt>
      <trkpt lat="49.75844" lon="5.23138">
        <ele>400.60000610352</ele>
        <time>2022-07-31T06:39:21.000Z</time>
      </trkpt>
      <trkpt lat="49.75843" lon="5.2315">
        <ele>401.20001220703</ele>
        <time>2022-07-31T06:39:24.000Z</time>
      </trkpt>
      <trkpt lat="49.75841" lon="5.23164">
        <ele>402</ele>
        <time>2022-07-31T06:39:28.000Z</time>
      </trkpt>
      <trkpt lat="49.75842" lon="5.23172">
        <ele>402.20001220703</ele>
        <time>2022-07-31T06:39:30.000Z</time>
      </trkpt>
      <trkpt lat="49.75844" lon="5.23183">
        <ele>402.20001220703</ele>
        <time>2022-07-31T06:39:33.000Z</time>
      </trkpt>
      <trkpt lat="49.75845" lon="5.23192">
        <ele>402.39999389648</ele>
        <time>2022-07-31T06:39:35.000Z</time>
      </trkpt>
      <trkpt lat="49.75848" lon="5.23207">
        <ele>403.20001220703</ele>
        <time>2022-07-31T06:39:39.000Z</time>
      </trkpt>
      <trkpt lat="49.75848" lon="5.23211">
        <ele>403.39999389648</ele>
        <time>2022-07-31T06:39:40.000Z</time>
      </trkpt>
      <trkpt lat="49.75851" lon="5.23222">
        <ele>404</ele>
        <time>2022-07-31T06:39:43.000Z</time>
      </trkpt>
      <trkpt lat="49.75853" lon="5.23223">
        <ele>404</ele>
        <time>2022-07-31T06:39:44.000Z</time>
      </trkpt>
      <trkpt lat="49.75859" lon="5.23227">
        <ele>403.39999389648</ele>
        <time>2022-07-31T06:39:47.000Z</time>
      </trkpt>
      <trkpt lat="49.75864" lon="5.23232">
        <ele>403.20001220703</ele>
        <time>2022-07-31T06:39:49.000Z</time>
      </trkpt>
      <trkpt lat="49.75868" lon="5.23239">
        <ele>403.39999389648</ele>
        <time>2022-07-31T06:39:51.000Z</time>
      </trkpt>
      <trkpt lat="49.75873" lon="5.23252">
        <ele>404.39999389648</ele>
        <time>2022-07-31T06:39:54.000Z</time>
      </trkpt>
      <trkpt lat="49.75883" lon="5.23278">
        <ele>405.39999389648</ele>
        <time>2022-07-31T06:40:00.000Z</time>
      </trkpt>
      <trkpt lat="49.759" lon="5.23297">
        <ele>405.60000610352</ele>
        <time>2022-07-31T06:40:06.000Z</time>
      </trkpt>
      <trkpt lat="49.75911" lon="5.23296">
        <ele>404.79998779297</ele>
        <time>2022-07-31T06:40:10.000Z</time>
      </trkpt>
      <trkpt lat="49.75914" lon="5.23297">
        <ele>404.60000610352</ele>
        <time>2022-07-31T06:40:11.000Z</time>
      </trkpt>
      <trkpt lat="49.75918" lon="5.233">
        <ele>404.60000610352</ele>
        <time>2022-07-31T06:40:12.000Z</time>
      </trkpt>
      <trkpt lat="49.75931" lon="5.23311">
        <ele>404.20001220703</ele>
        <time>2022-07-31T06:40:14.000Z</time>
      </trkpt>
      <trkpt lat="49.75942" lon="5.23342">
        <ele>404.60000610352</ele>
        <time>2022-07-31T06:40:18.000Z</time>
      </trkpt>
      <trkpt lat="49.75949" lon="5.23361">
        <ele>404.39999389648</ele>
        <time>2022-07-31T06:40:21.000Z</time>
      </trkpt>
      <trkpt lat="49.75954" lon="5.23374">
        <ele>403.79998779297</ele>
        <time>2022-07-31T06:40:23.000Z</time>
      </trkpt>
      <trkpt lat="49.75956" lon="5.2338">
        <ele>403.39999389648</ele>
        <time>2022-07-31T06:40:24.000Z</time>
      </trkpt>
      <trkpt lat="49.75964" lon="5.23391">
        <ele>402.60000610352</ele>
        <time>2022-07-31T06:40:26.000Z</time>
      </trkpt>
      <trkpt lat="49.75974" lon="5.2341">
        <ele>401.60000610352</ele>
        <time>2022-07-31T06:40:29.000Z</time>
      </trkpt>
      <trkpt lat="49.75976" lon="5.23416">
        <ele>401.39999389648</ele>
        <time>2022-07-31T06:40:30.000Z</time>
      </trkpt>
      <trkpt lat="49.7598" lon="5.2345">
        <ele>401.79998779297</ele>
        <time>2022-07-31T06:40:35.000Z</time>
      </trkpt>
      <trkpt lat="49.75993" lon="5.23491">
        <ele>403.79998779297</ele>
        <time>2022-07-31T06:40:41.000Z</time>
      </trkpt>
      <trkpt lat="49.75997" lon="5.23498">
        <ele>404</ele>
        <time>2022-07-31T06:40:42.000Z</time>
      </trkpt>
      <trkpt lat="49.76005" lon="5.23516">
        <ele>404</ele>
        <time>2022-07-31T06:40:44.000Z</time>
      </trkpt>
      <trkpt lat="49.76007" lon="5.23525">
        <ele>403.79998779297</ele>
        <time>2022-07-31T06:40:45.000Z</time>
      </trkpt>
      <trkpt lat="49.76009" lon="5.23534">
        <ele>403.20001220703</ele>
        <time>2022-07-31T06:40:46.000Z</time>
      </trkpt>
      <trkpt lat="49.76013" lon="5.23561">
        <ele>401.60000610352</ele>
        <time>2022-07-31T06:40:49.000Z</time>
      </trkpt>
      <trkpt lat="49.76015" lon="5.23579">
        <ele>400.79998779297</ele>
        <time>2022-07-31T06:40:51.000Z</time>
      </trkpt>
      <trkpt lat="49.76016" lon="5.23598">
        <ele>398.60000610352</ele>
        <time>2022-07-31T06:40:53.000Z</time>
      </trkpt>
      <trkpt lat="49.76014" lon="5.23617">
        <ele>396.79998779297</ele>
        <time>2022-07-31T06:40:55.000Z</time>
      </trkpt>
      <trkpt lat="49.76012" lon="5.23627">
        <ele>396</ele>
        <time>2022-07-31T06:40:56.000Z</time>
      </trkpt>
      <trkpt lat="49.76011" lon="5.23635">
        <ele>395</ele>
        <time>2022-07-31T06:40:57.000Z</time>
      </trkpt>
      <trkpt lat="49.76009" lon="5.23643">
        <ele>394.79998779297</ele>
        <time>2022-07-31T06:40:58.000Z</time>
      </trkpt>
      <trkpt lat="49.76005" lon="5.23652">
        <ele>394.79998779297</ele>
        <time>2022-07-31T06:40:59.000Z</time>
      </trkpt>
      <trkpt lat="49.76" lon="5.23668">
        <ele>393.79998779297</ele>
        <time>2022-07-31T06:41:01.000Z</time>
      </trkpt>
      <trkpt lat="49.75998" lon="5.23685">
        <ele>392.79998779297</ele>
        <time>2022-07-31T06:41:03.000Z</time>
      </trkpt>
      <trkpt lat="49.75998" lon="5.23693">
        <ele>392</ele>
        <time>2022-07-31T06:41:04.000Z</time>
      </trkpt>
      <trkpt lat="49.75999" lon="5.23701">
        <ele>391</ele>
        <time>2022-07-31T06:41:05.000Z</time>
      </trkpt>
      <trkpt lat="49.76004" lon="5.23717">
        <ele>389.20001220703</ele>
        <time>2022-07-31T06:41:07.000Z</time>
      </trkpt>
      <trkpt lat="49.7601" lon="5.23732">
        <ele>387.20001220703</ele>
        <time>2022-07-31T06:41:09.000Z</time>
      </trkpt>
      <trkpt lat="49.76013" lon="5.2374">
        <ele>386</ele>
        <time>2022-07-31T06:41:10.000Z</time>
      </trkpt>
      <trkpt lat="49.76017" lon="5.23748">
        <ele>385.20001220703</ele>
        <time>2022-07-31T06:41:11.000Z</time>
      </trkpt>
      <trkpt lat="49.7602" lon="5.23757">
        <ele>384.60000610352</ele>
        <time>2022-07-31T06:41:12.000Z</time>
      </trkpt>
      <trkpt lat="49.76023" lon="5.23766">
        <ele>383.79998779297</ele>
        <time>2022-07-31T06:41:13.000Z</time>
      </trkpt>
      <trkpt lat="49.76027" lon="5.23776">
        <ele>383.20001220703</ele>
        <time>2022-07-31T06:41:14.000Z</time>
      </trkpt>
      <trkpt lat="49.76031" lon="5.23787">
        <ele>382.60000610352</ele>
        <time>2022-07-31T06:41:15.000Z</time>
      </trkpt>
      <trkpt lat="49.76035" lon="5.23795">
        <ele>382</ele>
        <time>2022-07-31T06:41:16.000Z</time>
      </trkpt>
      <trkpt lat="49.76039" lon="5.23803">
        <ele>381.79998779297</ele>
        <time>2022-07-31T06:41:17.000Z</time>
      </trkpt>
      <trkpt lat="49.7605" lon="5.23819">
        <ele>381.60000610352</ele>
        <time>2022-07-31T06:41:19.000Z</time>
      </trkpt>
      <trkpt lat="49.76055" lon="5.23826">
        <ele>381.60000610352</ele>
        <time>2022-07-31T06:41:20.000Z</time>
      </trkpt>
      <trkpt lat="49.76059" lon="5.23832">
        <ele>381.20001220703</ele>
        <time>2022-07-31T06:41:21.000Z</time>
      </trkpt>
      <trkpt lat="49.76069" lon="5.23849">
        <ele>381</ele>
        <time>2022-07-31T06:41:24.000Z</time>
      </trkpt>
      <trkpt lat="49.76075" lon="5.23856">
        <ele>381</ele>
        <time>2022-07-31T06:41:26.000Z</time>
      </trkpt>
      <trkpt lat="49.76081" lon="5.23862">
        <ele>381.39999389648</ele>
        <time>2022-07-31T06:41:28.000Z</time>
      </trkpt>
      <trkpt lat="49.76084" lon="5.23866">
        <ele>381.39999389648</ele>
        <time>2022-07-31T06:41:29.000Z</time>
      </trkpt>
      <trkpt lat="49.76091" lon="5.23874">
        <ele>381.79998779297</ele>
        <time>2022-07-31T06:41:31.000Z</time>
      </trkpt>
      <trkpt lat="49.76094" lon="5.23884">
        <ele>382</ele>
        <time>2022-07-31T06:41:33.000Z</time>
      </trkpt>
      <trkpt lat="49.76095" lon="5.23887">
        <ele>382.20001220703</ele>
        <time>2022-07-31T06:41:34.000Z</time>
      </trkpt>
      <trkpt lat="49.76098" lon="5.23893">
        <ele>382</ele>
        <time>2022-07-31T06:41:36.000Z</time>
      </trkpt>
      <trkpt lat="49.76098" lon="5.23902">
        <ele>381.79998779297</ele>
        <time>2022-07-31T06:41:38.000Z</time>
      </trkpt>
      <trkpt lat="49.76098" lon="5.23912">
        <ele>381.39999389648</ele>
        <time>2022-07-31T06:41:40.000Z</time>
      </trkpt>
      <trkpt lat="49.76101" lon="5.23923">
        <ele>381.39999389648</ele>
        <time>2022-07-31T06:41:42.000Z</time>
      </trkpt>
      <trkpt lat="49.76105" lon="5.23932">
        <ele>381.60000610352</ele>
        <time>2022-07-31T06:41:44.000Z</time>
      </trkpt>
      <trkpt lat="49.76114" lon="5.23963">
        <ele>380</ele>
        <time>2022-07-31T06:41:49.000Z</time>
      </trkpt>
      <trkpt lat="49.76116" lon="5.23972">
        <ele>379</ele>
        <time>2022-07-31T06:41:50.000Z</time>
      </trkpt>
      <trkpt lat="49.76118" lon="5.2398">
        <ele>377.79998779297</ele>
        <time>2022-07-31T06:41:51.000Z</time>
      </trkpt>
      <trkpt lat="49.7613" lon="5.23992">
        <ele>376</ele>
        <time>2022-07-31T06:41:53.000Z</time>
      </trkpt>
      <trkpt lat="49.76137" lon="5.23997">
        <ele>375.20001220703</ele>
        <time>2022-07-31T06:41:54.000Z</time>
      </trkpt>
      <trkpt lat="49.76144" lon="5.24">
        <ele>374.39999389648</ele>
        <time>2022-07-31T06:41:55.000Z</time>
      </trkpt>
      <trkpt lat="49.76158" lon="5.24008">
        <ele>371.79998779297</ele>
        <time>2022-07-31T06:41:57.000Z</time>
      </trkpt>
      <trkpt lat="49.76169" lon="5.24012">
        <ele>370</ele>
        <time>2022-07-31T06:41:59.000Z</time>
      </trkpt>
      <trkpt lat="49.76174" lon="5.24014">
        <ele>369.39999389648</ele>
        <time>2022-07-31T06:42:00.000Z</time>
      </trkpt>
      <trkpt lat="49.76179" lon="5.24016">
        <ele>369.20001220703</ele>
        <time>2022-07-31T06:42:01.000Z</time>
      </trkpt>
      <trkpt lat="49.76191" lon="5.24021">
        <ele>368.60000610352</ele>
        <time>2022-07-31T06:42:04.000Z</time>
      </trkpt>
      <trkpt lat="49.76196" lon="5.24022">
        <ele>368.39999389648</ele>
        <time>2022-07-31T06:42:05.000Z</time>
      </trkpt>
      <trkpt lat="49.76201" lon="5.24022">
        <ele>368.60000610352</ele>
        <time>2022-07-31T06:42:06.000Z</time>
      </trkpt>
      <trkpt lat="49.76205" lon="5.24022">
        <ele>368.60000610352</ele>
        <time>2022-07-31T06:42:07.000Z</time>
      </trkpt>
      <trkpt lat="49.76214" lon="5.2402">
        <ele>368.60000610352</ele>
        <time>2022-07-31T06:42:09.000Z</time>
      </trkpt>
      <trkpt lat="49.7622" lon="5.24019">
        <ele>368.60000610352</ele>
        <time>2022-07-31T06:42:10.000Z</time>
      </trkpt>
      <trkpt lat="49.76237" lon="5.24019">
        <ele>367.20001220703</ele>
        <time>2022-07-31T06:42:13.000Z</time>
      </trkpt>
      <trkpt lat="49.76246" lon="5.2402">
        <ele>365.60000610352</ele>
        <time>2022-07-31T06:42:15.000Z</time>
      </trkpt>
      <trkpt lat="49.7625" lon="5.24021">
        <ele>365</ele>
        <time>2022-07-31T06:42:16.000Z</time>
      </trkpt>
      <trkpt lat="49.76258" lon="5.24021">
        <ele>363.79998779297</ele>
        <time>2022-07-31T06:42:18.000Z</time>
      </trkpt>
      <trkpt lat="49.7627" lon="5.24021">
        <ele>360.79998779297</ele>
        <time>2022-07-31T06:42:21.000Z</time>
      </trkpt>
      <trkpt lat="49.76274" lon="5.24022">
        <ele>359.60000610352</ele>
        <time>2022-07-31T06:42:23.000Z</time>
      </trkpt>
      <trkpt lat="49.76277" lon="5.24022">
        <ele>359</ele>
        <time>2022-07-31T06:42:24.000Z</time>
      </trkpt>
      <trkpt lat="49.7628" lon="5.24023">
        <ele>358.20001220703</ele>
        <time>2022-07-31T06:42:25.000Z</time>
      </trkpt>
      <trkpt lat="49.76287" lon="5.24021">
        <ele>356.60000610352</ele>
        <time>2022-07-31T06:42:27.000Z</time>
      </trkpt>
      <trkpt lat="49.76293" lon="5.24021">
        <ele>355.60000610352</ele>
        <time>2022-07-31T06:42:29.000Z</time>
      </trkpt>
      <trkpt lat="49.76295" lon="5.24022">
        <ele>355</ele>
        <time>2022-07-31T06:42:30.000Z</time>
      </trkpt>
      <trkpt lat="49.76298" lon="5.24023">
        <ele>354.60000610352</ele>
        <time>2022-07-31T06:42:31.000Z</time>
      </trkpt>
      <trkpt lat="49.76302" lon="5.24026">
        <ele>353.60000610352</ele>
        <time>2022-07-31T06:42:33.000Z</time>
      </trkpt>
      <trkpt lat="49.76306" lon="5.24028">
        <ele>352.79998779297</ele>
        <time>2022-07-31T06:42:35.000Z</time>
      </trkpt>
      <trkpt lat="49.76308" lon="5.2403">
        <ele>352.20001220703</ele>
        <time>2022-07-31T06:42:36.000Z</time>
      </trkpt>
      <trkpt lat="49.7631" lon="5.24031">
        <ele>351.79998779297</ele>
        <time>2022-07-31T06:42:37.000Z</time>
      </trkpt>
      <trkpt lat="49.76318" lon="5.24033">
        <ele>350</ele>
        <time>2022-07-31T06:42:40.000Z</time>
      </trkpt>
      <trkpt lat="49.76323" lon="5.24035">
        <ele>348.39999389648</ele>
        <time>2022-07-31T06:42:42.000Z</time>
      </trkpt>
      <trkpt lat="49.76332" lon="5.24037">
        <ele>346.20001220703</ele>
        <time>2022-07-31T06:42:44.000Z</time>
      </trkpt>
      <trkpt lat="49.76341" lon="5.2404">
        <ele>344.20001220703</ele>
        <time>2022-07-31T06:42:46.000Z</time>
      </trkpt>
      <trkpt lat="49.76345" lon="5.24043">
        <ele>343.60000610352</ele>
        <time>2022-07-31T06:42:47.000Z</time>
      </trkpt>
      <trkpt lat="49.76349" lon="5.24047">
        <ele>343</ele>
        <time>2022-07-31T06:42:48.000Z</time>
      </trkpt>
      <trkpt lat="49.76358" lon="5.24053">
        <ele>342</ele>
        <time>2022-07-31T06:42:50.000Z</time>
      </trkpt>
      <trkpt lat="49.76363" lon="5.24055">
        <ele>341.79998779297</ele>
        <time>2022-07-31T06:42:51.000Z</time>
      </trkpt>
      <trkpt lat="49.76367" lon="5.24057">
        <ele>341.39999389648</ele>
        <time>2022-07-31T06:42:52.000Z</time>
      </trkpt>
      <trkpt lat="49.76372" lon="5.24058">
        <ele>341.20001220703</ele>
        <time>2022-07-31T06:42:53.000Z</time>
      </trkpt>
      <trkpt lat="49.76381" lon="5.2406">
        <ele>340.79998779297</ele>
        <time>2022-07-31T06:42:55.000Z</time>
      </trkpt>
      <trkpt lat="49.76388" lon="5.2406">
        <ele>340.39999389648</ele>
        <time>2022-07-31T06:42:56.000Z</time>
      </trkpt>
      <trkpt lat="49.76392" lon="5.24061">
        <ele>340.20001220703</ele>
        <time>2022-07-31T06:42:57.000Z</time>
      </trkpt>
      <trkpt lat="49.76399" lon="5.24064">
        <ele>339.60000610352</ele>
        <time>2022-07-31T06:42:58.000Z</time>
      </trkpt>
      <trkpt lat="49.76405" lon="5.24067">
        <ele>339</ele>
        <time>2022-07-31T06:42:59.000Z</time>
      </trkpt>
      <trkpt lat="49.76411" lon="5.2407">
        <ele>338.39999389648</ele>
        <time>2022-07-31T06:43:00.000Z</time>
      </trkpt>
      <trkpt lat="49.76424" lon="5.24078">
        <ele>337</ele>
        <time>2022-07-31T06:43:02.000Z</time>
      </trkpt>
      <trkpt lat="49.76436" lon="5.24083">
        <ele>335.79998779297</ele>
        <time>2022-07-31T06:43:04.000Z</time>
      </trkpt>
      <trkpt lat="49.76456" lon="5.24086">
        <ele>334.39999389648</ele>
        <time>2022-07-31T06:43:07.000Z</time>
      </trkpt>
      <trkpt lat="49.76462" lon="5.24086">
        <ele>333.79998779297</ele>
        <time>2022-07-31T06:43:08.000Z</time>
      </trkpt>
      <trkpt lat="49.76477" lon="5.24086">
        <ele>332.39999389648</ele>
        <time>2022-07-31T06:43:10.000Z</time>
      </trkpt>
      <trkpt lat="49.76491" lon="5.24087">
        <ele>331.20001220703</ele>
        <time>2022-07-31T06:43:12.000Z</time>
      </trkpt>
      <trkpt lat="49.76506" lon="5.24087">
        <ele>330.60000610352</ele>
        <time>2022-07-31T06:43:14.000Z</time>
      </trkpt>
      <trkpt lat="49.7652" lon="5.24085">
        <ele>330.39999389648</ele>
        <time>2022-07-31T06:43:16.000Z</time>
      </trkpt>
      <trkpt lat="49.76541" lon="5.24081">
        <ele>330.20001220703</ele>
        <time>2022-07-31T06:43:19.000Z</time>
      </trkpt>
      <trkpt lat="49.76548" lon="5.24079">
        <ele>329.39999389648</ele>
        <time>2022-07-31T06:43:20.000Z</time>
      </trkpt>
      <trkpt lat="49.7656" lon="5.24078">
        <ele>328.20001220703</ele>
        <time>2022-07-31T06:43:22.000Z</time>
      </trkpt>
      <trkpt lat="49.76565" lon="5.2408">
        <ele>327.79998779297</ele>
        <time>2022-07-31T06:43:23.000Z</time>
      </trkpt>
      <trkpt lat="49.76571" lon="5.24093">
        <ele>327.39999389648</ele>
        <time>2022-07-31T06:43:26.000Z</time>
      </trkpt>
      <trkpt lat="49.76575" lon="5.24103">
        <ele>327</ele>
        <time>2022-07-31T06:43:28.000Z</time>
      </trkpt>
      <trkpt lat="49.76579" lon="5.24115">
        <ele>327</ele>
        <time>2022-07-31T06:43:30.000Z</time>
      </trkpt>
      <trkpt lat="49.76582" lon="5.24128">
        <ele>327.20001220703</ele>
        <time>2022-07-31T06:43:32.000Z</time>
      </trkpt>
      <trkpt lat="49.76584" lon="5.24135">
        <ele>327.20001220703</ele>
        <time>2022-07-31T06:43:33.000Z</time>
      </trkpt>
      <trkpt lat="49.76589" lon="5.24154">
        <ele>327</ele>
        <time>2022-07-31T06:43:36.000Z</time>
      </trkpt>
      <trkpt lat="49.76592" lon="5.24167">
        <ele>326.39999389648</ele>
        <time>2022-07-31T06:43:38.000Z</time>
      </trkpt>
      <trkpt lat="49.76593" lon="5.24174">
        <ele>325.79998779297</ele>
        <time>2022-07-31T06:43:39.000Z</time>
      </trkpt>
      <trkpt lat="49.76596" lon="5.24187">
        <ele>324.60000610352</ele>
        <time>2022-07-31T06:43:42.000Z</time>
      </trkpt>
      <trkpt lat="49.76597" lon="5.24192">
        <ele>324</ele>
        <time>2022-07-31T06:43:43.000Z</time>
      </trkpt>
      <trkpt lat="49.76602" lon="5.2422">
        <ele>320.79998779297</ele>
        <time>2022-07-31T06:43:49.000Z</time>
      </trkpt>
      <trkpt lat="49.76604" lon="5.24222">
        <ele>320.60000610352</ele>
        <time>2022-07-31T06:43:50.000Z</time>
      </trkpt>
      <trkpt lat="49.76606" lon="5.24224">
        <ele>320.20001220703</ele>
        <time>2022-07-31T06:43:51.000Z</time>
      </trkpt>
      <trkpt lat="49.7661" lon="5.24227">
        <ele>319.79998779297</ele>
        <time>2022-07-31T06:43:53.000Z</time>
      </trkpt>
      <trkpt lat="49.76613" lon="5.24226">
        <ele>319.60000610352</ele>
        <time>2022-07-31T06:43:54.000Z</time>
      </trkpt>
      <trkpt lat="49.76616" lon="5.24226">
        <ele>319.39999389648</ele>
        <time>2022-07-31T06:43:55.000Z</time>
      </trkpt>
      <trkpt lat="49.76627" lon="5.24223">
        <ele>318.20001220703</ele>
        <time>2022-07-31T06:43:59.000Z</time>
      </trkpt>
      <trkpt lat="49.7663" lon="5.24221">
        <ele>318</ele>
        <time>2022-07-31T06:44:00.000Z</time>
      </trkpt>
      <trkpt lat="49.76637" lon="5.24214">
        <ele>318.20001220703</ele>
        <time>2022-07-31T06:44:04.000Z</time>
      </trkpt>
      <trkpt lat="49.76642" lon="5.24204">
        <ele>318.60000610352</ele>
        <time>2022-07-31T06:44:08.000Z</time>
      </trkpt>
      <trkpt lat="49.76648" lon="5.24201">
        <ele>318.20001220703</ele>
        <time>2022-07-31T06:44:12.000Z</time>
      </trkpt>
      <trkpt lat="49.76652" lon="5.24203">
        <ele>317.60000610352</ele>
        <time>2022-07-31T06:44:14.000Z</time>
      </trkpt>
      <trkpt lat="49.76656" lon="5.24205">
        <ele>316.79998779297</ele>
        <time>2022-07-31T06:44:16.000Z</time>
      </trkpt>
      <trkpt lat="49.76658" lon="5.24206">
        <ele>316.39999389648</ele>
        <time>2022-07-31T06:44:17.000Z</time>
      </trkpt>
      <trkpt lat="49.76667" lon="5.24208">
        <ele>314.79998779297</ele>
        <time>2022-07-31T06:44:20.000Z</time>
      </trkpt>
      <trkpt lat="49.7667" lon="5.24208">
        <ele>314.39999389648</ele>
        <time>2022-07-31T06:44:21.000Z</time>
      </trkpt>
      <trkpt lat="49.76682" lon="5.24208">
        <ele>313.20001220703</ele>
        <time>2022-07-31T06:44:24.000Z</time>
      </trkpt>
      <trkpt lat="49.7669" lon="5.24207">
        <ele>312.60000610352</ele>
        <time>2022-07-31T06:44:26.000Z</time>
      </trkpt>
      <trkpt lat="49.76694" lon="5.24206">
        <ele>312.39999389648</ele>
        <time>2022-07-31T06:44:27.000Z</time>
      </trkpt>
      <trkpt lat="49.76718" lon="5.24195">
        <ele>311.60000610352</ele>
        <time>2022-07-31T06:44:32.000Z</time>
      </trkpt>
      <trkpt lat="49.76726" lon="5.2419">
        <ele>311.20001220703</ele>
        <time>2022-07-31T06:44:34.000Z</time>
      </trkpt>
      <trkpt lat="49.76746" lon="5.24179">
        <ele>310.39999389648</ele>
        <time>2022-07-31T06:44:38.000Z</time>
      </trkpt>
      <trkpt lat="49.7676" lon="5.24172">
        <ele>309.20001220703</ele>
        <time>2022-07-31T06:44:41.000Z</time>
      </trkpt>
      <trkpt lat="49.76773" lon="5.24164">
        <ele>307.79998779297</ele>
        <time>2022-07-31T06:44:44.000Z</time>
      </trkpt>
      <trkpt lat="49.76788" lon="5.24156">
        <ele>306</ele>
        <time>2022-07-31T06:44:48.000Z</time>
      </trkpt>
      <trkpt lat="49.76791" lon="5.24154">
        <ele>305.79998779297</ele>
        <time>2022-07-31T06:44:49.000Z</time>
      </trkpt>
      <trkpt lat="49.76798" lon="5.2415">
        <ele>305.20001220703</ele>
        <time>2022-07-31T06:44:51.000Z</time>
      </trkpt>
      <trkpt lat="49.76807" lon="5.2415">
        <ele>304.20001220703</ele>
        <time>2022-07-31T06:44:54.000Z</time>
      </trkpt>
      <trkpt lat="49.7681" lon="5.24151">
        <ele>303.60000610352</ele>
        <time>2022-07-31T06:44:55.000Z</time>
      </trkpt>
      <trkpt lat="49.76822" lon="5.24149">
        <ele>302.39999389648</ele>
        <time>2022-07-31T06:44:58.000Z</time>
      </trkpt>
      <trkpt lat="49.7683" lon="5.24146">
        <ele>301.60000610352</ele>
        <time>2022-07-31T06:45:00.000Z</time>
      </trkpt>
      <trkpt lat="49.76834" lon="5.24144">
        <ele>301.39999389648</ele>
        <time>2022-07-31T06:45:01.000Z</time>
      </trkpt>
      <trkpt lat="49.76847" lon="5.24135">
        <ele>300</ele>
        <time>2022-07-31T06:45:04.000Z</time>
      </trkpt>
      <trkpt lat="49.76868" lon="5.24119">
        <ele>298.60000610352</ele>
        <time>2022-07-31T06:45:08.000Z</time>
      </trkpt>
      <trkpt lat="49.76879" lon="5.24112">
        <ele>297.20001220703</ele>
        <time>2022-07-31T06:45:10.000Z</time>
      </trkpt>
      <trkpt lat="49.76909" lon="5.24093">
        <ele>293.60000610352</ele>
        <time>2022-07-31T06:45:15.000Z</time>
      </trkpt>
      <trkpt lat="49.76921" lon="5.24085">
        <ele>292.60000610352</ele>
        <time>2022-07-31T06:45:17.000Z</time>
      </trkpt>
      <trkpt lat="49.76953" lon="5.24065">
        <ele>290</ele>
        <time>2022-07-31T06:45:23.000Z</time>
      </trkpt>
      <trkpt lat="49.77" lon="5.24031">
        <ele>289.39999389648</ele>
        <time>2022-07-31T06:45:32.000Z</time>
      </trkpt>
      <trkpt lat="49.77046" lon="5.23994">
        <ele>285.79998779297</ele>
        <time>2022-07-31T06:45:41.000Z</time>
      </trkpt>
      <trkpt lat="49.77098" lon="5.23954">
        <ele>271.20001220703</ele>
        <time>2022-07-31T06:45:52.000Z</time>
      </trkpt>
      <trkpt lat="49.77138" lon="5.23921">
        <ele>275.60000610352</ele>
        <time>2022-07-31T06:46:01.000Z</time>
      </trkpt>
      <trkpt lat="49.77188" lon="5.23884">
        <ele>296.20001220703</ele>
        <time>2022-07-31T06:46:12.000Z</time>
      </trkpt>
      <trkpt lat="49.77216" lon="5.23868">
        <ele>307.39999389648</ele>
        <time>2022-07-31T06:46:19.000Z</time>
      </trkpt>
      <trkpt lat="49.77233" lon="5.2386">
        <ele>309.60000610352</ele>
        <time>2022-07-31T06:46:23.000Z</time>
      </trkpt>
      <trkpt lat="49.77237" lon="5.23859">
        <ele>309.79998779297</ele>
        <time>2022-07-31T06:46:24.000Z</time>
      </trkpt>
      <trkpt lat="49.77278" lon="5.23841">
        <ele>310.20001220703</ele>
        <time>2022-07-31T06:46:33.000Z</time>
      </trkpt>
      <trkpt lat="49.77285" lon="5.23836">
        <ele>309.20001220703</ele>
        <time>2022-07-31T06:46:35.000Z</time>
      </trkpt>
      <trkpt lat="49.77301" lon="5.23828">
        <ele>307.60000610352</ele>
        <time>2022-07-31T06:46:39.000Z</time>
      </trkpt>
      <trkpt lat="49.77325" lon="5.23817">
        <ele>306.60000610352</ele>
        <time>2022-07-31T06:46:45.000Z</time>
      </trkpt>
      <trkpt lat="49.77329" lon="5.23816">
        <ele>306.60000610352</ele>
        <time>2022-07-31T06:46:46.000Z</time>
      </trkpt>
      <trkpt lat="49.77351" lon="5.2381">
        <ele>305.79998779297</ele>
        <time>2022-07-31T06:46:51.000Z</time>
      </trkpt>
      <trkpt lat="49.77379" lon="5.23792">
        <ele>303.79998779297</ele>
        <time>2022-07-31T06:46:58.000Z</time>
      </trkpt>
      <trkpt lat="49.77403" lon="5.23782">
        <ele>300.60000610352</ele>
        <time>2022-07-31T06:47:04.000Z</time>
      </trkpt>
      <trkpt lat="49.7743" lon="5.23776">
        <ele>299.20001220703</ele>
        <time>2022-07-31T06:47:10.000Z</time>
      </trkpt>
      <trkpt lat="49.77435" lon="5.23774">
        <ele>299.20001220703</ele>
        <time>2022-07-31T06:47:11.000Z</time>
      </trkpt>
      <trkpt lat="49.77468" lon="5.23762">
        <ele>299</ele>
        <time>2022-07-31T06:47:18.000Z</time>
      </trkpt>
      <trkpt lat="49.77486" lon="5.23755">
        <ele>300.20001220703</ele>
        <time>2022-07-31T06:47:22.000Z</time>
      </trkpt>
      <trkpt lat="49.77495" lon="5.23752">
        <ele>300.60000610352</ele>
        <time>2022-07-31T06:47:24.000Z</time>
      </trkpt>
      <trkpt lat="49.77515" lon="5.23747">
        <ele>301</ele>
        <time>2022-07-31T06:47:29.000Z</time>
      </trkpt>
      <trkpt lat="49.77532" lon="5.23744">
        <ele>301</ele>
        <time>2022-07-31T06:47:33.000Z</time>
      </trkpt>
      <trkpt lat="49.77542" lon="5.23745">
        <ele>301</ele>
        <time>2022-07-31T06:47:35.000Z</time>
      </trkpt>
      <trkpt lat="49.77551" lon="5.23744">
        <ele>301</ele>
        <time>2022-07-31T06:47:37.000Z</time>
      </trkpt>
      <trkpt lat="49.7756" lon="5.23739">
        <ele>301</ele>
        <time>2022-07-31T06:47:39.000Z</time>
      </trkpt>
      <trkpt lat="49.77596" lon="5.23722">
        <ele>301</ele>
        <time>2022-07-31T06:47:47.000Z</time>
      </trkpt>
      <trkpt lat="49.77601" lon="5.2372">
        <ele>300.79998779297</ele>
        <time>2022-07-31T06:47:48.000Z</time>
      </trkpt>
      <trkpt lat="49.77622" lon="5.23706">
        <ele>300.39999389648</ele>
        <time>2022-07-31T06:47:53.000Z</time>
      </trkpt>
      <trkpt lat="49.77624" lon="5.23701">
        <ele>300.60000610352</ele>
        <time>2022-07-31T06:47:54.000Z</time>
      </trkpt>
      <trkpt lat="49.77639" lon="5.23677">
        <ele>300</ele>
        <time>2022-07-31T06:47:59.000Z</time>
      </trkpt>
      <trkpt lat="49.77643" lon="5.23676">
        <ele>299.60000610352</ele>
        <time>2022-07-31T06:48:00.000Z</time>
      </trkpt>
      <trkpt lat="49.77681" lon="5.23661">
        <ele>299</ele>
        <time>2022-07-31T06:48:09.000Z</time>
      </trkpt>
      <trkpt lat="49.77715" lon="5.23647">
        <ele>300.79998779297</ele>
        <time>2022-07-31T06:48:17.000Z</time>
      </trkpt>
      <trkpt lat="49.77734" lon="5.23649">
        <ele>301.39999389648</ele>
        <time>2022-07-31T06:48:22.000Z</time>
      </trkpt>
      <trkpt lat="49.77742" lon="5.23648">
        <ele>301.39999389648</ele>
        <time>2022-07-31T06:48:24.000Z</time>
      </trkpt>
      <trkpt lat="49.77761" lon="5.23643">
        <ele>301.60000610352</ele>
        <time>2022-07-31T06:48:28.000Z</time>
      </trkpt>
      <trkpt lat="49.77803" lon="5.23627">
        <ele>300.60000610352</ele>
        <time>2022-07-31T06:48:37.000Z</time>
      </trkpt>
      <trkpt lat="49.77835" lon="5.2361">
        <ele>301.20001220703</ele>
        <time>2022-07-31T06:48:44.000Z</time>
      </trkpt>
      <trkpt lat="49.77871" lon="5.23582">
        <ele>306</ele>
        <time>2022-07-31T06:48:52.000Z</time>
      </trkpt>
      <trkpt lat="49.77907" lon="5.23555">
        <ele>309.20001220703</ele>
        <time>2022-07-31T06:48:59.000Z</time>
      </trkpt>
      <trkpt lat="49.77944" lon="5.23529">
        <ele>311</ele>
        <time>2022-07-31T06:49:06.000Z</time>
      </trkpt>
      <trkpt lat="49.7798" lon="5.23501">
        <ele>311.20001220703</ele>
        <time>2022-07-31T06:49:13.000Z</time>
      </trkpt>
      <trkpt lat="49.77985" lon="5.23496">
        <ele>311.20001220703</ele>
        <time>2022-07-31T06:49:14.000Z</time>
      </trkpt>
      <trkpt lat="49.78025" lon="5.23474">
        <ele>311</ele>
        <time>2022-07-31T06:49:21.000Z</time>
      </trkpt>
      <trkpt lat="49.78058" lon="5.23459">
        <ele>310.39999389648</ele>
        <time>2022-07-31T06:49:27.000Z</time>
      </trkpt>
      <trkpt lat="49.78097" lon="5.23439">
        <ele>308</ele>
        <time>2022-07-31T06:49:34.000Z</time>
      </trkpt>
      <trkpt lat="49.78122" lon="5.23427">
        <ele>305.60000610352</ele>
        <time>2022-07-31T06:49:39.000Z</time>
      </trkpt>
      <trkpt lat="49.78157" lon="5.23409">
        <ele>303.20001220703</ele>
        <time>2022-07-31T06:49:46.000Z</time>
      </trkpt>
      <trkpt lat="49.78179" lon="5.23398">
        <ele>302</ele>
        <time>2022-07-31T06:49:50.000Z</time>
      </trkpt>
      <trkpt lat="49.78201" lon="5.23388">
        <ele>300.20001220703</ele>
        <time>2022-07-31T06:49:54.000Z</time>
      </trkpt>
      <trkpt lat="49.78235" lon="5.23374">
        <ele>297.39999389648</ele>
        <time>2022-07-31T06:50:00.000Z</time>
      </trkpt>
      <trkpt lat="49.78246" lon="5.2337">
        <ele>297.20001220703</ele>
        <time>2022-07-31T06:50:02.000Z</time>
      </trkpt>
      <trkpt lat="49.78285" lon="5.23363">
        <ele>299.60000610352</ele>
        <time>2022-07-31T06:50:09.000Z</time>
      </trkpt>
      <trkpt lat="49.78303" lon="5.2336">
        <ele>299.79998779297</ele>
        <time>2022-07-31T06:50:12.000Z</time>
      </trkpt>
      <trkpt lat="49.78326" lon="5.23357">
        <ele>300</ele>
        <time>2022-07-31T06:50:16.000Z</time>
      </trkpt>
      <trkpt lat="49.78337" lon="5.23356">
        <ele>300</ele>
        <time>2022-07-31T06:50:18.000Z</time>
      </trkpt>
      <trkpt lat="49.7836" lon="5.23355">
        <ele>299.39999389648</ele>
        <time>2022-07-31T06:50:22.000Z</time>
      </trkpt>
      <trkpt lat="49.78399" lon="5.23352">
        <ele>298</ele>
        <time>2022-07-31T06:50:29.000Z</time>
      </trkpt>
      <trkpt lat="49.78427" lon="5.2335">
        <ele>298.39999389648</ele>
        <time>2022-07-31T06:50:34.000Z</time>
      </trkpt>
      <trkpt lat="49.78443" lon="5.2335">
        <ele>299.39999389648</ele>
        <time>2022-07-31T06:50:37.000Z</time>
      </trkpt>
      <trkpt lat="49.78465" lon="5.23348">
        <ele>300.20001220703</ele>
        <time>2022-07-31T06:50:41.000Z</time>
      </trkpt>
      <trkpt lat="49.78493" lon="5.23348">
        <ele>299</ele>
        <time>2022-07-31T06:50:46.000Z</time>
      </trkpt>
      <trkpt lat="49.78533" lon="5.23347">
        <ele>296.60000610352</ele>
        <time>2022-07-31T06:50:53.000Z</time>
      </trkpt>
      <trkpt lat="49.78545" lon="5.23346">
        <ele>296.20001220703</ele>
        <time>2022-07-31T06:50:55.000Z</time>
      </trkpt>
      <trkpt lat="49.78567" lon="5.23346">
        <ele>295.60000610352</ele>
        <time>2022-07-31T06:50:59.000Z</time>
      </trkpt>
      <trkpt lat="49.78611" lon="5.23342">
        <ele>294.79998779297</ele>
        <time>2022-07-31T06:51:07.000Z</time>
      </trkpt>
      <trkpt lat="49.78623" lon="5.23341">
        <ele>294.39999389648</ele>
        <time>2022-07-31T06:51:09.000Z</time>
      </trkpt>
      <trkpt lat="49.78645" lon="5.23339">
        <ele>293.20001220703</ele>
        <time>2022-07-31T06:51:13.000Z</time>
      </trkpt>
      <trkpt lat="49.78683" lon="5.23338">
        <ele>291.79998779297</ele>
        <time>2022-07-31T06:51:20.000Z</time>
      </trkpt>
      <trkpt lat="49.78695" lon="5.23338">
        <ele>291.60000610352</ele>
        <time>2022-07-31T06:51:22.000Z</time>
      </trkpt>
      <trkpt lat="49.78722" lon="5.23337">
        <ele>290.20001220703</ele>
        <time>2022-07-31T06:51:27.000Z</time>
      </trkpt>
      <trkpt lat="49.78761" lon="5.23336">
        <ele>286.79998779297</ele>
        <time>2022-07-31T06:51:34.000Z</time>
      </trkpt>
      <trkpt lat="49.78782" lon="5.23335">
        <ele>285.79998779297</ele>
        <time>2022-07-31T06:51:38.000Z</time>
      </trkpt>
      <trkpt lat="49.78786" lon="5.23335">
        <ele>285.60000610352</ele>
        <time>2022-07-31T06:51:39.000Z</time>
      </trkpt>
      <trkpt lat="49.7879" lon="5.23334">
        <ele>285.60000610352</ele>
        <time>2022-07-31T06:51:40.000Z</time>
      </trkpt>
      <trkpt lat="49.78795" lon="5.23334">
        <ele>285.39999389648</ele>
        <time>2022-07-31T06:51:41.000Z</time>
      </trkpt>
      <trkpt lat="49.78816" lon="5.23336">
        <ele>285.20001220703</ele>
        <time>2022-07-31T06:51:45.000Z</time>
      </trkpt>
      <trkpt lat="49.78841" lon="5.23335">
        <ele>284.39999389648</ele>
        <time>2022-07-31T06:51:50.000Z</time>
      </trkpt>
      <trkpt lat="49.78846" lon="5.23334">
        <ele>284.39999389648</ele>
        <time>2022-07-31T06:51:51.000Z</time>
      </trkpt>
      <trkpt lat="49.78852" lon="5.23334">
        <ele>284.20001220703</ele>
        <time>2022-07-31T06:51:52.000Z</time>
      </trkpt>
      <trkpt lat="49.78869" lon="5.23334">
        <ele>283</ele>
        <time>2022-07-31T06:51:55.000Z</time>
      </trkpt>
      <trkpt lat="49.78874" lon="5.23334">
        <ele>282.79998779297</ele>
        <time>2022-07-31T06:51:56.000Z</time>
      </trkpt>
      <trkpt lat="49.78922" lon="5.23334">
        <ele>281.20001220703</ele>
        <time>2022-07-31T06:52:04.000Z</time>
      </trkpt>
      <trkpt lat="49.78968" lon="5.23329">
        <ele>286</ele>
        <time>2022-07-31T06:52:12.000Z</time>
      </trkpt>
      <trkpt lat="49.78985" lon="5.23328">
        <ele>287.79998779297</ele>
        <time>2022-07-31T06:52:15.000Z</time>
      </trkpt>
      <trkpt lat="49.79002" lon="5.23329">
        <ele>289.60000610352</ele>
        <time>2022-07-31T06:52:18.000Z</time>
      </trkpt>
      <trkpt lat="49.79008" lon="5.2333">
        <ele>290.20001220703</ele>
        <time>2022-07-31T06:52:19.000Z</time>
      </trkpt>
      <trkpt lat="49.79018" lon="5.2333">
        <ele>291.20001220703</ele>
        <time>2022-07-31T06:52:22.000Z</time>
      </trkpt>
      <trkpt lat="49.79017" lon="5.23333">
        <ele>291.20001220703</ele>
        <time>2022-07-31T06:52:33.000Z</time>
      </trkpt>
      <trkpt lat="49.79015" lon="5.23335">
        <ele>291.20001220703</ele>
        <time>2022-07-31T06:52:34.000Z</time>
      </trkpt>
      <trkpt lat="49.79006" lon="5.23347">
        <ele>291.20001220703</ele>
        <time>2022-07-31T06:52:39.000Z</time>
      </trkpt>
      <trkpt lat="49.79005" lon="5.23349">
        <ele>291.39999389648</ele>
        <time>2022-07-31T06:52:40.000Z</time>
      </trkpt>
      <trkpt lat="49.79008" lon="5.2335">
        <ele>291.79998779297</ele>
        <time>2022-07-31T06:52:42.000Z</time>
      </trkpt>
      <trkpt lat="49.79011" lon="5.23351">
        <ele>292</ele>
        <time>2022-07-31T06:52:44.000Z</time>
      </trkpt>
      <trkpt lat="49.79016" lon="5.23352">
        <ele>292.39999389648</ele>
        <time>2022-07-31T06:52:46.000Z</time>
      </trkpt>
      <trkpt lat="49.79022" lon="5.23353">
        <ele>293</ele>
        <time>2022-07-31T06:52:48.000Z</time>
      </trkpt>
      <trkpt lat="49.79045" lon="5.23358">
        <ele>294.60000610352</ele>
        <time>2022-07-31T06:52:53.000Z</time>
      </trkpt>
      <trkpt lat="49.79087" lon="5.23366">
        <ele>297.20001220703</ele>
        <time>2022-07-31T06:53:01.000Z</time>
      </trkpt>
      <trkpt lat="49.79098" lon="5.23368">
        <ele>297.60000610352</ele>
        <time>2022-07-31T06:53:03.000Z</time>
      </trkpt>
      <trkpt lat="49.79132" lon="5.23376">
        <ele>296.79998779297</ele>
        <time>2022-07-31T06:53:09.000Z</time>
      </trkpt>
      <trkpt lat="49.79167" lon="5.23386">
        <ele>292.79998779297</ele>
        <time>2022-07-31T06:53:15.000Z</time>
      </trkpt>
      <trkpt lat="49.79202" lon="5.234">
        <ele>288</ele>
        <time>2022-07-31T06:53:21.000Z</time>
      </trkpt>
      <trkpt lat="49.79213" lon="5.23406">
        <ele>287.39999389648</ele>
        <time>2022-07-31T06:53:23.000Z</time>
      </trkpt>
      <trkpt lat="49.79238" lon="5.2342">
        <ele>287.20001220703</ele>
        <time>2022-07-31T06:53:27.000Z</time>
      </trkpt>
      <trkpt lat="49.79244" lon="5.23426">
        <ele>287.79998779297</ele>
        <time>2022-07-31T06:53:28.000Z</time>
      </trkpt>
      <trkpt lat="49.79249" lon="5.23432">
        <ele>288.39999389648</ele>
        <time>2022-07-31T06:53:29.000Z</time>
      </trkpt>
      <trkpt lat="49.79269" lon="5.23466">
        <ele>291</ele>
        <time>2022-07-31T06:53:33.000Z</time>
      </trkpt>
      <trkpt lat="49.79273" lon="5.23475">
        <ele>290.79998779297</ele>
        <time>2022-07-31T06:53:34.000Z</time>
      </trkpt>
      <trkpt lat="49.79287" lon="5.23509">
        <ele>289.79998779297</ele>
        <time>2022-07-31T06:53:38.000Z</time>
      </trkpt>
      <trkpt lat="49.7929" lon="5.23517">
        <ele>289.60000610352</ele>
        <time>2022-07-31T06:53:39.000Z</time>
      </trkpt>
      <trkpt lat="49.79313" lon="5.23561">
        <ele>290</ele>
        <time>2022-07-31T06:53:46.000Z</time>
      </trkpt>
      <trkpt lat="49.79325" lon="5.2357">
        <ele>290.60000610352</ele>
        <time>2022-07-31T06:53:49.000Z</time>
      </trkpt>
      <trkpt lat="49.7933" lon="5.23572">
        <ele>290.79998779297</ele>
        <time>2022-07-31T06:53:50.000Z</time>
      </trkpt>
      <trkpt lat="49.79353" lon="5.23569">
        <ele>289.79998779297</ele>
        <time>2022-07-31T06:53:55.000Z</time>
      </trkpt>
      <trkpt lat="49.79377" lon="5.23558">
        <ele>286.20001220703</ele>
        <time>2022-07-31T06:54:00.000Z</time>
      </trkpt>
      <trkpt lat="49.79386" lon="5.23554">
        <ele>284.79998779297</ele>
        <time>2022-07-31T06:54:02.000Z</time>
      </trkpt>
      <trkpt lat="49.794" lon="5.23549">
        <ele>283.20001220703</ele>
        <time>2022-07-31T06:54:05.000Z</time>
      </trkpt>
      <trkpt lat="49.79414" lon="5.23544">
        <ele>283</ele>
        <time>2022-07-31T06:54:08.000Z</time>
      </trkpt>
      <trkpt lat="49.79428" lon="5.23541">
        <ele>282.79998779297</ele>
        <time>2022-07-31T06:54:11.000Z</time>
      </trkpt>
      <trkpt lat="49.79452" lon="5.23536">
        <ele>283.60000610352</ele>
        <time>2022-07-31T06:54:16.000Z</time>
      </trkpt>
      <trkpt lat="49.79471" lon="5.23534">
        <ele>284.39999389648</ele>
        <time>2022-07-31T06:54:20.000Z</time>
      </trkpt>
      <trkpt lat="49.79494" lon="5.23532">
        <ele>288</ele>
        <time>2022-07-31T06:54:25.000Z</time>
      </trkpt>
      <trkpt lat="49.79513" lon="5.23531">
        <ele>291.79998779297</ele>
        <time>2022-07-31T06:54:29.000Z</time>
      </trkpt>
      <trkpt lat="49.79528" lon="5.2353">
        <ele>294.20001220703</ele>
        <time>2022-07-31T06:54:32.000Z</time>
      </trkpt>
      <trkpt lat="49.79538" lon="5.23529">
        <ele>295.79998779297</ele>
        <time>2022-07-31T06:54:34.000Z</time>
      </trkpt>
      <trkpt lat="49.79548" lon="5.23528">
        <ele>296.20001220703</ele>
        <time>2022-07-31T06:54:36.000Z</time>
      </trkpt>
      <trkpt lat="49.79567" lon="5.23527">
        <ele>297.79998779297</ele>
        <time>2022-07-31T06:54:40.000Z</time>
      </trkpt>
      <trkpt lat="49.79581" lon="5.23525">
        <ele>298.79998779297</ele>
        <time>2022-07-31T06:54:43.000Z</time>
      </trkpt>
      <trkpt lat="49.79594" lon="5.23525">
        <ele>299.79998779297</ele>
        <time>2022-07-31T06:54:46.000Z</time>
      </trkpt>
      <trkpt lat="49.79603" lon="5.23525">
        <ele>300.79998779297</ele>
        <time>2022-07-31T06:54:48.000Z</time>
      </trkpt>
      <trkpt lat="49.79616" lon="5.23524">
        <ele>302.39999389648</ele>
        <time>2022-07-31T06:54:51.000Z</time>
      </trkpt>
      <trkpt lat="49.7962" lon="5.23524">
        <ele>302.79998779297</ele>
        <time>2022-07-31T06:54:52.000Z</time>
      </trkpt>
      <trkpt lat="49.79628" lon="5.23524">
        <ele>303.39999389648</ele>
        <time>2022-07-31T06:54:54.000Z</time>
      </trkpt>
      <trkpt lat="49.79635" lon="5.23525">
        <ele>303.79998779297</ele>
        <time>2022-07-31T06:54:56.000Z</time>
      </trkpt>
      <trkpt lat="49.79643" lon="5.23525">
        <ele>304.39999389648</ele>
        <time>2022-07-31T06:54:58.000Z</time>
      </trkpt>
      <trkpt lat="49.7965" lon="5.23525">
        <ele>305</ele>
        <time>2022-07-31T06:55:00.000Z</time>
      </trkpt>
      <trkpt lat="49.79661" lon="5.23525">
        <ele>306.20001220703</ele>
        <time>2022-07-31T06:55:03.000Z</time>
      </trkpt>
      <trkpt lat="49.79667" lon="5.23524">
        <ele>307</ele>
        <time>2022-07-31T06:55:05.000Z</time>
      </trkpt>
      <trkpt lat="49.79674" lon="5.23523">
        <ele>307.79998779297</ele>
        <time>2022-07-31T06:55:07.000Z</time>
      </trkpt>
      <trkpt lat="49.79678" lon="5.23523">
        <ele>308.20001220703</ele>
        <time>2022-07-31T06:55:08.000Z</time>
      </trkpt>
      <trkpt lat="49.79681" lon="5.23523">
        <ele>308.39999389648</ele>
        <time>2022-07-31T06:55:09.000Z</time>
      </trkpt>
      <trkpt lat="49.79692" lon="5.23523">
        <ele>309.20001220703</ele>
        <time>2022-07-31T06:55:12.000Z</time>
      </trkpt>
      <trkpt lat="49.79698" lon="5.23523">
        <ele>309.60000610352</ele>
        <time>2022-07-31T06:55:14.000Z</time>
      </trkpt>
      <trkpt lat="49.79705" lon="5.23523">
        <ele>310.20001220703</ele>
        <time>2022-07-31T06:55:16.000Z</time>
      </trkpt>
      <trkpt lat="49.79714" lon="5.23523">
        <ele>311</ele>
        <time>2022-07-31T06:55:19.000Z</time>
      </trkpt>
      <trkpt lat="49.79723" lon="5.23524">
        <ele>311.79998779297</ele>
        <time>2022-07-31T06:55:22.000Z</time>
      </trkpt>
      <trkpt lat="49.79726" lon="5.23524">
        <ele>312</ele>
        <time>2022-07-31T06:55:23.000Z</time>
      </trkpt>
      <trkpt lat="49.79732" lon="5.23522">
        <ele>312.39999389648</ele>
        <time>2022-07-31T06:55:25.000Z</time>
      </trkpt>
      <trkpt lat="49.79738" lon="5.2352">
        <ele>313</ele>
        <time>2022-07-31T06:55:27.000Z</time>
      </trkpt>
      <trkpt lat="49.79744" lon="5.23518">
        <ele>314</ele>
        <time>2022-07-31T06:55:29.000Z</time>
      </trkpt>
      <trkpt lat="49.7975" lon="5.23514">
        <ele>314.79998779297</ele>
        <time>2022-07-31T06:55:31.000Z</time>
      </trkpt>
      <trkpt lat="49.79757" lon="5.23509">
        <ele>315.39999389648</ele>
        <time>2022-07-31T06:55:33.000Z</time>
      </trkpt>
      <trkpt lat="49.79763" lon="5.23503">
        <ele>317.20001220703</ele>
        <time>2022-07-31T06:55:35.000Z</time>
      </trkpt>
      <trkpt lat="49.79766" lon="5.235">
        <ele>318.20001220703</ele>
        <time>2022-07-31T06:55:36.000Z</time>
      </trkpt>
      <trkpt lat="49.79775" lon="5.23491">
        <ele>320.39999389648</ele>
        <time>2022-07-31T06:55:39.000Z</time>
      </trkpt>
      <trkpt lat="49.79781" lon="5.23485">
        <ele>322.20001220703</ele>
        <time>2022-07-31T06:55:41.000Z</time>
      </trkpt>
      <trkpt lat="49.79785" lon="5.23482">
        <ele>322.79998779297</ele>
        <time>2022-07-31T06:55:42.000Z</time>
      </trkpt>
      <trkpt lat="49.79794" lon="5.23474">
        <ele>325</ele>
        <time>2022-07-31T06:55:45.000Z</time>
      </trkpt>
      <trkpt lat="49.79801" lon="5.23463">
        <ele>326.79998779297</ele>
        <time>2022-07-31T06:55:48.000Z</time>
      </trkpt>
      <trkpt lat="49.79803" lon="5.2346">
        <ele>327.39999389648</ele>
        <time>2022-07-31T06:55:49.000Z</time>
      </trkpt>
      <trkpt lat="49.79811" lon="5.23446">
        <ele>329</ele>
        <time>2022-07-31T06:55:53.000Z</time>
      </trkpt>
      <trkpt lat="49.79816" lon="5.23436">
        <ele>329.79998779297</ele>
        <time>2022-07-31T06:55:56.000Z</time>
      </trkpt>
      <trkpt lat="49.79818" lon="5.23433">
        <ele>330.39999389648</ele>
        <time>2022-07-31T06:55:57.000Z</time>
      </trkpt>
      <trkpt lat="49.79824" lon="5.2342">
        <ele>332.20001220703</ele>
        <time>2022-07-31T06:56:00.000Z</time>
      </trkpt>
      <trkpt lat="49.79831" lon="5.23406">
        <ele>335</ele>
        <time>2022-07-31T06:56:03.000Z</time>
      </trkpt>
      <trkpt lat="49.79834" lon="5.23398">
        <ele>336.20001220703</ele>
        <time>2022-07-31T06:56:05.000Z</time>
      </trkpt>
      <trkpt lat="49.79839" lon="5.23384">
        <ele>337.20001220703</ele>
        <time>2022-07-31T06:56:08.000Z</time>
      </trkpt>
      <trkpt lat="49.79845" lon="5.23371">
        <ele>338.20001220703</ele>
        <time>2022-07-31T06:56:11.000Z</time>
      </trkpt>
      <trkpt lat="49.7985" lon="5.23357">
        <ele>338.79998779297</ele>
        <time>2022-07-31T06:56:14.000Z</time>
      </trkpt>
      <trkpt lat="49.79855" lon="5.23344">
        <ele>338.79998779297</ele>
        <time>2022-07-31T06:56:17.000Z</time>
      </trkpt>
      <trkpt lat="49.79857" lon="5.2334">
        <ele>338.79998779297</ele>
        <time>2022-07-31T06:56:18.000Z</time>
      </trkpt>
      <trkpt lat="49.79859" lon="5.23332">
        <ele>338.79998779297</ele>
        <time>2022-07-31T06:56:20.000Z</time>
      </trkpt>
      <trkpt lat="49.79865" lon="5.23322">
        <ele>339.39999389648</ele>
        <time>2022-07-31T06:56:23.000Z</time>
      </trkpt>
      <trkpt lat="49.7987" lon="5.2331">
        <ele>340</ele>
        <time>2022-07-31T06:56:26.000Z</time>
      </trkpt>
      <trkpt lat="49.79873" lon="5.23304">
        <ele>340.39999389648</ele>
        <time>2022-07-31T06:56:28.000Z</time>
      </trkpt>
      <trkpt lat="49.79878" lon="5.23294">
        <ele>340.39999389648</ele>
        <time>2022-07-31T06:56:31.000Z</time>
      </trkpt>
      <trkpt lat="49.79882" lon="5.23287">
        <ele>340.79998779297</ele>
        <time>2022-07-31T06:56:33.000Z</time>
      </trkpt>
      <trkpt lat="49.79884" lon="5.23283">
        <ele>341.20001220703</ele>
        <time>2022-07-31T06:56:34.000Z</time>
      </trkpt>
      <trkpt lat="49.79892" lon="5.23273">
        <ele>342.20001220703</ele>
        <time>2022-07-31T06:56:37.000Z</time>
      </trkpt>
      <trkpt lat="49.79898" lon="5.23265">
        <ele>343.20001220703</ele>
        <time>2022-07-31T06:56:40.000Z</time>
      </trkpt>
      <trkpt lat="49.79904" lon="5.23257">
        <ele>344</ele>
        <time>2022-07-31T06:56:43.000Z</time>
      </trkpt>
      <trkpt lat="49.79913" lon="5.23249">
        <ele>344.79998779297</ele>
        <time>2022-07-31T06:56:46.000Z</time>
      </trkpt>
      <trkpt lat="49.79923" lon="5.23244">
        <ele>345.79998779297</ele>
        <time>2022-07-31T06:56:49.000Z</time>
      </trkpt>
      <trkpt lat="49.79932" lon="5.23246">
        <ele>346</ele>
        <time>2022-07-31T06:56:51.000Z</time>
      </trkpt>
      <trkpt lat="49.79934" lon="5.2325">
        <ele>346</ele>
        <time>2022-07-31T06:56:52.000Z</time>
      </trkpt>
      <trkpt lat="49.79939" lon="5.23262">
        <ele>345.79998779297</ele>
        <time>2022-07-31T06:56:54.000Z</time>
      </trkpt>
      <trkpt lat="49.79944" lon="5.23277">
        <ele>346.20001220703</ele>
        <time>2022-07-31T06:56:56.000Z</time>
      </trkpt>
      <trkpt lat="49.79946" lon="5.233">
        <ele>348.20001220703</ele>
        <time>2022-07-31T06:56:59.000Z</time>
      </trkpt>
      <trkpt lat="49.79942" lon="5.2331">
        <ele>350</ele>
        <time>2022-07-31T06:57:01.000Z</time>
      </trkpt>
      <trkpt lat="49.79938" lon="5.23313">
        <ele>350.60000610352</ele>
        <time>2022-07-31T06:57:02.000Z</time>
      </trkpt>
      <trkpt lat="49.79923" lon="5.23336">
        <ele>353</ele>
        <time>2022-07-31T06:57:07.000Z</time>
      </trkpt>
      <trkpt lat="49.79919" lon="5.23363">
        <ele>357.20001220703</ele>
        <time>2022-07-31T06:57:11.000Z</time>
      </trkpt>
      <trkpt lat="49.79917" lon="5.23369">
        <ele>358</ele>
        <time>2022-07-31T06:57:12.000Z</time>
      </trkpt>
      <trkpt lat="49.79909" lon="5.23412">
        <ele>359</ele>
        <time>2022-07-31T06:57:18.000Z</time>
      </trkpt>
      <trkpt lat="49.79905" lon="5.23427">
        <ele>358.39999389648</ele>
        <time>2022-07-31T06:57:20.000Z</time>
      </trkpt>
      <trkpt lat="49.79902" lon="5.2344">
        <ele>358</ele>
        <time>2022-07-31T06:57:22.000Z</time>
      </trkpt>
      <trkpt lat="49.79901" lon="5.23447">
        <ele>357.79998779297</ele>
        <time>2022-07-31T06:57:23.000Z</time>
      </trkpt>
      <trkpt lat="49.79898" lon="5.23467">
        <ele>357.20001220703</ele>
        <time>2022-07-31T06:57:26.000Z</time>
      </trkpt>
      <trkpt lat="49.79897" lon="5.23475">
        <ele>357.20001220703</ele>
        <time>2022-07-31T06:57:27.000Z</time>
      </trkpt>
      <trkpt lat="49.79894" lon="5.23509">
        <ele>358</ele>
        <time>2022-07-31T06:57:32.000Z</time>
      </trkpt>
      <trkpt lat="49.79893" lon="5.23515">
        <ele>358.20001220703</ele>
        <time>2022-07-31T06:57:33.000Z</time>
      </trkpt>
      <trkpt lat="49.7989" lon="5.23541">
        <ele>357.60000610352</ele>
        <time>2022-07-31T06:57:37.000Z</time>
      </trkpt>
      <trkpt lat="49.79889" lon="5.23548">
        <ele>358</ele>
        <time>2022-07-31T06:57:38.000Z</time>
      </trkpt>
      <trkpt lat="49.79888" lon="5.23562">
        <ele>357.79998779297</ele>
        <time>2022-07-31T06:57:40.000Z</time>
      </trkpt>
      <trkpt lat="49.79887" lon="5.23592">
        <ele>358.39999389648</ele>
        <time>2022-07-31T06:57:44.000Z</time>
      </trkpt>
      <trkpt lat="49.79887" lon="5.23606">
        <ele>358.39999389648</ele>
        <time>2022-07-31T06:57:46.000Z</time>
      </trkpt>
      <trkpt lat="49.79887" lon="5.2362">
        <ele>358.39999389648</ele>
        <time>2022-07-31T06:57:48.000Z</time>
      </trkpt>
      <trkpt lat="49.79887" lon="5.2364">
        <ele>359.60000610352</ele>
        <time>2022-07-31T06:57:51.000Z</time>
      </trkpt>
      <trkpt lat="49.79889" lon="5.23661">
        <ele>361</ele>
        <time>2022-07-31T06:57:54.000Z</time>
      </trkpt>
      <trkpt lat="49.79893" lon="5.23689">
        <ele>361.79998779297</ele>
        <time>2022-07-31T06:57:58.000Z</time>
      </trkpt>
      <trkpt lat="49.79896" lon="5.23714">
        <ele>361.60000610352</ele>
        <time>2022-07-31T06:58:01.000Z</time>
      </trkpt>
      <trkpt lat="49.7991" lon="5.23776">
        <ele>364.60000610352</ele>
        <time>2022-07-31T06:58:09.000Z</time>
      </trkpt>
      <trkpt lat="49.79917" lon="5.23813">
        <ele>366.79998779297</ele>
        <time>2022-07-31T06:58:13.000Z</time>
      </trkpt>
      <trkpt lat="49.79917" lon="5.23823">
        <ele>367</ele>
        <time>2022-07-31T06:58:14.000Z</time>
      </trkpt>
      <trkpt lat="49.79909" lon="5.2385">
        <ele>366.60000610352</ele>
        <time>2022-07-31T06:58:17.000Z</time>
      </trkpt>
      <trkpt lat="49.799" lon="5.23867">
        <ele>365.20001220703</ele>
        <time>2022-07-31T06:58:19.000Z</time>
      </trkpt>
      <trkpt lat="49.79889" lon="5.23879">
        <ele>365</ele>
        <time>2022-07-31T06:58:21.000Z</time>
      </trkpt>
      <trkpt lat="49.79885" lon="5.23883">
        <ele>364.79998779297</ele>
        <time>2022-07-31T06:58:22.000Z</time>
      </trkpt>
      <trkpt lat="49.79881" lon="5.23886">
        <ele>364.39999389648</ele>
        <time>2022-07-31T06:58:23.000Z</time>
      </trkpt>
      <trkpt lat="49.79878" lon="5.23889">
        <ele>364.20001220703</ele>
        <time>2022-07-31T06:58:24.000Z</time>
      </trkpt>
      <trkpt lat="49.79868" lon="5.23903">
        <ele>365.39999389648</ele>
        <time>2022-07-31T06:58:28.000Z</time>
      </trkpt>
      <trkpt lat="49.79852" lon="5.23933">
        <ele>368.20001220703</ele>
        <time>2022-07-31T06:58:35.000Z</time>
      </trkpt>
      <trkpt lat="49.79847" lon="5.23947">
        <ele>368.79998779297</ele>
        <time>2022-07-31T06:58:38.000Z</time>
      </trkpt>
      <trkpt lat="49.79841" lon="5.23966">
        <ele>370</ele>
        <time>2022-07-31T06:58:42.000Z</time>
      </trkpt>
      <trkpt lat="49.79836" lon="5.23988">
        <ele>370.39999389648</ele>
        <time>2022-07-31T06:58:46.000Z</time>
      </trkpt>
      <trkpt lat="49.79831" lon="5.2401">
        <ele>371.79998779297</ele>
        <time>2022-07-31T06:58:50.000Z</time>
      </trkpt>
      <trkpt lat="49.79828" lon="5.24026">
        <ele>373.39999389648</ele>
        <time>2022-07-31T06:58:53.000Z</time>
      </trkpt>
      <trkpt lat="49.79825" lon="5.24041">
        <ele>374.60000610352</ele>
        <time>2022-07-31T06:58:56.000Z</time>
      </trkpt>
      <trkpt lat="49.79823" lon="5.24055">
        <ele>375.39999389648</ele>
        <time>2022-07-31T06:58:59.000Z</time>
      </trkpt>
      <trkpt lat="49.79821" lon="5.24069">
        <ele>376.39999389648</ele>
        <time>2022-07-31T06:59:02.000Z</time>
      </trkpt>
      <trkpt lat="49.7982" lon="5.24074">
        <ele>376.79998779297</ele>
        <time>2022-07-31T06:59:03.000Z</time>
      </trkpt>
      <trkpt lat="49.79818" lon="5.24086">
        <ele>377.60000610352</ele>
        <time>2022-07-31T06:59:05.000Z</time>
      </trkpt>
      <trkpt lat="49.79814" lon="5.24101">
        <ele>378.79998779297</ele>
        <time>2022-07-31T06:59:08.000Z</time>
      </trkpt>
      <trkpt lat="49.7981" lon="5.24115">
        <ele>380</ele>
        <time>2022-07-31T06:59:11.000Z</time>
      </trkpt>
      <trkpt lat="49.79809" lon="5.24136">
        <ele>381.39999389648</ele>
        <time>2022-07-31T06:59:15.000Z</time>
      </trkpt>
      <trkpt lat="49.79808" lon="5.24142">
        <ele>381.60000610352</ele>
        <time>2022-07-31T06:59:16.000Z</time>
      </trkpt>
      <trkpt lat="49.79807" lon="5.24154">
        <ele>382</ele>
        <time>2022-07-31T06:59:18.000Z</time>
      </trkpt>
      <trkpt lat="49.79804" lon="5.24174">
        <ele>384.20001220703</ele>
        <time>2022-07-31T06:59:22.000Z</time>
      </trkpt>
      <trkpt lat="49.79804" lon="5.24179">
        <ele>384.79998779297</ele>
        <time>2022-07-31T06:59:23.000Z</time>
      </trkpt>
      <trkpt lat="49.79802" lon="5.24196">
        <ele>386.39999389648</ele>
        <time>2022-07-31T06:59:26.000Z</time>
      </trkpt>
      <trkpt lat="49.79798" lon="5.2422">
        <ele>389.20001220703</ele>
        <time>2022-07-31T06:59:30.000Z</time>
      </trkpt>
      <trkpt lat="49.79794" lon="5.24237">
        <ele>391</ele>
        <time>2022-07-31T06:59:33.000Z</time>
      </trkpt>
      <trkpt lat="49.79792" lon="5.24252">
        <ele>392.79998779297</ele>
        <time>2022-07-31T06:59:36.000Z</time>
      </trkpt>
      <trkpt lat="49.7979" lon="5.24262">
        <ele>394</ele>
        <time>2022-07-31T06:59:38.000Z</time>
      </trkpt>
      <trkpt lat="49.79789" lon="5.24267">
        <ele>394.60000610352</ele>
        <time>2022-07-31T06:59:39.000Z</time>
      </trkpt>
      <trkpt lat="49.79788" lon="5.24277">
        <ele>395.39999389648</ele>
        <time>2022-07-31T06:59:41.000Z</time>
      </trkpt>
      <trkpt lat="49.79786" lon="5.24286">
        <ele>396.20001220703</ele>
        <time>2022-07-31T06:59:43.000Z</time>
      </trkpt>
      <trkpt lat="49.79784" lon="5.24294">
        <ele>396.79998779297</ele>
        <time>2022-07-31T06:59:45.000Z</time>
      </trkpt>
      <trkpt lat="49.79782" lon="5.24303">
        <ele>397.60000610352</ele>
        <time>2022-07-31T06:59:47.000Z</time>
      </trkpt>
      <trkpt lat="49.7978" lon="5.24317">
        <ele>399.20001220703</ele>
        <time>2022-07-31T06:59:50.000Z</time>
      </trkpt>
      <trkpt lat="49.79779" lon="5.24325">
        <ele>400.20001220703</ele>
        <time>2022-07-31T06:59:52.000Z</time>
      </trkpt>
      <trkpt lat="49.79777" lon="5.24334">
        <ele>400.79998779297</ele>
        <time>2022-07-31T06:59:54.000Z</time>
      </trkpt>
      <trkpt lat="49.79776" lon="5.24341">
        <ele>401.39999389648</ele>
        <time>2022-07-31T06:59:56.000Z</time>
      </trkpt>
      <trkpt lat="49.79775" lon="5.24345">
        <ele>401.79998779297</ele>
        <time>2022-07-31T06:59:57.000Z</time>
      </trkpt>
      <trkpt lat="49.79773" lon="5.2436">
        <ele>403</ele>
        <time>2022-07-31T07:00:00.000Z</time>
      </trkpt>
      <trkpt lat="49.7977" lon="5.24374">
        <ele>404.39999389648</ele>
        <time>2022-07-31T07:00:03.000Z</time>
      </trkpt>
      <trkpt lat="49.79767" lon="5.24384">
        <ele>405.20001220703</ele>
        <time>2022-07-31T07:00:05.000Z</time>
      </trkpt>
      <trkpt lat="49.79764" lon="5.24399">
        <ele>406.20001220703</ele>
        <time>2022-07-31T07:00:08.000Z</time>
      </trkpt>
      <trkpt lat="49.79763" lon="5.24404">
        <ele>406.60000610352</ele>
        <time>2022-07-31T07:00:09.000Z</time>
      </trkpt>
      <trkpt lat="49.79759" lon="5.24419">
        <ele>407.79998779297</ele>
        <time>2022-07-31T07:00:12.000Z</time>
      </trkpt>
      <trkpt lat="49.79755" lon="5.24435">
        <ele>408.79998779297</ele>
        <time>2022-07-31T07:00:15.000Z</time>
      </trkpt>
      <trkpt lat="49.79754" lon="5.24441">
        <ele>409.39999389648</ele>
        <time>2022-07-31T07:00:16.000Z</time>
      </trkpt>
      <trkpt lat="49.79752" lon="5.24457">
        <ele>411.20001220703</ele>
        <time>2022-07-31T07:00:19.000Z</time>
      </trkpt>
      <trkpt lat="49.79747" lon="5.24482">
        <ele>412.79998779297</ele>
        <time>2022-07-31T07:00:23.000Z</time>
      </trkpt>
      <trkpt lat="49.79743" lon="5.24505">
        <ele>413.39999389648</ele>
        <time>2022-07-31T07:00:27.000Z</time>
      </trkpt>
      <trkpt lat="49.79741" lon="5.24529">
        <ele>413.79998779297</ele>
        <time>2022-07-31T07:00:31.000Z</time>
      </trkpt>
      <trkpt lat="49.79739" lon="5.24564">
        <ele>412.20001220703</ele>
        <time>2022-07-31T07:00:37.000Z</time>
      </trkpt>
      <trkpt lat="49.79738" lon="5.24592">
        <ele>410.79998779297</ele>
        <time>2022-07-31T07:00:42.000Z</time>
      </trkpt>
      <trkpt lat="49.79735" lon="5.24634">
        <ele>410.60000610352</ele>
        <time>2022-07-31T07:00:49.000Z</time>
      </trkpt>
      <trkpt lat="49.79734" lon="5.24676">
        <ele>411.39999389648</ele>
        <time>2022-07-31T07:00:56.000Z</time>
      </trkpt>
      <trkpt lat="49.79733" lon="5.24682">
        <ele>411.60000610352</ele>
        <time>2022-07-31T07:00:57.000Z</time>
      </trkpt>
      <trkpt lat="49.7973" lon="5.24718">
        <ele>413.20001220703</ele>
        <time>2022-07-31T07:01:03.000Z</time>
      </trkpt>
      <trkpt lat="49.79731" lon="5.24731">
        <ele>413.60000610352</ele>
        <time>2022-07-31T07:01:05.000Z</time>
      </trkpt>
      <trkpt lat="49.79731" lon="5.24751">
        <ele>414.20001220703</ele>
        <time>2022-07-31T07:01:08.000Z</time>
      </trkpt>
      <trkpt lat="49.79732" lon="5.2477">
        <ele>414.79998779297</ele>
        <time>2022-07-31T07:01:11.000Z</time>
      </trkpt>
      <trkpt lat="49.79733" lon="5.24785">
        <ele>415</ele>
        <time>2022-07-31T07:01:13.000Z</time>
      </trkpt>
      <trkpt lat="49.79733" lon="5.24807">
        <ele>415.20001220703</ele>
        <time>2022-07-31T07:01:16.000Z</time>
      </trkpt>
      <trkpt lat="49.79733" lon="5.24836">
        <ele>416.20001220703</ele>
        <time>2022-07-31T07:01:20.000Z</time>
      </trkpt>
      <trkpt lat="49.79734" lon="5.24843">
        <ele>416.39999389648</ele>
        <time>2022-07-31T07:01:21.000Z</time>
      </trkpt>
      <trkpt lat="49.79735" lon="5.2488">
        <ele>418</ele>
        <time>2022-07-31T07:01:26.000Z</time>
      </trkpt>
      <trkpt lat="49.79737" lon="5.24896">
        <ele>418</ele>
        <time>2022-07-31T07:01:28.000Z</time>
      </trkpt>
      <trkpt lat="49.79741" lon="5.24926">
        <ele>417.20001220703</ele>
        <time>2022-07-31T07:01:32.000Z</time>
      </trkpt>
      <trkpt lat="49.79746" lon="5.24951">
        <ele>417</ele>
        <time>2022-07-31T07:01:36.000Z</time>
      </trkpt>
      <trkpt lat="49.79747" lon="5.24958">
        <ele>416.79998779297</ele>
        <time>2022-07-31T07:01:37.000Z</time>
      </trkpt>
      <trkpt lat="49.79757" lon="5.24996">
        <ele>416.79998779297</ele>
        <time>2022-07-31T07:01:42.000Z</time>
      </trkpt>
      <trkpt lat="49.79779" lon="5.25051">
        <ele>418</ele>
        <time>2022-07-31T07:01:50.000Z</time>
      </trkpt>
      <trkpt lat="49.7981" lon="5.25119">
        <ele>421.79998779297</ele>
        <time>2022-07-31T07:02:00.000Z</time>
      </trkpt>
      <trkpt lat="49.79829" lon="5.25163">
        <ele>421.79998779297</ele>
        <time>2022-07-31T07:02:07.000Z</time>
      </trkpt>
      <trkpt lat="49.79831" lon="5.25169">
        <ele>421.79998779297</ele>
        <time>2022-07-31T07:02:08.000Z</time>
      </trkpt>
      <trkpt lat="49.7984" lon="5.25186">
        <ele>421.79998779297</ele>
        <time>2022-07-31T07:02:12.000Z</time>
      </trkpt>
      <trkpt lat="49.79844" lon="5.25195">
        <ele>422.39999389648</ele>
        <time>2022-07-31T07:02:14.000Z</time>
      </trkpt>
      <trkpt lat="49.79854" lon="5.25216">
        <ele>423.79998779297</ele>
        <time>2022-07-31T07:02:19.000Z</time>
      </trkpt>
      <trkpt lat="49.79862" lon="5.25234">
        <ele>426.20001220703</ele>
        <time>2022-07-31T07:02:23.000Z</time>
      </trkpt>
      <trkpt lat="49.79867" lon="5.25249">
        <ele>428</ele>
        <time>2022-07-31T07:02:26.000Z</time>
      </trkpt>
      <trkpt lat="49.79877" lon="5.25268">
        <ele>430.20001220703</ele>
        <time>2022-07-31T07:02:30.000Z</time>
      </trkpt>
      <trkpt lat="49.79883" lon="5.25282">
        <ele>430.60000610352</ele>
        <time>2022-07-31T07:02:33.000Z</time>
      </trkpt>
      <trkpt lat="49.7989" lon="5.25301">
        <ele>431</ele>
        <time>2022-07-31T07:02:37.000Z</time>
      </trkpt>
      <trkpt lat="49.79897" lon="5.25316">
        <ele>430.39999389648</ele>
        <time>2022-07-31T07:02:40.000Z</time>
      </trkpt>
      <trkpt lat="49.79908" lon="5.2534">
        <ele>429.39999389648</ele>
        <time>2022-07-31T07:02:45.000Z</time>
      </trkpt>
      <trkpt lat="49.79912" lon="5.2535">
        <ele>429.20001220703</ele>
        <time>2022-07-31T07:02:47.000Z</time>
      </trkpt>
      <trkpt lat="49.79918" lon="5.25365">
        <ele>429.60000610352</ele>
        <time>2022-07-31T07:02:50.000Z</time>
      </trkpt>
      <trkpt lat="49.79926" lon="5.25384">
        <ele>430.20001220703</ele>
        <time>2022-07-31T07:02:54.000Z</time>
      </trkpt>
      <trkpt lat="49.79931" lon="5.25393">
        <ele>431.39999389648</ele>
        <time>2022-07-31T07:02:56.000Z</time>
      </trkpt>
      <trkpt lat="49.79935" lon="5.25408">
        <ele>433.20001220703</ele>
        <time>2022-07-31T07:02:59.000Z</time>
      </trkpt>
      <trkpt lat="49.79941" lon="5.25432">
        <ele>434.79998779297</ele>
        <time>2022-07-31T07:03:03.000Z</time>
      </trkpt>
      <trkpt lat="49.79945" lon="5.25442">
        <ele>435.39999389648</ele>
        <time>2022-07-31T07:03:05.000Z</time>
      </trkpt>
      <trkpt lat="49.79955" lon="5.25462">
        <ele>435.79998779297</ele>
        <time>2022-07-31T07:03:10.000Z</time>
      </trkpt>
      <trkpt lat="49.79958" lon="5.25467">
        <ele>435.79998779297</ele>
        <time>2022-07-31T07:03:11.000Z</time>
      </trkpt>
      <trkpt lat="49.79966" lon="5.25495">
        <ele>436</ele>
        <time>2022-07-31T07:03:16.000Z</time>
      </trkpt>
      <trkpt lat="49.79971" lon="5.25509">
        <ele>436.20001220703</ele>
        <time>2022-07-31T07:03:19.000Z</time>
      </trkpt>
      <trkpt lat="49.79976" lon="5.25526">
        <ele>436.60000610352</ele>
        <time>2022-07-31T07:03:22.000Z</time>
      </trkpt>
      <trkpt lat="49.79986" lon="5.25556">
        <ele>437.20001220703</ele>
        <time>2022-07-31T07:03:27.000Z</time>
      </trkpt>
      <trkpt lat="49.79993" lon="5.25573">
        <ele>437</ele>
        <time>2022-07-31T07:03:30.000Z</time>
      </trkpt>
      <trkpt lat="49.80012" lon="5.25618">
        <ele>435.39999389648</ele>
        <time>2022-07-31T07:03:37.000Z</time>
      </trkpt>
      <trkpt lat="49.80015" lon="5.25624">
        <ele>434.79998779297</ele>
        <time>2022-07-31T07:03:38.000Z</time>
      </trkpt>
      <trkpt lat="49.80026" lon="5.25648">
        <ele>433.60000610352</ele>
        <time>2022-07-31T07:03:42.000Z</time>
      </trkpt>
      <trkpt lat="49.80041" lon="5.25677">
        <ele>433.39999389648</ele>
        <time>2022-07-31T07:03:47.000Z</time>
      </trkpt>
      <trkpt lat="49.80058" lon="5.25711">
        <ele>434.60000610352</ele>
        <time>2022-07-31T07:03:54.000Z</time>
      </trkpt>
      <trkpt lat="49.8006" lon="5.25714">
        <ele>434.39999389648</ele>
        <time>2022-07-31T07:03:55.000Z</time>
      </trkpt>
      <trkpt lat="49.80063" lon="5.25718">
        <ele>434.39999389648</ele>
        <time>2022-07-31T07:05:47.000Z</time>
      </trkpt>
      <trkpt lat="49.80073" lon="5.25738">
        <ele>434.60000610352</ele>
        <time>2022-07-31T07:05:51.000Z</time>
      </trkpt>
      <trkpt lat="49.80095" lon="5.25787">
        <ele>434.20001220703</ele>
        <time>2022-07-31T07:05:58.000Z</time>
      </trkpt>
      <trkpt lat="49.80111" lon="5.25823">
        <ele>432</ele>
        <time>2022-07-31T07:06:03.000Z</time>
      </trkpt>
      <trkpt lat="49.80132" lon="5.25871">
        <ele>428.79998779297</ele>
        <time>2022-07-31T07:06:09.000Z</time>
      </trkpt>
      <trkpt lat="49.80135" lon="5.2588">
        <ele>427.79998779297</ele>
        <time>2022-07-31T07:06:10.000Z</time>
      </trkpt>
      <trkpt lat="49.80148" lon="5.25918">
        <ele>424.60000610352</ele>
        <time>2022-07-31T07:06:14.000Z</time>
      </trkpt>
      <trkpt lat="49.80151" lon="5.25929">
        <ele>423.79998779297</ele>
        <time>2022-07-31T07:06:15.000Z</time>
      </trkpt>
      <trkpt lat="49.80153" lon="5.2594">
        <ele>423</ele>
        <time>2022-07-31T07:06:16.000Z</time>
      </trkpt>
      <trkpt lat="49.80156" lon="5.25952">
        <ele>422.39999389648</ele>
        <time>2022-07-31T07:06:17.000Z</time>
      </trkpt>
      <trkpt lat="49.80166" lon="5.25988">
        <ele>421.20001220703</ele>
        <time>2022-07-31T07:06:20.000Z</time>
      </trkpt>
      <trkpt lat="49.80171" lon="5.2601">
        <ele>420.39999389648</ele>
        <time>2022-07-31T07:06:22.000Z</time>
      </trkpt>
      <trkpt lat="49.80174" lon="5.26027">
        <ele>420.39999389648</ele>
        <time>2022-07-31T07:06:24.000Z</time>
      </trkpt>
      <trkpt lat="49.80176" lon="5.26034">
        <ele>420.39999389648</ele>
        <time>2022-07-31T07:06:25.000Z</time>
      </trkpt>
      <trkpt lat="49.80189" lon="5.26055">
        <ele>420</ele>
        <time>2022-07-31T07:06:29.000Z</time>
      </trkpt>
      <trkpt lat="49.80199" lon="5.26064">
        <ele>419.20001220703</ele>
        <time>2022-07-31T07:06:31.000Z</time>
      </trkpt>
      <trkpt lat="49.80217" lon="5.26079">
        <ele>418.39999389648</ele>
        <time>2022-07-31T07:06:34.000Z</time>
      </trkpt>
      <trkpt lat="49.80234" lon="5.26096">
        <ele>418</ele>
        <time>2022-07-31T07:06:37.000Z</time>
      </trkpt>
      <trkpt lat="49.80256" lon="5.26124">
        <ele>418.79998779297</ele>
        <time>2022-07-31T07:06:41.000Z</time>
      </trkpt>
      <trkpt lat="49.80265" lon="5.26139">
        <ele>419</ele>
        <time>2022-07-31T07:06:43.000Z</time>
      </trkpt>
      <trkpt lat="49.80282" lon="5.26171">
        <ele>420.39999389648</ele>
        <time>2022-07-31T07:06:47.000Z</time>
      </trkpt>
      <trkpt lat="49.80301" lon="5.26223">
        <ele>424.20001220703</ele>
        <time>2022-07-31T07:06:53.000Z</time>
      </trkpt>
      <trkpt lat="49.80311" lon="5.26286">
        <ele>430.20001220703</ele>
        <time>2022-07-31T07:07:00.000Z</time>
      </trkpt>
      <trkpt lat="49.80325" lon="5.26376">
        <ele>429</ele>
        <time>2022-07-31T07:07:10.000Z</time>
      </trkpt>
      <trkpt lat="49.80338" lon="5.26465">
        <ele>427.60000610352</ele>
        <time>2022-07-31T07:07:20.000Z</time>
      </trkpt>
      <trkpt lat="49.80346" lon="5.26516">
        <ele>426.39999389648</ele>
        <time>2022-07-31T07:07:26.000Z</time>
      </trkpt>
      <trkpt lat="49.80348" lon="5.26531">
        <ele>426.39999389648</ele>
        <time>2022-07-31T07:07:28.000Z</time>
      </trkpt>
      <trkpt lat="49.80354" lon="5.26548">
        <ele>426.20001220703</ele>
        <time>2022-07-31T07:07:32.000Z</time>
      </trkpt>
      <trkpt lat="49.80362" lon="5.26546">
        <ele>425</ele>
        <time>2022-07-31T07:07:35.000Z</time>
      </trkpt>
      <trkpt lat="49.80365" lon="5.26544">
        <ele>424.60000610352</ele>
        <time>2022-07-31T07:07:36.000Z</time>
      </trkpt>
      <trkpt lat="49.80385" lon="5.26531">
        <ele>423.39999389648</ele>
        <time>2022-07-31T07:07:42.000Z</time>
      </trkpt>
      <trkpt lat="49.80396" lon="5.26525">
        <ele>423</ele>
        <time>2022-07-31T07:07:44.000Z</time>
      </trkpt>
      <trkpt lat="49.80414" lon="5.26518">
        <ele>424.79998779297</ele>
        <time>2022-07-31T07:07:47.000Z</time>
      </trkpt>
      <trkpt lat="49.8042" lon="5.26516">
        <ele>425.39999389648</ele>
        <time>2022-07-31T07:07:48.000Z</time>
      </trkpt>
      <trkpt lat="49.80456" lon="5.26511">
        <ele>427.60000610352</ele>
        <time>2022-07-31T07:07:54.000Z</time>
      </trkpt>
      <trkpt lat="49.80461" lon="5.26511">
        <ele>427.60000610352</ele>
        <time>2022-07-31T07:07:55.000Z</time>
      </trkpt>
      <trkpt lat="49.80484" lon="5.26518">
        <ele>427.39999389648</ele>
        <time>2022-07-31T07:07:59.000Z</time>
      </trkpt>
      <trkpt lat="49.80489" lon="5.26521">
        <ele>427</ele>
        <time>2022-07-31T07:08:00.000Z</time>
      </trkpt>
      <trkpt lat="49.80519" lon="5.26547">
        <ele>425.60000610352</ele>
        <time>2022-07-31T07:08:06.000Z</time>
      </trkpt>
      <trkpt lat="49.80548" lon="5.26575">
        <ele>426</ele>
        <time>2022-07-31T07:08:11.000Z</time>
      </trkpt>
      <trkpt lat="49.80554" lon="5.26581">
        <ele>425.79998779297</ele>
        <time>2022-07-31T07:08:12.000Z</time>
      </trkpt>
      <trkpt lat="49.80577" lon="5.26608">
        <ele>425.20001220703</ele>
        <time>2022-07-31T07:08:16.000Z</time>
      </trkpt>
      <trkpt lat="49.80598" lon="5.26641">
        <ele>423.39999389648</ele>
        <time>2022-07-31T07:08:20.000Z</time>
      </trkpt>
      <trkpt lat="49.80612" lon="5.26668">
        <ele>421.20001220703</ele>
        <time>2022-07-31T07:08:23.000Z</time>
      </trkpt>
      <trkpt lat="49.80616" lon="5.26677">
        <ele>420.20001220703</ele>
        <time>2022-07-31T07:08:24.000Z</time>
      </trkpt>
      <trkpt lat="49.80633" lon="5.26718">
        <ele>416.79998779297</ele>
        <time>2022-07-31T07:08:28.000Z</time>
      </trkpt>
      <trkpt lat="49.80636" lon="5.26729">
        <ele>415.79998779297</ele>
        <time>2022-07-31T07:08:29.000Z</time>
      </trkpt>
      <trkpt lat="49.80642" lon="5.26751">
        <ele>415</ele>
        <time>2022-07-31T07:08:31.000Z</time>
      </trkpt>
      <trkpt lat="49.80648" lon="5.26785">
        <ele>415.39999389648</ele>
        <time>2022-07-31T07:08:34.000Z</time>
      </trkpt>
      <trkpt lat="49.80649" lon="5.26797">
        <ele>415.60000610352</ele>
        <time>2022-07-31T07:08:35.000Z</time>
      </trkpt>
      <trkpt lat="49.8065" lon="5.26819">
        <ele>416.39999389648</ele>
        <time>2022-07-31T07:08:37.000Z</time>
      </trkpt>
      <trkpt lat="49.8065" lon="5.26841">
        <ele>417</ele>
        <time>2022-07-31T07:08:39.000Z</time>
      </trkpt>
      <trkpt lat="49.80652" lon="5.26898">
        <ele>415.79998779297</ele>
        <time>2022-07-31T07:08:44.000Z</time>
      </trkpt>
      <trkpt lat="49.80652" lon="5.26921">
        <ele>415.20001220703</ele>
        <time>2022-07-31T07:08:46.000Z</time>
      </trkpt>
      <trkpt lat="49.8065" lon="5.26943">
        <ele>415.60000610352</ele>
        <time>2022-07-31T07:08:48.000Z</time>
      </trkpt>
      <trkpt lat="49.80648" lon="5.26954">
        <ele>416</ele>
        <time>2022-07-31T07:08:49.000Z</time>
      </trkpt>
      <trkpt lat="49.80645" lon="5.26965">
        <ele>416.20001220703</ele>
        <time>2022-07-31T07:08:50.000Z</time>
      </trkpt>
      <trkpt lat="49.80639" lon="5.26997">
        <ele>417.39999389648</ele>
        <time>2022-07-31T07:08:53.000Z</time>
      </trkpt>
      <trkpt lat="49.80629" lon="5.27038">
        <ele>417.39999389648</ele>
        <time>2022-07-31T07:08:57.000Z</time>
      </trkpt>
      <trkpt lat="49.80624" lon="5.27056">
        <ele>417.20001220703</ele>
        <time>2022-07-31T07:08:59.000Z</time>
      </trkpt>
      <trkpt lat="49.80615" lon="5.2709">
        <ele>416.60000610352</ele>
        <time>2022-07-31T07:09:03.000Z</time>
      </trkpt>
      <trkpt lat="49.80613" lon="5.27126">
        <ele>415.79998779297</ele>
        <time>2022-07-31T07:09:07.000Z</time>
      </trkpt>
      <trkpt lat="49.80618" lon="5.27155">
        <ele>415.20001220703</ele>
        <time>2022-07-31T07:09:10.000Z</time>
      </trkpt>
      <trkpt lat="49.80621" lon="5.27163">
        <ele>414.79998779297</ele>
        <time>2022-07-31T07:09:11.000Z</time>
      </trkpt>
      <trkpt lat="49.80631" lon="5.27186">
        <ele>413.79998779297</ele>
        <time>2022-07-31T07:09:14.000Z</time>
      </trkpt>
      <trkpt lat="49.80638" lon="5.272">
        <ele>413.20001220703</ele>
        <time>2022-07-31T07:09:16.000Z</time>
      </trkpt>
      <trkpt lat="49.80654" lon="5.2723">
        <ele>412.79998779297</ele>
        <time>2022-07-31T07:09:21.000Z</time>
      </trkpt>
      <trkpt lat="49.80657" lon="5.27236">
        <ele>413</ele>
        <time>2022-07-31T07:09:22.000Z</time>
      </trkpt>
      <trkpt lat="49.80666" lon="5.27251">
        <ele>414.20001220703</ele>
        <time>2022-07-31T07:09:25.000Z</time>
      </trkpt>
      <trkpt lat="49.80678" lon="5.27271">
        <ele>416.20001220703</ele>
        <time>2022-07-31T07:09:29.000Z</time>
      </trkpt>
      <trkpt lat="49.80684" lon="5.27284">
        <ele>417</ele>
        <time>2022-07-31T07:09:32.000Z</time>
      </trkpt>
      <trkpt lat="49.80687" lon="5.27298">
        <ele>417.79998779297</ele>
        <time>2022-07-31T07:09:35.000Z</time>
      </trkpt>
      <trkpt lat="49.80689" lon="5.27314">
        <ele>417.60000610352</ele>
        <time>2022-07-31T07:09:38.000Z</time>
      </trkpt>
      <trkpt lat="49.8069" lon="5.27324">
        <ele>417.79998779297</ele>
        <time>2022-07-31T07:09:40.000Z</time>
      </trkpt>
      <trkpt lat="49.8069" lon="5.2733">
        <ele>418</ele>
        <time>2022-07-31T07:09:41.000Z</time>
      </trkpt>
      <trkpt lat="49.80692" lon="5.27352">
        <ele>418</ele>
        <time>2022-07-31T07:09:45.000Z</time>
      </trkpt>
      <trkpt lat="49.80693" lon="5.27363">
        <ele>418.39999389648</ele>
        <time>2022-07-31T07:09:47.000Z</time>
      </trkpt>
      <trkpt lat="49.80692" lon="5.27381">
        <ele>418.60000610352</ele>
        <time>2022-07-31T07:09:50.000Z</time>
      </trkpt>
      <trkpt lat="49.80693" lon="5.27403">
        <ele>420.20001220703</ele>
        <time>2022-07-31T07:09:54.000Z</time>
      </trkpt>
      <trkpt lat="49.80694" lon="5.27431">
        <ele>422.20001220703</ele>
        <time>2022-07-31T07:09:59.000Z</time>
      </trkpt>
      <trkpt lat="49.80694" lon="5.27442">
        <ele>423</ele>
        <time>2022-07-31T07:10:01.000Z</time>
      </trkpt>
      <trkpt lat="49.80694" lon="5.2746">
        <ele>424.20001220703</ele>
        <time>2022-07-31T07:10:04.000Z</time>
      </trkpt>
      <trkpt lat="49.80692" lon="5.27478">
        <ele>425</ele>
        <time>2022-07-31T07:10:07.000Z</time>
      </trkpt>
      <trkpt lat="49.80692" lon="5.27489">
        <ele>425.60000610352</ele>
        <time>2022-07-31T07:10:09.000Z</time>
      </trkpt>
      <trkpt lat="49.80691" lon="5.27518">
        <ele>426.39999389648</ele>
        <time>2022-07-31T07:10:14.000Z</time>
      </trkpt>
      <trkpt lat="49.80688" lon="5.27551">
        <ele>427</ele>
        <time>2022-07-31T07:10:19.000Z</time>
      </trkpt>
      <trkpt lat="49.80686" lon="5.27568">
        <ele>427</ele>
        <time>2022-07-31T07:10:22.000Z</time>
      </trkpt>
      <trkpt lat="49.80684" lon="5.27591">
        <ele>427.39999389648</ele>
        <time>2022-07-31T07:10:25.000Z</time>
      </trkpt>
      <trkpt lat="49.8068" lon="5.27623">
        <ele>427.60000610352</ele>
        <time>2022-07-31T07:10:29.000Z</time>
      </trkpt>
      <trkpt lat="49.80678" lon="5.27637">
        <ele>428</ele>
        <time>2022-07-31T07:10:31.000Z</time>
      </trkpt>
      <trkpt lat="49.80676" lon="5.27645">
        <ele>428</ele>
        <time>2022-07-31T07:10:32.000Z</time>
      </trkpt>
      <trkpt lat="49.80671" lon="5.27659">
        <ele>427.79998779297</ele>
        <time>2022-07-31T07:10:34.000Z</time>
      </trkpt>
      <trkpt lat="49.80654" lon="5.27717">
        <ele>426.39999389648</ele>
        <time>2022-07-31T07:10:42.000Z</time>
      </trkpt>
      <trkpt lat="49.80649" lon="5.2773">
        <ele>426.20001220703</ele>
        <time>2022-07-31T07:10:44.000Z</time>
      </trkpt>
      <trkpt lat="49.80637" lon="5.27755">
        <ele>425.60000610352</ele>
        <time>2022-07-31T07:10:48.000Z</time>
      </trkpt>
      <trkpt lat="49.8062" lon="5.27762">
        <ele>424</ele>
        <time>2022-07-31T07:10:52.000Z</time>
      </trkpt>
      <trkpt lat="49.80603" lon="5.27757">
        <ele>423.39999389648</ele>
        <time>2022-07-31T07:10:55.000Z</time>
      </trkpt>
      <trkpt lat="49.80593" lon="5.27754">
        <ele>423.39999389648</ele>
        <time>2022-07-31T07:10:57.000Z</time>
      </trkpt>
      <trkpt lat="49.8057" lon="5.27752">
        <ele>422.39999389648</ele>
        <time>2022-07-31T07:11:01.000Z</time>
      </trkpt>
      <trkpt lat="49.80557" lon="5.27749">
        <ele>421.39999389648</ele>
        <time>2022-07-31T07:11:03.000Z</time>
      </trkpt>
      <trkpt lat="49.8055" lon="5.27747">
        <ele>421</ele>
        <time>2022-07-31T07:11:04.000Z</time>
      </trkpt>
      <trkpt lat="49.80533" lon="5.27743">
        <ele>419.79998779297</ele>
        <time>2022-07-31T07:11:06.000Z</time>
      </trkpt>
      <trkpt lat="49.80517" lon="5.27739">
        <ele>418.20001220703</ele>
        <time>2022-07-31T07:11:08.000Z</time>
      </trkpt>
      <trkpt lat="49.805" lon="5.27735">
        <ele>416.79998779297</ele>
        <time>2022-07-31T07:11:10.000Z</time>
      </trkpt>
      <trkpt lat="49.80483" lon="5.27729">
        <ele>414.39999389648</ele>
        <time>2022-07-31T07:11:12.000Z</time>
      </trkpt>
      <trkpt lat="49.80475" lon="5.27724">
        <ele>413.79998779297</ele>
        <time>2022-07-31T07:11:13.000Z</time>
      </trkpt>
      <trkpt lat="49.80468" lon="5.27718">
        <ele>413.60000610352</ele>
        <time>2022-07-31T07:11:14.000Z</time>
      </trkpt>
      <trkpt lat="49.80453" lon="5.27702">
        <ele>413.39999389648</ele>
        <time>2022-07-31T07:11:16.000Z</time>
      </trkpt>
      <trkpt lat="49.80445" lon="5.27694">
        <ele>413.39999389648</ele>
        <time>2022-07-31T07:11:17.000Z</time>
      </trkpt>
      <trkpt lat="49.80428" lon="5.27677">
        <ele>413.60000610352</ele>
        <time>2022-07-31T07:11:19.000Z</time>
      </trkpt>
      <trkpt lat="49.80411" lon="5.27662">
        <ele>412</ele>
        <time>2022-07-31T07:11:21.000Z</time>
      </trkpt>
      <trkpt lat="49.80402" lon="5.27657">
        <ele>411</ele>
        <time>2022-07-31T07:11:22.000Z</time>
      </trkpt>
      <trkpt lat="49.80392" lon="5.27652">
        <ele>410</ele>
        <time>2022-07-31T07:11:23.000Z</time>
      </trkpt>
      <trkpt lat="49.80373" lon="5.27649">
        <ele>408.60000610352</ele>
        <time>2022-07-31T07:11:25.000Z</time>
      </trkpt>
      <trkpt lat="49.80363" lon="5.27649">
        <ele>408.20001220703</ele>
        <time>2022-07-31T07:11:26.000Z</time>
      </trkpt>
      <trkpt lat="49.80345" lon="5.27647">
        <ele>407.60000610352</ele>
        <time>2022-07-31T07:11:28.000Z</time>
      </trkpt>
      <trkpt lat="49.80336" lon="5.27645">
        <ele>407.60000610352</ele>
        <time>2022-07-31T07:11:29.000Z</time>
      </trkpt>
      <trkpt lat="49.80328" lon="5.27642">
        <ele>407.60000610352</ele>
        <time>2022-07-31T07:11:30.000Z</time>
      </trkpt>
      <trkpt lat="49.80311" lon="5.27634">
        <ele>408</ele>
        <time>2022-07-31T07:11:32.000Z</time>
      </trkpt>
      <trkpt lat="49.80302" lon="5.27629">
        <ele>408</ele>
        <time>2022-07-31T07:11:33.000Z</time>
      </trkpt>
      <trkpt lat="49.80296" lon="5.27629">
        <ele>408</ele>
        <time>2022-07-31T07:11:34.000Z</time>
      </trkpt>
      <trkpt lat="49.80283" lon="5.27644">
        <ele>408.20001220703</ele>
        <time>2022-07-31T07:11:37.000Z</time>
      </trkpt>
      <trkpt lat="49.80281" lon="5.27651">
        <ele>408.39999389648</ele>
        <time>2022-07-31T07:11:38.000Z</time>
      </trkpt>
      <trkpt lat="49.80276" lon="5.27668">
        <ele>407.79998779297</ele>
        <time>2022-07-31T07:11:40.000Z</time>
      </trkpt>
      <trkpt lat="49.80272" lon="5.27686">
        <ele>407.60000610352</ele>
        <time>2022-07-31T07:11:42.000Z</time>
      </trkpt>
      <trkpt lat="49.8027" lon="5.27697">
        <ele>407.20001220703</ele>
        <time>2022-07-31T07:11:43.000Z</time>
      </trkpt>
      <trkpt lat="49.80266" lon="5.27718">
        <ele>407.60000610352</ele>
        <time>2022-07-31T07:11:45.000Z</time>
      </trkpt>
      <trkpt lat="49.80267" lon="5.27733">
        <ele>406.60000610352</ele>
        <time>2022-07-31T07:11:46.000Z</time>
      </trkpt>
      <trkpt lat="49.80268" lon="5.2776">
        <ele>404.39999389648</ele>
        <time>2022-07-31T07:11:48.000Z</time>
      </trkpt>
      <trkpt lat="49.80269" lon="5.27805">
        <ele>400.79998779297</ele>
        <time>2022-07-31T07:11:51.000Z</time>
      </trkpt>
      <trkpt lat="49.80267" lon="5.27834">
        <ele>399.20001220703</ele>
        <time>2022-07-31T07:11:53.000Z</time>
      </trkpt>
      <trkpt lat="49.8026" lon="5.27864">
        <ele>398.79998779297</ele>
        <time>2022-07-31T07:11:55.000Z</time>
      </trkpt>
      <trkpt lat="49.80251" lon="5.27894">
        <ele>398</ele>
        <time>2022-07-31T07:11:57.000Z</time>
      </trkpt>
      <trkpt lat="49.80244" lon="5.27921">
        <ele>396.79998779297</ele>
        <time>2022-07-31T07:11:59.000Z</time>
      </trkpt>
      <trkpt lat="49.80239" lon="5.27949">
        <ele>396</ele>
        <time>2022-07-31T07:12:01.000Z</time>
      </trkpt>
      <trkpt lat="49.80233" lon="5.27979">
        <ele>394.39999389648</ele>
        <time>2022-07-31T07:12:03.000Z</time>
      </trkpt>
      <trkpt lat="49.8023" lon="5.28008">
        <ele>394.20001220703</ele>
        <time>2022-07-31T07:12:05.000Z</time>
      </trkpt>
      <trkpt lat="49.80227" lon="5.28037">
        <ele>393.60000610352</ele>
        <time>2022-07-31T07:12:07.000Z</time>
      </trkpt>
      <trkpt lat="49.80224" lon="5.28066">
        <ele>391.79998779297</ele>
        <time>2022-07-31T07:12:09.000Z</time>
      </trkpt>
      <trkpt lat="49.80215" lon="5.28109">
        <ele>388.39999389648</ele>
        <time>2022-07-31T07:12:12.000Z</time>
      </trkpt>
      <trkpt lat="49.80211" lon="5.2812">
        <ele>387.20001220703</ele>
        <time>2022-07-31T07:12:13.000Z</time>
      </trkpt>
      <trkpt lat="49.80195" lon="5.28148">
        <ele>382.60000610352</ele>
        <time>2022-07-31T07:12:16.000Z</time>
      </trkpt>
      <trkpt lat="49.80171" lon="5.28156">
        <ele>380.20001220703</ele>
        <time>2022-07-31T07:12:19.000Z</time>
      </trkpt>
      <trkpt lat="49.80163" lon="5.28158">
        <ele>380.60000610352</ele>
        <time>2022-07-31T07:12:20.000Z</time>
      </trkpt>
      <trkpt lat="49.80146" lon="5.28162">
        <ele>380.79998779297</ele>
        <time>2022-07-31T07:12:22.000Z</time>
      </trkpt>
      <trkpt lat="49.80128" lon="5.28169">
        <ele>380.60000610352</ele>
        <time>2022-07-31T07:12:24.000Z</time>
      </trkpt>
      <trkpt lat="49.8012" lon="5.28174">
        <ele>380</ele>
        <time>2022-07-31T07:12:25.000Z</time>
      </trkpt>
      <trkpt lat="49.80112" lon="5.2818">
        <ele>380.60000610352</ele>
        <time>2022-07-31T07:12:26.000Z</time>
      </trkpt>
      <trkpt lat="49.801" lon="5.2819">
        <ele>380</ele>
        <time>2022-07-31T07:12:28.000Z</time>
      </trkpt>
      <trkpt lat="49.80094" lon="5.28196">
        <ele>379.60000610352</ele>
        <time>2022-07-31T07:12:29.000Z</time>
      </trkpt>
      <trkpt lat="49.80083" lon="5.2821">
        <ele>378.20001220703</ele>
        <time>2022-07-31T07:12:31.000Z</time>
      </trkpt>
      <trkpt lat="49.80074" lon="5.28227">
        <ele>375.79998779297</ele>
        <time>2022-07-31T07:12:33.000Z</time>
      </trkpt>
      <trkpt lat="49.8006" lon="5.28255">
        <ele>372.79998779297</ele>
        <time>2022-07-31T07:12:36.000Z</time>
      </trkpt>
      <trkpt lat="49.80043" lon="5.28282">
        <ele>371</ele>
        <time>2022-07-31T07:12:39.000Z</time>
      </trkpt>
      <trkpt lat="49.8003" lon="5.28297">
        <ele>369.39999389648</ele>
        <time>2022-07-31T07:12:41.000Z</time>
      </trkpt>
      <trkpt lat="49.80024" lon="5.28301">
        <ele>369.39999389648</ele>
        <time>2022-07-31T07:12:42.000Z</time>
      </trkpt>
      <trkpt lat="49.80017" lon="5.28303">
        <ele>369.60000610352</ele>
        <time>2022-07-31T07:12:43.000Z</time>
      </trkpt>
      <trkpt lat="49.79997" lon="5.28298">
        <ele>369.20001220703</ele>
        <time>2022-07-31T07:12:46.000Z</time>
      </trkpt>
      <trkpt lat="49.79964" lon="5.28275">
        <ele>367.20001220703</ele>
        <time>2022-07-31T07:12:51.000Z</time>
      </trkpt>
      <trkpt lat="49.79951" lon="5.28264">
        <ele>366.39999389648</ele>
        <time>2022-07-31T07:12:53.000Z</time>
      </trkpt>
      <trkpt lat="49.79931" lon="5.2825">
        <ele>364.39999389648</ele>
        <time>2022-07-31T07:12:56.000Z</time>
      </trkpt>
      <trkpt lat="49.79924" lon="5.28245">
        <ele>364</ele>
        <time>2022-07-31T07:12:57.000Z</time>
      </trkpt>
      <trkpt lat="49.7991" lon="5.28234">
        <ele>364.20001220703</ele>
        <time>2022-07-31T07:12:59.000Z</time>
      </trkpt>
      <trkpt lat="49.79897" lon="5.28221">
        <ele>364.20001220703</ele>
        <time>2022-07-31T07:13:01.000Z</time>
      </trkpt>
      <trkpt lat="49.79892" lon="5.28213">
        <ele>364.20001220703</ele>
        <time>2022-07-31T07:13:02.000Z</time>
      </trkpt>
      <trkpt lat="49.79881" lon="5.28199">
        <ele>365.20001220703</ele>
        <time>2022-07-31T07:13:04.000Z</time>
      </trkpt>
      <trkpt lat="49.79874" lon="5.28196">
        <ele>365.39999389648</ele>
        <time>2022-07-31T07:13:05.000Z</time>
      </trkpt>
      <trkpt lat="49.79867" lon="5.28196">
        <ele>365.20001220703</ele>
        <time>2022-07-31T07:13:06.000Z</time>
      </trkpt>
      <trkpt lat="49.79862" lon="5.282">
        <ele>365</ele>
        <time>2022-07-31T07:13:07.000Z</time>
      </trkpt>
      <trkpt lat="49.79851" lon="5.28212">
        <ele>364</ele>
        <time>2022-07-31T07:13:09.000Z</time>
      </trkpt>
      <trkpt lat="49.79847" lon="5.28219">
        <ele>363.79998779297</ele>
        <time>2022-07-31T07:13:10.000Z</time>
      </trkpt>
      <trkpt lat="49.79841" lon="5.28225">
        <ele>363.79998779297</ele>
        <time>2022-07-31T07:13:11.000Z</time>
      </trkpt>
      <trkpt lat="49.79836" lon="5.2823">
        <ele>364</ele>
        <time>2022-07-31T07:13:12.000Z</time>
      </trkpt>
      <trkpt lat="49.79829" lon="5.28234">
        <ele>364.20001220703</ele>
        <time>2022-07-31T07:13:13.000Z</time>
      </trkpt>
      <trkpt lat="49.79816" lon="5.28239">
        <ele>364.20001220703</ele>
        <time>2022-07-31T07:13:15.000Z</time>
      </trkpt>
      <trkpt lat="49.79809" lon="5.28241">
        <ele>364.20001220703</ele>
        <time>2022-07-31T07:13:16.000Z</time>
      </trkpt>
      <trkpt lat="49.79797" lon="5.28247">
        <ele>362.60000610352</ele>
        <time>2022-07-31T07:13:18.000Z</time>
      </trkpt>
      <trkpt lat="49.79778" lon="5.28256">
        <ele>360.79998779297</ele>
        <time>2022-07-31T07:13:21.000Z</time>
      </trkpt>
      <trkpt lat="49.79765" lon="5.28263">
        <ele>359</ele>
        <time>2022-07-31T07:13:23.000Z</time>
      </trkpt>
      <trkpt lat="49.7975" lon="5.2827">
        <ele>356.60000610352</ele>
        <time>2022-07-31T07:13:25.000Z</time>
      </trkpt>
      <trkpt lat="49.79728" lon="5.28277">
        <ele>355</ele>
        <time>2022-07-31T07:13:28.000Z</time>
      </trkpt>
      <trkpt lat="49.79706" lon="5.28282">
        <ele>354.39999389648</ele>
        <time>2022-07-31T07:13:31.000Z</time>
      </trkpt>
      <trkpt lat="49.79682" lon="5.28284">
        <ele>353.60000610352</ele>
        <time>2022-07-31T07:13:34.000Z</time>
      </trkpt>
      <trkpt lat="49.79657" lon="5.28283">
        <ele>353.79998779297</ele>
        <time>2022-07-31T07:13:37.000Z</time>
      </trkpt>
      <trkpt lat="49.79631" lon="5.28277">
        <ele>355</ele>
        <time>2022-07-31T07:13:40.000Z</time>
      </trkpt>
      <trkpt lat="49.79613" lon="5.28272">
        <ele>354.60000610352</ele>
        <time>2022-07-31T07:13:42.000Z</time>
      </trkpt>
      <trkpt lat="49.79589" lon="5.28268">
        <ele>353</ele>
        <time>2022-07-31T07:13:45.000Z</time>
      </trkpt>
      <trkpt lat="49.79574" lon="5.28266">
        <ele>351.60000610352</ele>
        <time>2022-07-31T07:13:47.000Z</time>
      </trkpt>
      <trkpt lat="49.79558" lon="5.28264">
        <ele>350.79998779297</ele>
        <time>2022-07-31T07:13:49.000Z</time>
      </trkpt>
      <trkpt lat="49.79543" lon="5.28267">
        <ele>350</ele>
        <time>2022-07-31T07:13:51.000Z</time>
      </trkpt>
      <trkpt lat="49.79535" lon="5.2827">
        <ele>349.39999389648</ele>
        <time>2022-07-31T07:13:52.000Z</time>
      </trkpt>
      <trkpt lat="49.7952" lon="5.28277">
        <ele>349.39999389648</ele>
        <time>2022-07-31T07:13:54.000Z</time>
      </trkpt>
      <trkpt lat="49.79512" lon="5.28283">
        <ele>349.20001220703</ele>
        <time>2022-07-31T07:13:55.000Z</time>
      </trkpt>
      <trkpt lat="49.79504" lon="5.28289">
        <ele>349.39999389648</ele>
        <time>2022-07-31T07:13:56.000Z</time>
      </trkpt>
      <trkpt lat="49.79481" lon="5.28304">
        <ele>348.39999389648</ele>
        <time>2022-07-31T07:13:59.000Z</time>
      </trkpt>
      <trkpt lat="49.79474" lon="5.28305">
        <ele>348.39999389648</ele>
        <time>2022-07-31T07:14:00.000Z</time>
      </trkpt>
      <trkpt lat="49.79459" lon="5.28309">
        <ele>348.39999389648</ele>
        <time>2022-07-31T07:14:02.000Z</time>
      </trkpt>
      <trkpt lat="49.79435" lon="5.2831">
        <ele>345.20001220703</ele>
        <time>2022-07-31T07:14:05.000Z</time>
      </trkpt>
      <trkpt lat="49.79419" lon="5.2831">
        <ele>342.20001220703</ele>
        <time>2022-07-31T07:14:07.000Z</time>
      </trkpt>
      <trkpt lat="49.79395" lon="5.28313">
        <ele>338.39999389648</ele>
        <time>2022-07-31T07:14:10.000Z</time>
      </trkpt>
      <trkpt lat="49.79379" lon="5.28316">
        <ele>337.39999389648</ele>
        <time>2022-07-31T07:14:12.000Z</time>
      </trkpt>
      <trkpt lat="49.79366" lon="5.28315">
        <ele>336.79998779297</ele>
        <time>2022-07-31T07:14:14.000Z</time>
      </trkpt>
      <trkpt lat="49.79361" lon="5.28311">
        <ele>336.79998779297</ele>
        <time>2022-07-31T07:14:15.000Z</time>
      </trkpt>
      <trkpt lat="49.79358" lon="5.28305">
        <ele>336.60000610352</ele>
        <time>2022-07-31T07:14:16.000Z</time>
      </trkpt>
      <trkpt lat="49.79357" lon="5.28286">
        <ele>337</ele>
        <time>2022-07-31T07:14:18.000Z</time>
      </trkpt>
      <trkpt lat="49.79358" lon="5.28257">
        <ele>337.20001220703</ele>
        <time>2022-07-31T07:14:21.000Z</time>
      </trkpt>
      <trkpt lat="49.79357" lon="5.28241">
        <ele>337.20001220703</ele>
        <time>2022-07-31T07:14:23.000Z</time>
      </trkpt>
      <trkpt lat="49.79355" lon="5.28216">
        <ele>337</ele>
        <time>2022-07-31T07:14:26.000Z</time>
      </trkpt>
      <trkpt lat="49.79352" lon="5.28199">
        <ele>336.20001220703</ele>
        <time>2022-07-31T07:14:28.000Z</time>
      </trkpt>
      <trkpt lat="49.79344" lon="5.28171">
        <ele>335.39999389648</ele>
        <time>2022-07-31T07:14:32.000Z</time>
      </trkpt>
      <trkpt lat="49.79341" lon="5.28164">
        <ele>335</ele>
        <time>2022-07-31T07:14:33.000Z</time>
      </trkpt>
      <trkpt lat="49.79334" lon="5.28151">
        <ele>335</ele>
        <time>2022-07-31T07:14:35.000Z</time>
      </trkpt>
      <trkpt lat="49.7933" lon="5.28144">
        <ele>335.20001220703</ele>
        <time>2022-07-31T07:14:36.000Z</time>
      </trkpt>
      <trkpt lat="49.79321" lon="5.28129">
        <ele>335.39999389648</ele>
        <time>2022-07-31T07:14:38.000Z</time>
      </trkpt>
      <trkpt lat="49.79293" lon="5.2808">
        <ele>336</ele>
        <time>2022-07-31T07:14:45.000Z</time>
      </trkpt>
      <trkpt lat="49.79271" lon="5.28037">
        <ele>336.79998779297</ele>
        <time>2022-07-31T07:14:51.000Z</time>
      </trkpt>
      <trkpt lat="49.79261" lon="5.28013">
        <ele>337.60000610352</ele>
        <time>2022-07-31T07:14:54.000Z</time>
      </trkpt>
      <trkpt lat="49.79251" lon="5.27989">
        <ele>338</ele>
        <time>2022-07-31T07:14:57.000Z</time>
      </trkpt>
      <trkpt lat="49.79239" lon="5.27968">
        <ele>338.20001220703</ele>
        <time>2022-07-31T07:15:00.000Z</time>
      </trkpt>
      <trkpt lat="49.79226" lon="5.27946">
        <ele>337.79998779297</ele>
        <time>2022-07-31T07:15:03.000Z</time>
      </trkpt>
      <trkpt lat="49.79191" lon="5.27893">
        <ele>336</ele>
        <time>2022-07-31T07:15:11.000Z</time>
      </trkpt>
      <trkpt lat="49.79158" lon="5.27853">
        <ele>333.39999389648</ele>
        <time>2022-07-31T07:15:18.000Z</time>
      </trkpt>
      <trkpt lat="49.79129" lon="5.27825">
        <ele>334.60000610352</ele>
        <time>2022-07-31T07:15:24.000Z</time>
      </trkpt>
      <trkpt lat="49.79098" lon="5.27804">
        <ele>334.20001220703</ele>
        <time>2022-07-31T07:15:30.000Z</time>
      </trkpt>
      <trkpt lat="49.79077" lon="5.27793">
        <ele>334</ele>
        <time>2022-07-31T07:15:34.000Z</time>
      </trkpt>
      <trkpt lat="49.79073" lon="5.27789">
        <ele>334</ele>
        <time>2022-07-31T07:15:35.000Z</time>
      </trkpt>
      <trkpt lat="49.79062" lon="5.27773">
        <ele>334.20001220703</ele>
        <time>2022-07-31T07:15:38.000Z</time>
      </trkpt>
      <trkpt lat="49.79058" lon="5.27767">
        <ele>334.20001220703</ele>
        <time>2022-07-31T07:15:39.000Z</time>
      </trkpt>
      <trkpt lat="49.79038" lon="5.27721">
        <ele>335</ele>
        <time>2022-07-31T07:15:46.000Z</time>
      </trkpt>
      <trkpt lat="49.79029" lon="5.27686">
        <ele>335.79998779297</ele>
        <time>2022-07-31T07:15:51.000Z</time>
      </trkpt>
      <trkpt lat="49.79027" lon="5.27679">
        <ele>336</ele>
        <time>2022-07-31T07:15:52.000Z</time>
      </trkpt>
      <trkpt lat="49.79021" lon="5.27639">
        <ele>337.39999389648</ele>
        <time>2022-07-31T07:15:57.000Z</time>
      </trkpt>
      <trkpt lat="49.7902" lon="5.27616">
        <ele>338.60000610352</ele>
        <time>2022-07-31T07:16:00.000Z</time>
      </trkpt>
      <trkpt lat="49.7902" lon="5.27607">
        <ele>339</ele>
        <time>2022-07-31T07:16:01.000Z</time>
      </trkpt>
      <trkpt lat="49.79017" lon="5.2758">
        <ele>339.20001220703</ele>
        <time>2022-07-31T07:16:04.000Z</time>
      </trkpt>
      <trkpt lat="49.79021" lon="5.27522">
        <ele>338</ele>
        <time>2022-07-31T07:16:10.000Z</time>
      </trkpt>
      <trkpt lat="49.79026" lon="5.27482">
        <ele>336</ele>
        <time>2022-07-31T07:16:15.000Z</time>
      </trkpt>
      <trkpt lat="49.79027" lon="5.27475">
        <ele>335.79998779297</ele>
        <time>2022-07-31T07:16:16.000Z</time>
      </trkpt>
      <trkpt lat="49.79029" lon="5.27432">
        <ele>334.79998779297</ele>
        <time>2022-07-31T07:16:22.000Z</time>
      </trkpt>
      <trkpt lat="49.79029" lon="5.27425">
        <ele>335</ele>
        <time>2022-07-31T07:16:23.000Z</time>
      </trkpt>
      <trkpt lat="49.79026" lon="5.27379">
        <ele>336.60000610352</ele>
        <time>2022-07-31T07:16:29.000Z</time>
      </trkpt>
      <trkpt lat="49.79027" lon="5.27372">
        <ele>336.79998779297</ele>
        <time>2022-07-31T07:16:30.000Z</time>
      </trkpt>
      <trkpt lat="49.79026" lon="5.27347">
        <ele>337.20001220703</ele>
        <time>2022-07-31T07:16:34.000Z</time>
      </trkpt>
      <trkpt lat="49.79024" lon="5.27341">
        <ele>336.60000610352</ele>
        <time>2022-07-31T07:16:35.000Z</time>
      </trkpt>
      <trkpt lat="49.7902" lon="5.27322">
        <ele>335</ele>
        <time>2022-07-31T07:16:38.000Z</time>
      </trkpt>
      <trkpt lat="49.79019" lon="5.27314">
        <ele>334</ele>
        <time>2022-07-31T07:16:39.000Z</time>
      </trkpt>
      <trkpt lat="49.79014" lon="5.27298">
        <ele>332.20001220703</ele>
        <time>2022-07-31T07:16:41.000Z</time>
      </trkpt>
      <trkpt lat="49.79012" lon="5.2729">
        <ele>331.20001220703</ele>
        <time>2022-07-31T07:16:42.000Z</time>
      </trkpt>
      <trkpt lat="49.79007" lon="5.27275">
        <ele>329.79998779297</ele>
        <time>2022-07-31T07:16:44.000Z</time>
      </trkpt>
      <trkpt lat="49.79005" lon="5.27257">
        <ele>329.20001220703</ele>
        <time>2022-07-31T07:16:46.000Z</time>
      </trkpt>
      <trkpt lat="49.79006" lon="5.27249">
        <ele>329</ele>
        <time>2022-07-31T07:16:47.000Z</time>
      </trkpt>
      <trkpt lat="49.79006" lon="5.27241">
        <ele>328.60000610352</ele>
        <time>2022-07-31T07:16:48.000Z</time>
      </trkpt>
      <trkpt lat="49.79008" lon="5.27226">
        <ele>327.60000610352</ele>
        <time>2022-07-31T07:16:51.000Z</time>
      </trkpt>
      <trkpt lat="49.79011" lon="5.27204">
        <ele>326.20001220703</ele>
        <time>2022-07-31T07:16:55.000Z</time>
      </trkpt>
      <trkpt lat="49.79011" lon="5.27196">
        <ele>325</ele>
        <time>2022-07-31T07:16:57.000Z</time>
      </trkpt>
      <trkpt lat="49.79009" lon="5.27188">
        <ele>323</ele>
        <time>2022-07-31T07:16:59.000Z</time>
      </trkpt>
      <trkpt lat="49.79006" lon="5.27177">
        <ele>321.60000610352</ele>
        <time>2022-07-31T07:17:02.000Z</time>
      </trkpt>
      <trkpt lat="49.79002" lon="5.27157">
        <ele>319.60000610352</ele>
        <time>2022-07-31T07:17:07.000Z</time>
      </trkpt>
      <trkpt lat="49.79001" lon="5.27151">
        <ele>319.39999389648</ele>
        <time>2022-07-31T07:17:09.000Z</time>
      </trkpt>
      <trkpt lat="49.79003" lon="5.27138">
        <ele>320.20001220703</ele>
        <time>2022-07-31T07:17:13.000Z</time>
      </trkpt>
      <trkpt lat="49.79003" lon="5.27131">
        <ele>320.39999389648</ele>
        <time>2022-07-31T07:17:14.000Z</time>
      </trkpt>
      <trkpt lat="49.78996" lon="5.27092">
        <ele>321.60000610352</ele>
        <time>2022-07-31T07:17:19.000Z</time>
      </trkpt>
      <trkpt lat="49.78983" lon="5.2707">
        <ele>322.39999389648</ele>
        <time>2022-07-31T07:17:23.000Z</time>
      </trkpt>
      <trkpt lat="49.78973" lon="5.2706">
        <ele>322.20001220703</ele>
        <time>2022-07-31T07:17:25.000Z</time>
      </trkpt>
      <trkpt lat="49.78963" lon="5.27053">
        <ele>321.39999389648</ele>
        <time>2022-07-31T07:17:27.000Z</time>
      </trkpt>
      <trkpt lat="49.78953" lon="5.27046">
        <ele>320.79998779297</ele>
        <time>2022-07-31T07:17:29.000Z</time>
      </trkpt>
      <trkpt lat="49.78941" lon="5.27029">
        <ele>321</ele>
        <time>2022-07-31T07:17:32.000Z</time>
      </trkpt>
      <trkpt lat="49.78937" lon="5.27022">
        <ele>321.39999389648</ele>
        <time>2022-07-31T07:17:33.000Z</time>
      </trkpt>
      <trkpt lat="49.78933" lon="5.27016">
        <ele>321</ele>
        <time>2022-07-31T07:17:34.000Z</time>
      </trkpt>
      <trkpt lat="49.78924" lon="5.27006">
        <ele>319.60000610352</ele>
        <time>2022-07-31T07:17:36.000Z</time>
      </trkpt>
      <trkpt lat="49.78919" lon="5.27002">
        <ele>319.20001220703</ele>
        <time>2022-07-31T07:17:37.000Z</time>
      </trkpt>
      <trkpt lat="49.78902" lon="5.26978">
        <ele>318.60000610352</ele>
        <time>2022-07-31T07:17:42.000Z</time>
      </trkpt>
      <trkpt lat="49.78899" lon="5.26966">
        <ele>319.39999389648</ele>
        <time>2022-07-31T07:17:44.000Z</time>
      </trkpt>
      <trkpt lat="49.78898" lon="5.2696">
        <ele>319.60000610352</ele>
        <time>2022-07-31T07:17:45.000Z</time>
      </trkpt>
      <trkpt lat="49.78898" lon="5.26953">
        <ele>320.20001220703</ele>
        <time>2022-07-31T07:17:46.000Z</time>
      </trkpt>
      <trkpt lat="49.78899" lon="5.26937">
        <ele>321.20001220703</ele>
        <time>2022-07-31T07:17:48.000Z</time>
      </trkpt>
      <trkpt lat="49.78901" lon="5.26923">
        <ele>322.20001220703</ele>
        <time>2022-07-31T07:17:50.000Z</time>
      </trkpt>
      <trkpt lat="49.78905" lon="5.26909">
        <ele>323.20001220703</ele>
        <time>2022-07-31T07:17:52.000Z</time>
      </trkpt>
      <trkpt lat="49.78912" lon="5.26878">
        <ele>324.79998779297</ele>
        <time>2022-07-31T07:17:56.000Z</time>
      </trkpt>
      <trkpt lat="49.78924" lon="5.26834">
        <ele>326</ele>
        <time>2022-07-31T07:18:02.000Z</time>
      </trkpt>
      <trkpt lat="49.78932" lon="5.26799">
        <ele>327.60000610352</ele>
        <time>2022-07-31T07:18:07.000Z</time>
      </trkpt>
      <trkpt lat="49.78941" lon="5.26751">
        <ele>327.79998779297</ele>
        <time>2022-07-31T07:18:14.000Z</time>
      </trkpt>
      <trkpt lat="49.78941" lon="5.26737">
        <ele>327.20001220703</ele>
        <time>2022-07-31T07:18:16.000Z</time>
      </trkpt>
      <trkpt lat="49.7894" lon="5.26711">
        <ele>327.20001220703</ele>
        <time>2022-07-31T07:18:19.000Z</time>
      </trkpt>
      <trkpt lat="49.78939" lon="5.26694">
        <ele>326.39999389648</ele>
        <time>2022-07-31T07:18:21.000Z</time>
      </trkpt>
      <trkpt lat="49.78932" lon="5.26672">
        <ele>324.79998779297</ele>
        <time>2022-07-31T07:18:24.000Z</time>
      </trkpt>
      <trkpt lat="49.78929" lon="5.26664">
        <ele>324</ele>
        <time>2022-07-31T07:18:25.000Z</time>
      </trkpt>
      <trkpt lat="49.78916" lon="5.26634">
        <ele>323.20001220703</ele>
        <time>2022-07-31T07:18:29.000Z</time>
      </trkpt>
      <trkpt lat="49.78913" lon="5.26626">
        <ele>323</ele>
        <time>2022-07-31T07:18:30.000Z</time>
      </trkpt>
      <trkpt lat="49.78907" lon="5.2661">
        <ele>323</ele>
        <time>2022-07-31T07:18:32.000Z</time>
      </trkpt>
      <trkpt lat="49.78901" lon="5.26586">
        <ele>323.20001220703</ele>
        <time>2022-07-31T07:18:35.000Z</time>
      </trkpt>
      <trkpt lat="49.78888" lon="5.26533">
        <ele>323.39999389648</ele>
        <time>2022-07-31T07:18:42.000Z</time>
      </trkpt>
      <trkpt lat="49.78887" lon="5.26525">
        <ele>323.20001220703</ele>
        <time>2022-07-31T07:18:43.000Z</time>
      </trkpt>
      <trkpt lat="49.78892" lon="5.26505">
        <ele>322.79998779297</ele>
        <time>2022-07-31T07:18:46.000Z</time>
      </trkpt>
      <trkpt lat="49.78893" lon="5.26498">
        <ele>322.60000610352</ele>
        <time>2022-07-31T07:18:47.000Z</time>
      </trkpt>
      <trkpt lat="49.78893" lon="5.26487">
        <ele>321.79998779297</ele>
        <time>2022-07-31T07:18:49.000Z</time>
      </trkpt>
      <trkpt lat="49.78889" lon="5.26481">
        <ele>320.79998779297</ele>
        <time>2022-07-31T07:18:50.000Z</time>
      </trkpt>
      <trkpt lat="49.78874" lon="5.26473">
        <ele>317.39999389648</ele>
        <time>2022-07-31T07:18:54.000Z</time>
      </trkpt>
      <trkpt lat="49.78871" lon="5.26461">
        <ele>316.60000610352</ele>
        <time>2022-07-31T07:18:57.000Z</time>
      </trkpt>
      <trkpt lat="49.7887" lon="5.26449">
        <ele>317.39999389648</ele>
        <time>2022-07-31T07:18:59.000Z</time>
      </trkpt>
      <trkpt lat="49.78868" lon="5.26428">
        <ele>318</ele>
        <time>2022-07-31T07:19:02.000Z</time>
      </trkpt>
      <trkpt lat="49.78863" lon="5.26392">
        <ele>318.20001220703</ele>
        <time>2022-07-31T07:19:07.000Z</time>
      </trkpt>
      <trkpt lat="49.78855" lon="5.26338">
        <ele>320</ele>
        <time>2022-07-31T07:19:14.000Z</time>
      </trkpt>
      <trkpt lat="49.78845" lon="5.26301">
        <ele>320.39999389648</ele>
        <time>2022-07-31T07:19:19.000Z</time>
      </trkpt>
      <trkpt lat="49.78841" lon="5.26287">
        <ele>320.60000610352</ele>
        <time>2022-07-31T07:19:21.000Z</time>
      </trkpt>
      <trkpt lat="49.78832" lon="5.2626">
        <ele>320.79998779297</ele>
        <time>2022-07-31T07:19:25.000Z</time>
      </trkpt>
      <trkpt lat="49.78827" lon="5.26247">
        <ele>321.39999389648</ele>
        <time>2022-07-31T07:19:27.000Z</time>
      </trkpt>
      <trkpt lat="49.78825" lon="5.2624">
        <ele>321.39999389648</ele>
        <time>2022-07-31T07:19:28.000Z</time>
      </trkpt>
      <trkpt lat="49.7882" lon="5.26228">
        <ele>321</ele>
        <time>2022-07-31T07:19:30.000Z</time>
      </trkpt>
      <trkpt lat="49.78803" lon="5.26192">
        <ele>322.20001220703</ele>
        <time>2022-07-31T07:19:36.000Z</time>
      </trkpt>
      <trkpt lat="49.788" lon="5.26186">
        <ele>322.39999389648</ele>
        <time>2022-07-31T07:19:37.000Z</time>
      </trkpt>
      <trkpt lat="49.78787" lon="5.26171">
        <ele>321.39999389648</ele>
        <time>2022-07-31T07:19:40.000Z</time>
      </trkpt>
      <trkpt lat="49.78763" lon="5.26161">
        <ele>321.20001220703</ele>
        <time>2022-07-31T07:19:46.000Z</time>
      </trkpt>
      <trkpt lat="49.7874" lon="5.26156">
        <ele>323.39999389648</ele>
        <time>2022-07-31T07:19:51.000Z</time>
      </trkpt>
      <trkpt lat="49.78732" lon="5.26156">
        <ele>324</ele>
        <time>2022-07-31T07:19:53.000Z</time>
      </trkpt>
      <trkpt lat="49.78721" lon="5.26155">
        <ele>326</ele>
        <time>2022-07-31T07:19:56.000Z</time>
      </trkpt>
      <trkpt lat="49.78697" lon="5.26163">
        <ele>326.20001220703</ele>
        <time>2022-07-31T07:20:01.000Z</time>
      </trkpt>
      <trkpt lat="49.78681" lon="5.26169">
        <ele>324.60000610352</ele>
        <time>2022-07-31T07:20:04.000Z</time>
      </trkpt>
      <trkpt lat="49.7867" lon="5.26168">
        <ele>324.20001220703</ele>
        <time>2022-07-31T07:20:06.000Z</time>
      </trkpt>
      <trkpt lat="49.78638" lon="5.26164">
        <ele>320.79998779297</ele>
        <time>2022-07-31T07:20:12.000Z</time>
      </trkpt>
      <trkpt lat="49.78597" lon="5.26151">
        <ele>319.20001220703</ele>
        <time>2022-07-31T07:20:19.000Z</time>
      </trkpt>
      <trkpt lat="49.7858" lon="5.26144">
        <ele>318.20001220703</ele>
        <time>2022-07-31T07:20:22.000Z</time>
      </trkpt>
      <trkpt lat="49.78552" lon="5.26135">
        <ele>314.60000610352</ele>
        <time>2022-07-31T07:20:27.000Z</time>
      </trkpt>
      <trkpt lat="49.78538" lon="5.26125">
        <ele>313</ele>
        <time>2022-07-31T07:20:30.000Z</time>
      </trkpt>
      <trkpt lat="49.78532" lon="5.26114">
        <ele>313.60000610352</ele>
        <time>2022-07-31T07:20:32.000Z</time>
      </trkpt>
      <trkpt lat="49.7853" lon="5.2609">
        <ele>316.79998779297</ele>
        <time>2022-07-31T07:20:35.000Z</time>
      </trkpt>
      <trkpt lat="49.7853" lon="5.26082">
        <ele>317.79998779297</ele>
        <time>2022-07-31T07:20:36.000Z</time>
      </trkpt>
      <trkpt lat="49.78531" lon="5.26075">
        <ele>318.79998779297</ele>
        <time>2022-07-31T07:20:37.000Z</time>
      </trkpt>
      <trkpt lat="49.78528" lon="5.26063">
        <ele>319.60000610352</ele>
        <time>2022-07-31T07:20:39.000Z</time>
      </trkpt>
      <trkpt lat="49.78516" lon="5.26053">
        <ele>317</ele>
        <time>2022-07-31T07:20:42.000Z</time>
      </trkpt>
      <trkpt lat="49.78512" lon="5.26052">
        <ele>315.79998779297</ele>
        <time>2022-07-31T07:20:43.000Z</time>
      </trkpt>
      <trkpt lat="49.78501" lon="5.2605">
        <ele>313.20001220703</ele>
        <time>2022-07-31T07:20:45.000Z</time>
      </trkpt>
      <trkpt lat="49.78496" lon="5.2605">
        <ele>311.79998779297</ele>
        <time>2022-07-31T07:20:46.000Z</time>
      </trkpt>
      <trkpt lat="49.78485" lon="5.2605">
        <ele>309.20001220703</ele>
        <time>2022-07-31T07:20:48.000Z</time>
      </trkpt>
      <trkpt lat="49.78466" lon="5.26049">
        <ele>306</ele>
        <time>2022-07-31T07:20:51.000Z</time>
      </trkpt>
      <trkpt lat="49.78453" lon="5.26043">
        <ele>305.39999389648</ele>
        <time>2022-07-31T07:20:53.000Z</time>
      </trkpt>
      <trkpt lat="49.78446" lon="5.26039">
        <ele>305.60000610352</ele>
        <time>2022-07-31T07:20:54.000Z</time>
      </trkpt>
      <trkpt lat="49.7843" lon="5.26029">
        <ele>306</ele>
        <time>2022-07-31T07:20:56.000Z</time>
      </trkpt>
      <trkpt lat="49.78414" lon="5.26021">
        <ele>307</ele>
        <time>2022-07-31T07:20:58.000Z</time>
      </trkpt>
      <trkpt lat="49.7839" lon="5.2601">
        <ele>310.39999389648</ele>
        <time>2022-07-31T07:21:01.000Z</time>
      </trkpt>
      <trkpt lat="49.78369" lon="5.26005">
        <ele>313.39999389648</ele>
        <time>2022-07-31T07:21:03.000Z</time>
      </trkpt>
      <trkpt lat="49.78348" lon="5.26001">
        <ele>314.39999389648</ele>
        <time>2022-07-31T07:21:05.000Z</time>
      </trkpt>
      <trkpt lat="49.78329" lon="5.25998">
        <ele>312</ele>
        <time>2022-07-31T07:21:07.000Z</time>
      </trkpt>
      <trkpt lat="49.78308" lon="5.25989">
        <ele>307.20001220703</ele>
        <time>2022-07-31T07:21:09.000Z</time>
      </trkpt>
      <trkpt lat="49.78279" lon="5.25973">
        <ele>303.20001220703</ele>
        <time>2022-07-31T07:21:12.000Z</time>
      </trkpt>
      <trkpt lat="49.78262" lon="5.25963">
        <ele>302.39999389648</ele>
        <time>2022-07-31T07:21:14.000Z</time>
      </trkpt>
      <trkpt lat="49.78234" lon="5.2594">
        <ele>305.60000610352</ele>
        <time>2022-07-31T07:21:18.000Z</time>
      </trkpt>
      <trkpt lat="49.78215" lon="5.25918">
        <ele>308.79998779297</ele>
        <time>2022-07-31T07:21:22.000Z</time>
      </trkpt>
      <trkpt lat="49.78211" lon="5.25912">
        <ele>309.60000610352</ele>
        <time>2022-07-31T07:21:23.000Z</time>
      </trkpt>
      <trkpt lat="49.78203" lon="5.25899">
        <ele>311.20001220703</ele>
        <time>2022-07-31T07:21:26.000Z</time>
      </trkpt>
      <trkpt lat="49.78198" lon="5.25899">
        <ele>311.20001220703</ele>
        <time>2022-07-31T07:21:27.000Z</time>
      </trkpt>
      <trkpt lat="49.78195" lon="5.25916">
        <ele>309.39999389648</ele>
        <time>2022-07-31T07:21:30.000Z</time>
      </trkpt>
      <trkpt lat="49.78194" lon="5.25923">
        <ele>308.60000610352</ele>
        <time>2022-07-31T07:21:31.000Z</time>
      </trkpt>
      <trkpt lat="49.78187" lon="5.2596">
        <ele>303.79998779297</ele>
        <time>2022-07-31T07:21:35.000Z</time>
      </trkpt>
      <trkpt lat="49.78183" lon="5.25987">
        <ele>300</ele>
        <time>2022-07-31T07:21:38.000Z</time>
      </trkpt>
      <trkpt lat="49.7818" lon="5.26012">
        <ele>297.60000610352</ele>
        <time>2022-07-31T07:21:41.000Z</time>
      </trkpt>
      <trkpt lat="49.78178" lon="5.26024">
        <ele>297.20001220703</ele>
        <time>2022-07-31T07:21:43.000Z</time>
      </trkpt>
      <trkpt lat="49.78173" lon="5.26033">
        <ele>296.79998779297</ele>
        <time>2022-07-31T07:21:45.000Z</time>
      </trkpt>
      <trkpt lat="49.78166" lon="5.26028">
        <ele>298.20001220703</ele>
        <time>2022-07-31T07:21:47.000Z</time>
      </trkpt>
      <trkpt lat="49.78156" lon="5.26005">
        <ele>301</ele>
        <time>2022-07-31T07:21:51.000Z</time>
      </trkpt>
      <trkpt lat="49.78138" lon="5.25991">
        <ele>305.20001220703</ele>
        <time>2022-07-31T07:21:55.000Z</time>
      </trkpt>
      <trkpt lat="49.78133" lon="5.25989">
        <ele>306.20001220703</ele>
        <time>2022-07-31T07:21:56.000Z</time>
      </trkpt>
      <trkpt lat="49.78103" lon="5.2598">
        <ele>310.79998779297</ele>
        <time>2022-07-31T07:22:02.000Z</time>
      </trkpt>
      <trkpt lat="49.78088" lon="5.25978">
        <ele>312.39999389648</ele>
        <time>2022-07-31T07:22:05.000Z</time>
      </trkpt>
      <trkpt lat="49.78074" lon="5.25976">
        <ele>312.79998779297</ele>
        <time>2022-07-31T07:22:08.000Z</time>
      </trkpt>
      <trkpt lat="49.78065" lon="5.25974">
        <ele>313.79998779297</ele>
        <time>2022-07-31T07:22:10.000Z</time>
      </trkpt>
      <trkpt lat="49.78047" lon="5.2597">
        <ele>313</ele>
        <time>2022-07-31T07:22:14.000Z</time>
      </trkpt>
      <trkpt lat="49.78043" lon="5.25969">
        <ele>312.79998779297</ele>
        <time>2022-07-31T07:22:15.000Z</time>
      </trkpt>
      <trkpt lat="49.78026" lon="5.25963">
        <ele>312.20001220703</ele>
        <time>2022-07-31T07:22:19.000Z</time>
      </trkpt>
      <trkpt lat="49.78022" lon="5.25962">
        <ele>312.20001220703</ele>
        <time>2022-07-31T07:22:20.000Z</time>
      </trkpt>
      <trkpt lat="49.78011" lon="5.2596">
        <ele>312.60000610352</ele>
        <time>2022-07-31T07:22:23.000Z</time>
      </trkpt>
      <trkpt lat="49.78" lon="5.25956">
        <ele>313.39999389648</ele>
        <time>2022-07-31T07:22:26.000Z</time>
      </trkpt>
      <trkpt lat="49.77984" lon="5.25955">
        <ele>315.60000610352</ele>
        <time>2022-07-31T07:22:30.000Z</time>
      </trkpt>
      <trkpt lat="49.77967" lon="5.25956">
        <ele>317.60000610352</ele>
        <time>2022-07-31T07:22:34.000Z</time>
      </trkpt>
      <trkpt lat="49.7794" lon="5.25966">
        <ele>322</ele>
        <time>2022-07-31T07:22:41.000Z</time>
      </trkpt>
      <trkpt lat="49.77936" lon="5.25967">
        <ele>322.79998779297</ele>
        <time>2022-07-31T07:22:42.000Z</time>
      </trkpt>
      <trkpt lat="49.77921" lon="5.2596">
        <ele>323.39999389648</ele>
        <time>2022-07-31T07:22:46.000Z</time>
      </trkpt>
      <trkpt lat="49.77917" lon="5.25955">
        <ele>322.79998779297</ele>
        <time>2022-07-31T07:22:47.000Z</time>
      </trkpt>
      <trkpt lat="49.77907" lon="5.25938">
        <ele>320.60000610352</ele>
        <time>2022-07-31T07:22:50.000Z</time>
      </trkpt>
      <trkpt lat="49.77897" lon="5.2592">
        <ele>318.20001220703</ele>
        <time>2022-07-31T07:22:53.000Z</time>
      </trkpt>
      <trkpt lat="49.77888" lon="5.25909">
        <ele>316.60000610352</ele>
        <time>2022-07-31T07:22:55.000Z</time>
      </trkpt>
      <trkpt lat="49.77874" lon="5.25887">
        <ele>314.39999389648</ele>
        <time>2022-07-31T07:22:59.000Z</time>
      </trkpt>
      <trkpt lat="49.77868" lon="5.25877">
        <ele>313.20001220703</ele>
        <time>2022-07-31T07:23:01.000Z</time>
      </trkpt>
      <trkpt lat="49.77854" lon="5.25853">
        <ele>310.39999389648</ele>
        <time>2022-07-31T07:23:05.000Z</time>
      </trkpt>
      <trkpt lat="49.77848" lon="5.25848">
        <ele>310</ele>
        <time>2022-07-31T07:23:06.000Z</time>
      </trkpt>
      <trkpt lat="49.77837" lon="5.25839">
        <ele>309</ele>
        <time>2022-07-31T07:23:08.000Z</time>
      </trkpt>
      <trkpt lat="49.77828" lon="5.25831">
        <ele>307.60000610352</ele>
        <time>2022-07-31T07:23:10.000Z</time>
      </trkpt>
      <trkpt lat="49.77825" lon="5.25828">
        <ele>307</ele>
        <time>2022-07-31T07:23:11.000Z</time>
      </trkpt>
      <trkpt lat="49.77822" lon="5.25825">
        <ele>306.39999389648</ele>
        <time>2022-07-31T07:23:12.000Z</time>
      </trkpt>
      <trkpt lat="49.77817" lon="5.25819">
        <ele>305.20001220703</ele>
        <time>2022-07-31T07:23:14.000Z</time>
      </trkpt>
      <trkpt lat="49.77816" lon="5.25817">
        <ele>304.79998779297</ele>
        <time>2022-07-31T07:23:15.000Z</time>
      </trkpt>
      <trkpt lat="49.77812" lon="5.2581">
        <ele>303.60000610352</ele>
        <time>2022-07-31T07:23:41.000Z</time>
      </trkpt>
      <trkpt lat="49.77808" lon="5.25811">
        <ele>303.39999389648</ele>
        <time>2022-07-31T07:23:43.000Z</time>
      </trkpt>
      <trkpt lat="49.77788" lon="5.25816">
        <ele>302.20001220703</ele>
        <time>2022-07-31T07:23:49.000Z</time>
      </trkpt>
      <trkpt lat="49.77765" lon="5.25825">
        <ele>302.79998779297</ele>
        <time>2022-07-31T07:23:55.000Z</time>
      </trkpt>
      <trkpt lat="49.77746" lon="5.25829">
        <ele>303.39999389648</ele>
        <time>2022-07-31T07:24:00.000Z</time>
      </trkpt>
      <trkpt lat="49.77721" lon="5.25836">
        <ele>306.60000610352</ele>
        <time>2022-07-31T07:24:07.000Z</time>
      </trkpt>
      <trkpt lat="49.77706" lon="5.25831">
        <ele>307.39999389648</ele>
        <time>2022-07-31T07:24:12.000Z</time>
      </trkpt>
      <trkpt lat="49.77686" lon="5.25814">
        <ele>309.20001220703</ele>
        <time>2022-07-31T07:24:18.000Z</time>
      </trkpt>
      <trkpt lat="49.77681" lon="5.25807">
        <ele>309</ele>
        <time>2022-07-31T07:24:19.000Z</time>
      </trkpt>
      <trkpt lat="49.77673" lon="5.25794">
        <ele>308.39999389648</ele>
        <time>2022-07-31T07:24:21.000Z</time>
      </trkpt>
      <trkpt lat="49.77671" lon="5.25789">
        <ele>308.20001220703</ele>
        <time>2022-07-31T07:24:22.000Z</time>
      </trkpt>
      <trkpt lat="49.77665" lon="5.25766">
        <ele>305.60000610352</ele>
        <time>2022-07-31T07:24:25.000Z</time>
      </trkpt>
      <trkpt lat="49.77663" lon="5.25757">
        <ele>305</ele>
        <time>2022-07-31T07:24:26.000Z</time>
      </trkpt>
      <trkpt lat="49.77657" lon="5.25715">
        <ele>301.79998779297</ele>
        <time>2022-07-31T07:24:30.000Z</time>
      </trkpt>
      <trkpt lat="49.77655" lon="5.25704">
        <ele>300.60000610352</ele>
        <time>2022-07-31T07:24:31.000Z</time>
      </trkpt>
      <trkpt lat="49.77652" lon="5.25694">
        <ele>299.60000610352</ele>
        <time>2022-07-31T07:24:32.000Z</time>
      </trkpt>
      <trkpt lat="49.77645" lon="5.25678">
        <ele>299.79998779297</ele>
        <time>2022-07-31T07:24:34.000Z</time>
      </trkpt>
      <trkpt lat="49.7764" lon="5.25671">
        <ele>300.20001220703</ele>
        <time>2022-07-31T07:24:35.000Z</time>
      </trkpt>
      <trkpt lat="49.7763" lon="5.25657">
        <ele>300.79998779297</ele>
        <time>2022-07-31T07:24:37.000Z</time>
      </trkpt>
      <trkpt lat="49.77626" lon="5.2565">
        <ele>300.39999389648</ele>
        <time>2022-07-31T07:24:38.000Z</time>
      </trkpt>
      <trkpt lat="49.77621" lon="5.25644">
        <ele>300</ele>
        <time>2022-07-31T07:24:39.000Z</time>
      </trkpt>
      <trkpt lat="49.77616" lon="5.25639">
        <ele>300</ele>
        <time>2022-07-31T07:24:40.000Z</time>
      </trkpt>
      <trkpt lat="49.77608" lon="5.25634">
        <ele>300</ele>
        <time>2022-07-31T07:24:41.000Z</time>
      </trkpt>
      <trkpt lat="49.77601" lon="5.2563">
        <ele>300.39999389648</ele>
        <time>2022-07-31T07:24:42.000Z</time>
      </trkpt>
      <trkpt lat="49.77586" lon="5.25622">
        <ele>300.39999389648</ele>
        <time>2022-07-31T07:24:44.000Z</time>
      </trkpt>
      <trkpt lat="49.77578" lon="5.2562">
        <ele>299.79998779297</ele>
        <time>2022-07-31T07:24:45.000Z</time>
      </trkpt>
      <trkpt lat="49.77562" lon="5.25617">
        <ele>299.39999389648</ele>
        <time>2022-07-31T07:24:47.000Z</time>
      </trkpt>
      <trkpt lat="49.77546" lon="5.25618">
        <ele>299.20001220703</ele>
        <time>2022-07-31T07:24:49.000Z</time>
      </trkpt>
      <trkpt lat="49.77532" lon="5.25621">
        <ele>297.79998779297</ele>
        <time>2022-07-31T07:24:51.000Z</time>
      </trkpt>
      <trkpt lat="49.77526" lon="5.25623">
        <ele>297.39999389648</ele>
        <time>2022-07-31T07:24:52.000Z</time>
      </trkpt>
      <trkpt lat="49.77511" lon="5.25635">
        <ele>295.20001220703</ele>
        <time>2022-07-31T07:24:55.000Z</time>
      </trkpt>
      <trkpt lat="49.77481" lon="5.25662">
        <ele>297.39999389648</ele>
        <time>2022-07-31T07:25:01.000Z</time>
      </trkpt>
      <trkpt lat="49.77453" lon="5.25694">
        <ele>300.39999389648</ele>
        <time>2022-07-31T07:25:07.000Z</time>
      </trkpt>
      <trkpt lat="49.77426" lon="5.25718">
        <ele>298.79998779297</ele>
        <time>2022-07-31T07:25:13.000Z</time>
      </trkpt>
      <trkpt lat="49.77396" lon="5.25729">
        <ele>301</ele>
        <time>2022-07-31T07:25:19.000Z</time>
      </trkpt>
      <trkpt lat="49.77382" lon="5.25721">
        <ele>304</ele>
        <time>2022-07-31T07:25:23.000Z</time>
      </trkpt>
      <trkpt lat="49.77369" lon="5.25713">
        <ele>306</ele>
        <time>2022-07-31T07:25:26.000Z</time>
      </trkpt>
      <trkpt lat="49.77355" lon="5.25697">
        <ele>304.60000610352</ele>
        <time>2022-07-31T07:25:29.000Z</time>
      </trkpt>
      <trkpt lat="49.77351" lon="5.25691">
        <ele>303.79998779297</ele>
        <time>2022-07-31T07:25:30.000Z</time>
      </trkpt>
      <trkpt lat="49.77343" lon="5.25677">
        <ele>302</ele>
        <time>2022-07-31T07:25:32.000Z</time>
      </trkpt>
      <trkpt lat="49.77334" lon="5.25664">
        <ele>300.39999389648</ele>
        <time>2022-07-31T07:25:34.000Z</time>
      </trkpt>
      <trkpt lat="49.77317" lon="5.25647">
        <ele>299.39999389648</ele>
        <time>2022-07-31T07:25:37.000Z</time>
      </trkpt>
      <trkpt lat="49.77307" lon="5.25637">
        <ele>299.20001220703</ele>
        <time>2022-07-31T07:25:39.000Z</time>
      </trkpt>
      <trkpt lat="49.77301" lon="5.25633">
        <ele>299.39999389648</ele>
        <time>2022-07-31T07:25:40.000Z</time>
      </trkpt>
      <trkpt lat="49.7729" lon="5.25625">
        <ele>300</ele>
        <time>2022-07-31T07:25:42.000Z</time>
      </trkpt>
      <trkpt lat="49.77277" lon="5.25616">
        <ele>300</ele>
        <time>2022-07-31T07:25:44.000Z</time>
      </trkpt>
      <trkpt lat="49.77264" lon="5.25609">
        <ele>300.20001220703</ele>
        <time>2022-07-31T07:25:46.000Z</time>
      </trkpt>
      <trkpt lat="49.77239" lon="5.25596">
        <ele>299.79998779297</ele>
        <time>2022-07-31T07:25:50.000Z</time>
      </trkpt>
      <trkpt lat="49.77211" lon="5.2558">
        <ele>296.39999389648</ele>
        <time>2022-07-31T07:25:55.000Z</time>
      </trkpt>
      <trkpt lat="49.77176" lon="5.25551">
        <ele>289.39999389648</ele>
        <time>2022-07-31T07:26:02.000Z</time>
      </trkpt>
      <trkpt lat="49.77159" lon="5.25538">
        <ele>288.39999389648</ele>
        <time>2022-07-31T07:26:05.000Z</time>
      </trkpt>
      <trkpt lat="49.77148" lon="5.25532">
        <ele>288.20001220703</ele>
        <time>2022-07-31T07:26:07.000Z</time>
      </trkpt>
      <trkpt lat="49.77134" lon="5.25521">
        <ele>289</ele>
        <time>2022-07-31T07:26:10.000Z</time>
      </trkpt>
      <trkpt lat="49.77127" lon="5.25511">
        <ele>290.39999389648</ele>
        <time>2022-07-31T07:26:12.000Z</time>
      </trkpt>
      <trkpt lat="49.77124" lon="5.25505">
        <ele>291</ele>
        <time>2022-07-31T07:26:13.000Z</time>
      </trkpt>
      <trkpt lat="49.77112" lon="5.25475">
        <ele>293.39999389648</ele>
        <time>2022-07-31T07:26:19.000Z</time>
      </trkpt>
      <trkpt lat="49.77097" lon="5.25437">
        <ele>296.39999389648</ele>
        <time>2022-07-31T07:26:25.000Z</time>
      </trkpt>
      <trkpt lat="49.77084" lon="5.25402">
        <ele>294.79998779297</ele>
        <time>2022-07-31T07:26:30.000Z</time>
      </trkpt>
      <trkpt lat="49.77079" lon="5.25394">
        <ele>294.20001220703</ele>
        <time>2022-07-31T07:26:31.000Z</time>
      </trkpt>
      <trkpt lat="49.77074" lon="5.25385">
        <ele>293.60000610352</ele>
        <time>2022-07-31T07:26:32.000Z</time>
      </trkpt>
      <trkpt lat="49.77056" lon="5.25369">
        <ele>291.60000610352</ele>
        <time>2022-07-31T07:26:35.000Z</time>
      </trkpt>
      <trkpt lat="49.77043" lon="5.25361">
        <ele>289.20001220703</ele>
        <time>2022-07-31T07:26:37.000Z</time>
      </trkpt>
      <trkpt lat="49.77024" lon="5.25353">
        <ele>287.20001220703</ele>
        <time>2022-07-31T07:26:40.000Z</time>
      </trkpt>
      <trkpt lat="49.77018" lon="5.25351">
        <ele>287</ele>
        <time>2022-07-31T07:26:41.000Z</time>
      </trkpt>
      <trkpt lat="49.76978" lon="5.25346">
        <ele>286</ele>
        <time>2022-07-31T07:26:47.000Z</time>
      </trkpt>
      <trkpt lat="49.76965" lon="5.25348">
        <ele>285.60000610352</ele>
        <time>2022-07-31T07:26:49.000Z</time>
      </trkpt>
      <trkpt lat="49.76941" lon="5.25354">
        <ele>286</ele>
        <time>2022-07-31T07:26:53.000Z</time>
      </trkpt>
      <trkpt lat="49.76892" lon="5.25362">
        <ele>285.79998779297</ele>
        <time>2022-07-31T07:27:01.000Z</time>
      </trkpt>
      <trkpt lat="49.76846" lon="5.25366">
        <ele>286</ele>
        <time>2022-07-31T07:27:09.000Z</time>
      </trkpt>
      <trkpt lat="49.76808" lon="5.2537">
        <ele>284.39999389648</ele>
        <time>2022-07-31T07:27:16.000Z</time>
      </trkpt>
      <trkpt lat="49.76771" lon="5.25375">
        <ele>279.60000610352</ele>
        <time>2022-07-31T07:27:23.000Z</time>
      </trkpt>
      <trkpt lat="49.76767" lon="5.25376">
        <ele>279</ele>
        <time>2022-07-31T07:27:24.000Z</time>
      </trkpt>
      <trkpt lat="49.76758" lon="5.25388">
        <ele>278.79998779297</ele>
        <time>2022-07-31T07:27:27.000Z</time>
      </trkpt>
      <trkpt lat="49.76737" lon="5.25421">
        <ele>280.39999389648</ele>
        <time>2022-07-31T07:27:33.000Z</time>
      </trkpt>
      <trkpt lat="49.76732" lon="5.25426">
        <ele>280.79998779297</ele>
        <time>2022-07-31T07:27:34.000Z</time>
      </trkpt>
      <trkpt lat="49.76716" lon="5.25442">
        <ele>281.79998779297</ele>
        <time>2022-07-31T07:27:37.000Z</time>
      </trkpt>
      <trkpt lat="49.76688" lon="5.25465">
        <ele>280</ele>
        <time>2022-07-31T07:27:42.000Z</time>
      </trkpt>
      <trkpt lat="49.76683" lon="5.25469">
        <ele>280</ele>
        <time>2022-07-31T07:27:43.000Z</time>
      </trkpt>
      <trkpt lat="49.7666" lon="5.25485">
        <ele>280.79998779297</ele>
        <time>2022-07-31T07:27:47.000Z</time>
      </trkpt>
      <trkpt lat="49.76636" lon="5.25498">
        <ele>280.79998779297</ele>
        <time>2022-07-31T07:27:51.000Z</time>
      </trkpt>
      <trkpt lat="49.76624" lon="5.25504">
        <ele>281</ele>
        <time>2022-07-31T07:27:53.000Z</time>
      </trkpt>
      <trkpt lat="49.76599" lon="5.25515">
        <ele>279.39999389648</ele>
        <time>2022-07-31T07:27:57.000Z</time>
      </trkpt>
      <trkpt lat="49.76585" lon="5.25521">
        <ele>278.39999389648</ele>
        <time>2022-07-31T07:27:59.000Z</time>
      </trkpt>
      <trkpt lat="49.76564" lon="5.2553">
        <ele>277.39999389648</ele>
        <time>2022-07-31T07:28:02.000Z</time>
      </trkpt>
      <trkpt lat="49.76545" lon="5.25539">
        <ele>278</ele>
        <time>2022-07-31T07:28:05.000Z</time>
      </trkpt>
      <trkpt lat="49.76538" lon="5.25542">
        <ele>277.79998779297</ele>
        <time>2022-07-31T07:28:06.000Z</time>
      </trkpt>
      <trkpt lat="49.76498" lon="5.25568">
        <ele>279.39999389648</ele>
        <time>2022-07-31T07:28:13.000Z</time>
      </trkpt>
      <trkpt lat="49.76469" lon="5.25589">
        <ele>278.79998779297</ele>
        <time>2022-07-31T07:28:19.000Z</time>
      </trkpt>
      <trkpt lat="49.76449" lon="5.25612">
        <ele>276.20001220703</ele>
        <time>2022-07-31T07:28:24.000Z</time>
      </trkpt>
      <trkpt lat="49.76446" lon="5.25617">
        <ele>276.20001220703</ele>
        <time>2022-07-31T07:28:25.000Z</time>
      </trkpt>
      <trkpt lat="49.76436" lon="5.25635">
        <ele>276</ele>
        <time>2022-07-31T07:28:28.000Z</time>
      </trkpt>
      <trkpt lat="49.76432" lon="5.25643">
        <ele>275.79998779297</ele>
        <time>2022-07-31T07:28:29.000Z</time>
      </trkpt>
      <trkpt lat="49.76426" lon="5.2566">
        <ele>275.39999389648</ele>
        <time>2022-07-31T07:28:31.000Z</time>
      </trkpt>
      <trkpt lat="49.7642" lon="5.25685">
        <ele>276.20001220703</ele>
        <time>2022-07-31T07:28:34.000Z</time>
      </trkpt>
      <trkpt lat="49.76411" lon="5.25738">
        <ele>276.39999389648</ele>
        <time>2022-07-31T07:28:40.000Z</time>
      </trkpt>
      <trkpt lat="49.7641" lon="5.25746">
        <ele>276.39999389648</ele>
        <time>2022-07-31T07:28:41.000Z</time>
      </trkpt>
      <trkpt lat="49.76403" lon="5.25813">
        <ele>275.39999389648</ele>
        <time>2022-07-31T07:28:49.000Z</time>
      </trkpt>
      <trkpt lat="49.76402" lon="5.25867">
        <ele>277</ele>
        <time>2022-07-31T07:28:55.000Z</time>
      </trkpt>
      <trkpt lat="49.76403" lon="5.25891">
        <ele>276.79998779297</ele>
        <time>2022-07-31T07:28:58.000Z</time>
      </trkpt>
      <trkpt lat="49.76407" lon="5.25916">
        <ele>276.39999389648</ele>
        <time>2022-07-31T07:29:01.000Z</time>
      </trkpt>
      <trkpt lat="49.76419" lon="5.25971">
        <ele>273.39999389648</ele>
        <time>2022-07-31T07:29:08.000Z</time>
      </trkpt>
      <trkpt lat="49.76422" lon="5.25986">
        <ele>273</ele>
        <time>2022-07-31T07:29:10.000Z</time>
      </trkpt>
      <trkpt lat="49.7643" lon="5.26018">
        <ele>274.79998779297</ele>
        <time>2022-07-31T07:29:15.000Z</time>
      </trkpt>
      <trkpt lat="49.76442" lon="5.2606">
        <ele>276</ele>
        <time>2022-07-31T07:29:20.000Z</time>
      </trkpt>
      <trkpt lat="49.76463" lon="5.26114">
        <ele>277.20001220703</ele>
        <time>2022-07-31T07:29:27.000Z</time>
      </trkpt>
      <trkpt lat="49.76485" lon="5.2616">
        <ele>278</ele>
        <time>2022-07-31T07:29:34.000Z</time>
      </trkpt>
      <trkpt lat="49.7651" lon="5.26213">
        <ele>278.79998779297</ele>
        <time>2022-07-31T07:29:42.000Z</time>
      </trkpt>
      <trkpt lat="49.76516" lon="5.26224">
        <ele>279.39999389648</ele>
        <time>2022-07-31T07:29:44.000Z</time>
      </trkpt>
      <trkpt lat="49.76525" lon="5.2624">
        <ele>280</ele>
        <time>2022-07-31T07:29:47.000Z</time>
      </trkpt>
      <trkpt lat="49.76528" lon="5.26246">
        <ele>280.20001220703</ele>
        <time>2022-07-31T07:29:48.000Z</time>
      </trkpt>
      <trkpt lat="49.76542" lon="5.26276">
        <ele>282.39999389648</ele>
        <time>2022-07-31T07:29:53.000Z</time>
      </trkpt>
      <trkpt lat="49.76548" lon="5.2629">
        <ele>282.79998779297</ele>
        <time>2022-07-31T07:29:55.000Z</time>
      </trkpt>
      <trkpt lat="49.76555" lon="5.26312">
        <ele>282.20001220703</ele>
        <time>2022-07-31T07:29:58.000Z</time>
      </trkpt>
      <trkpt lat="49.76562" lon="5.26339">
        <ele>281.79998779297</ele>
        <time>2022-07-31T07:30:01.000Z</time>
      </trkpt>
      <trkpt lat="49.76564" lon="5.26348">
        <ele>282.20001220703</ele>
        <time>2022-07-31T07:30:02.000Z</time>
      </trkpt>
      <trkpt lat="49.76572" lon="5.26392">
        <ele>283.20001220703</ele>
        <time>2022-07-31T07:30:07.000Z</time>
      </trkpt>
      <trkpt lat="49.76582" lon="5.2644">
        <ele>279.79998779297</ele>
        <time>2022-07-31T07:30:13.000Z</time>
      </trkpt>
      <trkpt lat="49.76589" lon="5.26468">
        <ele>276.60000610352</ele>
        <time>2022-07-31T07:30:18.000Z</time>
      </trkpt>
      <trkpt lat="49.76591" lon="5.26476">
        <ele>276.60000610352</ele>
        <time>2022-07-31T07:30:20.000Z</time>
      </trkpt>
      <trkpt lat="49.76594" lon="5.26488">
        <ele>277.39999389648</ele>
        <time>2022-07-31T07:30:23.000Z</time>
      </trkpt>
      <trkpt lat="49.76597" lon="5.26505">
        <ele>278.79998779297</ele>
        <time>2022-07-31T07:30:27.000Z</time>
      </trkpt>
      <trkpt lat="49.76598" lon="5.26512">
        <ele>279.20001220703</ele>
        <time>2022-07-31T07:30:29.000Z</time>
      </trkpt>
      <trkpt lat="49.76598" lon="5.26519">
        <ele>279.39999389648</ele>
        <time>2022-07-31T07:30:31.000Z</time>
      </trkpt>
      <trkpt lat="49.76599" lon="5.26532">
        <ele>280.20001220703</ele>
        <time>2022-07-31T07:30:34.000Z</time>
      </trkpt>
      <trkpt lat="49.76599" lon="5.26541">
        <ele>280.39999389648</ele>
        <time>2022-07-31T07:30:36.000Z</time>
      </trkpt>
      <trkpt lat="49.76599" lon="5.26554">
        <ele>280.79998779297</ele>
        <time>2022-07-31T07:30:40.000Z</time>
      </trkpt>
      <trkpt lat="49.76599" lon="5.26561">
        <ele>280.79998779297</ele>
        <time>2022-07-31T07:30:42.000Z</time>
      </trkpt>
      <trkpt lat="49.76599" lon="5.26577">
        <ele>281.20001220703</ele>
        <time>2022-07-31T07:30:46.000Z</time>
      </trkpt>
      <trkpt lat="49.766" lon="5.26592">
        <ele>281.20001220703</ele>
        <time>2022-07-31T07:30:49.000Z</time>
      </trkpt>
      <trkpt lat="49.76601" lon="5.26609">
        <ele>282.60000610352</ele>
        <time>2022-07-31T07:30:52.000Z</time>
      </trkpt>
      <trkpt lat="49.76602" lon="5.26625">
        <ele>283.20001220703</ele>
        <time>2022-07-31T07:30:55.000Z</time>
      </trkpt>
      <trkpt lat="49.76602" lon="5.26631">
        <ele>283.39999389648</ele>
        <time>2022-07-31T07:30:56.000Z</time>
      </trkpt>
      <trkpt lat="49.76602" lon="5.26657">
        <ele>284.39999389648</ele>
        <time>2022-07-31T07:31:01.000Z</time>
      </trkpt>
      <trkpt lat="49.76601" lon="5.26686">
        <ele>285</ele>
        <time>2022-07-31T07:31:06.000Z</time>
      </trkpt>
      <trkpt lat="49.76601" lon="5.2669">
        <ele>285</ele>
        <time>2022-07-31T07:31:07.000Z</time>
      </trkpt>
      <trkpt lat="49.766" lon="5.2671">
        <ele>285.79998779297</ele>
        <time>2022-07-31T07:31:11.000Z</time>
      </trkpt>
      <trkpt lat="49.766" lon="5.26731">
        <ele>287.60000610352</ele>
        <time>2022-07-31T07:31:14.000Z</time>
      </trkpt>
      <trkpt lat="49.76599" lon="5.26748">
        <ele>289</ele>
        <time>2022-07-31T07:31:16.000Z</time>
      </trkpt>
      <trkpt lat="49.76597" lon="5.26773">
        <ele>291.39999389648</ele>
        <time>2022-07-31T07:31:20.000Z</time>
      </trkpt>
      <trkpt lat="49.76593" lon="5.26788">
        <ele>293.60000610352</ele>
        <time>2022-07-31T07:31:23.000Z</time>
      </trkpt>
      <trkpt lat="49.76589" lon="5.26803">
        <ele>295.79998779297</ele>
        <time>2022-07-31T07:31:26.000Z</time>
      </trkpt>
      <trkpt lat="49.76586" lon="5.26812">
        <ele>297.20001220703</ele>
        <time>2022-07-31T07:31:28.000Z</time>
      </trkpt>
      <trkpt lat="49.76584" lon="5.2683">
        <ele>301.20001220703</ele>
        <time>2022-07-31T07:31:31.000Z</time>
      </trkpt>
      <trkpt lat="49.76583" lon="5.26836">
        <ele>303</ele>
        <time>2022-07-31T07:31:32.000Z</time>
      </trkpt>
      <trkpt lat="49.76578" lon="5.26852">
        <ele>305.20001220703</ele>
        <time>2022-07-31T07:31:36.000Z</time>
      </trkpt>
      <trkpt lat="49.76575" lon="5.26854">
        <ele>304.20001220703</ele>
        <time>2022-07-31T07:31:37.000Z</time>
      </trkpt>
      <trkpt lat="49.76563" lon="5.26865">
        <ele>302.60000610352</ele>
        <time>2022-07-31T07:31:40.000Z</time>
      </trkpt>
      <trkpt lat="49.7656" lon="5.26868">
        <ele>302.39999389648</ele>
        <time>2022-07-31T07:31:41.000Z</time>
      </trkpt>
      <trkpt lat="49.76549" lon="5.26877">
        <ele>301.20001220703</ele>
        <time>2022-07-31T07:31:44.000Z</time>
      </trkpt>
      <trkpt lat="49.7654" lon="5.26886">
        <ele>300.20001220703</ele>
        <time>2022-07-31T07:31:47.000Z</time>
      </trkpt>
      <trkpt lat="49.76538" lon="5.26888">
        <ele>299.79998779297</ele>
        <time>2022-07-31T07:31:48.000Z</time>
      </trkpt>
      <trkpt lat="49.76525" lon="5.26904">
        <ele>299.39999389648</ele>
        <time>2022-07-31T07:31:52.000Z</time>
      </trkpt>
      <trkpt lat="49.76518" lon="5.26908">
        <ele>298.20001220703</ele>
        <time>2022-07-31T07:31:53.000Z</time>
      </trkpt>
      <trkpt lat="49.76505" lon="5.26917">
        <ele>296.39999389648</ele>
        <time>2022-07-31T07:31:56.000Z</time>
      </trkpt>
      <trkpt lat="49.76492" lon="5.26924">
        <ele>295.60000610352</ele>
        <time>2022-07-31T07:31:59.000Z</time>
      </trkpt>
      <trkpt lat="49.76488" lon="5.26926">
        <ele>295.20001220703</ele>
        <time>2022-07-31T07:32:00.000Z</time>
      </trkpt>
      <trkpt lat="49.76473" lon="5.26935">
        <ele>294.79998779297</ele>
        <time>2022-07-31T07:32:04.000Z</time>
      </trkpt>
      <trkpt lat="49.76471" lon="5.2694">
        <ele>296.20001220703</ele>
        <time>2022-07-31T07:32:05.000Z</time>
      </trkpt>
      <trkpt lat="49.76463" lon="5.26951">
        <ele>298</ele>
        <time>2022-07-31T07:32:08.000Z</time>
      </trkpt>
      <trkpt lat="49.76454" lon="5.26961">
        <ele>300</ele>
        <time>2022-07-31T07:32:11.000Z</time>
      </trkpt>
      <trkpt lat="49.76452" lon="5.26964">
        <ele>300.39999389648</ele>
        <time>2022-07-31T07:32:12.000Z</time>
      </trkpt>
      <trkpt lat="49.76442" lon="5.26975">
        <ele>301.39999389648</ele>
        <time>2022-07-31T07:32:16.000Z</time>
      </trkpt>
      <trkpt lat="49.76426" lon="5.26989">
        <ele>301.20001220703</ele>
        <time>2022-07-31T07:32:20.000Z</time>
      </trkpt>
      <trkpt lat="49.76412" lon="5.27">
        <ele>302</ele>
        <time>2022-07-31T07:32:24.000Z</time>
      </trkpt>
      <trkpt lat="49.76408" lon="5.27002">
        <ele>302.20001220703</ele>
        <time>2022-07-31T07:32:25.000Z</time>
      </trkpt>
      <trkpt lat="49.76394" lon="5.27015">
        <ele>304.39999389648</ele>
        <time>2022-07-31T07:32:29.000Z</time>
      </trkpt>
      <trkpt lat="49.76383" lon="5.27023">
        <ele>307.79998779297</ele>
        <time>2022-07-31T07:32:32.000Z</time>
      </trkpt>
      <trkpt lat="49.76375" lon="5.27027">
        <ele>309.79998779297</ele>
        <time>2022-07-31T07:32:34.000Z</time>
      </trkpt>
      <trkpt lat="49.76368" lon="5.27029">
        <ele>310.39999389648</ele>
        <time>2022-07-31T07:32:36.000Z</time>
      </trkpt>
      <trkpt lat="49.76356" lon="5.27039">
        <ele>312.79998779297</ele>
        <time>2022-07-31T07:32:40.000Z</time>
      </trkpt>
      <trkpt lat="49.76346" lon="5.27045">
        <ele>313.39999389648</ele>
        <time>2022-07-31T07:32:44.000Z</time>
      </trkpt>
      <trkpt lat="49.7634" lon="5.2705">
        <ele>314.20001220703</ele>
        <time>2022-07-31T07:32:46.000Z</time>
      </trkpt>
      <trkpt lat="49.76335" lon="5.27054">
        <ele>315</ele>
        <time>2022-07-31T07:32:48.000Z</time>
      </trkpt>
      <trkpt lat="49.76322" lon="5.27061">
        <ele>316</ele>
        <time>2022-07-31T07:32:52.000Z</time>
      </trkpt>
      <trkpt lat="49.76318" lon="5.27062">
        <ele>316</ele>
        <time>2022-07-31T07:32:53.000Z</time>
      </trkpt>
      <trkpt lat="49.76307" lon="5.2707">
        <ele>317.60000610352</ele>
        <time>2022-07-31T07:32:56.000Z</time>
      </trkpt>
      <trkpt lat="49.76298" lon="5.27075">
        <ele>318.79998779297</ele>
        <time>2022-07-31T07:32:59.000Z</time>
      </trkpt>
      <trkpt lat="49.76294" lon="5.27076">
        <ele>319.20001220703</ele>
        <time>2022-07-31T07:33:00.000Z</time>
      </trkpt>
      <trkpt lat="49.76277" lon="5.27082">
        <ele>322</ele>
        <time>2022-07-31T07:33:05.000Z</time>
      </trkpt>
      <trkpt lat="49.76269" lon="5.27083">
        <ele>322.79998779297</ele>
        <time>2022-07-31T07:33:07.000Z</time>
      </trkpt>
      <trkpt lat="49.76263" lon="5.27083">
        <ele>323.60000610352</ele>
        <time>2022-07-31T07:33:09.000Z</time>
      </trkpt>
      <trkpt lat="49.76246" lon="5.27085">
        <ele>325.39999389648</ele>
        <time>2022-07-31T07:33:14.000Z</time>
      </trkpt>
      <trkpt lat="49.76231" lon="5.27088">
        <ele>327.79998779297</ele>
        <time>2022-07-31T07:33:18.000Z</time>
      </trkpt>
      <trkpt lat="49.76221" lon="5.27089">
        <ele>328</ele>
        <time>2022-07-31T07:33:21.000Z</time>
      </trkpt>
      <trkpt lat="49.76218" lon="5.27089">
        <ele>328.20001220703</ele>
        <time>2022-07-31T07:33:22.000Z</time>
      </trkpt>
      <trkpt lat="49.76208" lon="5.2709">
        <ele>327.60000610352</ele>
        <time>2022-07-31T07:33:25.000Z</time>
      </trkpt>
      <trkpt lat="49.76193" lon="5.27092">
        <ele>327.20001220703</ele>
        <time>2022-07-31T07:33:29.000Z</time>
      </trkpt>
      <trkpt lat="49.76189" lon="5.27093">
        <ele>327.20001220703</ele>
        <time>2022-07-31T07:33:30.000Z</time>
      </trkpt>
      <trkpt lat="49.76178" lon="5.27093">
        <ele>327.20001220703</ele>
        <time>2022-07-31T07:33:33.000Z</time>
      </trkpt>
      <trkpt lat="49.76165" lon="5.27092">
        <ele>327.60000610352</ele>
        <time>2022-07-31T07:33:37.000Z</time>
      </trkpt>
      <trkpt lat="49.76162" lon="5.27092">
        <ele>327.79998779297</ele>
        <time>2022-07-31T07:33:38.000Z</time>
      </trkpt>
      <trkpt lat="49.7615" lon="5.27092">
        <ele>329</ele>
        <time>2022-07-31T07:33:42.000Z</time>
      </trkpt>
      <trkpt lat="49.76141" lon="5.27093">
        <ele>329.79998779297</ele>
        <time>2022-07-31T07:33:45.000Z</time>
      </trkpt>
      <trkpt lat="49.76129" lon="5.27098">
        <ele>331.20001220703</ele>
        <time>2022-07-31T07:33:49.000Z</time>
      </trkpt>
      <trkpt lat="49.76119" lon="5.27101">
        <ele>331.20001220703</ele>
        <time>2022-07-31T07:33:52.000Z</time>
      </trkpt>
      <trkpt lat="49.76116" lon="5.27103">
        <ele>331.39999389648</ele>
        <time>2022-07-31T07:33:53.000Z</time>
      </trkpt>
      <trkpt lat="49.76099" lon="5.27109">
        <ele>331.79998779297</ele>
        <time>2022-07-31T07:33:58.000Z</time>
      </trkpt>
      <trkpt lat="49.76096" lon="5.2711">
        <ele>331.79998779297</ele>
        <time>2022-07-31T07:33:59.000Z</time>
      </trkpt>
      <trkpt lat="49.76084" lon="5.27119">
        <ele>330.39999389648</ele>
        <time>2022-07-31T07:34:03.000Z</time>
      </trkpt>
      <trkpt lat="49.76081" lon="5.27121">
        <ele>330</ele>
        <time>2022-07-31T07:34:04.000Z</time>
      </trkpt>
      <trkpt lat="49.76073" lon="5.27129">
        <ele>329.39999389648</ele>
        <time>2022-07-31T07:34:07.000Z</time>
      </trkpt>
      <trkpt lat="49.76066" lon="5.27141">
        <ele>330</ele>
        <time>2022-07-31T07:34:10.000Z</time>
      </trkpt>
      <trkpt lat="49.76062" lon="5.27162">
        <ele>331</ele>
        <time>2022-07-31T07:34:14.000Z</time>
      </trkpt>
      <trkpt lat="49.76061" lon="5.27168">
        <ele>331.20001220703</ele>
        <time>2022-07-31T07:34:15.000Z</time>
      </trkpt>
      <trkpt lat="49.7606" lon="5.27189">
        <ele>332.39999389648</ele>
        <time>2022-07-31T07:34:19.000Z</time>
      </trkpt>
      <trkpt lat="49.76062" lon="5.27209">
        <ele>334.20001220703</ele>
        <time>2022-07-31T07:34:22.000Z</time>
      </trkpt>
      <trkpt lat="49.76063" lon="5.27215">
        <ele>334.79998779297</ele>
        <time>2022-07-31T07:34:23.000Z</time>
      </trkpt>
      <trkpt lat="49.76063" lon="5.27238">
        <ele>338.20001220703</ele>
        <time>2022-07-31T07:34:27.000Z</time>
      </trkpt>
      <trkpt lat="49.76063" lon="5.27249">
        <ele>340</ele>
        <time>2022-07-31T07:34:29.000Z</time>
      </trkpt>
      <trkpt lat="49.76061" lon="5.27268">
        <ele>342.79998779297</ele>
        <time>2022-07-31T07:34:32.000Z</time>
      </trkpt>
      <trkpt lat="49.76059" lon="5.27284">
        <ele>345</ele>
        <time>2022-07-31T07:34:35.000Z</time>
      </trkpt>
      <trkpt lat="49.76049" lon="5.27302">
        <ele>345.20001220703</ele>
        <time>2022-07-31T07:34:39.000Z</time>
      </trkpt>
      <trkpt lat="49.76045" lon="5.27311">
        <ele>345.20001220703</ele>
        <time>2022-07-31T07:34:41.000Z</time>
      </trkpt>
      <trkpt lat="49.76039" lon="5.27325">
        <ele>345.20001220703</ele>
        <time>2022-07-31T07:34:44.000Z</time>
      </trkpt>
      <trkpt lat="49.76033" lon="5.27343">
        <ele>346.39999389648</ele>
        <time>2022-07-31T07:34:48.000Z</time>
      </trkpt>
      <trkpt lat="49.76027" lon="5.27364">
        <ele>348</ele>
        <time>2022-07-31T07:34:52.000Z</time>
      </trkpt>
      <trkpt lat="49.76025" lon="5.27375">
        <ele>349</ele>
        <time>2022-07-31T07:34:54.000Z</time>
      </trkpt>
      <trkpt lat="49.76022" lon="5.27393">
        <ele>350.39999389648</ele>
        <time>2022-07-31T07:34:57.000Z</time>
      </trkpt>
      <trkpt lat="49.76019" lon="5.27411">
        <ele>350.79998779297</ele>
        <time>2022-07-31T07:35:00.000Z</time>
      </trkpt>
      <trkpt lat="49.76017" lon="5.27416">
        <ele>350.79998779297</ele>
        <time>2022-07-31T07:35:01.000Z</time>
      </trkpt>
      <trkpt lat="49.76013" lon="5.27437">
        <ele>351</ele>
        <time>2022-07-31T07:35:05.000Z</time>
      </trkpt>
      <trkpt lat="49.76012" lon="5.27449">
        <ele>351.60000610352</ele>
        <time>2022-07-31T07:35:07.000Z</time>
      </trkpt>
      <trkpt lat="49.7601" lon="5.2746">
        <ele>351.79998779297</ele>
        <time>2022-07-31T07:35:09.000Z</time>
      </trkpt>
      <trkpt lat="49.76006" lon="5.27475">
        <ele>351.79998779297</ele>
        <time>2022-07-31T07:35:13.000Z</time>
      </trkpt>
      <trkpt lat="49.76005" lon="5.27478">
        <ele>352</ele>
        <time>2022-07-31T07:35:14.000Z</time>
      </trkpt>
      <trkpt lat="49.76005" lon="5.27489">
        <ele>353.20001220703</ele>
        <time>2022-07-31T07:35:17.000Z</time>
      </trkpt>
      <trkpt lat="49.76004" lon="5.27502">
        <ele>353.79998779297</ele>
        <time>2022-07-31T07:35:20.000Z</time>
      </trkpt>
      <trkpt lat="49.76004" lon="5.27512">
        <ele>354</ele>
        <time>2022-07-31T07:35:22.000Z</time>
      </trkpt>
      <trkpt lat="49.76004" lon="5.27528">
        <ele>354.60000610352</ele>
        <time>2022-07-31T07:35:26.000Z</time>
      </trkpt>
      <trkpt lat="49.76003" lon="5.27534">
        <ele>355</ele>
        <time>2022-07-31T07:35:28.000Z</time>
      </trkpt>
      <trkpt lat="49.76003" lon="5.27548">
        <ele>356.20001220703</ele>
        <time>2022-07-31T07:35:32.000Z</time>
      </trkpt>
      <trkpt lat="49.76004" lon="5.27552">
        <ele>356.79998779297</ele>
        <time>2022-07-31T07:35:33.000Z</time>
      </trkpt>
      <trkpt lat="49.76009" lon="5.27573">
        <ele>360</ele>
        <time>2022-07-31T07:35:39.000Z</time>
      </trkpt>
      <trkpt lat="49.76009" lon="5.27577">
        <ele>360.60000610352</ele>
        <time>2022-07-31T07:35:40.000Z</time>
      </trkpt>
      <trkpt lat="49.76016" lon="5.27593">
        <ele>363.39999389648</ele>
        <time>2022-07-31T07:35:45.000Z</time>
      </trkpt>
      <trkpt lat="49.76018" lon="5.27595">
        <ele>363.79998779297</ele>
        <time>2022-07-31T07:35:46.000Z</time>
      </trkpt>
      <trkpt lat="49.76028" lon="5.27607">
        <ele>366.79998779297</ele>
        <time>2022-07-31T07:35:52.000Z</time>
      </trkpt>
      <trkpt lat="49.76031" lon="5.27611">
        <ele>367.39999389648</ele>
        <time>2022-07-31T07:35:54.000Z</time>
      </trkpt>
      <trkpt lat="49.7604" lon="5.27618">
        <ele>369</ele>
        <time>2022-07-31T07:35:59.000Z</time>
      </trkpt>
      <trkpt lat="49.76042" lon="5.2762">
        <ele>369.39999389648</ele>
        <time>2022-07-31T07:36:00.000Z</time>
      </trkpt>
      <trkpt lat="49.76054" lon="5.27624">
        <ele>370.79998779297</ele>
        <time>2022-07-31T07:36:05.000Z</time>
      </trkpt>
      <trkpt lat="49.76058" lon="5.27624">
        <ele>371.39999389648</ele>
        <time>2022-07-31T07:36:07.000Z</time>
      </trkpt>
      <trkpt lat="49.76064" lon="5.27624">
        <ele>372.60000610352</ele>
        <time>2022-07-31T07:36:10.000Z</time>
      </trkpt>
      <trkpt lat="49.76072" lon="5.27621">
        <ele>373.79998779297</ele>
        <time>2022-07-31T07:36:13.000Z</time>
      </trkpt>
      <trkpt lat="49.76083" lon="5.27619">
        <ele>375.39999389648</ele>
        <time>2022-07-31T07:36:18.000Z</time>
      </trkpt>
      <trkpt lat="49.76089" lon="5.27618">
        <ele>376.20001220703</ele>
        <time>2022-07-31T07:36:21.000Z</time>
      </trkpt>
      <trkpt lat="49.76096" lon="5.27615">
        <ele>377</ele>
        <time>2022-07-31T07:36:24.000Z</time>
      </trkpt>
      <trkpt lat="49.76109" lon="5.27616">
        <ele>378</ele>
        <time>2022-07-31T07:36:28.000Z</time>
      </trkpt>
      <trkpt lat="49.76123" lon="5.27618">
        <ele>378.60000610352</ele>
        <time>2022-07-31T07:36:32.000Z</time>
      </trkpt>
      <trkpt lat="49.76134" lon="5.27622">
        <ele>379</ele>
        <time>2022-07-31T07:36:35.000Z</time>
      </trkpt>
      <trkpt lat="49.76143" lon="5.27626">
        <ele>379.20001220703</ele>
        <time>2022-07-31T07:36:37.000Z</time>
      </trkpt>
      <trkpt lat="49.76162" lon="5.27637">
        <ele>380</ele>
        <time>2022-07-31T07:36:42.000Z</time>
      </trkpt>
      <trkpt lat="49.76173" lon="5.27647">
        <ele>380.39999389648</ele>
        <time>2022-07-31T07:36:45.000Z</time>
      </trkpt>
      <trkpt lat="49.76181" lon="5.27658">
        <ele>380.79998779297</ele>
        <time>2022-07-31T07:36:47.000Z</time>
      </trkpt>
      <trkpt lat="49.76185" lon="5.27663">
        <ele>381</ele>
        <time>2022-07-31T07:36:48.000Z</time>
      </trkpt>
      <trkpt lat="49.76192" lon="5.27675">
        <ele>381.39999389648</ele>
        <time>2022-07-31T07:36:50.000Z</time>
      </trkpt>
      <trkpt lat="49.76205" lon="5.27698">
        <ele>382.39999389648</ele>
        <time>2022-07-31T07:36:54.000Z</time>
      </trkpt>
      <trkpt lat="49.76213" lon="5.27716">
        <ele>383.60000610352</ele>
        <time>2022-07-31T07:36:57.000Z</time>
      </trkpt>
      <trkpt lat="49.76223" lon="5.27739">
        <ele>385</ele>
        <time>2022-07-31T07:37:01.000Z</time>
      </trkpt>
      <trkpt lat="49.76225" lon="5.27745">
        <ele>385.39999389648</ele>
        <time>2022-07-31T07:37:02.000Z</time>
      </trkpt>
      <trkpt lat="49.76233" lon="5.27762">
        <ele>386</ele>
        <time>2022-07-31T07:37:05.000Z</time>
      </trkpt>
      <trkpt lat="49.76245" lon="5.27783">
        <ele>386.60000610352</ele>
        <time>2022-07-31T07:37:09.000Z</time>
      </trkpt>
      <trkpt lat="49.76248" lon="5.27788">
        <ele>386.39999389648</ele>
        <time>2022-07-31T07:37:10.000Z</time>
      </trkpt>
      <trkpt lat="49.76259" lon="5.27808">
        <ele>386.79998779297</ele>
        <time>2022-07-31T07:37:14.000Z</time>
      </trkpt>
      <trkpt lat="49.76262" lon="5.27813">
        <ele>386.60000610352</ele>
        <time>2022-07-31T07:37:15.000Z</time>
      </trkpt>
      <trkpt lat="49.76265" lon="5.27817">
        <ele>386.60000610352</ele>
        <time>2022-07-31T07:37:16.000Z</time>
      </trkpt>
      <trkpt lat="49.76279" lon="5.2783">
        <ele>386.60000610352</ele>
        <time>2022-07-31T07:37:20.000Z</time>
      </trkpt>
      <trkpt lat="49.76286" lon="5.27834">
        <ele>386.60000610352</ele>
        <time>2022-07-31T07:37:22.000Z</time>
      </trkpt>
      <trkpt lat="49.76289" lon="5.27836">
        <ele>386.60000610352</ele>
        <time>2022-07-31T07:37:23.000Z</time>
      </trkpt>
      <trkpt lat="49.76311" lon="5.27848">
        <ele>387.20001220703</ele>
        <time>2022-07-31T07:37:28.000Z</time>
      </trkpt>
      <trkpt lat="49.76344" lon="5.27864">
        <ele>387.79998779297</ele>
        <time>2022-07-31T07:37:35.000Z</time>
      </trkpt>
      <trkpt lat="49.76374" lon="5.2788">
        <ele>388.60000610352</ele>
        <time>2022-07-31T07:37:41.000Z</time>
      </trkpt>
      <trkpt lat="49.76384" lon="5.27887">
        <ele>389.20001220703</ele>
        <time>2022-07-31T07:37:43.000Z</time>
      </trkpt>
      <trkpt lat="49.76391" lon="5.27896">
        <ele>390.20001220703</ele>
        <time>2022-07-31T07:37:45.000Z</time>
      </trkpt>
      <trkpt lat="49.76395" lon="5.279">
        <ele>390.60000610352</ele>
        <time>2022-07-31T07:37:46.000Z</time>
      </trkpt>
      <trkpt lat="49.76398" lon="5.27905">
        <ele>391</ele>
        <time>2022-07-31T07:37:47.000Z</time>
      </trkpt>
      <trkpt lat="49.7641" lon="5.27928">
        <ele>393.20001220703</ele>
        <time>2022-07-31T07:37:51.000Z</time>
      </trkpt>
      <trkpt lat="49.76425" lon="5.27953">
        <ele>395.60000610352</ele>
        <time>2022-07-31T07:37:55.000Z</time>
      </trkpt>
      <trkpt lat="49.76436" lon="5.2797">
        <ele>397</ele>
        <time>2022-07-31T07:37:58.000Z</time>
      </trkpt>
      <trkpt lat="49.76439" lon="5.27974">
        <ele>397</ele>
        <time>2022-07-31T07:37:59.000Z</time>
      </trkpt>
      <trkpt lat="49.76455" lon="5.27987">
        <ele>397.60000610352</ele>
        <time>2022-07-31T07:38:03.000Z</time>
      </trkpt>
      <trkpt lat="49.76476" lon="5.27992">
        <ele>397.20001220703</ele>
        <time>2022-07-31T07:38:07.000Z</time>
      </trkpt>
      <trkpt lat="49.76481" lon="5.27992">
        <ele>397.20001220703</ele>
        <time>2022-07-31T07:38:08.000Z</time>
      </trkpt>
      <trkpt lat="49.76488" lon="5.27994">
        <ele>397.60000610352</ele>
        <time>2022-07-31T07:38:10.000Z</time>
      </trkpt>
      <trkpt lat="49.76498" lon="5.27995">
        <ele>398.20001220703</ele>
        <time>2022-07-31T07:38:13.000Z</time>
      </trkpt>
      <trkpt lat="49.76501" lon="5.27996">
        <ele>398.39999389648</ele>
        <time>2022-07-31T07:38:14.000Z</time>
      </trkpt>
      <trkpt lat="49.76512" lon="5.28">
        <ele>399</ele>
        <time>2022-07-31T07:38:18.000Z</time>
      </trkpt>
      <trkpt lat="49.76519" lon="5.28002">
        <ele>399.60000610352</ele>
        <time>2022-07-31T07:38:20.000Z</time>
      </trkpt>
      <trkpt lat="49.76533" lon="5.28011">
        <ele>400.60000610352</ele>
        <time>2022-07-31T07:38:24.000Z</time>
      </trkpt>
      <trkpt lat="49.76535" lon="5.28012">
        <ele>400.79998779297</ele>
        <time>2022-07-31T07:38:25.000Z</time>
      </trkpt>
      <trkpt lat="49.76552" lon="5.28016">
        <ele>402.20001220703</ele>
        <time>2022-07-31T07:38:31.000Z</time>
      </trkpt>
      <trkpt lat="49.76572" lon="5.28023">
        <ele>403.60000610352</ele>
        <time>2022-07-31T07:38:37.000Z</time>
      </trkpt>
      <trkpt lat="49.76591" lon="5.28028">
        <ele>404.60000610352</ele>
        <time>2022-07-31T07:38:43.000Z</time>
      </trkpt>
      <trkpt lat="49.76614" lon="5.28035">
        <ele>405.39999389648</ele>
        <time>2022-07-31T07:38:49.000Z</time>
      </trkpt>
      <trkpt lat="49.76618" lon="5.28036">
        <ele>405.39999389648</ele>
        <time>2022-07-31T07:38:50.000Z</time>
      </trkpt>
      <trkpt lat="49.76653" lon="5.28054">
        <ele>407.39999389648</ele>
        <time>2022-07-31T07:38:57.000Z</time>
      </trkpt>
      <trkpt lat="49.76677" lon="5.28071">
        <ele>408.60000610352</ele>
        <time>2022-07-31T07:39:04.000Z</time>
      </trkpt>
      <trkpt lat="49.76689" lon="5.28081">
        <ele>409</ele>
        <time>2022-07-31T07:39:08.000Z</time>
      </trkpt>
      <trkpt lat="49.76693" lon="5.28085">
        <ele>409.39999389648</ele>
        <time>2022-07-31T07:39:09.000Z</time>
      </trkpt>
      <trkpt lat="49.76707" lon="5.28105">
        <ele>410.39999389648</ele>
        <time>2022-07-31T07:39:13.000Z</time>
      </trkpt>
      <trkpt lat="49.76708" lon="5.28111">
        <ele>410.39999389648</ele>
        <time>2022-07-31T07:39:14.000Z</time>
      </trkpt>
      <trkpt lat="49.76707" lon="5.28124">
        <ele>409.79998779297</ele>
        <time>2022-07-31T07:39:16.000Z</time>
      </trkpt>
      <trkpt lat="49.76703" lon="5.28136">
        <ele>409.20001220703</ele>
        <time>2022-07-31T07:39:18.000Z</time>
      </trkpt>
      <trkpt lat="49.76698" lon="5.28148">
        <ele>408.60000610352</ele>
        <time>2022-07-31T07:39:20.000Z</time>
      </trkpt>
      <trkpt lat="49.76697" lon="5.28156">
        <ele>408.39999389648</ele>
        <time>2022-07-31T07:39:21.000Z</time>
      </trkpt>
      <trkpt lat="49.76684" lon="5.28196">
        <ele>408</ele>
        <time>2022-07-31T07:39:27.000Z</time>
      </trkpt>
      <trkpt lat="49.76671" lon="5.28232">
        <ele>411.20001220703</ele>
        <time>2022-07-31T07:39:33.000Z</time>
      </trkpt>
      <trkpt lat="49.76665" lon="5.28251">
        <ele>413</ele>
        <time>2022-07-31T07:39:37.000Z</time>
      </trkpt>
      <trkpt lat="49.76661" lon="5.28268">
        <ele>414.79998779297</ele>
        <time>2022-07-31T07:39:41.000Z</time>
      </trkpt>
      <trkpt lat="49.76659" lon="5.28282">
        <ele>416.39999389648</ele>
        <time>2022-07-31T07:39:45.000Z</time>
      </trkpt>
      <trkpt lat="49.76658" lon="5.28293">
        <ele>417.39999389648</ele>
        <time>2022-07-31T07:39:48.000Z</time>
      </trkpt>
      <trkpt lat="49.76658" lon="5.28296">
        <ele>417.60000610352</ele>
        <time>2022-07-31T07:39:49.000Z</time>
      </trkpt>
      <trkpt lat="49.76656" lon="5.2831">
        <ele>418.39999389648</ele>
        <time>2022-07-31T07:39:53.000Z</time>
      </trkpt>
      <trkpt lat="49.76655" lon="5.28318">
        <ele>419</ele>
        <time>2022-07-31T07:39:55.000Z</time>
      </trkpt>
      <trkpt lat="49.76654" lon="5.28328">
        <ele>419.60000610352</ele>
        <time>2022-07-31T07:39:57.000Z</time>
      </trkpt>
      <trkpt lat="49.76652" lon="5.28351">
        <ele>421</ele>
        <time>2022-07-31T07:40:02.000Z</time>
      </trkpt>
      <trkpt lat="49.76651" lon="5.28357">
        <ele>421.20001220703</ele>
        <time>2022-07-31T07:40:03.000Z</time>
      </trkpt>
      <trkpt lat="49.76647" lon="5.28383">
        <ele>421</ele>
        <time>2022-07-31T07:40:08.000Z</time>
      </trkpt>
      <trkpt lat="49.76647" lon="5.28389">
        <ele>420.79998779297</ele>
        <time>2022-07-31T07:40:09.000Z</time>
      </trkpt>
      <trkpt lat="49.76646" lon="5.28406">
        <ele>420.20001220703</ele>
        <time>2022-07-31T07:40:12.000Z</time>
      </trkpt>
      <trkpt lat="49.76645" lon="5.2843">
        <ele>419.39999389648</ele>
        <time>2022-07-31T07:40:16.000Z</time>
      </trkpt>
      <trkpt lat="49.76644" lon="5.28453">
        <ele>418.39999389648</ele>
        <time>2022-07-31T07:40:20.000Z</time>
      </trkpt>
      <trkpt lat="49.76642" lon="5.28464">
        <ele>418</ele>
        <time>2022-07-31T07:40:22.000Z</time>
      </trkpt>
      <trkpt lat="49.76639" lon="5.28489">
        <ele>417.79998779297</ele>
        <time>2022-07-31T07:40:26.000Z</time>
      </trkpt>
      <trkpt lat="49.76643" lon="5.285">
        <ele>417.79998779297</ele>
        <time>2022-07-31T07:40:28.000Z</time>
      </trkpt>
      <trkpt lat="49.76653" lon="5.2851">
        <ele>418.60000610352</ele>
        <time>2022-07-31T07:40:31.000Z</time>
      </trkpt>
      <trkpt lat="49.76658" lon="5.28513">
        <ele>418.79998779297</ele>
        <time>2022-07-31T07:40:32.000Z</time>
      </trkpt>
      <trkpt lat="49.76672" lon="5.28526">
        <ele>419.79998779297</ele>
        <time>2022-07-31T07:40:36.000Z</time>
      </trkpt>
      <trkpt lat="49.76675" lon="5.2853">
        <ele>420</ele>
        <time>2022-07-31T07:40:37.000Z</time>
      </trkpt>
      <trkpt lat="49.76687" lon="5.28539">
        <ele>421</ele>
        <time>2022-07-31T07:40:40.000Z</time>
      </trkpt>
      <trkpt lat="49.7669" lon="5.28542">
        <ele>421.20001220703</ele>
        <time>2022-07-31T07:40:41.000Z</time>
      </trkpt>
      <trkpt lat="49.76693" lon="5.28544">
        <ele>421.39999389648</ele>
        <time>2022-07-31T07:40:42.000Z</time>
      </trkpt>
      <trkpt lat="49.76708" lon="5.28553">
        <ele>422.39999389648</ele>
        <time>2022-07-31T07:40:46.000Z</time>
      </trkpt>
      <trkpt lat="49.76711" lon="5.28555">
        <ele>422.79998779297</ele>
        <time>2022-07-31T07:40:47.000Z</time>
      </trkpt>
      <trkpt lat="49.76731" lon="5.2856">
        <ele>424.60000610352</ele>
        <time>2022-07-31T07:40:52.000Z</time>
      </trkpt>
      <trkpt lat="49.76732" lon="5.2856">
        <ele>424.79998779297</ele>
        <time>2022-07-31T07:40:53.000Z</time>
      </trkpt>
      <trkpt lat="49.76743" lon="5.28564">
        <ele>425</ele>
        <time>2022-07-31T07:40:57.000Z</time>
      </trkpt>
      <trkpt lat="49.76752" lon="5.28565">
        <ele>425.20001220703</ele>
        <time>2022-07-31T07:40:59.000Z</time>
      </trkpt>
      <trkpt lat="49.76771" lon="5.28565">
        <ele>425.39999389648</ele>
        <time>2022-07-31T07:41:03.000Z</time>
      </trkpt>
      <trkpt lat="49.76777" lon="5.28564">
        <ele>425.20001220703</ele>
        <time>2022-07-31T07:41:04.000Z</time>
      </trkpt>
      <trkpt lat="49.76791" lon="5.28562">
        <ele>424.39999389648</ele>
        <time>2022-07-31T07:41:08.000Z</time>
      </trkpt>
      <trkpt lat="49.76825" lon="5.28562">
        <ele>424.79998779297</ele>
        <time>2022-07-31T07:41:15.000Z</time>
      </trkpt>
      <trkpt lat="49.76848" lon="5.28559">
        <ele>424.39999389648</ele>
        <time>2022-07-31T07:41:21.000Z</time>
      </trkpt>
      <trkpt lat="49.76854" lon="5.28557">
        <ele>424.20001220703</ele>
        <time>2022-07-31T07:41:23.000Z</time>
      </trkpt>
      <trkpt lat="49.76864" lon="5.28556">
        <ele>424.20001220703</ele>
        <time>2022-07-31T07:41:26.000Z</time>
      </trkpt>
      <trkpt lat="49.76875" lon="5.28554">
        <ele>424</ele>
        <time>2022-07-31T07:41:29.000Z</time>
      </trkpt>
      <trkpt lat="49.76881" lon="5.28553">
        <ele>424</ele>
        <time>2022-07-31T07:41:31.000Z</time>
      </trkpt>
      <trkpt lat="49.76892" lon="5.28554">
        <ele>424</ele>
        <time>2022-07-31T07:41:35.000Z</time>
      </trkpt>
      <trkpt lat="49.76896" lon="5.28552">
        <ele>424</ele>
        <time>2022-07-31T07:41:36.000Z</time>
      </trkpt>
      <trkpt lat="49.76904" lon="5.28552">
        <ele>424.20001220703</ele>
        <time>2022-07-31T07:41:38.000Z</time>
      </trkpt>
      <trkpt lat="49.76911" lon="5.28553">
        <ele>424.60000610352</ele>
        <time>2022-07-31T07:41:40.000Z</time>
      </trkpt>
      <trkpt lat="49.76925" lon="5.28548">
        <ele>425.20001220703</ele>
        <time>2022-07-31T07:41:44.000Z</time>
      </trkpt>
      <trkpt lat="49.76938" lon="5.2855">
        <ele>426</ele>
        <time>2022-07-31T07:41:48.000Z</time>
      </trkpt>
      <trkpt lat="49.76944" lon="5.28555">
        <ele>426.20001220703</ele>
        <time>2022-07-31T07:41:51.000Z</time>
      </trkpt>
      <trkpt lat="49.76947" lon="5.28558">
        <ele>426.39999389648</ele>
        <time>2022-07-31T07:41:53.000Z</time>
      </trkpt>
      <trkpt lat="49.76952" lon="5.28566">
        <ele>426.39999389648</ele>
        <time>2022-07-31T07:41:56.000Z</time>
      </trkpt>
      <trkpt lat="49.76954" lon="5.28568">
        <ele>426.20001220703</ele>
        <time>2022-07-31T07:41:57.000Z</time>
      </trkpt>
      <trkpt lat="49.76968" lon="5.28579">
        <ele>425.39999389648</ele>
        <time>2022-07-31T07:42:02.000Z</time>
      </trkpt>
      <trkpt lat="49.76987" lon="5.286">
        <ele>424.39999389648</ele>
        <time>2022-07-31T07:42:08.000Z</time>
      </trkpt>
      <trkpt lat="49.77003" lon="5.28618">
        <ele>424.39999389648</ele>
        <time>2022-07-31T07:42:13.000Z</time>
      </trkpt>
      <trkpt lat="49.77008" lon="5.28623">
        <ele>424.39999389648</ele>
        <time>2022-07-31T07:42:14.000Z</time>
      </trkpt>
      <trkpt lat="49.77023" lon="5.28636">
        <ele>425.60000610352</ele>
        <time>2022-07-31T07:42:17.000Z</time>
      </trkpt>
      <trkpt lat="49.77042" lon="5.28652">
        <ele>427.60000610352</ele>
        <time>2022-07-31T07:42:22.000Z</time>
      </trkpt>
      <trkpt lat="49.77049" lon="5.28659">
        <ele>428</ele>
        <time>2022-07-31T07:42:24.000Z</time>
      </trkpt>
      <trkpt lat="49.77059" lon="5.2867">
        <ele>429</ele>
        <time>2022-07-31T07:42:27.000Z</time>
      </trkpt>
      <trkpt lat="49.7707" lon="5.28686">
        <ele>430.20001220703</ele>
        <time>2022-07-31T07:42:30.000Z</time>
      </trkpt>
      <trkpt lat="49.77078" lon="5.28697">
        <ele>430.60000610352</ele>
        <time>2022-07-31T07:42:32.000Z</time>
      </trkpt>
      <trkpt lat="49.77087" lon="5.28711">
        <ele>430.79998779297</ele>
        <time>2022-07-31T07:42:35.000Z</time>
      </trkpt>
      <trkpt lat="49.77093" lon="5.28732">
        <ele>431</ele>
        <time>2022-07-31T07:42:40.000Z</time>
      </trkpt>
      <trkpt lat="49.77097" lon="5.28735">
        <ele>431</ele>
        <time>2022-07-31T07:42:42.000Z</time>
      </trkpt>
      <trkpt lat="49.77102" lon="5.28737">
        <ele>431</ele>
        <time>2022-07-31T07:42:44.000Z</time>
      </trkpt>
      <trkpt lat="49.77107" lon="5.28748">
        <ele>430.79998779297</ele>
        <time>2022-07-31T07:42:47.000Z</time>
      </trkpt>
      <trkpt lat="49.77112" lon="5.28754">
        <ele>430.60000610352</ele>
        <time>2022-07-31T07:42:48.000Z</time>
      </trkpt>
      <trkpt lat="49.77121" lon="5.28774">
        <ele>430</ele>
        <time>2022-07-31T07:42:51.000Z</time>
      </trkpt>
      <trkpt lat="49.77125" lon="5.28787">
        <ele>430</ele>
        <time>2022-07-31T07:42:53.000Z</time>
      </trkpt>
      <trkpt lat="49.77138" lon="5.28822">
        <ele>430.60000610352</ele>
        <time>2022-07-31T07:42:59.000Z</time>
      </trkpt>
      <trkpt lat="49.77144" lon="5.28846">
        <ele>431.39999389648</ele>
        <time>2022-07-31T07:43:03.000Z</time>
      </trkpt>
      <trkpt lat="49.77145" lon="5.28851">
        <ele>431.79998779297</ele>
        <time>2022-07-31T07:43:04.000Z</time>
      </trkpt>
      <trkpt lat="49.77152" lon="5.28875">
        <ele>432.39999389648</ele>
        <time>2022-07-31T07:43:08.000Z</time>
      </trkpt>
      <trkpt lat="49.77156" lon="5.28889">
        <ele>432.79998779297</ele>
        <time>2022-07-31T07:43:10.000Z</time>
      </trkpt>
      <trkpt lat="49.77162" lon="5.28908">
        <ele>434</ele>
        <time>2022-07-31T07:43:13.000Z</time>
      </trkpt>
      <trkpt lat="49.77166" lon="5.28927">
        <ele>435</ele>
        <time>2022-07-31T07:43:16.000Z</time>
      </trkpt>
      <trkpt lat="49.77168" lon="5.28933">
        <ele>435.39999389648</ele>
        <time>2022-07-31T07:43:17.000Z</time>
      </trkpt>
      <trkpt lat="49.77169" lon="5.28941">
        <ele>435.39999389648</ele>
        <time>2022-07-31T07:43:18.000Z</time>
      </trkpt>
      <trkpt lat="49.77172" lon="5.28958">
        <ele>435</ele>
        <time>2022-07-31T07:43:21.000Z</time>
      </trkpt>
      <trkpt lat="49.7718" lon="5.28977">
        <ele>434.60000610352</ele>
        <time>2022-07-31T07:43:26.000Z</time>
      </trkpt>
      <trkpt lat="49.77198" lon="5.29001">
        <ele>434.39999389648</ele>
        <time>2022-07-31T07:43:32.000Z</time>
      </trkpt>
      <trkpt lat="49.77206" lon="5.29008">
        <ele>434.60000610352</ele>
        <time>2022-07-31T07:43:34.000Z</time>
      </trkpt>
      <trkpt lat="49.77222" lon="5.29017">
        <ele>435</ele>
        <time>2022-07-31T07:43:38.000Z</time>
      </trkpt>
      <trkpt lat="49.77244" lon="5.29023">
        <ele>436</ele>
        <time>2022-07-31T07:43:43.000Z</time>
      </trkpt>
      <trkpt lat="49.7727" lon="5.29032">
        <ele>438.39999389648</ele>
        <time>2022-07-31T07:43:49.000Z</time>
      </trkpt>
      <trkpt lat="49.77283" lon="5.29033">
        <ele>439.79998779297</ele>
        <time>2022-07-31T07:43:51.000Z</time>
      </trkpt>
      <trkpt lat="49.773" lon="5.29034">
        <ele>439.60000610352</ele>
        <time>2022-07-31T07:43:54.000Z</time>
      </trkpt>
      <trkpt lat="49.77324" lon="5.2904">
        <ele>438.60000610352</ele>
        <time>2022-07-31T07:43:58.000Z</time>
      </trkpt>
      <trkpt lat="49.77347" lon="5.2905">
        <ele>436.79998779297</ele>
        <time>2022-07-31T07:44:02.000Z</time>
      </trkpt>
      <trkpt lat="49.77354" lon="5.29053">
        <ele>436.39999389648</ele>
        <time>2022-07-31T07:44:03.000Z</time>
      </trkpt>
      <trkpt lat="49.77374" lon="5.29057">
        <ele>435.79998779297</ele>
        <time>2022-07-31T07:44:06.000Z</time>
      </trkpt>
      <trkpt lat="49.77387" lon="5.29059">
        <ele>435.60000610352</ele>
        <time>2022-07-31T07:44:08.000Z</time>
      </trkpt>
      <trkpt lat="49.77393" lon="5.2906">
        <ele>435.60000610352</ele>
        <time>2022-07-31T07:44:09.000Z</time>
      </trkpt>
      <trkpt lat="49.77426" lon="5.29069">
        <ele>433.79998779297</ele>
        <time>2022-07-31T07:44:14.000Z</time>
      </trkpt>
      <trkpt lat="49.77432" lon="5.29073">
        <ele>433.39999389648</ele>
        <time>2022-07-31T07:44:15.000Z</time>
      </trkpt>
      <trkpt lat="49.77438" lon="5.29072">
        <ele>433</ele>
        <time>2022-07-31T07:44:16.000Z</time>
      </trkpt>
      <trkpt lat="49.77452" lon="5.29072">
        <ele>432.20001220703</ele>
        <time>2022-07-31T07:44:18.000Z</time>
      </trkpt>
      <trkpt lat="49.77482" lon="5.29074">
        <ele>432.20001220703</ele>
        <time>2022-07-31T07:44:23.000Z</time>
      </trkpt>
      <trkpt lat="49.77513" lon="5.29079">
        <ele>432</ele>
        <time>2022-07-31T07:44:28.000Z</time>
      </trkpt>
      <trkpt lat="49.77523" lon="5.29081">
        <ele>431.79998779297</ele>
        <time>2022-07-31T07:44:30.000Z</time>
      </trkpt>
      <trkpt lat="49.77533" lon="5.29083">
        <ele>431.79998779297</ele>
        <time>2022-07-31T07:44:32.000Z</time>
      </trkpt>
      <trkpt lat="49.77553" lon="5.2909">
        <ele>431.60000610352</ele>
        <time>2022-07-31T07:44:36.000Z</time>
      </trkpt>
      <trkpt lat="49.7756" lon="5.29088">
        <ele>431.60000610352</ele>
        <time>2022-07-31T07:44:38.000Z</time>
      </trkpt>
      <trkpt lat="49.77563" lon="5.29087">
        <ele>431.60000610352</ele>
        <time>2022-07-31T07:44:39.000Z</time>
      </trkpt>
      <trkpt lat="49.77571" lon="5.29088">
        <ele>431.60000610352</ele>
        <time>2022-07-31T07:44:42.000Z</time>
      </trkpt>
      <trkpt lat="49.77576" lon="5.29093">
        <ele>431.39999389648</ele>
        <time>2022-07-31T07:44:43.000Z</time>
      </trkpt>
      <trkpt lat="49.77587" lon="5.29109">
        <ele>431</ele>
        <time>2022-07-31T07:44:46.000Z</time>
      </trkpt>
      <trkpt lat="49.77595" lon="5.29119">
        <ele>431.20001220703</ele>
        <time>2022-07-31T07:44:48.000Z</time>
      </trkpt>
      <trkpt lat="49.7761" lon="5.29134">
        <ele>431.60000610352</ele>
        <time>2022-07-31T07:44:51.000Z</time>
      </trkpt>
      <trkpt lat="49.77618" lon="5.29147">
        <ele>432</ele>
        <time>2022-07-31T07:44:53.000Z</time>
      </trkpt>
      <trkpt lat="49.77624" lon="5.29161">
        <ele>432.60000610352</ele>
        <time>2022-07-31T07:44:55.000Z</time>
      </trkpt>
      <trkpt lat="49.77633" lon="5.29182">
        <ele>432.20001220703</ele>
        <time>2022-07-31T07:44:58.000Z</time>
      </trkpt>
      <trkpt lat="49.7764" lon="5.29195">
        <ele>432.60000610352</ele>
        <time>2022-07-31T07:45:00.000Z</time>
      </trkpt>
      <trkpt lat="49.77645" lon="5.29208">
        <ele>433</ele>
        <time>2022-07-31T07:45:02.000Z</time>
      </trkpt>
      <trkpt lat="49.77651" lon="5.29228">
        <ele>433.20001220703</ele>
        <time>2022-07-31T07:45:05.000Z</time>
      </trkpt>
      <trkpt lat="49.77656" lon="5.29242">
        <ele>433.39999389648</ele>
        <time>2022-07-31T07:45:07.000Z</time>
      </trkpt>
      <trkpt lat="49.77665" lon="5.2926">
        <ele>434.20001220703</ele>
        <time>2022-07-31T07:45:10.000Z</time>
      </trkpt>
      <trkpt lat="49.77676" lon="5.29279">
        <ele>435.20001220703</ele>
        <time>2022-07-31T07:45:13.000Z</time>
      </trkpt>
      <trkpt lat="49.77679" lon="5.29286">
        <ele>436</ele>
        <time>2022-07-31T07:45:14.000Z</time>
      </trkpt>
      <trkpt lat="49.77685" lon="5.29297">
        <ele>437.20001220703</ele>
        <time>2022-07-31T07:45:16.000Z</time>
      </trkpt>
      <trkpt lat="49.77688" lon="5.29315">
        <ele>437.39999389648</ele>
        <time>2022-07-31T07:45:19.000Z</time>
      </trkpt>
      <trkpt lat="49.77691" lon="5.29325">
        <ele>438</ele>
        <time>2022-07-31T07:45:21.000Z</time>
      </trkpt>
      <trkpt lat="49.77696" lon="5.29333">
        <ele>438.39999389648</ele>
        <time>2022-07-31T07:45:23.000Z</time>
      </trkpt>
      <trkpt lat="49.77706" lon="5.29362">
        <ele>438.39999389648</ele>
        <time>2022-07-31T07:45:28.000Z</time>
      </trkpt>
      <trkpt lat="49.77723" lon="5.29404">
        <ele>440</ele>
        <time>2022-07-31T07:45:33.000Z</time>
      </trkpt>
      <trkpt lat="49.7774" lon="5.29447">
        <ele>439.20001220703</ele>
        <time>2022-07-31T07:45:38.000Z</time>
      </trkpt>
      <trkpt lat="49.77746" lon="5.29462">
        <ele>438.20001220703</ele>
        <time>2022-07-31T07:45:40.000Z</time>
      </trkpt>
      <trkpt lat="49.77754" lon="5.29475">
        <ele>437.39999389648</ele>
        <time>2022-07-31T07:45:42.000Z</time>
      </trkpt>
      <trkpt lat="49.77758" lon="5.29481">
        <ele>437</ele>
        <time>2022-07-31T07:45:43.000Z</time>
      </trkpt>
      <trkpt lat="49.77766" lon="5.29493">
        <ele>435.79998779297</ele>
        <time>2022-07-31T07:45:45.000Z</time>
      </trkpt>
      <trkpt lat="49.77783" lon="5.29518">
        <ele>433.39999389648</ele>
        <time>2022-07-31T07:45:49.000Z</time>
      </trkpt>
      <trkpt lat="49.77785" lon="5.29522">
        <ele>433</ele>
        <time>2022-07-31T07:45:50.000Z</time>
      </trkpt>
      <trkpt lat="49.77786" lon="5.29527">
        <ele>432.60000610352</ele>
        <time>2022-07-31T07:45:51.000Z</time>
      </trkpt>
      <trkpt lat="49.77784" lon="5.29535">
        <ele>432.20001220703</ele>
        <time>2022-07-31T07:45:53.000Z</time>
      </trkpt>
      <trkpt lat="49.77773" lon="5.29549">
        <ele>431</ele>
        <time>2022-07-31T07:45:57.000Z</time>
      </trkpt>
      <trkpt lat="49.77767" lon="5.29554">
        <ele>430.60000610352</ele>
        <time>2022-07-31T07:45:58.000Z</time>
      </trkpt>
      <trkpt lat="49.77751" lon="5.29564">
        <ele>431.20001220703</ele>
        <time>2022-07-31T07:46:01.000Z</time>
      </trkpt>
      <trkpt lat="49.77741" lon="5.29567">
        <ele>432.20001220703</ele>
        <time>2022-07-31T07:46:03.000Z</time>
      </trkpt>
      <trkpt lat="49.77735" lon="5.29567">
        <ele>432.79998779297</ele>
        <time>2022-07-31T07:46:04.000Z</time>
      </trkpt>
      <trkpt lat="49.77728" lon="5.29567">
        <ele>433.39999389648</ele>
        <time>2022-07-31T07:46:06.000Z</time>
      </trkpt>
      <trkpt lat="49.77726" lon="5.2957">
        <ele>433.20001220703</ele>
        <time>2022-07-31T07:46:07.000Z</time>
      </trkpt>
      <trkpt lat="49.77726" lon="5.29579">
        <ele>433</ele>
        <time>2022-07-31T07:46:09.000Z</time>
      </trkpt>
      <trkpt lat="49.77737" lon="5.29604">
        <ele>430.39999389648</ele>
        <time>2022-07-31T07:46:13.000Z</time>
      </trkpt>
      <trkpt lat="49.7775" lon="5.29629">
        <ele>428.79998779297</ele>
        <time>2022-07-31T07:46:16.000Z</time>
      </trkpt>
      <trkpt lat="49.77753" lon="5.29636">
        <ele>428.20001220703</ele>
        <time>2022-07-31T07:46:17.000Z</time>
      </trkpt>
      <trkpt lat="49.77757" lon="5.29644">
        <ele>427.60000610352</ele>
        <time>2022-07-31T07:46:18.000Z</time>
      </trkpt>
      <trkpt lat="49.77764" lon="5.2966">
        <ele>427</ele>
        <time>2022-07-31T07:46:20.000Z</time>
      </trkpt>
      <trkpt lat="49.77766" lon="5.29669">
        <ele>427</ele>
        <time>2022-07-31T07:46:21.000Z</time>
      </trkpt>
      <trkpt lat="49.77771" lon="5.29687">
        <ele>426.60000610352</ele>
        <time>2022-07-31T07:46:23.000Z</time>
      </trkpt>
      <trkpt lat="49.77775" lon="5.29694">
        <ele>426.39999389648</ele>
        <time>2022-07-31T07:46:24.000Z</time>
      </trkpt>
      <trkpt lat="49.77782" lon="5.29706">
        <ele>426.20001220703</ele>
        <time>2022-07-31T07:46:26.000Z</time>
      </trkpt>
      <trkpt lat="49.77785" lon="5.29715">
        <ele>426</ele>
        <time>2022-07-31T07:46:27.000Z</time>
      </trkpt>
      <trkpt lat="49.77786" lon="5.29723">
        <ele>425.79998779297</ele>
        <time>2022-07-31T07:46:28.000Z</time>
      </trkpt>
      <trkpt lat="49.77789" lon="5.2975">
        <ele>424.60000610352</ele>
        <time>2022-07-31T07:46:31.000Z</time>
      </trkpt>
      <trkpt lat="49.77792" lon="5.29761">
        <ele>424</ele>
        <time>2022-07-31T07:46:32.000Z</time>
      </trkpt>
      <trkpt lat="49.77796" lon="5.29781">
        <ele>422.39999389648</ele>
        <time>2022-07-31T07:46:34.000Z</time>
      </trkpt>
      <trkpt lat="49.77796" lon="5.29793">
        <ele>421.60000610352</ele>
        <time>2022-07-31T07:46:35.000Z</time>
      </trkpt>
      <trkpt lat="49.77795" lon="5.29805">
        <ele>420.39999389648</ele>
        <time>2022-07-31T07:46:36.000Z</time>
      </trkpt>
      <trkpt lat="49.77794" lon="5.29818">
        <ele>419.39999389648</ele>
        <time>2022-07-31T07:46:37.000Z</time>
      </trkpt>
      <trkpt lat="49.77793" lon="5.29844">
        <ele>417.60000610352</ele>
        <time>2022-07-31T07:46:39.000Z</time>
      </trkpt>
      <trkpt lat="49.77792" lon="5.2987">
        <ele>415.79998779297</ele>
        <time>2022-07-31T07:46:41.000Z</time>
      </trkpt>
      <trkpt lat="49.77793" lon="5.29896">
        <ele>413.79998779297</ele>
        <time>2022-07-31T07:46:43.000Z</time>
      </trkpt>
      <trkpt lat="49.77793" lon="5.29909">
        <ele>412.79998779297</ele>
        <time>2022-07-31T07:46:44.000Z</time>
      </trkpt>
      <trkpt lat="49.77793" lon="5.29922">
        <ele>412.39999389648</ele>
        <time>2022-07-31T07:46:45.000Z</time>
      </trkpt>
      <trkpt lat="49.77794" lon="5.29945">
        <ele>412.20001220703</ele>
        <time>2022-07-31T07:46:47.000Z</time>
      </trkpt>
      <trkpt lat="49.77791" lon="5.29954">
        <ele>412.39999389648</ele>
        <time>2022-07-31T07:46:48.000Z</time>
      </trkpt>
      <trkpt lat="49.77787" lon="5.29961">
        <ele>412.79998779297</ele>
        <time>2022-07-31T07:46:49.000Z</time>
      </trkpt>
      <trkpt lat="49.77782" lon="5.29967">
        <ele>413.39999389648</ele>
        <time>2022-07-31T07:46:50.000Z</time>
      </trkpt>
      <trkpt lat="49.7777" lon="5.29979">
        <ele>414.79998779297</ele>
        <time>2022-07-31T07:46:52.000Z</time>
      </trkpt>
      <trkpt lat="49.77757" lon="5.29989">
        <ele>417</ele>
        <time>2022-07-31T07:46:54.000Z</time>
      </trkpt>
      <trkpt lat="49.77743" lon="5.29999">
        <ele>418.79998779297</ele>
        <time>2022-07-31T07:46:56.000Z</time>
      </trkpt>
      <trkpt lat="49.77737" lon="5.30003">
        <ele>419.60000610352</ele>
        <time>2022-07-31T07:46:57.000Z</time>
      </trkpt>
      <trkpt lat="49.77729" lon="5.30005">
        <ele>420</ele>
        <time>2022-07-31T07:46:58.000Z</time>
      </trkpt>
      <trkpt lat="49.77709" lon="5.30013">
        <ele>421</ele>
        <time>2022-07-31T07:47:01.000Z</time>
      </trkpt>
      <trkpt lat="49.77703" lon="5.30015">
        <ele>421.20001220703</ele>
        <time>2022-07-31T07:47:02.000Z</time>
      </trkpt>
      <trkpt lat="49.77661" lon="5.3003">
        <ele>420.20001220703</ele>
        <time>2022-07-31T07:47:09.000Z</time>
      </trkpt>
      <trkpt lat="49.7765" lon="5.3004">
        <ele>419.79998779297</ele>
        <time>2022-07-31T07:47:11.000Z</time>
      </trkpt>
      <trkpt lat="49.7764" lon="5.30055">
        <ele>418.39999389648</ele>
        <time>2022-07-31T07:47:13.000Z</time>
      </trkpt>
      <trkpt lat="49.77631" lon="5.3007">
        <ele>417.20001220703</ele>
        <time>2022-07-31T07:47:15.000Z</time>
      </trkpt>
      <trkpt lat="49.77604" lon="5.3011">
        <ele>415.79998779297</ele>
        <time>2022-07-31T07:47:20.000Z</time>
      </trkpt>
      <trkpt lat="49.77593" lon="5.30126">
        <ele>416.60000610352</ele>
        <time>2022-07-31T07:47:22.000Z</time>
      </trkpt>
      <trkpt lat="49.77562" lon="5.30173">
        <ele>414.79998779297</ele>
        <time>2022-07-31T07:47:28.000Z</time>
      </trkpt>
      <trkpt lat="49.77542" lon="5.30203">
        <ele>409.79998779297</ele>
        <time>2022-07-31T07:47:32.000Z</time>
      </trkpt>
      <trkpt lat="49.77536" lon="5.3021">
        <ele>408.79998779297</ele>
        <time>2022-07-31T07:47:33.000Z</time>
      </trkpt>
      <trkpt lat="49.77502" lon="5.30257">
        <ele>404.79998779297</ele>
        <time>2022-07-31T07:47:40.000Z</time>
      </trkpt>
      <trkpt lat="49.77472" lon="5.30275">
        <ele>406.39999389648</ele>
        <time>2022-07-31T07:47:45.000Z</time>
      </trkpt>
      <trkpt lat="49.7746" lon="5.30276">
        <ele>407.20001220703</ele>
        <time>2022-07-31T07:47:47.000Z</time>
      </trkpt>
      <trkpt lat="49.77447" lon="5.30274">
        <ele>407.79998779297</ele>
        <time>2022-07-31T07:47:49.000Z</time>
      </trkpt>
      <trkpt lat="49.77424" lon="5.30259">
        <ele>409</ele>
        <time>2022-07-31T07:47:53.000Z</time>
      </trkpt>
      <trkpt lat="49.77418" lon="5.30254">
        <ele>408.79998779297</ele>
        <time>2022-07-31T07:47:54.000Z</time>
      </trkpt>
      <trkpt lat="49.77395" lon="5.30232">
        <ele>408.79998779297</ele>
        <time>2022-07-31T07:47:58.000Z</time>
      </trkpt>
      <trkpt lat="49.77383" lon="5.30221">
        <ele>408.60000610352</ele>
        <time>2022-07-31T07:48:00.000Z</time>
      </trkpt>
      <trkpt lat="49.77358" lon="5.30199">
        <ele>407.79998779297</ele>
        <time>2022-07-31T07:48:04.000Z</time>
      </trkpt>
      <trkpt lat="49.77333" lon="5.30176">
        <ele>407.79998779297</ele>
        <time>2022-07-31T07:48:08.000Z</time>
      </trkpt>
      <trkpt lat="49.77327" lon="5.30171">
        <ele>408</ele>
        <time>2022-07-31T07:48:09.000Z</time>
      </trkpt>
      <trkpt lat="49.77294" lon="5.3014">
        <ele>408.79998779297</ele>
        <time>2022-07-31T07:48:15.000Z</time>
      </trkpt>
      <trkpt lat="49.77285" lon="5.3013">
        <ele>409</ele>
        <time>2022-07-31T07:48:17.000Z</time>
      </trkpt>
      <trkpt lat="49.77265" lon="5.30113">
        <ele>409</ele>
        <time>2022-07-31T07:48:21.000Z</time>
      </trkpt>
      <trkpt lat="49.77232" lon="5.30082">
        <ele>409</ele>
        <time>2022-07-31T07:48:28.000Z</time>
      </trkpt>
      <trkpt lat="49.77215" lon="5.30066">
        <ele>408.79998779297</ele>
        <time>2022-07-31T07:48:32.000Z</time>
      </trkpt>
      <trkpt lat="49.77205" lon="5.30058">
        <ele>408.79998779297</ele>
        <time>2022-07-31T07:48:34.000Z</time>
      </trkpt>
      <trkpt lat="49.77201" lon="5.30054">
        <ele>408.79998779297</ele>
        <time>2022-07-31T07:48:35.000Z</time>
      </trkpt>
      <trkpt lat="49.7717" lon="5.30028">
        <ele>407.60000610352</ele>
        <time>2022-07-31T07:48:41.000Z</time>
      </trkpt>
      <trkpt lat="49.77132" lon="5.29993">
        <ele>406</ele>
        <time>2022-07-31T07:48:47.000Z</time>
      </trkpt>
      <trkpt lat="49.77125" lon="5.29986">
        <ele>405.79998779297</ele>
        <time>2022-07-31T07:48:48.000Z</time>
      </trkpt>
      <trkpt lat="49.77111" lon="5.29974">
        <ele>405.79998779297</ele>
        <time>2022-07-31T07:48:50.000Z</time>
      </trkpt>
      <trkpt lat="49.77098" lon="5.29962">
        <ele>406.39999389648</ele>
        <time>2022-07-31T07:48:52.000Z</time>
      </trkpt>
      <trkpt lat="49.77085" lon="5.29951">
        <ele>407</ele>
        <time>2022-07-31T07:48:54.000Z</time>
      </trkpt>
      <trkpt lat="49.77059" lon="5.29923">
        <ele>407.79998779297</ele>
        <time>2022-07-31T07:48:59.000Z</time>
      </trkpt>
      <trkpt lat="49.77018" lon="5.29886">
        <ele>408.39999389648</ele>
        <time>2022-07-31T07:49:07.000Z</time>
      </trkpt>
      <trkpt lat="49.76976" lon="5.2985">
        <ele>408</ele>
        <time>2022-07-31T07:49:15.000Z</time>
      </trkpt>
      <trkpt lat="49.76933" lon="5.29815">
        <ele>405.39999389648</ele>
        <time>2022-07-31T07:49:23.000Z</time>
      </trkpt>
      <trkpt lat="49.76917" lon="5.29802">
        <ele>405</ele>
        <time>2022-07-31T07:49:26.000Z</time>
      </trkpt>
      <trkpt lat="49.7689" lon="5.2978">
        <ele>404.60000610352</ele>
        <time>2022-07-31T07:49:31.000Z</time>
      </trkpt>
      <trkpt lat="49.7688" lon="5.29768">
        <ele>404.60000610352</ele>
        <time>2022-07-31T07:49:33.000Z</time>
      </trkpt>
      <trkpt lat="49.76871" lon="5.29754">
        <ele>405.20001220703</ele>
        <time>2022-07-31T07:49:35.000Z</time>
      </trkpt>
      <trkpt lat="49.76867" lon="5.29746">
        <ele>405.60000610352</ele>
        <time>2022-07-31T07:49:36.000Z</time>
      </trkpt>
      <trkpt lat="49.76857" lon="5.29722">
        <ele>405.60000610352</ele>
        <time>2022-07-31T07:49:39.000Z</time>
      </trkpt>
      <trkpt lat="49.76847" lon="5.29697">
        <ele>404.79998779297</ele>
        <time>2022-07-31T07:49:42.000Z</time>
      </trkpt>
      <trkpt lat="49.76828" lon="5.2966">
        <ele>401</ele>
        <time>2022-07-31T07:49:47.000Z</time>
      </trkpt>
      <trkpt lat="49.76817" lon="5.29649">
        <ele>399.39999389648</ele>
        <time>2022-07-31T07:49:49.000Z</time>
      </trkpt>
      <trkpt lat="49.7681" lon="5.29645">
        <ele>399</ele>
        <time>2022-07-31T07:49:50.000Z</time>
      </trkpt>
      <trkpt lat="49.76796" lon="5.29635">
        <ele>399.39999389648</ele>
        <time>2022-07-31T07:49:52.000Z</time>
      </trkpt>
      <trkpt lat="49.76789" lon="5.2963">
        <ele>399.79998779297</ele>
        <time>2022-07-31T07:49:53.000Z</time>
      </trkpt>
      <trkpt lat="49.76783" lon="5.29625">
        <ele>400.39999389648</ele>
        <time>2022-07-31T07:49:54.000Z</time>
      </trkpt>
      <trkpt lat="49.76769" lon="5.29616">
        <ele>401.20001220703</ele>
        <time>2022-07-31T07:49:56.000Z</time>
      </trkpt>
      <trkpt lat="49.7675" lon="5.29601">
        <ele>401.60000610352</ele>
        <time>2022-07-31T07:49:59.000Z</time>
      </trkpt>
      <trkpt lat="49.76719" lon="5.29576">
        <ele>399</ele>
        <time>2022-07-31T07:50:05.000Z</time>
      </trkpt>
      <trkpt lat="49.7669" lon="5.29552">
        <ele>398.39999389648</ele>
        <time>2022-07-31T07:50:11.000Z</time>
      </trkpt>
      <trkpt lat="49.76685" lon="5.29548">
        <ele>398.79998779297</ele>
        <time>2022-07-31T07:50:12.000Z</time>
      </trkpt>
      <trkpt lat="49.76653" lon="5.2952">
        <ele>404.60000610352</ele>
        <time>2022-07-31T07:50:19.000Z</time>
      </trkpt>
      <trkpt lat="49.76648" lon="5.29516">
        <ele>405</ele>
        <time>2022-07-31T07:50:20.000Z</time>
      </trkpt>
      <trkpt lat="49.7663" lon="5.29499">
        <ele>405.20001220703</ele>
        <time>2022-07-31T07:50:25.000Z</time>
      </trkpt>
      <trkpt lat="49.76627" lon="5.29496">
        <ele>405.20001220703</ele>
        <time>2022-07-31T07:50:26.000Z</time>
      </trkpt>
      <trkpt lat="49.76619" lon="5.29487">
        <ele>405.20001220703</ele>
        <time>2022-07-31T07:50:29.000Z</time>
      </trkpt>
      <trkpt lat="49.7661" lon="5.29478">
        <ele>405.60000610352</ele>
        <time>2022-07-31T07:50:32.000Z</time>
      </trkpt>
      <trkpt lat="49.76607" lon="5.29475">
        <ele>405.60000610352</ele>
        <time>2022-07-31T07:50:33.000Z</time>
      </trkpt>
      <trkpt lat="49.76598" lon="5.29464">
        <ele>406.39999389648</ele>
        <time>2022-07-31T07:50:36.000Z</time>
      </trkpt>
      <trkpt lat="49.76589" lon="5.2945">
        <ele>407.79998779297</ele>
        <time>2022-07-31T07:50:39.000Z</time>
      </trkpt>
      <trkpt lat="49.76569" lon="5.29418">
        <ele>409.79998779297</ele>
        <time>2022-07-31T07:50:44.000Z</time>
      </trkpt>
      <trkpt lat="49.7656" lon="5.29407">
        <ele>409.79998779297</ele>
        <time>2022-07-31T07:50:46.000Z</time>
      </trkpt>
      <trkpt lat="49.76552" lon="5.29396">
        <ele>409.20001220703</ele>
        <time>2022-07-31T07:50:48.000Z</time>
      </trkpt>
      <trkpt lat="49.76547" lon="5.29392">
        <ele>408.79998779297</ele>
        <time>2022-07-31T07:50:49.000Z</time>
      </trkpt>
      <trkpt lat="49.76538" lon="5.29387">
        <ele>408.20001220703</ele>
        <time>2022-07-31T07:50:51.000Z</time>
      </trkpt>
      <trkpt lat="49.76529" lon="5.29386">
        <ele>407.60000610352</ele>
        <time>2022-07-31T07:50:53.000Z</time>
      </trkpt>
      <trkpt lat="49.76517" lon="5.29387">
        <ele>407.20001220703</ele>
        <time>2022-07-31T07:50:57.000Z</time>
      </trkpt>
      <trkpt lat="49.76514" lon="5.29386">
        <ele>407.20001220703</ele>
        <time>2022-07-31T07:50:58.000Z</time>
      </trkpt>
      <trkpt lat="49.76508" lon="5.29386">
        <ele>407</ele>
        <time>2022-07-31T07:51:00.000Z</time>
      </trkpt>
      <trkpt lat="49.76499" lon="5.29387">
        <ele>407.20001220703</ele>
        <time>2022-07-31T07:51:03.000Z</time>
      </trkpt>
      <trkpt lat="49.76493" lon="5.29386">
        <ele>407.39999389648</ele>
        <time>2022-07-31T07:51:05.000Z</time>
      </trkpt>
      <trkpt lat="49.76484" lon="5.29387">
        <ele>407.79998779297</ele>
        <time>2022-07-31T07:51:08.000Z</time>
      </trkpt>
      <trkpt lat="49.76474" lon="5.29387">
        <ele>408.20001220703</ele>
        <time>2022-07-31T07:51:11.000Z</time>
      </trkpt>
      <trkpt lat="49.76466" lon="5.29387">
        <ele>408.79998779297</ele>
        <time>2022-07-31T07:51:13.000Z</time>
      </trkpt>
      <trkpt lat="49.76451" lon="5.29385">
        <ele>410</ele>
        <time>2022-07-31T07:51:17.000Z</time>
      </trkpt>
      <trkpt lat="49.76438" lon="5.29384">
        <ele>410.39999389648</ele>
        <time>2022-07-31T07:51:20.000Z</time>
      </trkpt>
      <trkpt lat="49.76416" lon="5.29378">
        <ele>411.60000610352</ele>
        <time>2022-07-31T07:51:25.000Z</time>
      </trkpt>
      <trkpt lat="49.76381" lon="5.29374">
        <ele>412.79998779297</ele>
        <time>2022-07-31T07:51:32.000Z</time>
      </trkpt>
      <trkpt lat="49.76376" lon="5.29374">
        <ele>413</ele>
        <time>2022-07-31T07:51:33.000Z</time>
      </trkpt>
      <trkpt lat="49.76352" lon="5.29374">
        <ele>413.60000610352</ele>
        <time>2022-07-31T07:51:38.000Z</time>
      </trkpt>
      <trkpt lat="49.76348" lon="5.29374">
        <ele>413.60000610352</ele>
        <time>2022-07-31T07:51:39.000Z</time>
      </trkpt>
      <trkpt lat="49.76336" lon="5.29376">
        <ele>413.60000610352</ele>
        <time>2022-07-31T07:51:42.000Z</time>
      </trkpt>
      <trkpt lat="49.76329" lon="5.29375">
        <ele>414</ele>
        <time>2022-07-31T07:51:44.000Z</time>
      </trkpt>
      <trkpt lat="49.76321" lon="5.29377">
        <ele>414.20001220703</ele>
        <time>2022-07-31T07:51:46.000Z</time>
      </trkpt>
      <trkpt lat="49.763" lon="5.29379">
        <ele>414.39999389648</ele>
        <time>2022-07-31T07:51:51.000Z</time>
      </trkpt>
      <trkpt lat="49.76295" lon="5.29379">
        <ele>414.20001220703</ele>
        <time>2022-07-31T07:51:52.000Z</time>
      </trkpt>
      <trkpt lat="49.76264" lon="5.29382">
        <ele>414.79998779297</ele>
        <time>2022-07-31T07:51:58.000Z</time>
      </trkpt>
      <trkpt lat="49.7622" lon="5.29387">
        <ele>413.79998779297</ele>
        <time>2022-07-31T07:52:06.000Z</time>
      </trkpt>
      <trkpt lat="49.76187" lon="5.29389">
        <ele>412.79998779297</ele>
        <time>2022-07-31T07:52:12.000Z</time>
      </trkpt>
      <trkpt lat="49.76173" lon="5.29391">
        <ele>412.20001220703</ele>
        <time>2022-07-31T07:52:14.000Z</time>
      </trkpt>
      <trkpt lat="49.76147" lon="5.29394">
        <ele>412</ele>
        <time>2022-07-31T07:52:18.000Z</time>
      </trkpt>
      <trkpt lat="49.76134" lon="5.29396">
        <ele>412</ele>
        <time>2022-07-31T07:52:20.000Z</time>
      </trkpt>
      <trkpt lat="49.76127" lon="5.29397">
        <ele>411.79998779297</ele>
        <time>2022-07-31T07:52:21.000Z</time>
      </trkpt>
      <trkpt lat="49.76105" lon="5.294">
        <ele>411</ele>
        <time>2022-07-31T07:52:24.000Z</time>
      </trkpt>
      <trkpt lat="49.76097" lon="5.29403">
        <ele>410.60000610352</ele>
        <time>2022-07-31T07:52:25.000Z</time>
      </trkpt>
      <trkpt lat="49.7609" lon="5.29408">
        <ele>410</ele>
        <time>2022-07-31T07:52:26.000Z</time>
      </trkpt>
      <trkpt lat="49.76067" lon="5.2942">
        <ele>407.39999389648</ele>
        <time>2022-07-31T07:52:29.000Z</time>
      </trkpt>
      <trkpt lat="49.76039" lon="5.29434">
        <ele>406</ele>
        <time>2022-07-31T07:52:33.000Z</time>
      </trkpt>
      <trkpt lat="49.76031" lon="5.29438">
        <ele>405.60000610352</ele>
        <time>2022-07-31T07:52:34.000Z</time>
      </trkpt>
      <trkpt lat="49.75995" lon="5.29457">
        <ele>402.60000610352</ele>
        <time>2022-07-31T07:52:39.000Z</time>
      </trkpt>
      <trkpt lat="49.75966" lon="5.29474">
        <ele>400.20001220703</ele>
        <time>2022-07-31T07:52:43.000Z</time>
      </trkpt>
      <trkpt lat="49.75937" lon="5.29491">
        <ele>398.39999389648</ele>
        <time>2022-07-31T07:52:47.000Z</time>
      </trkpt>
      <trkpt lat="49.75922" lon="5.29499">
        <ele>397.79998779297</ele>
        <time>2022-07-31T07:52:49.000Z</time>
      </trkpt>
      <trkpt lat="49.759" lon="5.29511">
        <ele>397.39999389648</ele>
        <time>2022-07-31T07:52:52.000Z</time>
      </trkpt>
      <trkpt lat="49.75884" lon="5.2952">
        <ele>397</ele>
        <time>2022-07-31T07:52:54.000Z</time>
      </trkpt>
      <trkpt lat="49.75867" lon="5.29532">
        <ele>395.79998779297</ele>
        <time>2022-07-31T07:52:56.000Z</time>
      </trkpt>
      <trkpt lat="49.75849" lon="5.29543">
        <ele>393.79998779297</ele>
        <time>2022-07-31T07:52:58.000Z</time>
      </trkpt>
      <trkpt lat="49.7583" lon="5.29554">
        <ele>391.20001220703</ele>
        <time>2022-07-31T07:53:00.000Z</time>
      </trkpt>
      <trkpt lat="49.7581" lon="5.29561">
        <ele>389</ele>
        <time>2022-07-31T07:53:02.000Z</time>
      </trkpt>
      <trkpt lat="49.758" lon="5.29563">
        <ele>388.20001220703</ele>
        <time>2022-07-31T07:53:03.000Z</time>
      </trkpt>
      <trkpt lat="49.75789" lon="5.29564">
        <ele>387.39999389648</ele>
        <time>2022-07-31T07:53:04.000Z</time>
      </trkpt>
      <trkpt lat="49.75779" lon="5.29564">
        <ele>386.60000610352</ele>
        <time>2022-07-31T07:53:05.000Z</time>
      </trkpt>
      <trkpt lat="49.75757" lon="5.29564">
        <ele>384</ele>
        <time>2022-07-31T07:53:07.000Z</time>
      </trkpt>
      <trkpt lat="49.75734" lon="5.29562">
        <ele>383.39999389648</ele>
        <time>2022-07-31T07:53:09.000Z</time>
      </trkpt>
      <trkpt lat="49.75723" lon="5.29561">
        <ele>384.20001220703</ele>
        <time>2022-07-31T07:53:10.000Z</time>
      </trkpt>
      <trkpt lat="49.75712" lon="5.2956">
        <ele>385.39999389648</ele>
        <time>2022-07-31T07:53:11.000Z</time>
      </trkpt>
      <trkpt lat="49.75693" lon="5.29559">
        <ele>386.79998779297</ele>
        <time>2022-07-31T07:53:13.000Z</time>
      </trkpt>
      <trkpt lat="49.75685" lon="5.29558">
        <ele>387</ele>
        <time>2022-07-31T07:53:14.000Z</time>
      </trkpt>
      <trkpt lat="49.75658" lon="5.29556">
        <ele>388.20001220703</ele>
        <time>2022-07-31T07:53:18.000Z</time>
      </trkpt>
      <trkpt lat="49.75652" lon="5.29556">
        <ele>388.20001220703</ele>
        <time>2022-07-31T07:53:19.000Z</time>
      </trkpt>
      <trkpt lat="49.75642" lon="5.29555">
        <ele>388.60000610352</ele>
        <time>2022-07-31T07:53:21.000Z</time>
      </trkpt>
      <trkpt lat="49.75638" lon="5.29554">
        <ele>389</ele>
        <time>2022-07-31T07:53:22.000Z</time>
      </trkpt>
      <trkpt lat="49.75633" lon="5.29554">
        <ele>389.20001220703</ele>
        <time>2022-07-31T07:53:23.000Z</time>
      </trkpt>
      <trkpt lat="49.75628" lon="5.29554">
        <ele>389.60000610352</ele>
        <time>2022-07-31T07:53:24.000Z</time>
      </trkpt>
      <trkpt lat="49.7562" lon="5.29554">
        <ele>390.20001220703</ele>
        <time>2022-07-31T07:53:26.000Z</time>
      </trkpt>
      <trkpt lat="49.75607" lon="5.29553">
        <ele>390</ele>
        <time>2022-07-31T07:53:29.000Z</time>
      </trkpt>
      <trkpt lat="49.75603" lon="5.29553">
        <ele>390</ele>
        <time>2022-07-31T07:53:30.000Z</time>
      </trkpt>
      <trkpt lat="49.7559" lon="5.29552">
        <ele>389.60000610352</ele>
        <time>2022-07-31T07:53:33.000Z</time>
      </trkpt>
      <trkpt lat="49.75569" lon="5.29553">
        <ele>388</ele>
        <time>2022-07-31T07:53:37.000Z</time>
      </trkpt>
      <trkpt lat="49.75537" lon="5.29559">
        <ele>385.20001220703</ele>
        <time>2022-07-31T07:53:43.000Z</time>
      </trkpt>
      <trkpt lat="49.75526" lon="5.29562">
        <ele>384.39999389648</ele>
        <time>2022-07-31T07:53:45.000Z</time>
      </trkpt>
      <trkpt lat="49.75512" lon="5.29577">
        <ele>383</ele>
        <time>2022-07-31T07:53:48.000Z</time>
      </trkpt>
      <trkpt lat="49.75505" lon="5.29593">
        <ele>382.39999389648</ele>
        <time>2022-07-31T07:53:50.000Z</time>
      </trkpt>
      <trkpt lat="49.75495" lon="5.29618">
        <ele>381.60000610352</ele>
        <time>2022-07-31T07:53:53.000Z</time>
      </trkpt>
      <trkpt lat="49.75483" lon="5.29641">
        <ele>381.79998779297</ele>
        <time>2022-07-31T07:53:56.000Z</time>
      </trkpt>
      <trkpt lat="49.75478" lon="5.29649">
        <ele>381.39999389648</ele>
        <time>2022-07-31T07:53:57.000Z</time>
      </trkpt>
      <trkpt lat="49.75455" lon="5.29677">
        <ele>380.39999389648</ele>
        <time>2022-07-31T07:54:01.000Z</time>
      </trkpt>
      <trkpt lat="49.75449" lon="5.29684">
        <ele>380.20001220703</ele>
        <time>2022-07-31T07:54:02.000Z</time>
      </trkpt>
      <trkpt lat="49.75443" lon="5.29691">
        <ele>380</ele>
        <time>2022-07-31T07:54:03.000Z</time>
      </trkpt>
      <trkpt lat="49.75431" lon="5.29704">
        <ele>379.39999389648</ele>
        <time>2022-07-31T07:54:05.000Z</time>
      </trkpt>
      <trkpt lat="49.75419" lon="5.29714">
        <ele>379</ele>
        <time>2022-07-31T07:54:07.000Z</time>
      </trkpt>
      <trkpt lat="49.75412" lon="5.29717">
        <ele>378.20001220703</ele>
        <time>2022-07-31T07:54:08.000Z</time>
      </trkpt>
      <trkpt lat="49.75393" lon="5.29709">
        <ele>377.39999389648</ele>
        <time>2022-07-31T07:54:11.000Z</time>
      </trkpt>
      <trkpt lat="49.75387" lon="5.29703">
        <ele>377.20001220703</ele>
        <time>2022-07-31T07:54:12.000Z</time>
      </trkpt>
      <trkpt lat="49.75373" lon="5.29691">
        <ele>376.39999389648</ele>
        <time>2022-07-31T07:54:14.000Z</time>
      </trkpt>
      <trkpt lat="49.75357" lon="5.2968">
        <ele>374.79998779297</ele>
        <time>2022-07-31T07:54:16.000Z</time>
      </trkpt>
      <trkpt lat="49.75342" lon="5.29668">
        <ele>373.20001220703</ele>
        <time>2022-07-31T07:54:18.000Z</time>
      </trkpt>
      <trkpt lat="49.75326" lon="5.29656">
        <ele>371.60000610352</ele>
        <time>2022-07-31T07:54:20.000Z</time>
      </trkpt>
      <trkpt lat="49.75307" lon="5.29646">
        <ele>370.39999389648</ele>
        <time>2022-07-31T07:54:22.000Z</time>
      </trkpt>
      <trkpt lat="49.75288" lon="5.29637">
        <ele>370</ele>
        <time>2022-07-31T07:54:24.000Z</time>
      </trkpt>
      <trkpt lat="49.7527" lon="5.2963">
        <ele>370.79998779297</ele>
        <time>2022-07-31T07:54:26.000Z</time>
      </trkpt>
      <trkpt lat="49.75252" lon="5.29625">
        <ele>371.79998779297</ele>
        <time>2022-07-31T07:54:28.000Z</time>
      </trkpt>
      <trkpt lat="49.75216" lon="5.29623">
        <ele>369.79998779297</ele>
        <time>2022-07-31T07:54:32.000Z</time>
      </trkpt>
      <trkpt lat="49.75198" lon="5.29623">
        <ele>369.39999389648</ele>
        <time>2022-07-31T07:54:34.000Z</time>
      </trkpt>
      <trkpt lat="49.75139" lon="5.29623">
        <ele>370.39999389648</ele>
        <time>2022-07-31T07:54:41.000Z</time>
      </trkpt>
      <trkpt lat="49.75116" lon="5.29624">
        <ele>370.39999389648</ele>
        <time>2022-07-31T07:54:44.000Z</time>
      </trkpt>
      <trkpt lat="49.75086" lon="5.29624">
        <ele>372.60000610352</ele>
        <time>2022-07-31T07:54:48.000Z</time>
      </trkpt>
      <trkpt lat="49.75029" lon="5.29624">
        <ele>373.60000610352</ele>
        <time>2022-07-31T07:54:56.000Z</time>
      </trkpt>
      <trkpt lat="49.75022" lon="5.29624">
        <ele>373.60000610352</ele>
        <time>2022-07-31T07:54:57.000Z</time>
      </trkpt>
      <trkpt lat="49.74965" lon="5.29623">
        <ele>370.60000610352</ele>
        <time>2022-07-31T07:55:05.000Z</time>
      </trkpt>
      <trkpt lat="49.74958" lon="5.29623">
        <ele>370</ele>
        <time>2022-07-31T07:55:06.000Z</time>
      </trkpt>
      <trkpt lat="49.7492" lon="5.29624">
        <ele>367.79998779297</ele>
        <time>2022-07-31T07:55:11.000Z</time>
      </trkpt>
      <trkpt lat="49.74898" lon="5.29624">
        <ele>368</ele>
        <time>2022-07-31T07:55:14.000Z</time>
      </trkpt>
      <trkpt lat="49.74891" lon="5.29624">
        <ele>367.79998779297</ele>
        <time>2022-07-31T07:55:15.000Z</time>
      </trkpt>
      <trkpt lat="49.74877" lon="5.29621">
        <ele>367</ele>
        <time>2022-07-31T07:55:17.000Z</time>
      </trkpt>
      <trkpt lat="49.74872" lon="5.29616">
        <ele>366.39999389648</ele>
        <time>2022-07-31T07:55:18.000Z</time>
      </trkpt>
      <trkpt lat="49.74861" lon="5.29593">
        <ele>365</ele>
        <time>2022-07-31T07:55:21.000Z</time>
      </trkpt>
      <trkpt lat="49.74858" lon="5.29584">
        <ele>365</ele>
        <time>2022-07-31T07:55:22.000Z</time>
      </trkpt>
      <trkpt lat="49.74841" lon="5.29528">
        <ele>370.20001220703</ele>
        <time>2022-07-31T07:55:28.000Z</time>
      </trkpt>
      <trkpt lat="49.7482" lon="5.29469">
        <ele>376.60000610352</ele>
        <time>2022-07-31T07:55:35.000Z</time>
      </trkpt>
      <trkpt lat="49.74813" lon="5.29454">
        <ele>377.79998779297</ele>
        <time>2022-07-31T07:55:37.000Z</time>
      </trkpt>
      <trkpt lat="49.74805" lon="5.29443">
        <ele>379</ele>
        <time>2022-07-31T07:55:39.000Z</time>
      </trkpt>
      <trkpt lat="49.74796" lon="5.29436">
        <ele>380</ele>
        <time>2022-07-31T07:55:41.000Z</time>
      </trkpt>
      <trkpt lat="49.74787" lon="5.29432">
        <ele>381</ele>
        <time>2022-07-31T07:55:43.000Z</time>
      </trkpt>
      <trkpt lat="49.74783" lon="5.2943">
        <ele>381.20001220703</ele>
        <time>2022-07-31T07:55:44.000Z</time>
      </trkpt>
      <trkpt lat="49.74775" lon="5.2943">
        <ele>381</ele>
        <time>2022-07-31T07:55:46.000Z</time>
      </trkpt>
      <trkpt lat="49.74766" lon="5.29429">
        <ele>380.79998779297</ele>
        <time>2022-07-31T07:55:48.000Z</time>
      </trkpt>
      <trkpt lat="49.74755" lon="5.29427">
        <ele>380.60000610352</ele>
        <time>2022-07-31T07:55:50.000Z</time>
      </trkpt>
      <trkpt lat="49.74712" lon="5.29415">
        <ele>376.79998779297</ele>
        <time>2022-07-31T07:55:57.000Z</time>
      </trkpt>
      <trkpt lat="49.74694" lon="5.29412">
        <ele>375.20001220703</ele>
        <time>2022-07-31T07:56:00.000Z</time>
      </trkpt>
      <trkpt lat="49.74681" lon="5.29414">
        <ele>375.60000610352</ele>
        <time>2022-07-31T07:56:02.000Z</time>
      </trkpt>
      <trkpt lat="49.7467" lon="5.29418">
        <ele>376.20001220703</ele>
        <time>2022-07-31T07:56:04.000Z</time>
      </trkpt>
      <trkpt lat="49.74664" lon="5.29421">
        <ele>377</ele>
        <time>2022-07-31T07:56:05.000Z</time>
      </trkpt>
      <trkpt lat="49.74652" lon="5.29428">
        <ele>377.20001220703</ele>
        <time>2022-07-31T07:56:07.000Z</time>
      </trkpt>
      <trkpt lat="49.7461" lon="5.29466">
        <ele>375.60000610352</ele>
        <time>2022-07-31T07:56:14.000Z</time>
      </trkpt>
      <trkpt lat="49.746" lon="5.29482">
        <ele>373.39999389648</ele>
        <time>2022-07-31T07:56:16.000Z</time>
      </trkpt>
      <trkpt lat="49.74595" lon="5.2949">
        <ele>370.79998779297</ele>
        <time>2022-07-31T07:56:17.000Z</time>
      </trkpt>
      <trkpt lat="49.74591" lon="5.295">
        <ele>368.79998779297</ele>
        <time>2022-07-31T07:56:18.000Z</time>
      </trkpt>
      <trkpt lat="49.74587" lon="5.2951">
        <ele>367.39999389648</ele>
        <time>2022-07-31T07:56:19.000Z</time>
      </trkpt>
      <trkpt lat="49.74579" lon="5.29531">
        <ele>365</ele>
        <time>2022-07-31T07:56:21.000Z</time>
      </trkpt>
      <trkpt lat="49.74572" lon="5.29555">
        <ele>361</ele>
        <time>2022-07-31T07:56:23.000Z</time>
      </trkpt>
      <trkpt lat="49.74565" lon="5.2958">
        <ele>360.20001220703</ele>
        <time>2022-07-31T07:56:25.000Z</time>
      </trkpt>
      <trkpt lat="49.7456" lon="5.29593">
        <ele>360.20001220703</ele>
        <time>2022-07-31T07:56:26.000Z</time>
      </trkpt>
      <trkpt lat="49.74553" lon="5.29606">
        <ele>360.39999389648</ele>
        <time>2022-07-31T07:56:27.000Z</time>
      </trkpt>
      <trkpt lat="49.74546" lon="5.29618">
        <ele>360.79998779297</ele>
        <time>2022-07-31T07:56:28.000Z</time>
      </trkpt>
      <trkpt lat="49.74538" lon="5.2963">
        <ele>359.39999389648</ele>
        <time>2022-07-31T07:56:29.000Z</time>
      </trkpt>
      <trkpt lat="49.74529" lon="5.2964">
        <ele>359</ele>
        <time>2022-07-31T07:56:30.000Z</time>
      </trkpt>
      <trkpt lat="49.7452" lon="5.2965">
        <ele>358.79998779297</ele>
        <time>2022-07-31T07:56:31.000Z</time>
      </trkpt>
      <trkpt lat="49.74504" lon="5.29669">
        <ele>357.60000610352</ele>
        <time>2022-07-31T07:56:33.000Z</time>
      </trkpt>
      <trkpt lat="49.74496" lon="5.29678">
        <ele>358.79998779297</ele>
        <time>2022-07-31T07:56:34.000Z</time>
      </trkpt>
      <trkpt lat="49.74481" lon="5.29695">
        <ele>358.20001220703</ele>
        <time>2022-07-31T07:56:36.000Z</time>
      </trkpt>
      <trkpt lat="49.74468" lon="5.29707">
        <ele>359.79998779297</ele>
        <time>2022-07-31T07:56:38.000Z</time>
      </trkpt>
      <trkpt lat="49.74444" lon="5.29721">
        <ele>361</ele>
        <time>2022-07-31T07:56:42.000Z</time>
      </trkpt>
      <trkpt lat="49.7443" lon="5.29733">
        <ele>362.39999389648</ele>
        <time>2022-07-31T07:56:46.000Z</time>
      </trkpt>
      <trkpt lat="49.74415" lon="5.29746">
        <ele>363</ele>
        <time>2022-07-31T07:56:50.000Z</time>
      </trkpt>
      <trkpt lat="49.7441" lon="5.29748">
        <ele>363.60000610352</ele>
        <time>2022-07-31T07:56:51.000Z</time>
      </trkpt>
      <trkpt lat="49.74388" lon="5.29749">
        <ele>364.79998779297</ele>
        <time>2022-07-31T07:56:55.000Z</time>
      </trkpt>
      <trkpt lat="49.74376" lon="5.29748">
        <ele>364.79998779297</ele>
        <time>2022-07-31T07:56:57.000Z</time>
      </trkpt>
      <trkpt lat="49.7435" lon="5.29742">
        <ele>365.20001220703</ele>
        <time>2022-07-31T07:57:01.000Z</time>
      </trkpt>
      <trkpt lat="49.74329" lon="5.29739">
        <ele>365.39999389648</ele>
        <time>2022-07-31T07:57:04.000Z</time>
      </trkpt>
      <trkpt lat="49.74293" lon="5.29737">
        <ele>365.39999389648</ele>
        <time>2022-07-31T07:57:09.000Z</time>
      </trkpt>
      <trkpt lat="49.74286" lon="5.29738">
        <ele>365.20001220703</ele>
        <time>2022-07-31T07:57:10.000Z</time>
      </trkpt>
      <trkpt lat="49.74271" lon="5.29741">
        <ele>366</ele>
        <time>2022-07-31T07:57:12.000Z</time>
      </trkpt>
      <trkpt lat="49.74257" lon="5.29748">
        <ele>365.39999389648</ele>
        <time>2022-07-31T07:57:14.000Z</time>
      </trkpt>
      <trkpt lat="49.74251" lon="5.29753">
        <ele>365.79998779297</ele>
        <time>2022-07-31T07:57:15.000Z</time>
      </trkpt>
      <trkpt lat="49.74235" lon="5.29774">
        <ele>364</ele>
        <time>2022-07-31T07:57:18.000Z</time>
      </trkpt>
      <trkpt lat="49.7422" lon="5.29805">
        <ele>363.20001220703</ele>
        <time>2022-07-31T07:57:22.000Z</time>
      </trkpt>
      <trkpt lat="49.74216" lon="5.29813">
        <ele>363.39999389648</ele>
        <time>2022-07-31T07:57:23.000Z</time>
      </trkpt>
      <trkpt lat="49.74186" lon="5.2987">
        <ele>363.60000610352</ele>
        <time>2022-07-31T07:57:30.000Z</time>
      </trkpt>
      <trkpt lat="49.74158" lon="5.29914">
        <ele>359.39999389648</ele>
        <time>2022-07-31T07:57:36.000Z</time>
      </trkpt>
      <trkpt lat="49.74153" lon="5.29922">
        <ele>359</ele>
        <time>2022-07-31T07:57:37.000Z</time>
      </trkpt>
      <trkpt lat="49.74125" lon="5.29957">
        <ele>355.79998779297</ele>
        <time>2022-07-31T07:57:42.000Z</time>
      </trkpt>
      <trkpt lat="49.74119" lon="5.29962">
        <ele>355.39999389648</ele>
        <time>2022-07-31T07:57:43.000Z</time>
      </trkpt>
      <trkpt lat="49.74093" lon="5.29979">
        <ele>354.60000610352</ele>
        <time>2022-07-31T07:57:47.000Z</time>
      </trkpt>
      <trkpt lat="49.74086" lon="5.29979">
        <ele>354.20001220703</ele>
        <time>2022-07-31T07:57:48.000Z</time>
      </trkpt>
      <trkpt lat="49.74065" lon="5.29973">
        <ele>352.20001220703</ele>
        <time>2022-07-31T07:57:51.000Z</time>
      </trkpt>
      <trkpt lat="49.74058" lon="5.29969">
        <ele>351.79998779297</ele>
        <time>2022-07-31T07:57:52.000Z</time>
      </trkpt>
      <trkpt lat="49.74041" lon="5.29956">
        <ele>351.60000610352</ele>
        <time>2022-07-31T07:57:56.000Z</time>
      </trkpt>
      <trkpt lat="49.74029" lon="5.29942">
        <ele>351.79998779297</ele>
        <time>2022-07-31T07:58:01.000Z</time>
      </trkpt>
      <trkpt lat="49.74024" lon="5.29936">
        <ele>351.79998779297</ele>
        <time>2022-07-31T07:58:04.000Z</time>
      </trkpt>
      <trkpt lat="49.74019" lon="5.2993">
        <ele>352</ele>
        <time>2022-07-31T07:58:07.000Z</time>
      </trkpt>
      <trkpt lat="49.74014" lon="5.29925">
        <ele>352</ele>
        <time>2022-07-31T07:58:10.000Z</time>
      </trkpt>
      <trkpt lat="49.74009" lon="5.29919">
        <ele>352.20001220703</ele>
        <time>2022-07-31T07:58:13.000Z</time>
      </trkpt>
      <trkpt lat="49.74003" lon="5.29909">
        <ele>353.20001220703</ele>
        <time>2022-07-31T07:58:17.000Z</time>
      </trkpt>
      <trkpt lat="49.74" lon="5.29905">
        <ele>353.79998779297</ele>
        <time>2022-07-31T07:58:19.000Z</time>
      </trkpt>
      <trkpt lat="49.73997" lon="5.29899">
        <ele>354.39999389648</ele>
        <time>2022-07-31T07:58:22.000Z</time>
      </trkpt>
      <trkpt lat="49.73993" lon="5.2989">
        <ele>355.60000610352</ele>
        <time>2022-07-31T07:58:26.000Z</time>
      </trkpt>
      <trkpt lat="49.7399" lon="5.29886">
        <ele>356</ele>
        <time>2022-07-31T07:58:28.000Z</time>
      </trkpt>
      <trkpt lat="49.73985" lon="5.29877">
        <ele>357.60000610352</ele>
        <time>2022-07-31T07:58:32.000Z</time>
      </trkpt>
      <trkpt lat="49.73981" lon="5.2987">
        <ele>359</ele>
        <time>2022-07-31T07:58:35.000Z</time>
      </trkpt>
      <trkpt lat="49.73977" lon="5.29863">
        <ele>360.39999389648</ele>
        <time>2022-07-31T07:58:39.000Z</time>
      </trkpt>
      <trkpt lat="49.73974" lon="5.29854">
        <ele>362.39999389648</ele>
        <time>2022-07-31T07:58:43.000Z</time>
      </trkpt>
      <trkpt lat="49.73972" lon="5.2985">
        <ele>363.20001220703</ele>
        <time>2022-07-31T07:58:45.000Z</time>
      </trkpt>
      <trkpt lat="49.7397" lon="5.29847">
        <ele>364</ele>
        <time>2022-07-31T07:58:46.000Z</time>
      </trkpt>
      <trkpt lat="49.73965" lon="5.29836">
        <ele>366.39999389648</ele>
        <time>2022-07-31T07:58:50.000Z</time>
      </trkpt>
      <trkpt lat="49.73963" lon="5.29834">
        <ele>366.79998779297</ele>
        <time>2022-07-31T07:58:51.000Z</time>
      </trkpt>
      <trkpt lat="49.7395" lon="5.29824">
        <ele>369</ele>
        <time>2022-07-31T07:58:59.000Z</time>
      </trkpt>
      <trkpt lat="49.73948" lon="5.29822">
        <ele>369.60000610352</ele>
        <time>2022-07-31T07:59:00.000Z</time>
      </trkpt>
      <trkpt lat="49.73942" lon="5.29818">
        <ele>371.20001220703</ele>
        <time>2022-07-31T07:59:03.000Z</time>
      </trkpt>
      <trkpt lat="49.73933" lon="5.29814">
        <ele>373</ele>
        <time>2022-07-31T07:59:07.000Z</time>
      </trkpt>
      <trkpt lat="49.73932" lon="5.29813">
        <ele>373.39999389648</ele>
        <time>2022-07-31T07:59:08.000Z</time>
      </trkpt>
      <trkpt lat="49.73914" lon="5.29803">
        <ele>378.60000610352</ele>
        <time>2022-07-31T07:59:21.000Z</time>
      </trkpt>
      <trkpt lat="49.73908" lon="5.298">
        <ele>380.39999389648</ele>
        <time>2022-07-31T07:59:24.000Z</time>
      </trkpt>
      <trkpt lat="49.73899" lon="5.29797">
        <ele>382.60000610352</ele>
        <time>2022-07-31T07:59:28.000Z</time>
      </trkpt>
      <trkpt lat="49.73892" lon="5.29794">
        <ele>384</ele>
        <time>2022-07-31T07:59:31.000Z</time>
      </trkpt>
      <trkpt lat="49.73889" lon="5.29792">
        <ele>384.20001220703</ele>
        <time>2022-07-31T07:59:32.000Z</time>
      </trkpt>
      <trkpt lat="49.73878" lon="5.29788">
        <ele>385.60000610352</ele>
        <time>2022-07-31T07:59:36.000Z</time>
      </trkpt>
      <trkpt lat="49.7387" lon="5.29785">
        <ele>386.39999389648</ele>
        <time>2022-07-31T07:59:39.000Z</time>
      </trkpt>
      <trkpt lat="49.73868" lon="5.29784">
        <ele>386.79998779297</ele>
        <time>2022-07-31T07:59:40.000Z</time>
      </trkpt>
      <trkpt lat="49.73861" lon="5.2978">
        <ele>387.39999389648</ele>
        <time>2022-07-31T07:59:43.000Z</time>
      </trkpt>
      <trkpt lat="49.73858" lon="5.2978">
        <ele>387.60000610352</ele>
        <time>2022-07-31T07:59:44.000Z</time>
      </trkpt>
      <trkpt lat="49.73849" lon="5.29776">
        <ele>388.20001220703</ele>
        <time>2022-07-31T07:59:47.000Z</time>
      </trkpt>
      <trkpt lat="49.7384" lon="5.29773">
        <ele>389</ele>
        <time>2022-07-31T07:59:50.000Z</time>
      </trkpt>
      <trkpt lat="49.73837" lon="5.2977">
        <ele>389</ele>
        <time>2022-07-31T07:59:51.000Z</time>
      </trkpt>
      <trkpt lat="49.73832" lon="5.29766">
        <ele>389.20001220703</ele>
        <time>2022-07-31T07:59:53.000Z</time>
      </trkpt>
      <trkpt lat="49.73827" lon="5.29762">
        <ele>389.39999389648</ele>
        <time>2022-07-31T07:59:55.000Z</time>
      </trkpt>
      <trkpt lat="49.73825" lon="5.29759">
        <ele>389.39999389648</ele>
        <time>2022-07-31T07:59:56.000Z</time>
      </trkpt>
      <trkpt lat="49.73823" lon="5.29752">
        <ele>389.79998779297</ele>
        <time>2022-07-31T07:59:58.000Z</time>
      </trkpt>
      <trkpt lat="49.73821" lon="5.29744">
        <ele>390.39999389648</ele>
        <time>2022-07-31T08:00:00.000Z</time>
      </trkpt>
      <trkpt lat="49.7382" lon="5.29739">
        <ele>390.60000610352</ele>
        <time>2022-07-31T08:00:01.000Z</time>
      </trkpt>
      <trkpt lat="49.73822" lon="5.29726">
        <ele>391.60000610352</ele>
        <time>2022-07-31T08:00:04.000Z</time>
      </trkpt>
      <trkpt lat="49.73824" lon="5.29717">
        <ele>392</ele>
        <time>2022-07-31T08:00:06.000Z</time>
      </trkpt>
      <trkpt lat="49.73825" lon="5.29714">
        <ele>392.20001220703</ele>
        <time>2022-07-31T08:00:07.000Z</time>
      </trkpt>
      <trkpt lat="49.73828" lon="5.29699">
        <ele>392.79998779297</ele>
        <time>2022-07-31T08:00:10.000Z</time>
      </trkpt>
      <trkpt lat="49.73832" lon="5.2969">
        <ele>393.60000610352</ele>
        <time>2022-07-31T08:00:12.000Z</time>
      </trkpt>
      <trkpt lat="49.73833" lon="5.29685">
        <ele>394</ele>
        <time>2022-07-31T08:00:13.000Z</time>
      </trkpt>
      <trkpt lat="49.73835" lon="5.29674">
        <ele>394.60000610352</ele>
        <time>2022-07-31T08:00:15.000Z</time>
      </trkpt>
      <trkpt lat="49.73839" lon="5.29653">
        <ele>395</ele>
        <time>2022-07-31T08:00:19.000Z</time>
      </trkpt>
      <trkpt lat="49.73841" lon="5.29648">
        <ele>395</ele>
        <time>2022-07-31T08:00:20.000Z</time>
      </trkpt>
      <trkpt lat="49.73847" lon="5.29621">
        <ele>394.39999389648</ele>
        <time>2022-07-31T08:00:24.000Z</time>
      </trkpt>
      <trkpt lat="49.73855" lon="5.29599">
        <ele>393.20001220703</ele>
        <time>2022-07-31T08:00:28.000Z</time>
      </trkpt>
      <trkpt lat="49.73856" lon="5.29582">
        <ele>392.60000610352</ele>
        <time>2022-07-31T08:00:30.000Z</time>
      </trkpt>
      <trkpt lat="49.73858" lon="5.29566">
        <ele>392.39999389648</ele>
        <time>2022-07-31T08:00:32.000Z</time>
      </trkpt>
      <trkpt lat="49.73866" lon="5.29546">
        <ele>392</ele>
        <time>2022-07-31T08:00:36.000Z</time>
      </trkpt>
      <trkpt lat="49.7387" lon="5.29542">
        <ele>391.79998779297</ele>
        <time>2022-07-31T08:00:37.000Z</time>
      </trkpt>
      <trkpt lat="49.73893" lon="5.29516">
        <ele>390.79998779297</ele>
        <time>2022-07-31T08:00:43.000Z</time>
      </trkpt>
      <trkpt lat="49.73904" lon="5.29508">
        <ele>391.39999389648</ele>
        <time>2022-07-31T08:00:47.000Z</time>
      </trkpt>
      <trkpt lat="49.73918" lon="5.29498">
        <ele>392.60000610352</ele>
        <time>2022-07-31T08:00:51.000Z</time>
      </trkpt>
      <trkpt lat="49.73938" lon="5.29482">
        <ele>395.60000610352</ele>
        <time>2022-07-31T08:00:57.000Z</time>
      </trkpt>
      <trkpt lat="49.73941" lon="5.29477">
        <ele>395.79998779297</ele>
        <time>2022-07-31T08:00:58.000Z</time>
      </trkpt>
      <trkpt lat="49.73947" lon="5.29452">
        <ele>396.60000610352</ele>
        <time>2022-07-31T08:01:01.000Z</time>
      </trkpt>
      <trkpt lat="49.73955" lon="5.29396">
        <ele>398.60000610352</ele>
        <time>2022-07-31T08:01:06.000Z</time>
      </trkpt>
      <trkpt lat="49.73965" lon="5.29364">
        <ele>398</ele>
        <time>2022-07-31T08:01:09.000Z</time>
      </trkpt>
      <trkpt lat="49.73971" lon="5.29345">
        <ele>397</ele>
        <time>2022-07-31T08:01:11.000Z</time>
      </trkpt>
      <trkpt lat="49.73981" lon="5.29322">
        <ele>394.79998779297</ele>
        <time>2022-07-31T08:01:14.000Z</time>
      </trkpt>
      <trkpt lat="49.73985" lon="5.29318">
        <ele>394.60000610352</ele>
        <time>2022-07-31T08:01:15.000Z</time>
      </trkpt>
      <trkpt lat="49.74" lon="5.29281">
        <ele>393.79998779297</ele>
        <time>2022-07-31T08:01:20.000Z</time>
      </trkpt>
      <trkpt lat="49.74013" lon="5.29246">
        <ele>394.79998779297</ele>
        <time>2022-07-31T08:01:25.000Z</time>
      </trkpt>
      <trkpt lat="49.74017" lon="5.29236">
        <ele>394.79998779297</ele>
        <time>2022-07-31T08:01:26.000Z</time>
      </trkpt>
      <trkpt lat="49.74027" lon="5.29213">
        <ele>395.39999389648</ele>
        <time>2022-07-31T08:01:29.000Z</time>
      </trkpt>
      <trkpt lat="49.7403" lon="5.29205">
        <ele>395.20001220703</ele>
        <time>2022-07-31T08:01:30.000Z</time>
      </trkpt>
      <trkpt lat="49.74036" lon="5.292">
        <ele>395</ele>
        <time>2022-07-31T08:01:32.000Z</time>
      </trkpt>
      <trkpt lat="49.74037" lon="5.29175">
        <ele>393.20001220703</ele>
        <time>2022-07-31T08:01:34.000Z</time>
      </trkpt>
      <trkpt lat="49.74036" lon="5.29156">
        <ele>392</ele>
        <time>2022-07-31T08:01:35.000Z</time>
      </trkpt>
      <trkpt lat="49.74036" lon="5.29139">
        <ele>391.20001220703</ele>
        <time>2022-07-31T08:01:36.000Z</time>
      </trkpt>
      <trkpt lat="49.7404" lon="5.29116">
        <ele>390.60000610352</ele>
        <time>2022-07-31T08:01:38.000Z</time>
      </trkpt>
      <trkpt lat="49.74046" lon="5.29088">
        <ele>390</ele>
        <time>2022-07-31T08:01:41.000Z</time>
      </trkpt>
      <trkpt lat="49.74046" lon="5.29068">
        <ele>389.60000610352</ele>
        <time>2022-07-31T08:01:43.000Z</time>
      </trkpt>
      <trkpt lat="49.74045" lon="5.29051">
        <ele>389.60000610352</ele>
        <time>2022-07-31T08:01:45.000Z</time>
      </trkpt>
      <trkpt lat="49.74046" lon="5.29044">
        <ele>389.39999389648</ele>
        <time>2022-07-31T08:01:46.000Z</time>
      </trkpt>
      <trkpt lat="49.74046" lon="5.29028">
        <ele>389</ele>
        <time>2022-07-31T08:01:48.000Z</time>
      </trkpt>
      <trkpt lat="49.74044" lon="5.2901">
        <ele>388.20001220703</ele>
        <time>2022-07-31T08:01:49.000Z</time>
      </trkpt>
      <trkpt lat="49.74034" lon="5.28978">
        <ele>387</ele>
        <time>2022-07-31T08:01:52.000Z</time>
      </trkpt>
      <trkpt lat="49.74031" lon="5.28969">
        <ele>386.79998779297</ele>
        <time>2022-07-31T08:01:53.000Z</time>
      </trkpt>
      <trkpt lat="49.74003" lon="5.28895">
        <ele>383.79998779297</ele>
        <time>2022-07-31T08:02:01.000Z</time>
      </trkpt>
      <trkpt lat="49.73996" lon="5.28879">
        <ele>384.20001220703</ele>
        <time>2022-07-31T08:02:03.000Z</time>
      </trkpt>
      <trkpt lat="49.73983" lon="5.28837">
        <ele>386.39999389648</ele>
        <time>2022-07-31T08:02:08.000Z</time>
      </trkpt>
      <trkpt lat="49.73967" lon="5.28785">
        <ele>386.20001220703</ele>
        <time>2022-07-31T08:02:14.000Z</time>
      </trkpt>
      <trkpt lat="49.73952" lon="5.28722">
        <ele>384.20001220703</ele>
        <time>2022-07-31T08:02:21.000Z</time>
      </trkpt>
      <trkpt lat="49.73935" lon="5.28675">
        <ele>379.39999389648</ele>
        <time>2022-07-31T08:02:26.000Z</time>
      </trkpt>
      <trkpt lat="49.73931" lon="5.28666">
        <ele>378.60000610352</ele>
        <time>2022-07-31T08:02:27.000Z</time>
      </trkpt>
      <trkpt lat="49.73922" lon="5.28648">
        <ele>376.79998779297</ele>
        <time>2022-07-31T08:02:29.000Z</time>
      </trkpt>
      <trkpt lat="49.73901" lon="5.28614">
        <ele>375.20001220703</ele>
        <time>2022-07-31T08:02:33.000Z</time>
      </trkpt>
      <trkpt lat="49.73889" lon="5.28599">
        <ele>374.20001220703</ele>
        <time>2022-07-31T08:02:35.000Z</time>
      </trkpt>
      <trkpt lat="49.73877" lon="5.28583">
        <ele>373.20001220703</ele>
        <time>2022-07-31T08:02:37.000Z</time>
      </trkpt>
      <trkpt lat="49.73867" lon="5.28567">
        <ele>372.20001220703</ele>
        <time>2022-07-31T08:02:39.000Z</time>
      </trkpt>
      <trkpt lat="49.73856" lon="5.2855">
        <ele>371.79998779297</ele>
        <time>2022-07-31T08:02:41.000Z</time>
      </trkpt>
      <trkpt lat="49.73835" lon="5.28515">
        <ele>370.60000610352</ele>
        <time>2022-07-31T08:02:45.000Z</time>
      </trkpt>
      <trkpt lat="49.73815" lon="5.2848">
        <ele>369.39999389648</ele>
        <time>2022-07-31T08:02:49.000Z</time>
      </trkpt>
      <trkpt lat="49.73805" lon="5.28464">
        <ele>369</ele>
        <time>2022-07-31T08:02:51.000Z</time>
      </trkpt>
      <trkpt lat="49.73789" lon="5.28439">
        <ele>367.79998779297</ele>
        <time>2022-07-31T08:02:54.000Z</time>
      </trkpt>
      <trkpt lat="49.73774" lon="5.28414">
        <ele>367.60000610352</ele>
        <time>2022-07-31T08:02:57.000Z</time>
      </trkpt>
      <trkpt lat="49.73765" lon="5.28397">
        <ele>367.39999389648</ele>
        <time>2022-07-31T08:02:59.000Z</time>
      </trkpt>
      <trkpt lat="49.7375" lon="5.28374">
        <ele>367</ele>
        <time>2022-07-31T08:03:02.000Z</time>
      </trkpt>
      <trkpt lat="49.73744" lon="5.28367">
        <ele>367</ele>
        <time>2022-07-31T08:03:03.000Z</time>
      </trkpt>
      <trkpt lat="49.73717" lon="5.28337">
        <ele>367</ele>
        <time>2022-07-31T08:03:07.000Z</time>
      </trkpt>
      <trkpt lat="49.73703" lon="5.28321">
        <ele>366.79998779297</ele>
        <time>2022-07-31T08:03:09.000Z</time>
      </trkpt>
      <trkpt lat="49.7369" lon="5.28303">
        <ele>365.39999389648</ele>
        <time>2022-07-31T08:03:11.000Z</time>
      </trkpt>
      <trkpt lat="49.73684" lon="5.28295">
        <ele>364.60000610352</ele>
        <time>2022-07-31T08:03:12.000Z</time>
      </trkpt>
      <trkpt lat="49.73676" lon="5.28289">
        <ele>363.79998779297</ele>
        <time>2022-07-31T08:03:13.000Z</time>
      </trkpt>
      <trkpt lat="49.73651" lon="5.28276">
        <ele>363.20001220703</ele>
        <time>2022-07-31T08:03:16.000Z</time>
      </trkpt>
      <trkpt lat="49.73642" lon="5.28273">
        <ele>363</ele>
        <time>2022-07-31T08:03:17.000Z</time>
      </trkpt>
      <trkpt lat="49.73618" lon="5.28263">
        <ele>363</ele>
        <time>2022-07-31T08:03:20.000Z</time>
      </trkpt>
      <trkpt lat="49.73603" lon="5.28259">
        <ele>361.39999389648</ele>
        <time>2022-07-31T08:03:22.000Z</time>
      </trkpt>
      <trkpt lat="49.73595" lon="5.28258">
        <ele>360.79998779297</ele>
        <time>2022-07-31T08:03:23.000Z</time>
      </trkpt>
      <trkpt lat="49.73558" lon="5.28263">
        <ele>360.20001220703</ele>
        <time>2022-07-31T08:03:28.000Z</time>
      </trkpt>
      <trkpt lat="49.73535" lon="5.28266">
        <ele>362</ele>
        <time>2022-07-31T08:03:32.000Z</time>
      </trkpt>
      <trkpt lat="49.73529" lon="5.28264">
        <ele>362.39999389648</ele>
        <time>2022-07-31T08:03:33.000Z</time>
      </trkpt>
      <trkpt lat="49.735" lon="5.28248">
        <ele>364</ele>
        <time>2022-07-31T08:03:38.000Z</time>
      </trkpt>
      <trkpt lat="49.73474" lon="5.28237">
        <ele>363.79998779297</ele>
        <time>2022-07-31T08:03:42.000Z</time>
      </trkpt>
      <trkpt lat="49.73455" lon="5.28228">
        <ele>363.39999389648</ele>
        <time>2022-07-31T08:03:45.000Z</time>
      </trkpt>
      <trkpt lat="49.73442" lon="5.28223">
        <ele>363</ele>
        <time>2022-07-31T08:03:47.000Z</time>
      </trkpt>
      <trkpt lat="49.73417" lon="5.28216">
        <ele>361.39999389648</ele>
        <time>2022-07-31T08:03:51.000Z</time>
      </trkpt>
      <trkpt lat="49.73405" lon="5.28209">
        <ele>360</ele>
        <time>2022-07-31T08:03:53.000Z</time>
      </trkpt>
      <trkpt lat="49.73394" lon="5.28199">
        <ele>358.39999389648</ele>
        <time>2022-07-31T08:03:55.000Z</time>
      </trkpt>
      <trkpt lat="49.73389" lon="5.28194">
        <ele>356.79998779297</ele>
        <time>2022-07-31T08:03:56.000Z</time>
      </trkpt>
      <trkpt lat="49.73379" lon="5.28184">
        <ele>354</ele>
        <time>2022-07-31T08:03:58.000Z</time>
      </trkpt>
      <trkpt lat="49.73362" lon="5.28167">
        <ele>349.79998779297</ele>
        <time>2022-07-31T08:04:01.000Z</time>
      </trkpt>
      <trkpt lat="49.7335" lon="5.28156">
        <ele>347</ele>
        <time>2022-07-31T08:04:03.000Z</time>
      </trkpt>
      <trkpt lat="49.73343" lon="5.28151">
        <ele>345</ele>
        <time>2022-07-31T08:04:04.000Z</time>
      </trkpt>
      <trkpt lat="49.73335" lon="5.28146">
        <ele>343.20001220703</ele>
        <time>2022-07-31T08:04:05.000Z</time>
      </trkpt>
      <trkpt lat="49.73327" lon="5.28141">
        <ele>341.60000610352</ele>
        <time>2022-07-31T08:04:06.000Z</time>
      </trkpt>
      <trkpt lat="49.73319" lon="5.28136">
        <ele>340.20001220703</ele>
        <time>2022-07-31T08:04:07.000Z</time>
      </trkpt>
      <trkpt lat="49.73311" lon="5.28132">
        <ele>338.79998779297</ele>
        <time>2022-07-31T08:04:08.000Z</time>
      </trkpt>
      <trkpt lat="49.73304" lon="5.28128">
        <ele>337.20001220703</ele>
        <time>2022-07-31T08:04:09.000Z</time>
      </trkpt>
      <trkpt lat="49.73296" lon="5.28122">
        <ele>335.60000610352</ele>
        <time>2022-07-31T08:04:10.000Z</time>
      </trkpt>
      <trkpt lat="49.73289" lon="5.28117">
        <ele>334</ele>
        <time>2022-07-31T08:04:11.000Z</time>
      </trkpt>
      <trkpt lat="49.73283" lon="5.28112">
        <ele>332.60000610352</ele>
        <time>2022-07-31T08:04:12.000Z</time>
      </trkpt>
      <trkpt lat="49.73279" lon="5.28106">
        <ele>331.60000610352</ele>
        <time>2022-07-31T08:04:13.000Z</time>
      </trkpt>
      <trkpt lat="49.73275" lon="5.28093">
        <ele>331</ele>
        <time>2022-07-31T08:04:15.000Z</time>
      </trkpt>
      <trkpt lat="49.73274" lon="5.28085">
        <ele>330.79998779297</ele>
        <time>2022-07-31T08:04:16.000Z</time>
      </trkpt>
      <trkpt lat="49.73276" lon="5.28071">
        <ele>331.20001220703</ele>
        <time>2022-07-31T08:04:18.000Z</time>
      </trkpt>
      <trkpt lat="49.7328" lon="5.28063">
        <ele>331.39999389648</ele>
        <time>2022-07-31T08:04:20.000Z</time>
      </trkpt>
      <trkpt lat="49.73296" lon="5.28057">
        <ele>332.60000610352</ele>
        <time>2022-07-31T08:04:23.000Z</time>
      </trkpt>
      <trkpt lat="49.73301" lon="5.28056">
        <ele>333</ele>
        <time>2022-07-31T08:04:24.000Z</time>
      </trkpt>
      <trkpt lat="49.73313" lon="5.28054">
        <ele>333.60000610352</ele>
        <time>2022-07-31T08:04:26.000Z</time>
      </trkpt>
      <trkpt lat="49.7333" lon="5.28054">
        <ele>333.79998779297</ele>
        <time>2022-07-31T08:04:29.000Z</time>
      </trkpt>
      <trkpt lat="49.73353" lon="5.28053">
        <ele>333.39999389648</ele>
        <time>2022-07-31T08:04:32.000Z</time>
      </trkpt>
      <trkpt lat="49.7337" lon="5.28052">
        <ele>332.79998779297</ele>
        <time>2022-07-31T08:04:34.000Z</time>
      </trkpt>
      <trkpt lat="49.73378" lon="5.28051">
        <ele>332.39999389648</ele>
        <time>2022-07-31T08:04:35.000Z</time>
      </trkpt>
      <trkpt lat="49.73393" lon="5.28043">
        <ele>330.79998779297</ele>
        <time>2022-07-31T08:04:37.000Z</time>
      </trkpt>
      <trkpt lat="49.734" lon="5.28038">
        <ele>329.39999389648</ele>
        <time>2022-07-31T08:04:38.000Z</time>
      </trkpt>
      <trkpt lat="49.7341" lon="5.28027">
        <ele>327</ele>
        <time>2022-07-31T08:04:40.000Z</time>
      </trkpt>
      <trkpt lat="49.73412" lon="5.28021">
        <ele>325.79998779297</ele>
        <time>2022-07-31T08:04:41.000Z</time>
      </trkpt>
      <trkpt lat="49.73412" lon="5.28005">
        <ele>323.79998779297</ele>
        <time>2022-07-31T08:04:43.000Z</time>
      </trkpt>
      <trkpt lat="49.73407" lon="5.2799">
        <ele>322.20001220703</ele>
        <time>2022-07-31T08:04:45.000Z</time>
      </trkpt>
      <trkpt lat="49.734" lon="5.27977">
        <ele>321</ele>
        <time>2022-07-31T08:04:47.000Z</time>
      </trkpt>
      <trkpt lat="49.73396" lon="5.27971">
        <ele>320.39999389648</ele>
        <time>2022-07-31T08:04:48.000Z</time>
      </trkpt>
      <trkpt lat="49.73391" lon="5.27965">
        <ele>320.39999389648</ele>
        <time>2022-07-31T08:04:49.000Z</time>
      </trkpt>
      <trkpt lat="49.73386" lon="5.27959">
        <ele>320</ele>
        <time>2022-07-31T08:04:50.000Z</time>
      </trkpt>
      <trkpt lat="49.73381" lon="5.27953">
        <ele>319.79998779297</ele>
        <time>2022-07-31T08:04:51.000Z</time>
      </trkpt>
      <trkpt lat="49.73368" lon="5.27942">
        <ele>319.60000610352</ele>
        <time>2022-07-31T08:04:53.000Z</time>
      </trkpt>
      <trkpt lat="49.73356" lon="5.2793">
        <ele>318.79998779297</ele>
        <time>2022-07-31T08:04:55.000Z</time>
      </trkpt>
      <trkpt lat="49.7335" lon="5.27924">
        <ele>318.20001220703</ele>
        <time>2022-07-31T08:04:56.000Z</time>
      </trkpt>
      <trkpt lat="49.73344" lon="5.27918">
        <ele>317.79998779297</ele>
        <time>2022-07-31T08:04:57.000Z</time>
      </trkpt>
      <trkpt lat="49.73332" lon="5.27905">
        <ele>316.20001220703</ele>
        <time>2022-07-31T08:04:59.000Z</time>
      </trkpt>
      <trkpt lat="49.73322" lon="5.27894">
        <ele>314.20001220703</ele>
        <time>2022-07-31T08:05:01.000Z</time>
      </trkpt>
      <trkpt lat="49.73317" lon="5.2789">
        <ele>313.20001220703</ele>
        <time>2022-07-31T08:05:02.000Z</time>
      </trkpt>
      <trkpt lat="49.73314" lon="5.27884">
        <ele>312.39999389648</ele>
        <time>2022-07-31T08:05:03.000Z</time>
      </trkpt>
      <trkpt lat="49.73308" lon="5.27875">
        <ele>310.20001220703</ele>
        <time>2022-07-31T08:05:05.000Z</time>
      </trkpt>
      <trkpt lat="49.73305" lon="5.27872">
        <ele>309.39999389648</ele>
        <time>2022-07-31T08:05:06.000Z</time>
      </trkpt>
      <trkpt lat="49.733" lon="5.27861">
        <ele>306.79998779297</ele>
        <time>2022-07-31T08:05:08.000Z</time>
      </trkpt>
      <trkpt lat="49.73295" lon="5.27853">
        <ele>304.60000610352</ele>
        <time>2022-07-31T08:05:10.000Z</time>
      </trkpt>
      <trkpt lat="49.73292" lon="5.27849">
        <ele>303.79998779297</ele>
        <time>2022-07-31T08:05:11.000Z</time>
      </trkpt>
      <trkpt lat="49.73289" lon="5.27845">
        <ele>303.20001220703</ele>
        <time>2022-07-31T08:05:12.000Z</time>
      </trkpt>
      <trkpt lat="49.73282" lon="5.27835">
        <ele>301</ele>
        <time>2022-07-31T08:05:14.000Z</time>
      </trkpt>
      <trkpt lat="49.73274" lon="5.27825">
        <ele>298.79998779297</ele>
        <time>2022-07-31T08:05:16.000Z</time>
      </trkpt>
      <trkpt lat="49.73266" lon="5.27815">
        <ele>297.20001220703</ele>
        <time>2022-07-31T08:05:18.000Z</time>
      </trkpt>
      <trkpt lat="49.73264" lon="5.2781">
        <ele>296.60000610352</ele>
        <time>2022-07-31T08:05:19.000Z</time>
      </trkpt>
      <trkpt lat="49.73263" lon="5.27806">
        <ele>296</ele>
        <time>2022-07-31T08:05:20.000Z</time>
      </trkpt>
      <trkpt lat="49.73264" lon="5.27803">
        <ele>295.60000610352</ele>
        <time>2022-07-31T08:05:21.000Z</time>
      </trkpt>
      <trkpt lat="49.73267" lon="5.27797">
        <ele>295.39999389648</ele>
        <time>2022-07-31T08:05:23.000Z</time>
      </trkpt>
      <trkpt lat="49.73274" lon="5.27791">
        <ele>295.39999389648</ele>
        <time>2022-07-31T08:05:26.000Z</time>
      </trkpt>
      <trkpt lat="49.7328" lon="5.27787">
        <ele>295.20001220703</ele>
        <time>2022-07-31T08:05:28.000Z</time>
      </trkpt>
      <trkpt lat="49.73288" lon="5.27785">
        <ele>294.60000610352</ele>
        <time>2022-07-31T08:05:30.000Z</time>
      </trkpt>
      <trkpt lat="49.73298" lon="5.27788">
        <ele>293.60000610352</ele>
        <time>2022-07-31T08:05:32.000Z</time>
      </trkpt>
      <trkpt lat="49.73323" lon="5.27801">
        <ele>292.39999389648</ele>
        <time>2022-07-31T08:05:38.000Z</time>
      </trkpt>
      <trkpt lat="49.73345" lon="5.27811">
        <ele>292.60000610352</ele>
        <time>2022-07-31T08:05:43.000Z</time>
      </trkpt>
      <trkpt lat="49.73378" lon="5.27832">
        <ele>295.79998779297</ele>
        <time>2022-07-31T08:05:50.000Z</time>
      </trkpt>
      <trkpt lat="49.73401" lon="5.27847">
        <ele>298</ele>
        <time>2022-07-31T08:05:56.000Z</time>
      </trkpt>
      <trkpt lat="49.7342" lon="5.27858">
        <ele>300.39999389648</ele>
        <time>2022-07-31T08:06:01.000Z</time>
      </trkpt>
      <trkpt lat="49.73449" lon="5.27869">
        <ele>301.60000610352</ele>
        <time>2022-07-31T08:06:06.000Z</time>
      </trkpt>
      <trkpt lat="49.73461" lon="5.27873">
        <ele>301</ele>
        <time>2022-07-31T08:06:08.000Z</time>
      </trkpt>
      <trkpt lat="49.73501" lon="5.27881">
        <ele>298.39999389648</ele>
        <time>2022-07-31T08:06:15.000Z</time>
      </trkpt>
      <trkpt lat="49.73532" lon="5.27886">
        <ele>298.60000610352</ele>
        <time>2022-07-31T08:06:22.000Z</time>
      </trkpt>
      <trkpt lat="49.73586" lon="5.279">
        <ele>301.39999389648</ele>
        <time>2022-07-31T08:06:29.000Z</time>
      </trkpt>
      <trkpt lat="49.73623" lon="5.27903">
        <ele>303</ele>
        <time>2022-07-31T08:06:35.000Z</time>
      </trkpt>
      <trkpt lat="49.73674" lon="5.27898">
        <ele>313.39999389648</ele>
        <time>2022-07-31T08:06:43.000Z</time>
      </trkpt>
      <trkpt lat="49.73702" lon="5.27882">
        <ele>317</ele>
        <time>2022-07-31T08:06:48.000Z</time>
      </trkpt>
      <trkpt lat="49.73731" lon="5.27858">
        <ele>316.20001220703</ele>
        <time>2022-07-31T08:06:54.000Z</time>
      </trkpt>
      <trkpt lat="49.7374" lon="5.27849">
        <ele>317.20001220703</ele>
        <time>2022-07-31T08:06:56.000Z</time>
      </trkpt>
      <trkpt lat="49.73749" lon="5.27839">
        <ele>318.60000610352</ele>
        <time>2022-07-31T08:06:58.000Z</time>
      </trkpt>
      <trkpt lat="49.73763" lon="5.27817">
        <ele>320.20001220703</ele>
        <time>2022-07-31T08:07:02.000Z</time>
      </trkpt>
      <trkpt lat="49.73769" lon="5.27805">
        <ele>319.60000610352</ele>
        <time>2022-07-31T08:07:04.000Z</time>
      </trkpt>
      <trkpt lat="49.7378" lon="5.27782">
        <ele>316.39999389648</ele>
        <time>2022-07-31T08:07:08.000Z</time>
      </trkpt>
      <trkpt lat="49.73782" lon="5.27776">
        <ele>315</ele>
        <time>2022-07-31T08:07:09.000Z</time>
      </trkpt>
      <trkpt lat="49.73785" lon="5.2777">
        <ele>313.79998779297</ele>
        <time>2022-07-31T08:07:10.000Z</time>
      </trkpt>
      <trkpt lat="49.73796" lon="5.27745">
        <ele>311.20001220703</ele>
        <time>2022-07-31T08:07:14.000Z</time>
      </trkpt>
      <trkpt lat="49.73801" lon="5.27731">
        <ele>310.39999389648</ele>
        <time>2022-07-31T08:07:16.000Z</time>
      </trkpt>
      <trkpt lat="49.73807" lon="5.27706">
        <ele>309.39999389648</ele>
        <time>2022-07-31T08:07:19.000Z</time>
      </trkpt>
      <trkpt lat="49.73813" lon="5.27657">
        <ele>308</ele>
        <time>2022-07-31T08:07:24.000Z</time>
      </trkpt>
      <trkpt lat="49.73818" lon="5.27605">
        <ele>306.39999389648</ele>
        <time>2022-07-31T08:07:30.000Z</time>
      </trkpt>
      <trkpt lat="49.73822" lon="5.27545">
        <ele>302.39999389648</ele>
        <time>2022-07-31T08:07:37.000Z</time>
      </trkpt>
      <trkpt lat="49.73823" lon="5.2751">
        <ele>300.39999389648</ele>
        <time>2022-07-31T08:07:41.000Z</time>
      </trkpt>
      <trkpt lat="49.73822" lon="5.27484">
        <ele>298.60000610352</ele>
        <time>2022-07-31T08:07:44.000Z</time>
      </trkpt>
      <trkpt lat="49.7382" lon="5.27468">
        <ele>298.39999389648</ele>
        <time>2022-07-31T08:07:46.000Z</time>
      </trkpt>
      <trkpt lat="49.73813" lon="5.27443">
        <ele>298</ele>
        <time>2022-07-31T08:07:49.000Z</time>
      </trkpt>
      <trkpt lat="49.7381" lon="5.27435">
        <ele>298.20001220703</ele>
        <time>2022-07-31T08:07:50.000Z</time>
      </trkpt>
      <trkpt lat="49.73793" lon="5.27392">
        <ele>300.60000610352</ele>
        <time>2022-07-31T08:07:55.000Z</time>
      </trkpt>
      <trkpt lat="49.73787" lon="5.27377">
        <ele>301.60000610352</ele>
        <time>2022-07-31T08:07:57.000Z</time>
      </trkpt>
      <trkpt lat="49.73776" lon="5.27355">
        <ele>302.60000610352</ele>
        <time>2022-07-31T08:08:00.000Z</time>
      </trkpt>
      <trkpt lat="49.73772" lon="5.27348">
        <ele>302.60000610352</ele>
        <time>2022-07-31T08:08:01.000Z</time>
      </trkpt>
      <trkpt lat="49.73754" lon="5.27318">
        <ele>302.79998779297</ele>
        <time>2022-07-31T08:08:06.000Z</time>
      </trkpt>
      <trkpt lat="49.7375" lon="5.27313">
        <ele>303</ele>
        <time>2022-07-31T08:08:07.000Z</time>
      </trkpt>
      <trkpt lat="49.73734" lon="5.27291">
        <ele>304.20001220703</ele>
        <time>2022-07-31T08:08:12.000Z</time>
      </trkpt>
      <trkpt lat="49.73728" lon="5.27283">
        <ele>304.60000610352</ele>
        <time>2022-07-31T08:08:14.000Z</time>
      </trkpt>
      <trkpt lat="49.73719" lon="5.27272">
        <ele>304.39999389648</ele>
        <time>2022-07-31T08:08:17.000Z</time>
      </trkpt>
      <trkpt lat="49.73709" lon="5.27261">
        <ele>303.79998779297</ele>
        <time>2022-07-31T08:08:20.000Z</time>
      </trkpt>
      <trkpt lat="49.73699" lon="5.27252">
        <ele>303</ele>
        <time>2022-07-31T08:08:23.000Z</time>
      </trkpt>
      <trkpt lat="49.7369" lon="5.27242">
        <ele>301.79998779297</ele>
        <time>2022-07-31T08:08:26.000Z</time>
      </trkpt>
      <trkpt lat="49.73681" lon="5.27232">
        <ele>301.79998779297</ele>
        <time>2022-07-31T08:08:29.000Z</time>
      </trkpt>
      <trkpt lat="49.73672" lon="5.27222">
        <ele>301.79998779297</ele>
        <time>2022-07-31T08:08:32.000Z</time>
      </trkpt>
      <trkpt lat="49.73667" lon="5.27215">
        <ele>303</ele>
        <time>2022-07-31T08:08:34.000Z</time>
      </trkpt>
      <trkpt lat="49.73664" lon="5.27211">
        <ele>303.79998779297</ele>
        <time>2022-07-31T08:08:35.000Z</time>
      </trkpt>
      <trkpt lat="49.73658" lon="5.27204">
        <ele>305.39999389648</ele>
        <time>2022-07-31T08:08:37.000Z</time>
      </trkpt>
      <trkpt lat="49.7365" lon="5.27194">
        <ele>307.79998779297</ele>
        <time>2022-07-31T08:08:40.000Z</time>
      </trkpt>
      <trkpt lat="49.73648" lon="5.2719">
        <ele>308.60000610352</ele>
        <time>2022-07-31T08:08:41.000Z</time>
      </trkpt>
      <trkpt lat="49.73643" lon="5.27183">
        <ele>310</ele>
        <time>2022-07-31T08:08:43.000Z</time>
      </trkpt>
      <trkpt lat="49.73635" lon="5.27171">
        <ele>312</ele>
        <time>2022-07-31T08:08:46.000Z</time>
      </trkpt>
      <trkpt lat="49.73627" lon="5.27158">
        <ele>313.79998779297</ele>
        <time>2022-07-31T08:08:49.000Z</time>
      </trkpt>
      <trkpt lat="49.73624" lon="5.27155">
        <ele>313.79998779297</ele>
        <time>2022-07-31T08:08:50.000Z</time>
      </trkpt>
      <trkpt lat="49.73615" lon="5.27145">
        <ele>314</ele>
        <time>2022-07-31T08:08:53.000Z</time>
      </trkpt>
      <trkpt lat="49.73606" lon="5.27135">
        <ele>313.79998779297</ele>
        <time>2022-07-31T08:08:56.000Z</time>
      </trkpt>
      <trkpt lat="49.73599" lon="5.27129">
        <ele>313.79998779297</ele>
        <time>2022-07-31T08:08:58.000Z</time>
      </trkpt>
      <trkpt lat="49.73595" lon="5.27126">
        <ele>313.60000610352</ele>
        <time>2022-07-31T08:08:59.000Z</time>
      </trkpt>
      <trkpt lat="49.73589" lon="5.27118">
        <ele>313.79998779297</ele>
        <time>2022-07-31T08:09:01.000Z</time>
      </trkpt>
      <trkpt lat="49.73577" lon="5.27109">
        <ele>314.20001220703</ele>
        <time>2022-07-31T08:09:04.000Z</time>
      </trkpt>
      <trkpt lat="49.73563" lon="5.27095">
        <ele>315.79998779297</ele>
        <time>2022-07-31T08:09:08.000Z</time>
      </trkpt>
      <trkpt lat="49.7356" lon="5.2709">
        <ele>316.39999389648</ele>
        <time>2022-07-31T08:09:09.000Z</time>
      </trkpt>
      <trkpt lat="49.73558" lon="5.27085">
        <ele>317.20001220703</ele>
        <time>2022-07-31T08:09:10.000Z</time>
      </trkpt>
      <trkpt lat="49.73556" lon="5.2708">
        <ele>318</ele>
        <time>2022-07-31T08:09:11.000Z</time>
      </trkpt>
      <trkpt lat="49.7355" lon="5.27066">
        <ele>319.39999389648</ele>
        <time>2022-07-31T08:09:14.000Z</time>
      </trkpt>
      <trkpt lat="49.73542" lon="5.27053">
        <ele>320.39999389648</ele>
        <time>2022-07-31T08:09:17.000Z</time>
      </trkpt>
      <trkpt lat="49.73534" lon="5.27042">
        <ele>320.79998779297</ele>
        <time>2022-07-31T08:09:20.000Z</time>
      </trkpt>
      <trkpt lat="49.73526" lon="5.27031">
        <ele>322.39999389648</ele>
        <time>2022-07-31T08:09:23.000Z</time>
      </trkpt>
      <trkpt lat="49.73518" lon="5.2702">
        <ele>324.20001220703</ele>
        <time>2022-07-31T08:09:26.000Z</time>
      </trkpt>
      <trkpt lat="49.73511" lon="5.27009">
        <ele>326.20001220703</ele>
        <time>2022-07-31T08:09:29.000Z</time>
      </trkpt>
      <trkpt lat="49.73503" lon="5.26999">
        <ele>328.20001220703</ele>
        <time>2022-07-31T08:09:32.000Z</time>
      </trkpt>
      <trkpt lat="49.73497" lon="5.26988">
        <ele>330.60000610352</ele>
        <time>2022-07-31T08:09:35.000Z</time>
      </trkpt>
      <trkpt lat="49.73488" lon="5.26978">
        <ele>332.39999389648</ele>
        <time>2022-07-31T08:09:38.000Z</time>
      </trkpt>
      <trkpt lat="49.73477" lon="5.26969">
        <ele>333.79998779297</ele>
        <time>2022-07-31T08:09:41.000Z</time>
      </trkpt>
      <trkpt lat="49.73474" lon="5.26966">
        <ele>333.79998779297</ele>
        <time>2022-07-31T08:09:42.000Z</time>
      </trkpt>
      <trkpt lat="49.73465" lon="5.26954">
        <ele>335.39999389648</ele>
        <time>2022-07-31T08:09:45.000Z</time>
      </trkpt>
      <trkpt lat="49.73457" lon="5.26941">
        <ele>337.20001220703</ele>
        <time>2022-07-31T08:09:48.000Z</time>
      </trkpt>
      <trkpt lat="49.73448" lon="5.26931">
        <ele>338.60000610352</ele>
        <time>2022-07-31T08:09:51.000Z</time>
      </trkpt>
      <trkpt lat="49.73443" lon="5.26924">
        <ele>340</ele>
        <time>2022-07-31T08:09:53.000Z</time>
      </trkpt>
      <trkpt lat="49.73439" lon="5.26922">
        <ele>340.60000610352</ele>
        <time>2022-07-31T08:09:54.000Z</time>
      </trkpt>
      <trkpt lat="49.73429" lon="5.26915">
        <ele>342</ele>
        <time>2022-07-31T08:09:57.000Z</time>
      </trkpt>
      <trkpt lat="49.73425" lon="5.26912">
        <ele>342.39999389648</ele>
        <time>2022-07-31T08:09:58.000Z</time>
      </trkpt>
      <trkpt lat="49.73418" lon="5.26909">
        <ele>342.60000610352</ele>
        <time>2022-07-31T08:10:00.000Z</time>
      </trkpt>
      <trkpt lat="49.73408" lon="5.26902">
        <ele>343.60000610352</ele>
        <time>2022-07-31T08:10:03.000Z</time>
      </trkpt>
      <trkpt lat="49.73398" lon="5.26893">
        <ele>345</ele>
        <time>2022-07-31T08:10:06.000Z</time>
      </trkpt>
      <trkpt lat="49.73386" lon="5.26879">
        <ele>347.20001220703</ele>
        <time>2022-07-31T08:10:10.000Z</time>
      </trkpt>
      <trkpt lat="49.73383" lon="5.26876">
        <ele>347.39999389648</ele>
        <time>2022-07-31T08:10:11.000Z</time>
      </trkpt>
      <trkpt lat="49.7338" lon="5.26873">
        <ele>347.39999389648</ele>
        <time>2022-07-31T08:10:12.000Z</time>
      </trkpt>
      <trkpt lat="49.7337" lon="5.26865">
        <ele>347.60000610352</ele>
        <time>2022-07-31T08:10:15.000Z</time>
      </trkpt>
      <trkpt lat="49.73363" lon="5.26859">
        <ele>348</ele>
        <time>2022-07-31T08:10:17.000Z</time>
      </trkpt>
      <trkpt lat="49.7336" lon="5.26855">
        <ele>348.39999389648</ele>
        <time>2022-07-31T08:10:18.000Z</time>
      </trkpt>
      <trkpt lat="49.73349" lon="5.26847">
        <ele>348.60000610352</ele>
        <time>2022-07-31T08:10:21.000Z</time>
      </trkpt>
      <trkpt lat="49.73343" lon="5.26841">
        <ele>348.60000610352</ele>
        <time>2022-07-31T08:10:23.000Z</time>
      </trkpt>
      <trkpt lat="49.73337" lon="5.26836">
        <ele>349.20001220703</ele>
        <time>2022-07-31T08:10:25.000Z</time>
      </trkpt>
      <trkpt lat="49.73327" lon="5.26827">
        <ele>351.39999389648</ele>
        <time>2022-07-31T08:10:29.000Z</time>
      </trkpt>
      <trkpt lat="49.73307" lon="5.26806">
        <ele>353.39999389648</ele>
        <time>2022-07-31T08:10:35.000Z</time>
      </trkpt>
      <trkpt lat="49.7329" lon="5.26781">
        <ele>352.60000610352</ele>
        <time>2022-07-31T08:10:41.000Z</time>
      </trkpt>
      <trkpt lat="49.73271" lon="5.26754">
        <ele>350.20001220703</ele>
        <time>2022-07-31T08:10:48.000Z</time>
      </trkpt>
      <trkpt lat="49.73264" lon="5.26753">
        <ele>350</ele>
        <time>2022-07-31T08:10:49.000Z</time>
      </trkpt>
      <trkpt lat="49.73253" lon="5.2675">
        <ele>350</ele>
        <time>2022-07-31T08:10:51.000Z</time>
      </trkpt>
      <trkpt lat="49.73234" lon="5.26748">
        <ele>350.39999389648</ele>
        <time>2022-07-31T08:10:54.000Z</time>
      </trkpt>
      <trkpt lat="49.7322" lon="5.26747">
        <ele>351</ele>
        <time>2022-07-31T08:10:56.000Z</time>
      </trkpt>
      <trkpt lat="49.732" lon="5.26746">
        <ele>352</ele>
        <time>2022-07-31T08:10:59.000Z</time>
      </trkpt>
      <trkpt lat="49.7316" lon="5.2674">
        <ele>350.60000610352</ele>
        <time>2022-07-31T08:11:05.000Z</time>
      </trkpt>
      <trkpt lat="49.73107" lon="5.26733">
        <ele>349.20001220703</ele>
        <time>2022-07-31T08:11:13.000Z</time>
      </trkpt>
      <trkpt lat="49.7308" lon="5.26729">
        <ele>347.20001220703</ele>
        <time>2022-07-31T08:11:17.000Z</time>
      </trkpt>
      <trkpt lat="49.73038" lon="5.26724">
        <ele>345.39999389648</ele>
        <time>2022-07-31T08:11:23.000Z</time>
      </trkpt>
      <trkpt lat="49.73004" lon="5.26718">
        <ele>343.39999389648</ele>
        <time>2022-07-31T08:11:28.000Z</time>
      </trkpt>
      <trkpt lat="49.72997" lon="5.26717">
        <ele>343</ele>
        <time>2022-07-31T08:11:29.000Z</time>
      </trkpt>
      <trkpt lat="49.72964" lon="5.26713">
        <ele>341</ele>
        <time>2022-07-31T08:11:34.000Z</time>
      </trkpt>
      <trkpt lat="49.72951" lon="5.26712">
        <ele>340.20001220703</ele>
        <time>2022-07-31T08:11:36.000Z</time>
      </trkpt>
      <trkpt lat="49.72893" lon="5.26704">
        <ele>344.20001220703</ele>
        <time>2022-07-31T08:11:45.000Z</time>
      </trkpt>
      <trkpt lat="49.72875" lon="5.26701">
        <ele>344.60000610352</ele>
        <time>2022-07-31T08:11:48.000Z</time>
      </trkpt>
      <trkpt lat="49.72848" lon="5.26694">
        <ele>343</ele>
        <time>2022-07-31T08:11:52.000Z</time>
      </trkpt>
      <trkpt lat="49.72841" lon="5.26691">
        <ele>342.20001220703</ele>
        <time>2022-07-31T08:11:53.000Z</time>
      </trkpt>
      <trkpt lat="49.72817" lon="5.26684">
        <ele>338</ele>
        <time>2022-07-31T08:11:56.000Z</time>
      </trkpt>
      <trkpt lat="49.728" lon="5.26677">
        <ele>334.79998779297</ele>
        <time>2022-07-31T08:11:58.000Z</time>
      </trkpt>
      <trkpt lat="49.72791" lon="5.26674">
        <ele>333</ele>
        <time>2022-07-31T08:11:59.000Z</time>
      </trkpt>
      <trkpt lat="49.72766" lon="5.26665">
        <ele>329.20001220703</ele>
        <time>2022-07-31T08:12:02.000Z</time>
      </trkpt>
      <trkpt lat="49.72749" lon="5.26656">
        <ele>327.39999389648</ele>
        <time>2022-07-31T08:12:04.000Z</time>
      </trkpt>
      <trkpt lat="49.72741" lon="5.26652">
        <ele>326.79998779297</ele>
        <time>2022-07-31T08:12:05.000Z</time>
      </trkpt>
      <trkpt lat="49.72732" lon="5.26648">
        <ele>326.20001220703</ele>
        <time>2022-07-31T08:12:06.000Z</time>
      </trkpt>
      <trkpt lat="49.72699" lon="5.26629">
        <ele>326</ele>
        <time>2022-07-31T08:12:10.000Z</time>
      </trkpt>
      <trkpt lat="49.72674" lon="5.2662">
        <ele>326</ele>
        <time>2022-07-31T08:12:13.000Z</time>
      </trkpt>
      <trkpt lat="49.72621" lon="5.26597">
        <ele>324.20001220703</ele>
        <time>2022-07-31T08:12:20.000Z</time>
      </trkpt>
      <trkpt lat="49.72573" lon="5.26576">
        <ele>322.39999389648</ele>
        <time>2022-07-31T08:12:27.000Z</time>
      </trkpt>
      <trkpt lat="49.72553" lon="5.26567">
        <ele>322</ele>
        <time>2022-07-31T08:12:30.000Z</time>
      </trkpt>
      <trkpt lat="49.72495" lon="5.26542">
        <ele>323.20001220703</ele>
        <time>2022-07-31T08:12:39.000Z</time>
      </trkpt>
      <trkpt lat="49.72489" lon="5.2654">
        <ele>323.39999389648</ele>
        <time>2022-07-31T08:12:40.000Z</time>
      </trkpt>
      <trkpt lat="49.72482" lon="5.26539">
        <ele>323.39999389648</ele>
        <time>2022-07-31T08:12:41.000Z</time>
      </trkpt>
      <trkpt lat="49.72447" lon="5.26539">
        <ele>324</ele>
        <time>2022-07-31T08:12:46.000Z</time>
      </trkpt>
      <trkpt lat="49.7244" lon="5.2654">
        <ele>323.20001220703</ele>
        <time>2022-07-31T08:12:47.000Z</time>
      </trkpt>
      <trkpt lat="49.72417" lon="5.26547">
        <ele>320.60000610352</ele>
        <time>2022-07-31T08:12:50.000Z</time>
      </trkpt>
      <trkpt lat="49.72409" lon="5.26549">
        <ele>320</ele>
        <time>2022-07-31T08:12:51.000Z</time>
      </trkpt>
      <trkpt lat="49.72393" lon="5.26556">
        <ele>318.39999389648</ele>
        <time>2022-07-31T08:12:53.000Z</time>
      </trkpt>
      <trkpt lat="49.72369" lon="5.26569">
        <ele>316.39999389648</ele>
        <time>2022-07-31T08:12:56.000Z</time>
      </trkpt>
      <trkpt lat="49.7236" lon="5.26574">
        <ele>315.79998779297</ele>
        <time>2022-07-31T08:12:57.000Z</time>
      </trkpt>
      <trkpt lat="49.72351" lon="5.26579">
        <ele>315.39999389648</ele>
        <time>2022-07-31T08:12:58.000Z</time>
      </trkpt>
      <trkpt lat="49.72333" lon="5.26589">
        <ele>314.39999389648</ele>
        <time>2022-07-31T08:13:00.000Z</time>
      </trkpt>
      <trkpt lat="49.72314" lon="5.266">
        <ele>314</ele>
        <time>2022-07-31T08:13:02.000Z</time>
      </trkpt>
      <trkpt lat="49.72293" lon="5.26611">
        <ele>313.20001220703</ele>
        <time>2022-07-31T08:13:04.000Z</time>
      </trkpt>
      <trkpt lat="49.72283" lon="5.26617">
        <ele>312.39999389648</ele>
        <time>2022-07-31T08:13:05.000Z</time>
      </trkpt>
      <trkpt lat="49.72261" lon="5.2663">
        <ele>310.39999389648</ele>
        <time>2022-07-31T08:13:07.000Z</time>
      </trkpt>
      <trkpt lat="49.72239" lon="5.26642">
        <ele>307.79998779297</ele>
        <time>2022-07-31T08:13:09.000Z</time>
      </trkpt>
      <trkpt lat="49.72218" lon="5.26655">
        <ele>305.79998779297</ele>
        <time>2022-07-31T08:13:11.000Z</time>
      </trkpt>
      <trkpt lat="49.72199" lon="5.26665">
        <ele>304.39999389648</ele>
        <time>2022-07-31T08:13:13.000Z</time>
      </trkpt>
      <trkpt lat="49.7218" lon="5.26677">
        <ele>302.39999389648</ele>
        <time>2022-07-31T08:13:15.000Z</time>
      </trkpt>
      <trkpt lat="49.7217" lon="5.26682">
        <ele>301.60000610352</ele>
        <time>2022-07-31T08:13:16.000Z</time>
      </trkpt>
      <trkpt lat="49.72152" lon="5.26687">
        <ele>302.60000610352</ele>
        <time>2022-07-31T08:13:18.000Z</time>
      </trkpt>
      <trkpt lat="49.72134" lon="5.26687">
        <ele>303.79998779297</ele>
        <time>2022-07-31T08:13:20.000Z</time>
      </trkpt>
      <trkpt lat="49.72096" lon="5.26685">
        <ele>305</ele>
        <time>2022-07-31T08:13:25.000Z</time>
      </trkpt>
      <trkpt lat="49.72077" lon="5.26682">
        <ele>305</ele>
        <time>2022-07-31T08:13:28.000Z</time>
      </trkpt>
      <trkpt lat="49.72065" lon="5.26682">
        <ele>305</ele>
        <time>2022-07-31T08:13:30.000Z</time>
      </trkpt>
      <trkpt lat="49.72047" lon="5.26682">
        <ele>305</ele>
        <time>2022-07-31T08:13:33.000Z</time>
      </trkpt>
      <trkpt lat="49.72018" lon="5.26686">
        <ele>305</ele>
        <time>2022-07-31T08:13:38.000Z</time>
      </trkpt>
      <trkpt lat="49.71979" lon="5.26697">
        <ele>304</ele>
        <time>2022-07-31T08:13:45.000Z</time>
      </trkpt>
      <trkpt lat="49.71968" lon="5.26701">
        <ele>304</ele>
        <time>2022-07-31T08:13:47.000Z</time>
      </trkpt>
      <trkpt lat="49.7195" lon="5.26707">
        <ele>304</ele>
        <time>2022-07-31T08:13:51.000Z</time>
      </trkpt>
      <trkpt lat="49.71945" lon="5.26715">
        <ele>304</ele>
        <time>2022-07-31T08:17:21.000Z</time>
      </trkpt>
      <trkpt lat="49.71939" lon="5.26719">
        <ele>303.79998779297</ele>
        <time>2022-07-31T08:17:23.000Z</time>
      </trkpt>
      <trkpt lat="49.7192" lon="5.26726">
        <ele>304</ele>
        <time>2022-07-31T08:17:28.000Z</time>
      </trkpt>
      <trkpt lat="49.71893" lon="5.26735">
        <ele>304</ele>
        <time>2022-07-31T08:17:33.000Z</time>
      </trkpt>
      <trkpt lat="49.71882" lon="5.26739">
        <ele>303.60000610352</ele>
        <time>2022-07-31T08:17:35.000Z</time>
      </trkpt>
      <trkpt lat="49.71836" lon="5.26756">
        <ele>302.79998779297</ele>
        <time>2022-07-31T08:17:43.000Z</time>
      </trkpt>
      <trkpt lat="49.71818" lon="5.26762">
        <ele>302.20001220703</ele>
        <time>2022-07-31T08:17:46.000Z</time>
      </trkpt>
      <trkpt lat="49.71783" lon="5.26775">
        <ele>302</ele>
        <time>2022-07-31T08:17:52.000Z</time>
      </trkpt>
      <trkpt lat="49.71759" lon="5.26784">
        <ele>302.79998779297</ele>
        <time>2022-07-31T08:17:56.000Z</time>
      </trkpt>
      <trkpt lat="49.71708" lon="5.26811">
        <ele>302.39999389648</ele>
        <time>2022-07-31T08:18:05.000Z</time>
      </trkpt>
      <trkpt lat="49.71657" lon="5.2684">
        <ele>301</ele>
        <time>2022-07-31T08:18:14.000Z</time>
      </trkpt>
      <trkpt lat="49.71634" lon="5.26854">
        <ele>300.60000610352</ele>
        <time>2022-07-31T08:18:18.000Z</time>
      </trkpt>
      <trkpt lat="49.71606" lon="5.26869">
        <ele>300</ele>
        <time>2022-07-31T08:18:23.000Z</time>
      </trkpt>
      <trkpt lat="49.71556" lon="5.26897">
        <ele>299.20001220703</ele>
        <time>2022-07-31T08:18:32.000Z</time>
      </trkpt>
      <trkpt lat="49.71516" lon="5.26919">
        <ele>299</ele>
        <time>2022-07-31T08:18:39.000Z</time>
      </trkpt>
      <trkpt lat="49.7151" lon="5.26921">
        <ele>299</ele>
        <time>2022-07-31T08:18:40.000Z</time>
      </trkpt>
      <trkpt lat="49.71479" lon="5.26929">
        <ele>298.60000610352</ele>
        <time>2022-07-31T08:18:45.000Z</time>
      </trkpt>
      <trkpt lat="49.71443" lon="5.2692">
        <ele>297.39999389648</ele>
        <time>2022-07-31T08:18:51.000Z</time>
      </trkpt>
      <trkpt lat="49.71402" lon="5.26892">
        <ele>296</ele>
        <time>2022-07-31T08:18:58.000Z</time>
      </trkpt>
      <trkpt lat="49.71372" lon="5.26869">
        <ele>295.60000610352</ele>
        <time>2022-07-31T08:19:03.000Z</time>
      </trkpt>
      <trkpt lat="49.71336" lon="5.26842">
        <ele>296</ele>
        <time>2022-07-31T08:19:09.000Z</time>
      </trkpt>
      <trkpt lat="49.7133" lon="5.26837">
        <ele>296</ele>
        <time>2022-07-31T08:19:10.000Z</time>
      </trkpt>
      <trkpt lat="49.71317" lon="5.26828">
        <ele>296</ele>
        <time>2022-07-31T08:19:12.000Z</time>
      </trkpt>
      <trkpt lat="49.71288" lon="5.26806">
        <ele>297</ele>
        <time>2022-07-31T08:19:17.000Z</time>
      </trkpt>
      <trkpt lat="49.71282" lon="5.26803">
        <ele>297.39999389648</ele>
        <time>2022-07-31T08:19:18.000Z</time>
      </trkpt>
      <trkpt lat="49.71272" lon="5.26793">
        <ele>298.20001220703</ele>
        <time>2022-07-31T08:19:20.000Z</time>
      </trkpt>
      <trkpt lat="49.71267" lon="5.26787">
        <ele>298.60000610352</ele>
        <time>2022-07-31T08:19:21.000Z</time>
      </trkpt>
      <trkpt lat="49.71255" lon="5.26776">
        <ele>299.39999389648</ele>
        <time>2022-07-31T08:19:23.000Z</time>
      </trkpt>
      <trkpt lat="49.71213" lon="5.26735">
        <ele>298.79998779297</ele>
        <time>2022-07-31T08:19:30.000Z</time>
      </trkpt>
      <trkpt lat="49.712" lon="5.26723">
        <ele>298</ele>
        <time>2022-07-31T08:19:32.000Z</time>
      </trkpt>
      <trkpt lat="49.71181" lon="5.26706">
        <ele>297.60000610352</ele>
        <time>2022-07-31T08:19:35.000Z</time>
      </trkpt>
      <trkpt lat="49.71169" lon="5.26695">
        <ele>297.60000610352</ele>
        <time>2022-07-31T08:19:37.000Z</time>
      </trkpt>
      <trkpt lat="49.71157" lon="5.26684">
        <ele>296.39999389648</ele>
        <time>2022-07-31T08:19:39.000Z</time>
      </trkpt>
      <trkpt lat="49.71126" lon="5.26653">
        <ele>291.60000610352</ele>
        <time>2022-07-31T08:19:44.000Z</time>
      </trkpt>
      <trkpt lat="49.71119" lon="5.26647">
        <ele>290.79998779297</ele>
        <time>2022-07-31T08:19:45.000Z</time>
      </trkpt>
      <trkpt lat="49.711" lon="5.26628">
        <ele>287.39999389648</ele>
        <time>2022-07-31T08:19:48.000Z</time>
      </trkpt>
      <trkpt lat="49.71061" lon="5.26588">
        <ele>285</ele>
        <time>2022-07-31T08:19:54.000Z</time>
      </trkpt>
      <trkpt lat="49.71055" lon="5.26581">
        <ele>285.20001220703</ele>
        <time>2022-07-31T08:19:55.000Z</time>
      </trkpt>
      <trkpt lat="49.71037" lon="5.26561">
        <ele>284.79998779297</ele>
        <time>2022-07-31T08:19:58.000Z</time>
      </trkpt>
      <trkpt lat="49.71019" lon="5.26541">
        <ele>283.79998779297</ele>
        <time>2022-07-31T08:20:01.000Z</time>
      </trkpt>
      <trkpt lat="49.71001" lon="5.26522">
        <ele>282.79998779297</ele>
        <time>2022-07-31T08:20:04.000Z</time>
      </trkpt>
      <trkpt lat="49.70955" lon="5.26468">
        <ele>281.79998779297</ele>
        <time>2022-07-31T08:20:12.000Z</time>
      </trkpt>
      <trkpt lat="49.70945" lon="5.26453">
        <ele>281</ele>
        <time>2022-07-31T08:20:14.000Z</time>
      </trkpt>
      <trkpt lat="49.7094" lon="5.26446">
        <ele>280.20001220703</ele>
        <time>2022-07-31T08:20:15.000Z</time>
      </trkpt>
      <trkpt lat="49.70925" lon="5.26413">
        <ele>276.39999389648</ele>
        <time>2022-07-31T08:20:19.000Z</time>
      </trkpt>
      <trkpt lat="49.70917" lon="5.26389">
        <ele>275.60000610352</ele>
        <time>2022-07-31T08:20:22.000Z</time>
      </trkpt>
      <trkpt lat="49.70914" lon="5.26386">
        <ele>275.79998779297</ele>
        <time>2022-07-31T08:20:23.000Z</time>
      </trkpt>
      <trkpt lat="49.70908" lon="5.26391">
        <ele>276.39999389648</ele>
        <time>2022-07-31T08:20:25.000Z</time>
      </trkpt>
      <trkpt lat="49.70906" lon="5.26405">
        <ele>277</ele>
        <time>2022-07-31T08:20:28.000Z</time>
      </trkpt>
      <trkpt lat="49.70906" lon="5.26408">
        <ele>277</ele>
        <time>2022-07-31T08:20:29.000Z</time>
      </trkpt>
      <trkpt lat="49.70906" lon="5.2641">
        <ele>277.20001220703</ele>
        <time>2022-07-31T08:24:47.000Z</time>
      </trkpt>
      <trkpt lat="49.70903" lon="5.26414">
        <ele>277.79998779297</ele>
        <time>2022-07-31T08:24:49.000Z</time>
      </trkpt>
      <trkpt lat="49.70895" lon="5.26437">
        <ele>279</ele>
        <time>2022-07-31T08:24:55.000Z</time>
      </trkpt>
      <trkpt lat="49.70886" lon="5.2645">
        <ele>279.79998779297</ele>
        <time>2022-07-31T08:24:58.000Z</time>
      </trkpt>
      <trkpt lat="49.70878" lon="5.26459">
        <ele>280.39999389648</ele>
        <time>2022-07-31T08:25:00.000Z</time>
      </trkpt>
      <trkpt lat="49.70855" lon="5.2648">
        <ele>282.39999389648</ele>
        <time>2022-07-31T08:25:06.000Z</time>
      </trkpt>
      <trkpt lat="49.70836" lon="5.26491">
        <ele>283</ele>
        <time>2022-07-31T08:25:10.000Z</time>
      </trkpt>
      <trkpt lat="49.70824" lon="5.26503">
        <ele>283</ele>
        <time>2022-07-31T08:25:13.000Z</time>
      </trkpt>
      <trkpt lat="49.7078" lon="5.26544">
        <ele>280</ele>
        <time>2022-07-31T08:25:23.000Z</time>
      </trkpt>
      <trkpt lat="49.70765" lon="5.26557">
        <ele>280.20001220703</ele>
        <time>2022-07-31T08:25:26.000Z</time>
      </trkpt>
      <trkpt lat="49.70736" lon="5.26584">
        <ele>280.20001220703</ele>
        <time>2022-07-31T08:25:32.000Z</time>
      </trkpt>
      <trkpt lat="49.70697" lon="5.26619">
        <ele>280</ele>
        <time>2022-07-31T08:25:40.000Z</time>
      </trkpt>
      <trkpt lat="49.70682" lon="5.26632">
        <ele>280</ele>
        <time>2022-07-31T08:25:43.000Z</time>
      </trkpt>
      <trkpt lat="49.70673" lon="5.26641">
        <ele>279.79998779297</ele>
        <time>2022-07-31T08:25:45.000Z</time>
      </trkpt>
      <trkpt lat="49.70663" lon="5.26658">
        <ele>278.79998779297</ele>
        <time>2022-07-31T08:25:48.000Z</time>
      </trkpt>
      <trkpt lat="49.70654" lon="5.26673">
        <ele>278</ele>
        <time>2022-07-31T08:25:51.000Z</time>
      </trkpt>
      <trkpt lat="49.70638" lon="5.26699">
        <ele>277.20001220703</ele>
        <time>2022-07-31T08:25:56.000Z</time>
      </trkpt>
      <trkpt lat="49.70617" lon="5.26734">
        <ele>277.60000610352</ele>
        <time>2022-07-31T08:26:02.000Z</time>
      </trkpt>
      <trkpt lat="49.70605" lon="5.26747">
        <ele>278.20001220703</ele>
        <time>2022-07-31T08:26:06.000Z</time>
      </trkpt>
      <trkpt lat="49.70602" lon="5.26746">
        <ele>278</ele>
        <time>2022-07-31T08:26:07.000Z</time>
      </trkpt>
      <trkpt lat="49.70595" lon="5.26733">
        <ele>277.60000610352</ele>
        <time>2022-07-31T08:26:10.000Z</time>
      </trkpt>
      <trkpt lat="49.70593" lon="5.26727">
        <ele>277.39999389648</ele>
        <time>2022-07-31T08:26:11.000Z</time>
      </trkpt>
      <trkpt lat="49.7059" lon="5.2672">
        <ele>277.20001220703</ele>
        <time>2022-07-31T08:26:12.000Z</time>
      </trkpt>
      <trkpt lat="49.70581" lon="5.26698">
        <ele>277</ele>
        <time>2022-07-31T08:26:15.000Z</time>
      </trkpt>
      <trkpt lat="49.70574" lon="5.26682">
        <ele>277</ele>
        <time>2022-07-31T08:26:17.000Z</time>
      </trkpt>
      <trkpt lat="49.70559" lon="5.26643">
        <ele>279.60000610352</ele>
        <time>2022-07-31T08:26:22.000Z</time>
      </trkpt>
      <trkpt lat="49.70553" lon="5.266">
        <ele>286</ele>
        <time>2022-07-31T08:26:27.000Z</time>
      </trkpt>
      <trkpt lat="49.70554" lon="5.26567">
        <ele>292.20001220703</ele>
        <time>2022-07-31T08:26:31.000Z</time>
      </trkpt>
      <trkpt lat="49.70556" lon="5.26552">
        <ele>294.20001220703</ele>
        <time>2022-07-31T08:26:33.000Z</time>
      </trkpt>
      <trkpt lat="49.7056" lon="5.26538">
        <ele>295.79998779297</ele>
        <time>2022-07-31T08:26:35.000Z</time>
      </trkpt>
      <trkpt lat="49.70567" lon="5.26508">
        <ele>298.60000610352</ele>
        <time>2022-07-31T08:26:39.000Z</time>
      </trkpt>
      <trkpt lat="49.70568" lon="5.26501">
        <ele>299.20001220703</ele>
        <time>2022-07-31T08:26:40.000Z</time>
      </trkpt>
      <trkpt lat="49.70576" lon="5.26472">
        <ele>300.20001220703</ele>
        <time>2022-07-31T08:26:44.000Z</time>
      </trkpt>
      <trkpt lat="49.70584" lon="5.26444">
        <ele>300.79998779297</ele>
        <time>2022-07-31T08:26:48.000Z</time>
      </trkpt>
      <trkpt lat="49.70586" lon="5.26437">
        <ele>300.39999389648</ele>
        <time>2022-07-31T08:26:49.000Z</time>
      </trkpt>
      <trkpt lat="49.70596" lon="5.26411">
        <ele>301.60000610352</ele>
        <time>2022-07-31T08:26:53.000Z</time>
      </trkpt>
      <trkpt lat="49.70601" lon="5.26399">
        <ele>302.60000610352</ele>
        <time>2022-07-31T08:26:55.000Z</time>
      </trkpt>
      <trkpt lat="49.70607" lon="5.26387">
        <ele>302.79998779297</ele>
        <time>2022-07-31T08:26:57.000Z</time>
      </trkpt>
      <trkpt lat="49.70624" lon="5.2636">
        <ele>300.39999389648</ele>
        <time>2022-07-31T08:27:02.000Z</time>
      </trkpt>
      <trkpt lat="49.70637" lon="5.26343">
        <ele>299.20001220703</ele>
        <time>2022-07-31T08:27:05.000Z</time>
      </trkpt>
      <trkpt lat="49.70655" lon="5.26323">
        <ele>294.79998779297</ele>
        <time>2022-07-31T08:27:09.000Z</time>
      </trkpt>
      <trkpt lat="49.7069" lon="5.26293">
        <ele>289.39999389648</ele>
        <time>2022-07-31T08:27:16.000Z</time>
      </trkpt>
      <trkpt lat="49.70693" lon="5.26288">
        <ele>289</ele>
        <time>2022-07-31T08:27:17.000Z</time>
      </trkpt>
      <trkpt lat="49.70695" lon="5.26281">
        <ele>288.79998779297</ele>
        <time>2022-07-31T08:27:18.000Z</time>
      </trkpt>
      <trkpt lat="49.70692" lon="5.26261">
        <ele>289.39999389648</ele>
        <time>2022-07-31T08:27:21.000Z</time>
      </trkpt>
      <trkpt lat="49.70685" lon="5.26244">
        <ele>291</ele>
        <time>2022-07-31T08:27:24.000Z</time>
      </trkpt>
      <trkpt lat="49.70678" lon="5.26229">
        <ele>292.20001220703</ele>
        <time>2022-07-31T08:27:27.000Z</time>
      </trkpt>
      <trkpt lat="49.7067" lon="5.26212">
        <ele>293</ele>
        <time>2022-07-31T08:27:30.000Z</time>
      </trkpt>
      <trkpt lat="49.70665" lon="5.26202">
        <ele>293.39999389648</ele>
        <time>2022-07-31T08:27:32.000Z</time>
      </trkpt>
      <trkpt lat="49.70658" lon="5.26193">
        <ele>293.60000610352</ele>
        <time>2022-07-31T08:27:34.000Z</time>
      </trkpt>
      <trkpt lat="49.70655" lon="5.26189">
        <ele>294</ele>
        <time>2022-07-31T08:27:35.000Z</time>
      </trkpt>
      <trkpt lat="49.70648" lon="5.26181">
        <ele>294.39999389648</ele>
        <time>2022-07-31T08:27:37.000Z</time>
      </trkpt>
      <trkpt lat="49.70628" lon="5.26157">
        <ele>295.39999389648</ele>
        <time>2022-07-31T08:27:43.000Z</time>
      </trkpt>
      <trkpt lat="49.70618" lon="5.26144">
        <ele>296.39999389648</ele>
        <time>2022-07-31T08:27:46.000Z</time>
      </trkpt>
      <trkpt lat="49.70613" lon="5.26135">
        <ele>297</ele>
        <time>2022-07-31T08:27:48.000Z</time>
      </trkpt>
      <trkpt lat="49.7061" lon="5.26131">
        <ele>297.20001220703</ele>
        <time>2022-07-31T08:27:49.000Z</time>
      </trkpt>
      <trkpt lat="49.70606" lon="5.26128">
        <ele>297.60000610352</ele>
        <time>2022-07-31T08:27:50.000Z</time>
      </trkpt>
      <trkpt lat="49.70592" lon="5.26119">
        <ele>298.39999389648</ele>
        <time>2022-07-31T08:27:54.000Z</time>
      </trkpt>
      <trkpt lat="49.70588" lon="5.26117">
        <ele>298.60000610352</ele>
        <time>2022-07-31T08:27:55.000Z</time>
      </trkpt>
      <trkpt lat="49.70581" lon="5.26112">
        <ele>300.60000610352</ele>
        <time>2022-07-31T08:27:57.000Z</time>
      </trkpt>
      <trkpt lat="49.70574" lon="5.26108">
        <ele>302.20001220703</ele>
        <time>2022-07-31T08:27:59.000Z</time>
      </trkpt>
      <trkpt lat="49.70564" lon="5.26098">
        <ele>304.39999389648</ele>
        <time>2022-07-31T08:28:02.000Z</time>
      </trkpt>
      <trkpt lat="49.70556" lon="5.26092">
        <ele>306</ele>
        <time>2022-07-31T08:28:04.000Z</time>
      </trkpt>
      <trkpt lat="49.70552" lon="5.26089">
        <ele>307</ele>
        <time>2022-07-31T08:28:05.000Z</time>
      </trkpt>
      <trkpt lat="49.7054" lon="5.26084">
        <ele>309.60000610352</ele>
        <time>2022-07-31T08:28:08.000Z</time>
      </trkpt>
      <trkpt lat="49.70536" lon="5.26081">
        <ele>310.60000610352</ele>
        <time>2022-07-31T08:28:09.000Z</time>
      </trkpt>
      <trkpt lat="49.70533" lon="5.26079">
        <ele>311.39999389648</ele>
        <time>2022-07-31T08:28:10.000Z</time>
      </trkpt>
      <trkpt lat="49.70514" lon="5.26064">
        <ele>313.39999389648</ele>
        <time>2022-07-31T08:28:15.000Z</time>
      </trkpt>
      <trkpt lat="49.70511" lon="5.2606">
        <ele>313.60000610352</ele>
        <time>2022-07-31T08:28:16.000Z</time>
      </trkpt>
      <trkpt lat="49.70504" lon="5.26053">
        <ele>314</ele>
        <time>2022-07-31T08:28:18.000Z</time>
      </trkpt>
      <trkpt lat="49.70491" lon="5.26039">
        <ele>315.60000610352</ele>
        <time>2022-07-31T08:28:22.000Z</time>
      </trkpt>
      <trkpt lat="49.70481" lon="5.26028">
        <ele>316.39999389648</ele>
        <time>2022-07-31T08:28:25.000Z</time>
      </trkpt>
      <trkpt lat="49.70478" lon="5.26024">
        <ele>316.60000610352</ele>
        <time>2022-07-31T08:28:26.000Z</time>
      </trkpt>
      <trkpt lat="49.70471" lon="5.26017">
        <ele>318.20001220703</ele>
        <time>2022-07-31T08:28:28.000Z</time>
      </trkpt>
      <trkpt lat="49.70462" lon="5.26008">
        <ele>321.20001220703</ele>
        <time>2022-07-31T08:28:31.000Z</time>
      </trkpt>
      <trkpt lat="49.70455" lon="5.26001">
        <ele>323.39999389648</ele>
        <time>2022-07-31T08:28:33.000Z</time>
      </trkpt>
      <trkpt lat="49.70445" lon="5.25991">
        <ele>326.20001220703</ele>
        <time>2022-07-31T08:28:36.000Z</time>
      </trkpt>
      <trkpt lat="49.70432" lon="5.25978">
        <ele>329</ele>
        <time>2022-07-31T08:28:40.000Z</time>
      </trkpt>
      <trkpt lat="49.70425" lon="5.25971">
        <ele>330.39999389648</ele>
        <time>2022-07-31T08:28:42.000Z</time>
      </trkpt>
      <trkpt lat="49.70419" lon="5.25964">
        <ele>331.20001220703</ele>
        <time>2022-07-31T08:28:44.000Z</time>
      </trkpt>
      <trkpt lat="49.70416" lon="5.25961">
        <ele>331.39999389648</ele>
        <time>2022-07-31T08:28:45.000Z</time>
      </trkpt>
      <trkpt lat="49.70409" lon="5.25954">
        <ele>332</ele>
        <time>2022-07-31T08:28:47.000Z</time>
      </trkpt>
      <trkpt lat="49.704" lon="5.25944">
        <ele>332.60000610352</ele>
        <time>2022-07-31T08:28:50.000Z</time>
      </trkpt>
      <trkpt lat="49.70392" lon="5.25934">
        <ele>333</ele>
        <time>2022-07-31T08:28:53.000Z</time>
      </trkpt>
      <trkpt lat="49.70389" lon="5.2593">
        <ele>333.20001220703</ele>
        <time>2022-07-31T08:28:54.000Z</time>
      </trkpt>
      <trkpt lat="49.7038" lon="5.25917">
        <ele>333.39999389648</ele>
        <time>2022-07-31T08:28:57.000Z</time>
      </trkpt>
      <trkpt lat="49.70371" lon="5.25906">
        <ele>333.79998779297</ele>
        <time>2022-07-31T08:29:00.000Z</time>
      </trkpt>
      <trkpt lat="49.70368" lon="5.25902">
        <ele>334</ele>
        <time>2022-07-31T08:29:01.000Z</time>
      </trkpt>
      <trkpt lat="49.70365" lon="5.25899">
        <ele>334</ele>
        <time>2022-07-31T08:29:02.000Z</time>
      </trkpt>
      <trkpt lat="49.70357" lon="5.25887">
        <ele>334</ele>
        <time>2022-07-31T08:29:05.000Z</time>
      </trkpt>
      <trkpt lat="49.70348" lon="5.25878">
        <ele>334.20001220703</ele>
        <time>2022-07-31T08:29:08.000Z</time>
      </trkpt>
      <trkpt lat="49.70345" lon="5.25875">
        <ele>334.20001220703</ele>
        <time>2022-07-31T08:29:09.000Z</time>
      </trkpt>
      <trkpt lat="49.70342" lon="5.25871">
        <ele>334.39999389648</ele>
        <time>2022-07-31T08:29:10.000Z</time>
      </trkpt>
      <trkpt lat="49.70336" lon="5.25864">
        <ele>334.60000610352</ele>
        <time>2022-07-31T08:29:12.000Z</time>
      </trkpt>
      <trkpt lat="49.70325" lon="5.25855">
        <ele>334.39999389648</ele>
        <time>2022-07-31T08:29:15.000Z</time>
      </trkpt>
      <trkpt lat="49.70314" lon="5.25845">
        <ele>334.39999389648</ele>
        <time>2022-07-31T08:29:18.000Z</time>
      </trkpt>
      <trkpt lat="49.70305" lon="5.25834">
        <ele>334.60000610352</ele>
        <time>2022-07-31T08:29:21.000Z</time>
      </trkpt>
      <trkpt lat="49.70303" lon="5.25828">
        <ele>334.60000610352</ele>
        <time>2022-07-31T08:29:22.000Z</time>
      </trkpt>
      <trkpt lat="49.70305" lon="5.25823">
        <ele>334.79998779297</ele>
        <time>2022-07-31T08:29:23.000Z</time>
      </trkpt>
      <trkpt lat="49.70308" lon="5.25811">
        <ele>335.39999389648</ele>
        <time>2022-07-31T08:29:25.000Z</time>
      </trkpt>
      <trkpt lat="49.7031" lon="5.25805">
        <ele>335.60000610352</ele>
        <time>2022-07-31T08:29:26.000Z</time>
      </trkpt>
      <trkpt lat="49.70311" lon="5.25798">
        <ele>336</ele>
        <time>2022-07-31T08:29:27.000Z</time>
      </trkpt>
      <trkpt lat="49.70315" lon="5.25764">
        <ele>336.20001220703</ele>
        <time>2022-07-31T08:29:32.000Z</time>
      </trkpt>
      <trkpt lat="49.70316" lon="5.25757">
        <ele>336.20001220703</ele>
        <time>2022-07-31T08:29:33.000Z</time>
      </trkpt>
      <trkpt lat="49.70318" lon="5.25732">
        <ele>336.60000610352</ele>
        <time>2022-07-31T08:29:37.000Z</time>
      </trkpt>
      <trkpt lat="49.70321" lon="5.25705">
        <ele>337</ele>
        <time>2022-07-31T08:29:41.000Z</time>
      </trkpt>
      <trkpt lat="49.70323" lon="5.25686">
        <ele>338</ele>
        <time>2022-07-31T08:29:44.000Z</time>
      </trkpt>
      <trkpt lat="49.70325" lon="5.25646">
        <ele>340</ele>
        <time>2022-07-31T08:29:50.000Z</time>
      </trkpt>
      <trkpt lat="49.70326" lon="5.25626">
        <ele>340.39999389648</ele>
        <time>2022-07-31T08:29:53.000Z</time>
      </trkpt>
      <trkpt lat="49.70325" lon="5.256">
        <ele>341.60000610352</ele>
        <time>2022-07-31T08:29:57.000Z</time>
      </trkpt>
      <trkpt lat="49.70324" lon="5.25586">
        <ele>342.20001220703</ele>
        <time>2022-07-31T08:29:59.000Z</time>
      </trkpt>
      <trkpt lat="49.70323" lon="5.25573">
        <ele>342.60000610352</ele>
        <time>2022-07-31T08:30:01.000Z</time>
      </trkpt>
      <trkpt lat="49.70317" lon="5.2554">
        <ele>343.39999389648</ele>
        <time>2022-07-31T08:30:06.000Z</time>
      </trkpt>
      <trkpt lat="49.70314" lon="5.25521">
        <ele>343.20001220703</ele>
        <time>2022-07-31T08:30:09.000Z</time>
      </trkpt>
      <trkpt lat="49.70311" lon="5.25508">
        <ele>343.39999389648</ele>
        <time>2022-07-31T08:30:11.000Z</time>
      </trkpt>
      <trkpt lat="49.70306" lon="5.25488">
        <ele>343.79998779297</ele>
        <time>2022-07-31T08:30:14.000Z</time>
      </trkpt>
      <trkpt lat="49.70298" lon="5.25454">
        <ele>344</ele>
        <time>2022-07-31T08:30:19.000Z</time>
      </trkpt>
      <trkpt lat="49.70292" lon="5.25428">
        <ele>344.39999389648</ele>
        <time>2022-07-31T08:30:23.000Z</time>
      </trkpt>
      <trkpt lat="49.70282" lon="5.25386">
        <ele>345</ele>
        <time>2022-07-31T08:30:29.000Z</time>
      </trkpt>
      <trkpt lat="49.70272" lon="5.25342">
        <ele>345</ele>
        <time>2022-07-31T08:30:35.000Z</time>
      </trkpt>
      <trkpt lat="49.70269" lon="5.25334">
        <ele>344.79998779297</ele>
        <time>2022-07-31T08:30:36.000Z</time>
      </trkpt>
      <trkpt lat="49.7026" lon="5.25301">
        <ele>344</ele>
        <time>2022-07-31T08:30:40.000Z</time>
      </trkpt>
      <trkpt lat="49.70243" lon="5.25241">
        <ele>343.39999389648</ele>
        <time>2022-07-31T08:30:47.000Z</time>
      </trkpt>
      <trkpt lat="49.70235" lon="5.25215">
        <ele>342.79998779297</ele>
        <time>2022-07-31T08:30:50.000Z</time>
      </trkpt>
      <trkpt lat="49.70221" lon="5.25167">
        <ele>340.20001220703</ele>
        <time>2022-07-31T08:30:55.000Z</time>
      </trkpt>
      <trkpt lat="49.70209" lon="5.25127">
        <ele>338.79998779297</ele>
        <time>2022-07-31T08:30:59.000Z</time>
      </trkpt>
      <trkpt lat="49.70201" lon="5.25097">
        <ele>338</ele>
        <time>2022-07-31T08:31:02.000Z</time>
      </trkpt>
      <trkpt lat="49.70194" lon="5.25077">
        <ele>337.79998779297</ele>
        <time>2022-07-31T08:31:04.000Z</time>
      </trkpt>
      <trkpt lat="49.70183" lon="5.25046">
        <ele>336.39999389648</ele>
        <time>2022-07-31T08:31:07.000Z</time>
      </trkpt>
      <trkpt lat="49.7018" lon="5.25036">
        <ele>336.20001220703</ele>
        <time>2022-07-31T08:31:08.000Z</time>
      </trkpt>
      <trkpt lat="49.70165" lon="5.24992">
        <ele>334.39999389648</ele>
        <time>2022-07-31T08:31:12.000Z</time>
      </trkpt>
      <trkpt lat="49.70153" lon="5.24958">
        <ele>332.60000610352</ele>
        <time>2022-07-31T08:31:15.000Z</time>
      </trkpt>
      <trkpt lat="49.70149" lon="5.24947">
        <ele>332.20001220703</ele>
        <time>2022-07-31T08:31:16.000Z</time>
      </trkpt>
      <trkpt lat="49.70141" lon="5.24924">
        <ele>332</ele>
        <time>2022-07-31T08:31:18.000Z</time>
      </trkpt>
      <trkpt lat="49.70132" lon="5.24903">
        <ele>331.79998779297</ele>
        <time>2022-07-31T08:31:20.000Z</time>
      </trkpt>
      <trkpt lat="49.70119" lon="5.24872">
        <ele>330.79998779297</ele>
        <time>2022-07-31T08:31:23.000Z</time>
      </trkpt>
      <trkpt lat="49.70115" lon="5.24861">
        <ele>330</ele>
        <time>2022-07-31T08:31:24.000Z</time>
      </trkpt>
      <trkpt lat="49.70105" lon="5.24838">
        <ele>328</ele>
        <time>2022-07-31T08:31:26.000Z</time>
      </trkpt>
      <trkpt lat="49.70095" lon="5.24815">
        <ele>326</ele>
        <time>2022-07-31T08:31:28.000Z</time>
      </trkpt>
      <trkpt lat="49.70087" lon="5.24794">
        <ele>325</ele>
        <time>2022-07-31T08:31:30.000Z</time>
      </trkpt>
      <trkpt lat="49.70085" lon="5.24781">
        <ele>325.20001220703</ele>
        <time>2022-07-31T08:31:31.000Z</time>
      </trkpt>
      <trkpt lat="49.70083" lon="5.24755">
        <ele>325.39999389648</ele>
        <time>2022-07-31T08:31:33.000Z</time>
      </trkpt>
      <trkpt lat="49.70081" lon="5.24727">
        <ele>325.60000610352</ele>
        <time>2022-07-31T08:31:35.000Z</time>
      </trkpt>
      <trkpt lat="49.70082" lon="5.24697">
        <ele>325.20001220703</ele>
        <time>2022-07-31T08:31:37.000Z</time>
      </trkpt>
      <trkpt lat="49.70084" lon="5.24669">
        <ele>325.39999389648</ele>
        <time>2022-07-31T08:31:39.000Z</time>
      </trkpt>
      <trkpt lat="49.70087" lon="5.24655">
        <ele>325.39999389648</ele>
        <time>2022-07-31T08:31:40.000Z</time>
      </trkpt>
      <trkpt lat="49.7009" lon="5.24641">
        <ele>325.60000610352</ele>
        <time>2022-07-31T08:31:41.000Z</time>
      </trkpt>
      <trkpt lat="49.70093" lon="5.24628">
        <ele>326.20001220703</ele>
        <time>2022-07-31T08:31:42.000Z</time>
      </trkpt>
      <trkpt lat="49.70098" lon="5.24615">
        <ele>327.20001220703</ele>
        <time>2022-07-31T08:31:43.000Z</time>
      </trkpt>
      <trkpt lat="49.70103" lon="5.24601">
        <ele>327.60000610352</ele>
        <time>2022-07-31T08:31:44.000Z</time>
      </trkpt>
      <trkpt lat="49.70107" lon="5.24587">
        <ele>327.39999389648</ele>
        <time>2022-07-31T08:31:45.000Z</time>
      </trkpt>
      <trkpt lat="49.70111" lon="5.24572">
        <ele>327.20001220703</ele>
        <time>2022-07-31T08:31:46.000Z</time>
      </trkpt>
      <trkpt lat="49.70115" lon="5.24545">
        <ele>326</ele>
        <time>2022-07-31T08:31:48.000Z</time>
      </trkpt>
      <trkpt lat="49.70118" lon="5.2453">
        <ele>325.39999389648</ele>
        <time>2022-07-31T08:31:49.000Z</time>
      </trkpt>
      <trkpt lat="49.7012" lon="5.24517">
        <ele>324.79998779297</ele>
        <time>2022-07-31T08:31:50.000Z</time>
      </trkpt>
      <trkpt lat="49.70121" lon="5.2448">
        <ele>323.39999389648</ele>
        <time>2022-07-31T08:31:53.000Z</time>
      </trkpt>
      <trkpt lat="49.70119" lon="5.24467">
        <ele>323</ele>
        <time>2022-07-31T08:31:54.000Z</time>
      </trkpt>
      <trkpt lat="49.70117" lon="5.24454">
        <ele>322.60000610352</ele>
        <time>2022-07-31T08:31:55.000Z</time>
      </trkpt>
      <trkpt lat="49.70113" lon="5.24427">
        <ele>321.60000610352</ele>
        <time>2022-07-31T08:31:57.000Z</time>
      </trkpt>
      <trkpt lat="49.70111" lon="5.24414">
        <ele>320.79998779297</ele>
        <time>2022-07-31T08:31:58.000Z</time>
      </trkpt>
      <trkpt lat="49.70109" lon="5.24401">
        <ele>319.60000610352</ele>
        <time>2022-07-31T08:31:59.000Z</time>
      </trkpt>
      <trkpt lat="49.70102" lon="5.24378">
        <ele>317</ele>
        <time>2022-07-31T08:32:01.000Z</time>
      </trkpt>
      <trkpt lat="49.70094" lon="5.24359">
        <ele>315.20001220703</ele>
        <time>2022-07-31T08:32:03.000Z</time>
      </trkpt>
      <trkpt lat="49.70082" lon="5.24344">
        <ele>314.60000610352</ele>
        <time>2022-07-31T08:32:05.000Z</time>
      </trkpt>
      <trkpt lat="49.70076" lon="5.24336">
        <ele>314.39999389648</ele>
        <time>2022-07-31T08:32:06.000Z</time>
      </trkpt>
      <trkpt lat="49.70068" lon="5.24329">
        <ele>314.20001220703</ele>
        <time>2022-07-31T08:32:07.000Z</time>
      </trkpt>
      <trkpt lat="49.70054" lon="5.24313">
        <ele>314</ele>
        <time>2022-07-31T08:32:09.000Z</time>
      </trkpt>
      <trkpt lat="49.70041" lon="5.24297">
        <ele>313.20001220703</ele>
        <time>2022-07-31T08:32:11.000Z</time>
      </trkpt>
      <trkpt lat="49.7003" lon="5.24278">
        <ele>311.39999389648</ele>
        <time>2022-07-31T08:32:13.000Z</time>
      </trkpt>
      <trkpt lat="49.70025" lon="5.24267">
        <ele>310.60000610352</ele>
        <time>2022-07-31T08:32:14.000Z</time>
      </trkpt>
      <trkpt lat="49.70021" lon="5.24255">
        <ele>310.20001220703</ele>
        <time>2022-07-31T08:32:15.000Z</time>
      </trkpt>
      <trkpt lat="49.70018" lon="5.24241">
        <ele>309.60000610352</ele>
        <time>2022-07-31T08:32:16.000Z</time>
      </trkpt>
      <trkpt lat="49.70014" lon="5.24228">
        <ele>309</ele>
        <time>2022-07-31T08:32:17.000Z</time>
      </trkpt>
      <trkpt lat="49.7001" lon="5.24215">
        <ele>308.79998779297</ele>
        <time>2022-07-31T08:32:18.000Z</time>
      </trkpt>
      <trkpt lat="49.70001" lon="5.24185">
        <ele>309.20001220703</ele>
        <time>2022-07-31T08:32:20.000Z</time>
      </trkpt>
      <trkpt lat="49.69996" lon="5.2417">
        <ele>309</ele>
        <time>2022-07-31T08:32:21.000Z</time>
      </trkpt>
      <trkpt lat="49.6999" lon="5.24156">
        <ele>308.79998779297</ele>
        <time>2022-07-31T08:32:22.000Z</time>
      </trkpt>
      <trkpt lat="49.69985" lon="5.24141">
        <ele>307.79998779297</ele>
        <time>2022-07-31T08:32:23.000Z</time>
      </trkpt>
      <trkpt lat="49.69979" lon="5.24128">
        <ele>306.79998779297</ele>
        <time>2022-07-31T08:32:24.000Z</time>
      </trkpt>
      <trkpt lat="49.69972" lon="5.24116">
        <ele>306.39999389648</ele>
        <time>2022-07-31T08:32:25.000Z</time>
      </trkpt>
      <trkpt lat="49.69966" lon="5.24104">
        <ele>306</ele>
        <time>2022-07-31T08:32:26.000Z</time>
      </trkpt>
      <trkpt lat="49.69958" lon="5.24093">
        <ele>305.60000610352</ele>
        <time>2022-07-31T08:32:27.000Z</time>
      </trkpt>
      <trkpt lat="49.69951" lon="5.24083">
        <ele>305.20001220703</ele>
        <time>2022-07-31T08:32:28.000Z</time>
      </trkpt>
      <trkpt lat="49.69943" lon="5.24072">
        <ele>304.79998779297</ele>
        <time>2022-07-31T08:32:29.000Z</time>
      </trkpt>
      <trkpt lat="49.69926" lon="5.24054">
        <ele>303.39999389648</ele>
        <time>2022-07-31T08:32:31.000Z</time>
      </trkpt>
      <trkpt lat="49.69911" lon="5.24037">
        <ele>300.20001220703</ele>
        <time>2022-07-31T08:32:33.000Z</time>
      </trkpt>
      <trkpt lat="49.69893" lon="5.24025">
        <ele>296.60000610352</ele>
        <time>2022-07-31T08:32:35.000Z</time>
      </trkpt>
      <trkpt lat="49.69873" lon="5.24016">
        <ele>293.20001220703</ele>
        <time>2022-07-31T08:32:37.000Z</time>
      </trkpt>
      <trkpt lat="49.69864" lon="5.24013">
        <ele>292.20001220703</ele>
        <time>2022-07-31T08:32:38.000Z</time>
      </trkpt>
      <trkpt lat="49.69844" lon="5.24007">
        <ele>291.20001220703</ele>
        <time>2022-07-31T08:32:40.000Z</time>
      </trkpt>
      <trkpt lat="49.69824" lon="5.24">
        <ele>290.60000610352</ele>
        <time>2022-07-31T08:32:42.000Z</time>
      </trkpt>
      <trkpt lat="49.69815" lon="5.23997">
        <ele>290.39999389648</ele>
        <time>2022-07-31T08:32:43.000Z</time>
      </trkpt>
      <trkpt lat="49.69806" lon="5.23995">
        <ele>290.39999389648</ele>
        <time>2022-07-31T08:32:44.000Z</time>
      </trkpt>
      <trkpt lat="49.69778" lon="5.23986">
        <ele>289.79998779297</ele>
        <time>2022-07-31T08:32:47.000Z</time>
      </trkpt>
      <trkpt lat="49.69751" lon="5.23977">
        <ele>289.60000610352</ele>
        <time>2022-07-31T08:32:50.000Z</time>
      </trkpt>
      <trkpt lat="49.69733" lon="5.23971">
        <ele>288.60000610352</ele>
        <time>2022-07-31T08:32:52.000Z</time>
      </trkpt>
      <trkpt lat="49.69715" lon="5.23964">
        <ele>286</ele>
        <time>2022-07-31T08:32:54.000Z</time>
      </trkpt>
      <trkpt lat="49.69697" lon="5.23956">
        <ele>284.20001220703</ele>
        <time>2022-07-31T08:32:56.000Z</time>
      </trkpt>
      <trkpt lat="49.69689" lon="5.23952">
        <ele>284</ele>
        <time>2022-07-31T08:32:57.000Z</time>
      </trkpt>
      <trkpt lat="49.69674" lon="5.23941">
        <ele>283.39999389648</ele>
        <time>2022-07-31T08:32:59.000Z</time>
      </trkpt>
      <trkpt lat="49.69667" lon="5.23933">
        <ele>283.20001220703</ele>
        <time>2022-07-31T08:33:00.000Z</time>
      </trkpt>
      <trkpt lat="49.6966" lon="5.23926">
        <ele>283.20001220703</ele>
        <time>2022-07-31T08:33:01.000Z</time>
      </trkpt>
      <trkpt lat="49.69653" lon="5.23918">
        <ele>283</ele>
        <time>2022-07-31T08:33:02.000Z</time>
      </trkpt>
      <trkpt lat="49.69634" lon="5.23889">
        <ele>282.60000610352</ele>
        <time>2022-07-31T08:33:05.000Z</time>
      </trkpt>
      <trkpt lat="49.69612" lon="5.23844">
        <ele>280.20001220703</ele>
        <time>2022-07-31T08:33:09.000Z</time>
      </trkpt>
      <trkpt lat="49.69607" lon="5.23832">
        <ele>279</ele>
        <time>2022-07-31T08:33:10.000Z</time>
      </trkpt>
      <trkpt lat="49.69598" lon="5.23808">
        <ele>275.79998779297</ele>
        <time>2022-07-31T08:33:12.000Z</time>
      </trkpt>
      <trkpt lat="49.69593" lon="5.23797">
        <ele>274.60000610352</ele>
        <time>2022-07-31T08:33:13.000Z</time>
      </trkpt>
      <trkpt lat="49.69584" lon="5.23775">
        <ele>273.20001220703</ele>
        <time>2022-07-31T08:33:15.000Z</time>
      </trkpt>
      <trkpt lat="49.69579" lon="5.23764">
        <ele>273.20001220703</ele>
        <time>2022-07-31T08:33:16.000Z</time>
      </trkpt>
      <trkpt lat="49.69569" lon="5.23741">
        <ele>274</ele>
        <time>2022-07-31T08:33:18.000Z</time>
      </trkpt>
      <trkpt lat="49.69549" lon="5.23699">
        <ele>275.39999389648</ele>
        <time>2022-07-31T08:33:22.000Z</time>
      </trkpt>
      <trkpt lat="49.69527" lon="5.23659">
        <ele>274.60000610352</ele>
        <time>2022-07-31T08:33:26.000Z</time>
      </trkpt>
      <trkpt lat="49.69516" lon="5.2364">
        <ele>274</ele>
        <time>2022-07-31T08:33:28.000Z</time>
      </trkpt>
      <trkpt lat="49.69503" lon="5.23621">
        <ele>273.39999389648</ele>
        <time>2022-07-31T08:33:30.000Z</time>
      </trkpt>
      <trkpt lat="49.69477" lon="5.23586">
        <ele>271.20001220703</ele>
        <time>2022-07-31T08:33:34.000Z</time>
      </trkpt>
      <trkpt lat="49.69452" lon="5.23556">
        <ele>268.60000610352</ele>
        <time>2022-07-31T08:33:38.000Z</time>
      </trkpt>
      <trkpt lat="49.69437" lon="5.23541">
        <ele>267.79998779297</ele>
        <time>2022-07-31T08:33:40.000Z</time>
      </trkpt>
      <trkpt lat="49.69423" lon="5.23527">
        <ele>267</ele>
        <time>2022-07-31T08:33:42.000Z</time>
      </trkpt>
      <trkpt lat="49.69394" lon="5.23499">
        <ele>267</ele>
        <time>2022-07-31T08:33:46.000Z</time>
      </trkpt>
      <trkpt lat="49.69387" lon="5.23493">
        <ele>265.39999389648</ele>
        <time>2022-07-31T08:33:47.000Z</time>
      </trkpt>
      <trkpt lat="49.69365" lon="5.23475">
        <ele>262</ele>
        <time>2022-07-31T08:33:50.000Z</time>
      </trkpt>
      <trkpt lat="49.69339" lon="5.23454">
        <ele>258.20001220703</ele>
        <time>2022-07-31T08:33:54.000Z</time>
      </trkpt>
      <trkpt lat="49.69332" lon="5.2345">
        <ele>258</ele>
        <time>2022-07-31T08:33:55.000Z</time>
      </trkpt>
      <trkpt lat="49.69306" lon="5.23432">
        <ele>257.20001220703</ele>
        <time>2022-07-31T08:33:59.000Z</time>
      </trkpt>
      <trkpt lat="49.69273" lon="5.23411">
        <ele>257.39999389648</ele>
        <time>2022-07-31T08:34:04.000Z</time>
      </trkpt>
      <trkpt lat="49.69255" lon="5.23397">
        <ele>255</ele>
        <time>2022-07-31T08:34:07.000Z</time>
      </trkpt>
      <trkpt lat="49.69242" lon="5.23389">
        <ele>254</ele>
        <time>2022-07-31T08:34:09.000Z</time>
      </trkpt>
      <trkpt lat="49.69225" lon="5.23374">
        <ele>252.19999694824</ele>
        <time>2022-07-31T08:34:12.000Z</time>
      </trkpt>
      <trkpt lat="49.69201" lon="5.23356">
        <ele>249.39999389648</ele>
        <time>2022-07-31T08:34:16.000Z</time>
      </trkpt>
      <trkpt lat="49.69194" lon="5.23353">
        <ele>249.19999694824</ele>
        <time>2022-07-31T08:34:17.000Z</time>
      </trkpt>
      <trkpt lat="49.69188" lon="5.23352">
        <ele>249.39999389648</ele>
        <time>2022-07-31T08:34:18.000Z</time>
      </trkpt>
      <trkpt lat="49.69169" lon="5.23357">
        <ele>250.19999694824</ele>
        <time>2022-07-31T08:34:21.000Z</time>
      </trkpt>
      <trkpt lat="49.69152" lon="5.23372">
        <ele>251.39999389648</ele>
        <time>2022-07-31T08:34:24.000Z</time>
      </trkpt>
      <trkpt lat="49.69142" lon="5.23383">
        <ele>252</ele>
        <time>2022-07-31T08:34:26.000Z</time>
      </trkpt>
      <trkpt lat="49.69137" lon="5.23387">
        <ele>252</ele>
        <time>2022-07-31T08:34:27.000Z</time>
      </trkpt>
      <trkpt lat="49.69118" lon="5.23392">
        <ele>250.39999389648</ele>
        <time>2022-07-31T08:34:30.000Z</time>
      </trkpt>
      <trkpt lat="49.69105" lon="5.23383">
        <ele>248.80000305176</ele>
        <time>2022-07-31T08:34:33.000Z</time>
      </trkpt>
      <trkpt lat="49.69103" lon="5.23366">
        <ele>250</ele>
        <time>2022-07-31T08:34:36.000Z</time>
      </trkpt>
      <trkpt lat="49.69103" lon="5.23361">
        <ele>250.19999694824</ele>
        <time>2022-07-31T08:34:37.000Z</time>
      </trkpt>
      <trkpt lat="49.69105" lon="5.23348">
        <ele>251.19999694824</ele>
        <time>2022-07-31T08:34:40.000Z</time>
      </trkpt>
      <trkpt lat="49.69109" lon="5.23339">
        <ele>251.80000305176</ele>
        <time>2022-07-31T08:34:42.000Z</time>
      </trkpt>
      <trkpt lat="49.69118" lon="5.23317">
        <ele>252.60000610352</ele>
        <time>2022-07-31T08:34:47.000Z</time>
      </trkpt>
      <trkpt lat="49.69121" lon="5.23305">
        <ele>253.39999389648</ele>
        <time>2022-07-31T08:34:49.000Z</time>
      </trkpt>
      <trkpt lat="49.69126" lon="5.23286">
        <ele>254.19999694824</ele>
        <time>2022-07-31T08:34:52.000Z</time>
      </trkpt>
      <trkpt lat="49.6913" lon="5.23264">
        <ele>254.60000610352</ele>
        <time>2022-07-31T08:34:55.000Z</time>
      </trkpt>
      <trkpt lat="49.69135" lon="5.23215">
        <ele>253.60000610352</ele>
        <time>2022-07-31T08:35:01.000Z</time>
      </trkpt>
      <trkpt lat="49.69144" lon="5.23156">
        <ele>252.19999694824</ele>
        <time>2022-07-31T08:35:08.000Z</time>
      </trkpt>
      <trkpt lat="49.69143" lon="5.23085">
        <ele>255.39999389648</ele>
        <time>2022-07-31T08:35:15.000Z</time>
      </trkpt>
      <trkpt lat="49.69139" lon="5.23041">
        <ele>254.39999389648</ele>
        <time>2022-07-31T08:35:19.000Z</time>
      </trkpt>
      <trkpt lat="49.69138" lon="5.2303">
        <ele>254.39999389648</ele>
        <time>2022-07-31T08:35:20.000Z</time>
      </trkpt>
      <trkpt lat="49.69135" lon="5.22988">
        <ele>253.39999389648</ele>
        <time>2022-07-31T08:35:24.000Z</time>
      </trkpt>
      <trkpt lat="49.69134" lon="5.22978">
        <ele>253.39999389648</ele>
        <time>2022-07-31T08:35:25.000Z</time>
      </trkpt>
      <trkpt lat="49.69129" lon="5.2291">
        <ele>253</ele>
        <time>2022-07-31T08:35:32.000Z</time>
      </trkpt>
      <trkpt lat="49.69126" lon="5.2288">
        <ele>252.39999389648</ele>
        <time>2022-07-31T08:35:35.000Z</time>
      </trkpt>
      <trkpt lat="49.69124" lon="5.22861">
        <ele>251.60000610352</ele>
        <time>2022-07-31T08:35:37.000Z</time>
      </trkpt>
      <trkpt lat="49.69121" lon="5.22842">
        <ele>250.19999694824</ele>
        <time>2022-07-31T08:35:39.000Z</time>
      </trkpt>
      <trkpt lat="49.69115" lon="5.22814">
        <ele>248.60000610352</ele>
        <time>2022-07-31T08:35:42.000Z</time>
      </trkpt>
      <trkpt lat="49.69104" lon="5.22778">
        <ele>247.80000305176</ele>
        <time>2022-07-31T08:35:46.000Z</time>
      </trkpt>
      <trkpt lat="49.69092" lon="5.22742">
        <ele>244.80000305176</ele>
        <time>2022-07-31T08:35:50.000Z</time>
      </trkpt>
      <trkpt lat="49.69083" lon="5.22717">
        <ele>243.39999389648</ele>
        <time>2022-07-31T08:35:53.000Z</time>
      </trkpt>
      <trkpt lat="49.69076" lon="5.227">
        <ele>242.19999694824</ele>
        <time>2022-07-31T08:35:55.000Z</time>
      </trkpt>
      <trkpt lat="49.69062" lon="5.2267">
        <ele>241.60000610352</ele>
        <time>2022-07-31T08:35:59.000Z</time>
      </trkpt>
      <trkpt lat="49.69061" lon="5.22654">
        <ele>240.60000610352</ele>
        <time>2022-07-31T08:36:01.000Z</time>
      </trkpt>
      <trkpt lat="49.69068" lon="5.2263">
        <ele>238.60000610352</ele>
        <time>2022-07-31T08:36:04.000Z</time>
      </trkpt>
      <trkpt lat="49.69076" lon="5.22621">
        <ele>237.60000610352</ele>
        <time>2022-07-31T08:36:06.000Z</time>
      </trkpt>
      <trkpt lat="49.69081" lon="5.22615">
        <ele>237.80000305176</ele>
        <time>2022-07-31T08:36:07.000Z</time>
      </trkpt>
      <trkpt lat="49.69102" lon="5.22592">
        <ele>240</ele>
        <time>2022-07-31T08:36:11.000Z</time>
      </trkpt>
      <trkpt lat="49.69111" lon="5.22581">
        <ele>241.19999694824</ele>
        <time>2022-07-31T08:36:13.000Z</time>
      </trkpt>
      <trkpt lat="49.69129" lon="5.22553">
        <ele>244.39999389648</ele>
        <time>2022-07-31T08:36:18.000Z</time>
      </trkpt>
      <trkpt lat="49.69133" lon="5.2255">
        <ele>245</ele>
        <time>2022-07-31T08:36:19.000Z</time>
      </trkpt>
      <trkpt lat="49.69155" lon="5.22543">
        <ele>248.60000610352</ele>
        <time>2022-07-31T08:36:24.000Z</time>
      </trkpt>
      <trkpt lat="49.69187" lon="5.22537">
        <ele>250.80000305176</ele>
        <time>2022-07-31T08:36:31.000Z</time>
      </trkpt>
      <trkpt lat="49.6921" lon="5.22531">
        <ele>251.80000305176</ele>
        <time>2022-07-31T08:36:36.000Z</time>
      </trkpt>
      <trkpt lat="49.69214" lon="5.22529">
        <ele>252</ele>
        <time>2022-07-31T08:36:37.000Z</time>
      </trkpt>
      <trkpt lat="49.69218" lon="5.22528">
        <ele>252.19999694824</ele>
        <time>2022-07-31T08:36:38.000Z</time>
      </trkpt>
      <trkpt lat="49.69253" lon="5.2252">
        <ele>252</ele>
        <time>2022-07-31T08:36:46.000Z</time>
      </trkpt>
      <trkpt lat="49.69257" lon="5.2252">
        <ele>252</ele>
        <time>2022-07-31T08:36:47.000Z</time>
      </trkpt>
      <trkpt lat="49.69271" lon="5.2252">
        <ele>251.39999389648</ele>
        <time>2022-07-31T08:36:51.000Z</time>
      </trkpt>
      <trkpt lat="49.69278" lon="5.22519">
        <ele>251</ele>
        <time>2022-07-31T08:36:53.000Z</time>
      </trkpt>
      <trkpt lat="49.69302" lon="5.22521">
        <ele>251.19999694824</ele>
        <time>2022-07-31T08:37:00.000Z</time>
      </trkpt>
      <trkpt lat="49.69304" lon="5.22522">
        <ele>251.19999694824</ele>
        <time>2022-07-31T08:37:01.000Z</time>
      </trkpt>
      <trkpt lat="49.6932" lon="5.22526">
        <ele>251.80000305176</ele>
        <time>2022-07-31T08:37:07.000Z</time>
      </trkpt>
      <trkpt lat="49.69328" lon="5.2253">
        <ele>252.39999389648</ele>
        <time>2022-07-31T08:37:10.000Z</time>
      </trkpt>
      <trkpt lat="49.69335" lon="5.22532">
        <ele>252.60000610352</ele>
        <time>2022-07-31T08:37:13.000Z</time>
      </trkpt>
      <trkpt lat="49.69347" lon="5.22539">
        <ele>253.39999389648</ele>
        <time>2022-07-31T08:37:17.000Z</time>
      </trkpt>
      <trkpt lat="49.69351" lon="5.22541">
        <ele>253.60000610352</ele>
        <time>2022-07-31T08:37:18.000Z</time>
      </trkpt>
      <trkpt lat="49.69382" lon="5.22551">
        <ele>256.20001220703</ele>
        <time>2022-07-31T08:37:24.000Z</time>
      </trkpt>
      <trkpt lat="49.69412" lon="5.22564">
        <ele>260.60000610352</ele>
        <time>2022-07-31T08:37:31.000Z</time>
      </trkpt>
      <trkpt lat="49.69421" lon="5.22569">
        <ele>262</ele>
        <time>2022-07-31T08:37:33.000Z</time>
      </trkpt>
      <trkpt lat="49.69443" lon="5.22576">
        <ele>263</ele>
        <time>2022-07-31T08:37:38.000Z</time>
      </trkpt>
      <trkpt lat="49.69461" lon="5.22585">
        <ele>263.79998779297</ele>
        <time>2022-07-31T08:37:43.000Z</time>
      </trkpt>
      <trkpt lat="49.69468" lon="5.22587">
        <ele>263.60000610352</ele>
        <time>2022-07-31T08:37:45.000Z</time>
      </trkpt>
      <trkpt lat="49.69483" lon="5.22592">
        <ele>263.39999389648</ele>
        <time>2022-07-31T08:37:49.000Z</time>
      </trkpt>
      <trkpt lat="49.6949" lon="5.22593">
        <ele>262.60000610352</ele>
        <time>2022-07-31T08:37:51.000Z</time>
      </trkpt>
      <trkpt lat="49.69523" lon="5.22602">
        <ele>262.20001220703</ele>
        <time>2022-07-31T08:37:59.000Z</time>
      </trkpt>
      <trkpt lat="49.69534" lon="5.22606">
        <ele>262.60000610352</ele>
        <time>2022-07-31T08:38:02.000Z</time>
      </trkpt>
      <trkpt lat="49.69541" lon="5.22609">
        <ele>263.20001220703</ele>
        <time>2022-07-31T08:38:04.000Z</time>
      </trkpt>
      <trkpt lat="49.69549" lon="5.22615">
        <ele>264.39999389648</ele>
        <time>2022-07-31T08:38:07.000Z</time>
      </trkpt>
      <trkpt lat="49.6956" lon="5.22619">
        <ele>265.60000610352</ele>
        <time>2022-07-31T08:38:10.000Z</time>
      </trkpt>
      <trkpt lat="49.69575" lon="5.22625">
        <ele>265.20001220703</ele>
        <time>2022-07-31T08:38:14.000Z</time>
      </trkpt>
      <trkpt lat="49.69587" lon="5.22624">
        <ele>264.60000610352</ele>
        <time>2022-07-31T08:38:17.000Z</time>
      </trkpt>
      <trkpt lat="49.69599" lon="5.22626">
        <ele>263.79998779297</ele>
        <time>2022-07-31T08:38:21.000Z</time>
      </trkpt>
      <trkpt lat="49.69603" lon="5.22628">
        <ele>263.79998779297</ele>
        <time>2022-07-31T08:38:22.000Z</time>
      </trkpt>
      <trkpt lat="49.69622" lon="5.22645">
        <ele>264.20001220703</ele>
        <time>2022-07-31T08:38:27.000Z</time>
      </trkpt>
      <trkpt lat="49.69632" lon="5.22652">
        <ele>264.60000610352</ele>
        <time>2022-07-31T08:38:29.000Z</time>
      </trkpt>
      <trkpt lat="49.69645" lon="5.22659">
        <ele>265</ele>
        <time>2022-07-31T08:38:32.000Z</time>
      </trkpt>
      <trkpt lat="49.69655" lon="5.22664">
        <ele>266.39999389648</ele>
        <time>2022-07-31T08:38:35.000Z</time>
      </trkpt>
      <trkpt lat="49.6966" lon="5.2267">
        <ele>267</ele>
        <time>2022-07-31T08:38:37.000Z</time>
      </trkpt>
      <trkpt lat="49.69666" lon="5.22675">
        <ele>267.79998779297</ele>
        <time>2022-07-31T08:38:39.000Z</time>
      </trkpt>
      <trkpt lat="49.69687" lon="5.22696">
        <ele>271</ele>
        <time>2022-07-31T08:38:44.000Z</time>
      </trkpt>
      <trkpt lat="49.69692" lon="5.22701">
        <ele>271.60000610352</ele>
        <time>2022-07-31T08:38:46.000Z</time>
      </trkpt>
      <trkpt lat="49.69698" lon="5.22706">
        <ele>272.60000610352</ele>
        <time>2022-07-31T08:38:48.000Z</time>
      </trkpt>
      <trkpt lat="49.69709" lon="5.22716">
        <ele>273.39999389648</ele>
        <time>2022-07-31T08:38:51.000Z</time>
      </trkpt>
      <trkpt lat="49.69713" lon="5.2272">
        <ele>273.39999389648</ele>
        <time>2022-07-31T08:38:53.000Z</time>
      </trkpt>
      <trkpt lat="49.69722" lon="5.22729">
        <ele>273.79998779297</ele>
        <time>2022-07-31T08:38:56.000Z</time>
      </trkpt>
      <trkpt lat="49.69731" lon="5.22743">
        <ele>274.39999389648</ele>
        <time>2022-07-31T08:38:59.000Z</time>
      </trkpt>
      <trkpt lat="49.69742" lon="5.22762">
        <ele>274.79998779297</ele>
        <time>2022-07-31T08:39:02.000Z</time>
      </trkpt>
      <trkpt lat="49.69755" lon="5.22782">
        <ele>275.39999389648</ele>
        <time>2022-07-31T08:39:05.000Z</time>
      </trkpt>
      <trkpt lat="49.69763" lon="5.22794">
        <ele>276.20001220703</ele>
        <time>2022-07-31T08:39:07.000Z</time>
      </trkpt>
      <trkpt lat="49.69775" lon="5.22821">
        <ele>276.79998779297</ele>
        <time>2022-07-31T08:39:11.000Z</time>
      </trkpt>
      <trkpt lat="49.69787" lon="5.22851">
        <ele>278.20001220703</ele>
        <time>2022-07-31T08:39:16.000Z</time>
      </trkpt>
      <trkpt lat="49.6979" lon="5.22857">
        <ele>278.60000610352</ele>
        <time>2022-07-31T08:39:17.000Z</time>
      </trkpt>
      <trkpt lat="49.69799" lon="5.22878">
        <ele>279.20001220703</ele>
        <time>2022-07-31T08:39:20.000Z</time>
      </trkpt>
      <trkpt lat="49.69807" lon="5.22892">
        <ele>279</ele>
        <time>2022-07-31T08:39:23.000Z</time>
      </trkpt>
      <trkpt lat="49.69817" lon="5.22908">
        <ele>278.79998779297</ele>
        <time>2022-07-31T08:39:26.000Z</time>
      </trkpt>
      <trkpt lat="49.69826" lon="5.2292">
        <ele>278.79998779297</ele>
        <time>2022-07-31T08:39:29.000Z</time>
      </trkpt>
      <trkpt lat="49.69835" lon="5.22934">
        <ele>278.79998779297</ele>
        <time>2022-07-31T08:39:32.000Z</time>
      </trkpt>
      <trkpt lat="49.69838" lon="5.22938">
        <ele>279</ele>
        <time>2022-07-31T08:39:33.000Z</time>
      </trkpt>
      <trkpt lat="49.69856" lon="5.22956">
        <ele>279.79998779297</ele>
        <time>2022-07-31T08:39:38.000Z</time>
      </trkpt>
      <trkpt lat="49.69859" lon="5.22958">
        <ele>279.79998779297</ele>
        <time>2022-07-31T08:39:39.000Z</time>
      </trkpt>
      <trkpt lat="49.69872" lon="5.22969">
        <ele>279.79998779297</ele>
        <time>2022-07-31T08:39:43.000Z</time>
      </trkpt>
      <trkpt lat="49.69883" lon="5.22973">
        <ele>279.79998779297</ele>
        <time>2022-07-31T08:39:47.000Z</time>
      </trkpt>
      <trkpt lat="49.69886" lon="5.22974">
        <ele>279.60000610352</ele>
        <time>2022-07-31T08:39:48.000Z</time>
      </trkpt>
      <trkpt lat="49.69894" lon="5.22977">
        <ele>279.60000610352</ele>
        <time>2022-07-31T08:39:51.000Z</time>
      </trkpt>
      <trkpt lat="49.6991" lon="5.22979">
        <ele>279</ele>
        <time>2022-07-31T08:39:56.000Z</time>
      </trkpt>
      <trkpt lat="49.69913" lon="5.2298">
        <ele>279.20001220703</ele>
        <time>2022-07-31T08:39:57.000Z</time>
      </trkpt>
      <trkpt lat="49.69916" lon="5.22983">
        <ele>279</ele>
        <time>2022-07-31T08:39:58.000Z</time>
      </trkpt>
      <trkpt lat="49.6992" lon="5.22993">
        <ele>278</ele>
        <time>2022-07-31T08:40:00.000Z</time>
      </trkpt>
      <trkpt lat="49.69937" lon="5.23026">
        <ele>278.39999389648</ele>
        <time>2022-07-31T08:40:07.000Z</time>
      </trkpt>
      <trkpt lat="49.69953" lon="5.2303">
        <ele>278.79998779297</ele>
        <time>2022-07-31T08:40:11.000Z</time>
      </trkpt>
      <trkpt lat="49.69969" lon="5.23028">
        <ele>278.79998779297</ele>
        <time>2022-07-31T08:40:16.000Z</time>
      </trkpt>
      <trkpt lat="49.69973" lon="5.23028">
        <ele>279</ele>
        <time>2022-07-31T08:40:17.000Z</time>
      </trkpt>
      <trkpt lat="49.69982" lon="5.23027">
        <ele>279.20001220703</ele>
        <time>2022-07-31T08:40:20.000Z</time>
      </trkpt>
      <trkpt lat="49.6999" lon="5.23021">
        <ele>279</ele>
        <time>2022-07-31T08:40:23.000Z</time>
      </trkpt>
      <trkpt lat="49.69992" lon="5.23019">
        <ele>279</ele>
        <time>2022-07-31T08:40:24.000Z</time>
      </trkpt>
      <trkpt lat="49.70002" lon="5.23015">
        <ele>279.39999389648</ele>
        <time>2022-07-31T08:40:27.000Z</time>
      </trkpt>
      <trkpt lat="49.70012" lon="5.23009">
        <ele>280</ele>
        <time>2022-07-31T08:40:30.000Z</time>
      </trkpt>
      <trkpt lat="49.70016" lon="5.23007">
        <ele>280.20001220703</ele>
        <time>2022-07-31T08:40:31.000Z</time>
      </trkpt>
      <trkpt lat="49.70027" lon="5.23">
        <ele>280.79998779297</ele>
        <time>2022-07-31T08:40:34.000Z</time>
      </trkpt>
      <trkpt lat="49.70037" lon="5.22994">
        <ele>281.60000610352</ele>
        <time>2022-07-31T08:40:37.000Z</time>
      </trkpt>
      <trkpt lat="49.70044" lon="5.2299">
        <ele>282</ele>
        <time>2022-07-31T08:40:39.000Z</time>
      </trkpt>
      <trkpt lat="49.70054" lon="5.22984">
        <ele>283</ele>
        <time>2022-07-31T08:40:42.000Z</time>
      </trkpt>
      <trkpt lat="49.70058" lon="5.22983">
        <ele>283</ele>
        <time>2022-07-31T08:40:43.000Z</time>
      </trkpt>
      <trkpt lat="49.70067" lon="5.2298">
        <ele>283.79998779297</ele>
        <time>2022-07-31T08:40:46.000Z</time>
      </trkpt>
      <trkpt lat="49.70072" lon="5.2298">
        <ele>284.20001220703</ele>
        <time>2022-07-31T08:40:48.000Z</time>
      </trkpt>
      <trkpt lat="49.70078" lon="5.2298">
        <ele>284.79998779297</ele>
        <time>2022-07-31T08:40:50.000Z</time>
      </trkpt>
      <trkpt lat="49.70092" lon="5.22981">
        <ele>285.39999389648</ele>
        <time>2022-07-31T08:40:54.000Z</time>
      </trkpt>
      <trkpt lat="49.70102" lon="5.22985">
        <ele>286</ele>
        <time>2022-07-31T08:40:58.000Z</time>
      </trkpt>
      <trkpt lat="49.70112" lon="5.2299">
        <ele>286.60000610352</ele>
        <time>2022-07-31T08:41:02.000Z</time>
      </trkpt>
      <trkpt lat="49.70117" lon="5.22992">
        <ele>287</ele>
        <time>2022-07-31T08:41:05.000Z</time>
      </trkpt>
      <trkpt lat="49.70157" lon="5.23006">
        <ele>290.39999389648</ele>
        <time>2022-07-31T08:41:18.000Z</time>
      </trkpt>
      <trkpt lat="49.70165" lon="5.23012">
        <ele>292</ele>
        <time>2022-07-31T08:41:21.000Z</time>
      </trkpt>
      <trkpt lat="49.70167" lon="5.23013">
        <ele>292.20001220703</ele>
        <time>2022-07-31T08:41:22.000Z</time>
      </trkpt>
      <trkpt lat="49.70176" lon="5.23018">
        <ele>293.39999389648</ele>
        <time>2022-07-31T08:41:26.000Z</time>
      </trkpt>
      <trkpt lat="49.7018" lon="5.2302">
        <ele>293.79998779297</ele>
        <time>2022-07-31T08:41:28.000Z</time>
      </trkpt>
      <trkpt lat="49.70182" lon="5.23022">
        <ele>294</ele>
        <time>2022-07-31T08:41:29.000Z</time>
      </trkpt>
      <trkpt lat="49.70195" lon="5.23029">
        <ele>295.20001220703</ele>
        <time>2022-07-31T08:41:33.000Z</time>
      </trkpt>
      <trkpt lat="49.702" lon="5.23031">
        <ele>295.39999389648</ele>
        <time>2022-07-31T08:41:34.000Z</time>
      </trkpt>
      <trkpt lat="49.70209" lon="5.23035">
        <ele>296.79998779297</ele>
        <time>2022-07-31T08:41:36.000Z</time>
      </trkpt>
      <trkpt lat="49.70227" lon="5.23042">
        <ele>299.39999389648</ele>
        <time>2022-07-31T08:41:40.000Z</time>
      </trkpt>
      <trkpt lat="49.70236" lon="5.23046">
        <ele>300.39999389648</ele>
        <time>2022-07-31T08:41:42.000Z</time>
      </trkpt>
      <trkpt lat="49.7024" lon="5.23048">
        <ele>301</ele>
        <time>2022-07-31T08:41:43.000Z</time>
      </trkpt>
      <trkpt lat="49.70257" lon="5.23057">
        <ele>302.79998779297</ele>
        <time>2022-07-31T08:41:47.000Z</time>
      </trkpt>
      <trkpt lat="49.70264" lon="5.23062">
        <ele>303.20001220703</ele>
        <time>2022-07-31T08:41:49.000Z</time>
      </trkpt>
      <trkpt lat="49.7027" lon="5.23068">
        <ele>303.60000610352</ele>
        <time>2022-07-31T08:41:51.000Z</time>
      </trkpt>
      <trkpt lat="49.70279" lon="5.23077">
        <ele>304.60000610352</ele>
        <time>2022-07-31T08:41:54.000Z</time>
      </trkpt>
      <trkpt lat="49.70282" lon="5.2308">
        <ele>304.79998779297</ele>
        <time>2022-07-31T08:41:55.000Z</time>
      </trkpt>
      <trkpt lat="49.70291" lon="5.23088">
        <ele>305.39999389648</ele>
        <time>2022-07-31T08:41:58.000Z</time>
      </trkpt>
      <trkpt lat="49.70298" lon="5.23097">
        <ele>306.20001220703</ele>
        <time>2022-07-31T08:42:01.000Z</time>
      </trkpt>
      <trkpt lat="49.70301" lon="5.231">
        <ele>306.60000610352</ele>
        <time>2022-07-31T08:42:02.000Z</time>
      </trkpt>
      <trkpt lat="49.70309" lon="5.23109">
        <ele>307</ele>
        <time>2022-07-31T08:42:05.000Z</time>
      </trkpt>
      <trkpt lat="49.70317" lon="5.23118">
        <ele>308</ele>
        <time>2022-07-31T08:42:08.000Z</time>
      </trkpt>
      <trkpt lat="49.7032" lon="5.23121">
        <ele>308.20001220703</ele>
        <time>2022-07-31T08:42:09.000Z</time>
      </trkpt>
      <trkpt lat="49.70333" lon="5.23134">
        <ele>309.60000610352</ele>
        <time>2022-07-31T08:42:13.000Z</time>
      </trkpt>
      <trkpt lat="49.70336" lon="5.23137">
        <ele>309.79998779297</ele>
        <time>2022-07-31T08:42:14.000Z</time>
      </trkpt>
      <trkpt lat="49.70343" lon="5.23144">
        <ele>310.39999389648</ele>
        <time>2022-07-31T08:42:16.000Z</time>
      </trkpt>
      <trkpt lat="49.70354" lon="5.23154">
        <ele>311.39999389648</ele>
        <time>2022-07-31T08:42:20.000Z</time>
      </trkpt>
      <trkpt lat="49.70366" lon="5.23166">
        <ele>312.79998779297</ele>
        <time>2022-07-31T08:42:24.000Z</time>
      </trkpt>
      <trkpt lat="49.70372" lon="5.23172">
        <ele>313.20001220703</ele>
        <time>2022-07-31T08:42:26.000Z</time>
      </trkpt>
      <trkpt lat="49.70378" lon="5.23178">
        <ele>313.60000610352</ele>
        <time>2022-07-31T08:42:28.000Z</time>
      </trkpt>
      <trkpt lat="49.7039" lon="5.2319">
        <ele>314.60000610352</ele>
        <time>2022-07-31T08:42:32.000Z</time>
      </trkpt>
      <trkpt lat="49.70396" lon="5.23196">
        <ele>315.20001220703</ele>
        <time>2022-07-31T08:42:34.000Z</time>
      </trkpt>
      <trkpt lat="49.70401" lon="5.23201">
        <ele>315.79998779297</ele>
        <time>2022-07-31T08:42:36.000Z</time>
      </trkpt>
      <trkpt lat="49.70409" lon="5.23209">
        <ele>316.60000610352</ele>
        <time>2022-07-31T08:42:39.000Z</time>
      </trkpt>
      <trkpt lat="49.70411" lon="5.23211">
        <ele>316.79998779297</ele>
        <time>2022-07-31T08:42:40.000Z</time>
      </trkpt>
      <trkpt lat="49.70422" lon="5.23221">
        <ele>317.39999389648</ele>
        <time>2022-07-31T08:42:44.000Z</time>
      </trkpt>
      <trkpt lat="49.70428" lon="5.23227">
        <ele>317.79998779297</ele>
        <time>2022-07-31T08:42:46.000Z</time>
      </trkpt>
      <trkpt lat="49.70434" lon="5.23232">
        <ele>318.20001220703</ele>
        <time>2022-07-31T08:42:48.000Z</time>
      </trkpt>
      <trkpt lat="49.70443" lon="5.23243">
        <ele>319</ele>
        <time>2022-07-31T08:42:52.000Z</time>
      </trkpt>
      <trkpt lat="49.70445" lon="5.23245">
        <ele>319.20001220703</ele>
        <time>2022-07-31T08:42:53.000Z</time>
      </trkpt>
      <trkpt lat="49.70455" lon="5.23257">
        <ele>319.79998779297</ele>
        <time>2022-07-31T08:42:56.000Z</time>
      </trkpt>
      <trkpt lat="49.70467" lon="5.23274">
        <ele>320</ele>
        <time>2022-07-31T08:43:00.000Z</time>
      </trkpt>
      <trkpt lat="49.70471" lon="5.23278">
        <ele>320</ele>
        <time>2022-07-31T08:43:01.000Z</time>
      </trkpt>
      <trkpt lat="49.70478" lon="5.23287">
        <ele>320.20001220703</ele>
        <time>2022-07-31T08:43:03.000Z</time>
      </trkpt>
      <trkpt lat="49.70494" lon="5.23305">
        <ele>320.60000610352</ele>
        <time>2022-07-31T08:43:08.000Z</time>
      </trkpt>
      <trkpt lat="49.70505" lon="5.23321">
        <ele>320.79998779297</ele>
        <time>2022-07-31T08:43:12.000Z</time>
      </trkpt>
      <trkpt lat="49.70511" lon="5.2333">
        <ele>321.20001220703</ele>
        <time>2022-07-31T08:43:14.000Z</time>
      </trkpt>
      <trkpt lat="49.70518" lon="5.23341">
        <ele>321.39999389648</ele>
        <time>2022-07-31T08:43:16.000Z</time>
      </trkpt>
      <trkpt lat="49.70535" lon="5.23356">
        <ele>322</ele>
        <time>2022-07-31T08:43:20.000Z</time>
      </trkpt>
      <trkpt lat="49.70543" lon="5.23357">
        <ele>322.20001220703</ele>
        <time>2022-07-31T08:43:22.000Z</time>
      </trkpt>
      <trkpt lat="49.70551" lon="5.23352">
        <ele>321.79998779297</ele>
        <time>2022-07-31T08:43:24.000Z</time>
      </trkpt>
      <trkpt lat="49.70554" lon="5.23348">
        <ele>321.60000610352</ele>
        <time>2022-07-31T08:43:25.000Z</time>
      </trkpt>
      <trkpt lat="49.70579" lon="5.23322">
        <ele>321.39999389648</ele>
        <time>2022-07-31T08:43:32.000Z</time>
      </trkpt>
      <trkpt lat="49.70583" lon="5.23319">
        <ele>321.39999389648</ele>
        <time>2022-07-31T08:43:33.000Z</time>
      </trkpt>
      <trkpt lat="49.70591" lon="5.23313">
        <ele>321.60000610352</ele>
        <time>2022-07-31T08:43:35.000Z</time>
      </trkpt>
      <trkpt lat="49.70606" lon="5.23303">
        <ele>322.79998779297</ele>
        <time>2022-07-31T08:43:39.000Z</time>
      </trkpt>
      <trkpt lat="49.7061" lon="5.233">
        <ele>323.20001220703</ele>
        <time>2022-07-31T08:43:40.000Z</time>
      </trkpt>
      <trkpt lat="49.70621" lon="5.23291">
        <ele>324.39999389648</ele>
        <time>2022-07-31T08:43:43.000Z</time>
      </trkpt>
      <trkpt lat="49.70632" lon="5.23284">
        <ele>325.60000610352</ele>
        <time>2022-07-31T08:43:46.000Z</time>
      </trkpt>
      <trkpt lat="49.70644" lon="5.23277">
        <ele>326.79998779297</ele>
        <time>2022-07-31T08:43:49.000Z</time>
      </trkpt>
      <trkpt lat="49.70655" lon="5.23271">
        <ele>328.79998779297</ele>
        <time>2022-07-31T08:43:52.000Z</time>
      </trkpt>
      <trkpt lat="49.70666" lon="5.23264">
        <ele>330.60000610352</ele>
        <time>2022-07-31T08:43:55.000Z</time>
      </trkpt>
      <trkpt lat="49.7067" lon="5.23262">
        <ele>331.79998779297</ele>
        <time>2022-07-31T08:43:56.000Z</time>
      </trkpt>
      <trkpt lat="49.70678" lon="5.23257">
        <ele>333.39999389648</ele>
        <time>2022-07-31T08:43:58.000Z</time>
      </trkpt>
      <trkpt lat="49.70689" lon="5.2325">
        <ele>335.39999389648</ele>
        <time>2022-07-31T08:44:01.000Z</time>
      </trkpt>
      <trkpt lat="49.707" lon="5.23243">
        <ele>337</ele>
        <time>2022-07-31T08:44:04.000Z</time>
      </trkpt>
      <trkpt lat="49.70712" lon="5.23237">
        <ele>337.79998779297</ele>
        <time>2022-07-31T08:44:07.000Z</time>
      </trkpt>
      <trkpt lat="49.70716" lon="5.23234">
        <ele>338.20001220703</ele>
        <time>2022-07-31T08:44:08.000Z</time>
      </trkpt>
      <trkpt lat="49.70724" lon="5.2323">
        <ele>339</ele>
        <time>2022-07-31T08:44:10.000Z</time>
      </trkpt>
      <trkpt lat="49.70736" lon="5.23224">
        <ele>340.20001220703</ele>
        <time>2022-07-31T08:44:13.000Z</time>
      </trkpt>
      <trkpt lat="49.70743" lon="5.23219">
        <ele>341</ele>
        <time>2022-07-31T08:44:15.000Z</time>
      </trkpt>
      <trkpt lat="49.70746" lon="5.23217">
        <ele>341.20001220703</ele>
        <time>2022-07-31T08:44:16.000Z</time>
      </trkpt>
      <trkpt lat="49.70754" lon="5.23213">
        <ele>342</ele>
        <time>2022-07-31T08:44:18.000Z</time>
      </trkpt>
      <trkpt lat="49.70767" lon="5.23207">
        <ele>342</ele>
        <time>2022-07-31T08:44:21.000Z</time>
      </trkpt>
      <trkpt lat="49.7078" lon="5.23201">
        <ele>342</ele>
        <time>2022-07-31T08:44:24.000Z</time>
      </trkpt>
      <trkpt lat="49.70785" lon="5.23199">
        <ele>342</ele>
        <time>2022-07-31T08:44:25.000Z</time>
      </trkpt>
      <trkpt lat="49.708" lon="5.23195">
        <ele>342.20001220703</ele>
        <time>2022-07-31T08:44:28.000Z</time>
      </trkpt>
      <trkpt lat="49.70814" lon="5.23193">
        <ele>342.20001220703</ele>
        <time>2022-07-31T08:44:31.000Z</time>
      </trkpt>
      <trkpt lat="49.70848" lon="5.23187">
        <ele>342.39999389648</ele>
        <time>2022-07-31T08:44:38.000Z</time>
      </trkpt>
      <trkpt lat="49.70857" lon="5.23187">
        <ele>342.60000610352</ele>
        <time>2022-07-31T08:44:40.000Z</time>
      </trkpt>
      <trkpt lat="49.70866" lon="5.23187">
        <ele>343</ele>
        <time>2022-07-31T08:44:43.000Z</time>
      </trkpt>
      <trkpt lat="49.70877" lon="5.23186">
        <ele>343.39999389648</ele>
        <time>2022-07-31T08:44:47.000Z</time>
      </trkpt>
      <trkpt lat="49.70882" lon="5.23186">
        <ele>343.60000610352</ele>
        <time>2022-07-31T08:44:48.000Z</time>
      </trkpt>
      <trkpt lat="49.70892" lon="5.23188">
        <ele>344</ele>
        <time>2022-07-31T08:44:50.000Z</time>
      </trkpt>
      <trkpt lat="49.7091" lon="5.23192">
        <ele>343.39999389648</ele>
        <time>2022-07-31T08:44:53.000Z</time>
      </trkpt>
      <trkpt lat="49.70936" lon="5.23198">
        <ele>342.60000610352</ele>
        <time>2022-07-31T08:44:57.000Z</time>
      </trkpt>
      <trkpt lat="49.70958" lon="5.23202">
        <ele>342</ele>
        <time>2022-07-31T08:45:00.000Z</time>
      </trkpt>
      <trkpt lat="49.70982" lon="5.23208">
        <ele>342</ele>
        <time>2022-07-31T08:45:03.000Z</time>
      </trkpt>
      <trkpt lat="49.70991" lon="5.23211">
        <ele>342</ele>
        <time>2022-07-31T08:45:04.000Z</time>
      </trkpt>
      <trkpt lat="49.70999" lon="5.23215">
        <ele>342</ele>
        <time>2022-07-31T08:45:05.000Z</time>
      </trkpt>
      <trkpt lat="49.71017" lon="5.2322">
        <ele>341.79998779297</ele>
        <time>2022-07-31T08:45:07.000Z</time>
      </trkpt>
      <trkpt lat="49.71036" lon="5.23228">
        <ele>341.39999389648</ele>
        <time>2022-07-31T08:45:09.000Z</time>
      </trkpt>
      <trkpt lat="49.71053" lon="5.23233">
        <ele>341</ele>
        <time>2022-07-31T08:45:11.000Z</time>
      </trkpt>
      <trkpt lat="49.7106" lon="5.23234">
        <ele>340.79998779297</ele>
        <time>2022-07-31T08:45:12.000Z</time>
      </trkpt>
      <trkpt lat="49.71066" lon="5.23234">
        <ele>340.39999389648</ele>
        <time>2022-07-31T08:45:13.000Z</time>
      </trkpt>
      <trkpt lat="49.71072" lon="5.23233">
        <ele>339.79998779297</ele>
        <time>2022-07-31T08:45:14.000Z</time>
      </trkpt>
      <trkpt lat="49.71078" lon="5.23231">
        <ele>339.39999389648</ele>
        <time>2022-07-31T08:45:15.000Z</time>
      </trkpt>
      <trkpt lat="49.71089" lon="5.23229">
        <ele>339</ele>
        <time>2022-07-31T08:45:17.000Z</time>
      </trkpt>
      <trkpt lat="49.711" lon="5.23231">
        <ele>338.20001220703</ele>
        <time>2022-07-31T08:45:19.000Z</time>
      </trkpt>
      <trkpt lat="49.71109" lon="5.23238">
        <ele>337.60000610352</ele>
        <time>2022-07-31T08:45:21.000Z</time>
      </trkpt>
      <trkpt lat="49.71118" lon="5.23244">
        <ele>337</ele>
        <time>2022-07-31T08:45:23.000Z</time>
      </trkpt>
      <trkpt lat="49.7115" lon="5.23267">
        <ele>334.60000610352</ele>
        <time>2022-07-31T08:45:29.000Z</time>
      </trkpt>
      <trkpt lat="49.71184" lon="5.23292">
        <ele>332.60000610352</ele>
        <time>2022-07-31T08:45:34.000Z</time>
      </trkpt>
      <trkpt lat="49.71191" lon="5.23297">
        <ele>332.39999389648</ele>
        <time>2022-07-31T08:45:35.000Z</time>
      </trkpt>
      <trkpt lat="49.71199" lon="5.23303">
        <ele>332</ele>
        <time>2022-07-31T08:45:36.000Z</time>
      </trkpt>
      <trkpt lat="49.71213" lon="5.23316">
        <ele>331</ele>
        <time>2022-07-31T08:45:38.000Z</time>
      </trkpt>
      <trkpt lat="49.71227" lon="5.2333">
        <ele>330</ele>
        <time>2022-07-31T08:45:40.000Z</time>
      </trkpt>
      <trkpt lat="49.71234" lon="5.23337">
        <ele>329.20001220703</ele>
        <time>2022-07-31T08:45:41.000Z</time>
      </trkpt>
      <trkpt lat="49.71241" lon="5.23344">
        <ele>328.39999389648</ele>
        <time>2022-07-31T08:45:42.000Z</time>
      </trkpt>
      <trkpt lat="49.71248" lon="5.2335">
        <ele>327.60000610352</ele>
        <time>2022-07-31T08:45:43.000Z</time>
      </trkpt>
      <trkpt lat="49.71263" lon="5.23359">
        <ele>327</ele>
        <time>2022-07-31T08:45:45.000Z</time>
      </trkpt>
      <trkpt lat="49.71271" lon="5.23364">
        <ele>327.20001220703</ele>
        <time>2022-07-31T08:45:46.000Z</time>
      </trkpt>
      <trkpt lat="49.71303" lon="5.23381">
        <ele>327.60000610352</ele>
        <time>2022-07-31T08:45:50.000Z</time>
      </trkpt>
      <trkpt lat="49.71319" lon="5.23386">
        <ele>326.79998779297</ele>
        <time>2022-07-31T08:45:52.000Z</time>
      </trkpt>
      <trkpt lat="49.71345" lon="5.2339">
        <ele>325.20001220703</ele>
        <time>2022-07-31T08:45:55.000Z</time>
      </trkpt>
      <trkpt lat="49.71355" lon="5.2339">
        <ele>324.79998779297</ele>
        <time>2022-07-31T08:45:56.000Z</time>
      </trkpt>
      <trkpt lat="49.71364" lon="5.2339">
        <ele>324.60000610352</ele>
        <time>2022-07-31T08:45:57.000Z</time>
      </trkpt>
      <trkpt lat="49.71375" lon="5.23388">
        <ele>323.79998779297</ele>
        <time>2022-07-31T08:45:58.000Z</time>
      </trkpt>
      <trkpt lat="49.71385" lon="5.23385">
        <ele>322.79998779297</ele>
        <time>2022-07-31T08:45:59.000Z</time>
      </trkpt>
      <trkpt lat="49.71395" lon="5.23381">
        <ele>322.20001220703</ele>
        <time>2022-07-31T08:46:00.000Z</time>
      </trkpt>
      <trkpt lat="49.71404" lon="5.23376">
        <ele>321.60000610352</ele>
        <time>2022-07-31T08:46:01.000Z</time>
      </trkpt>
      <trkpt lat="49.7142" lon="5.23366">
        <ele>320.20001220703</ele>
        <time>2022-07-31T08:46:03.000Z</time>
      </trkpt>
      <trkpt lat="49.71427" lon="5.2336">
        <ele>319.60000610352</ele>
        <time>2022-07-31T08:46:04.000Z</time>
      </trkpt>
      <trkpt lat="49.71434" lon="5.23352">
        <ele>318.79998779297</ele>
        <time>2022-07-31T08:46:05.000Z</time>
      </trkpt>
      <trkpt lat="49.71455" lon="5.23316">
        <ele>315.20001220703</ele>
        <time>2022-07-31T08:46:09.000Z</time>
      </trkpt>
      <trkpt lat="49.7146" lon="5.23306">
        <ele>314.60000610352</ele>
        <time>2022-07-31T08:46:10.000Z</time>
      </trkpt>
      <trkpt lat="49.71465" lon="5.23296">
        <ele>314</ele>
        <time>2022-07-31T08:46:11.000Z</time>
      </trkpt>
      <trkpt lat="49.71473" lon="5.23276">
        <ele>312.39999389648</ele>
        <time>2022-07-31T08:46:13.000Z</time>
      </trkpt>
      <trkpt lat="49.71486" lon="5.23246">
        <ele>310.39999389648</ele>
        <time>2022-07-31T08:46:16.000Z</time>
      </trkpt>
      <trkpt lat="49.7149" lon="5.23238">
        <ele>310.20001220703</ele>
        <time>2022-07-31T08:46:17.000Z</time>
      </trkpt>
      <trkpt lat="49.71493" lon="5.2323">
        <ele>310</ele>
        <time>2022-07-31T08:46:18.000Z</time>
      </trkpt>
      <trkpt lat="49.71495" lon="5.23217">
        <ele>309.79998779297</ele>
        <time>2022-07-31T08:46:20.000Z</time>
      </trkpt>
      <trkpt lat="49.71487" lon="5.23204">
        <ele>310.79998779297</ele>
        <time>2022-07-31T08:46:23.000Z</time>
      </trkpt>
      <trkpt lat="49.71475" lon="5.23184">
        <ele>312.39999389648</ele>
        <time>2022-07-31T08:46:27.000Z</time>
      </trkpt>
      <trkpt lat="49.7147" lon="5.23175">
        <ele>313.20001220703</ele>
        <time>2022-07-31T08:46:29.000Z</time>
      </trkpt>
      <trkpt lat="49.71464" lon="5.23165">
        <ele>314.39999389648</ele>
        <time>2022-07-31T08:46:32.000Z</time>
      </trkpt>
      <trkpt lat="49.71459" lon="5.23155">
        <ele>315.20001220703</ele>
        <time>2022-07-31T08:46:35.000Z</time>
      </trkpt>
      <trkpt lat="49.71451" lon="5.23143">
        <ele>315.79998779297</ele>
        <time>2022-07-31T08:46:38.000Z</time>
      </trkpt>
      <trkpt lat="49.71443" lon="5.23129">
        <ele>317</ele>
        <time>2022-07-31T08:46:41.000Z</time>
      </trkpt>
      <trkpt lat="49.71427" lon="5.23104">
        <ele>317.60000610352</ele>
        <time>2022-07-31T08:46:47.000Z</time>
      </trkpt>
      <trkpt lat="49.71425" lon="5.231">
        <ele>317.79998779297</ele>
        <time>2022-07-31T08:46:48.000Z</time>
      </trkpt>
      <trkpt lat="49.71412" lon="5.23086">
        <ele>320.20001220703</ele>
        <time>2022-07-31T08:46:52.000Z</time>
      </trkpt>
      <trkpt lat="49.71409" lon="5.23083">
        <ele>320.79998779297</ele>
        <time>2022-07-31T08:46:53.000Z</time>
      </trkpt>
      <trkpt lat="49.71398" lon="5.23069">
        <ele>323.39999389648</ele>
        <time>2022-07-31T08:46:57.000Z</time>
      </trkpt>
      <trkpt lat="49.7139" lon="5.2306">
        <ele>325.79998779297</ele>
        <time>2022-07-31T08:47:00.000Z</time>
      </trkpt>
      <trkpt lat="49.71387" lon="5.23055">
        <ele>327.20001220703</ele>
        <time>2022-07-31T08:47:02.000Z</time>
      </trkpt>
      <trkpt lat="49.71384" lon="5.23049">
        <ele>328.39999389648</ele>
        <time>2022-07-31T08:47:04.000Z</time>
      </trkpt>
      <trkpt lat="49.71374" lon="5.23037">
        <ele>331.39999389648</ele>
        <time>2022-07-31T08:47:09.000Z</time>
      </trkpt>
      <trkpt lat="49.71363" lon="5.23027">
        <ele>334.20001220703</ele>
        <time>2022-07-31T08:47:13.000Z</time>
      </trkpt>
      <trkpt lat="49.71355" lon="5.2302">
        <ele>335.20001220703</ele>
        <time>2022-07-31T08:47:16.000Z</time>
      </trkpt>
      <trkpt lat="49.71344" lon="5.23011">
        <ele>336.20001220703</ele>
        <time>2022-07-31T08:47:19.000Z</time>
      </trkpt>
      <trkpt lat="49.71333" lon="5.23003">
        <ele>336.60000610352</ele>
        <time>2022-07-31T08:47:22.000Z</time>
      </trkpt>
      <trkpt lat="49.71322" lon="5.22993">
        <ele>336.39999389648</ele>
        <time>2022-07-31T08:47:25.000Z</time>
      </trkpt>
      <trkpt lat="49.71312" lon="5.22986">
        <ele>336.39999389648</ele>
        <time>2022-07-31T08:47:28.000Z</time>
      </trkpt>
      <trkpt lat="49.71309" lon="5.22984">
        <ele>336.60000610352</ele>
        <time>2022-07-31T08:47:29.000Z</time>
      </trkpt>
      <trkpt lat="49.71307" lon="5.22982">
        <ele>336.60000610352</ele>
        <time>2022-07-31T08:47:30.000Z</time>
      </trkpt>
      <trkpt lat="49.71298" lon="5.22976">
        <ele>336.79998779297</ele>
        <time>2022-07-31T08:47:33.000Z</time>
      </trkpt>
      <trkpt lat="49.71287" lon="5.2297">
        <ele>337</ele>
        <time>2022-07-31T08:47:36.000Z</time>
      </trkpt>
      <trkpt lat="49.71283" lon="5.22967">
        <ele>337.20001220703</ele>
        <time>2022-07-31T08:47:37.000Z</time>
      </trkpt>
      <trkpt lat="49.71266" lon="5.22961">
        <ele>338.79998779297</ele>
        <time>2022-07-31T08:47:41.000Z</time>
      </trkpt>
      <trkpt lat="49.71263" lon="5.22961">
        <ele>339.20001220703</ele>
        <time>2022-07-31T08:47:42.000Z</time>
      </trkpt>
      <trkpt lat="49.71252" lon="5.22963">
        <ele>340</ele>
        <time>2022-07-31T08:47:45.000Z</time>
      </trkpt>
      <trkpt lat="49.71245" lon="5.22964">
        <ele>340</ele>
        <time>2022-07-31T08:47:47.000Z</time>
      </trkpt>
      <trkpt lat="49.71242" lon="5.22964">
        <ele>340</ele>
        <time>2022-07-31T08:47:48.000Z</time>
      </trkpt>
      <trkpt lat="49.71226" lon="5.22957">
        <ele>339.79998779297</ele>
        <time>2022-07-31T08:47:53.000Z</time>
      </trkpt>
      <trkpt lat="49.71219" lon="5.22954">
        <ele>339.60000610352</ele>
        <time>2022-07-31T08:47:55.000Z</time>
      </trkpt>
      <trkpt lat="49.71207" lon="5.22949">
        <ele>339.20001220703</ele>
        <time>2022-07-31T08:47:59.000Z</time>
      </trkpt>
      <trkpt lat="49.71186" lon="5.2294">
        <ele>339</ele>
        <time>2022-07-31T08:48:05.000Z</time>
      </trkpt>
      <trkpt lat="49.71182" lon="5.22938">
        <ele>339</ele>
        <time>2022-07-31T08:48:06.000Z</time>
      </trkpt>
      <trkpt lat="49.71165" lon="5.2293">
        <ele>339.20001220703</ele>
        <time>2022-07-31T08:48:10.000Z</time>
      </trkpt>
      <trkpt lat="49.71148" lon="5.22922">
        <ele>340.20001220703</ele>
        <time>2022-07-31T08:48:14.000Z</time>
      </trkpt>
      <trkpt lat="49.71143" lon="5.2292">
        <ele>340.60000610352</ele>
        <time>2022-07-31T08:48:15.000Z</time>
      </trkpt>
      <trkpt lat="49.7113" lon="5.22915">
        <ele>341.20001220703</ele>
        <time>2022-07-31T08:48:18.000Z</time>
      </trkpt>
      <trkpt lat="49.71112" lon="5.22907">
        <ele>342</ele>
        <time>2022-07-31T08:48:22.000Z</time>
      </trkpt>
      <trkpt lat="49.71103" lon="5.22903">
        <ele>341.79998779297</ele>
        <time>2022-07-31T08:48:24.000Z</time>
      </trkpt>
      <trkpt lat="49.71098" lon="5.229">
        <ele>341.60000610352</ele>
        <time>2022-07-31T08:48:25.000Z</time>
      </trkpt>
      <trkpt lat="49.7107" lon="5.22888">
        <ele>342</ele>
        <time>2022-07-31T08:48:31.000Z</time>
      </trkpt>
      <trkpt lat="49.71055" lon="5.22881">
        <ele>342</ele>
        <time>2022-07-31T08:48:34.000Z</time>
      </trkpt>
      <trkpt lat="49.71025" lon="5.22861">
        <ele>342.39999389648</ele>
        <time>2022-07-31T08:48:40.000Z</time>
      </trkpt>
      <trkpt lat="49.71005" lon="5.22845">
        <ele>342.39999389648</ele>
        <time>2022-07-31T08:48:44.000Z</time>
      </trkpt>
      <trkpt lat="49.71" lon="5.2284">
        <ele>342.39999389648</ele>
        <time>2022-07-31T08:48:45.000Z</time>
      </trkpt>
      <trkpt lat="49.70968" lon="5.22803">
        <ele>342</ele>
        <time>2022-07-31T08:48:52.000Z</time>
      </trkpt>
      <trkpt lat="49.70949" lon="5.22777">
        <ele>342.79998779297</ele>
        <time>2022-07-31T08:48:56.000Z</time>
      </trkpt>
      <trkpt lat="49.70934" lon="5.2276">
        <ele>343.60000610352</ele>
        <time>2022-07-31T08:48:59.000Z</time>
      </trkpt>
      <trkpt lat="49.709" lon="5.22719">
        <ele>344</ele>
        <time>2022-07-31T08:49:06.000Z</time>
      </trkpt>
      <trkpt lat="49.7088" lon="5.22695">
        <ele>343.20001220703</ele>
        <time>2022-07-31T08:49:10.000Z</time>
      </trkpt>
      <trkpt lat="49.70854" lon="5.22668">
        <ele>341.79998779297</ele>
        <time>2022-07-31T08:49:15.000Z</time>
      </trkpt>
      <trkpt lat="49.70848" lon="5.22664">
        <ele>341.60000610352</ele>
        <time>2022-07-31T08:49:16.000Z</time>
      </trkpt>
      <trkpt lat="49.70819" lon="5.22646">
        <ele>340.79998779297</ele>
        <time>2022-07-31T08:49:21.000Z</time>
      </trkpt>
      <trkpt lat="49.70807" lon="5.22639">
        <ele>340.39999389648</ele>
        <time>2022-07-31T08:49:23.000Z</time>
      </trkpt>
      <trkpt lat="49.70754" lon="5.2261">
        <ele>336.60000610352</ele>
        <time>2022-07-31T08:49:32.000Z</time>
      </trkpt>
      <trkpt lat="49.70711" lon="5.22585">
        <ele>335</ele>
        <time>2022-07-31T08:49:39.000Z</time>
      </trkpt>
      <trkpt lat="49.707" lon="5.22577">
        <ele>335</ele>
        <time>2022-07-31T08:49:41.000Z</time>
      </trkpt>
      <trkpt lat="49.70695" lon="5.22571">
        <ele>335</ele>
        <time>2022-07-31T08:49:42.000Z</time>
      </trkpt>
      <trkpt lat="49.70683" lon="5.22538">
        <ele>336.20001220703</ele>
        <time>2022-07-31T08:49:46.000Z</time>
      </trkpt>
      <trkpt lat="49.70667" lon="5.22482">
        <ele>336.79998779297</ele>
        <time>2022-07-31T08:49:52.000Z</time>
      </trkpt>
      <trkpt lat="49.70661" lon="5.22464">
        <ele>336.39999389648</ele>
        <time>2022-07-31T08:49:54.000Z</time>
      </trkpt>
      <trkpt lat="49.70659" lon="5.22455">
        <ele>336.20001220703</ele>
        <time>2022-07-31T08:49:55.000Z</time>
      </trkpt>
      <trkpt lat="49.7064" lon="5.22388">
        <ele>333.20001220703</ele>
        <time>2022-07-31T08:50:02.000Z</time>
      </trkpt>
      <trkpt lat="49.70638" lon="5.22377">
        <ele>332.79998779297</ele>
        <time>2022-07-31T08:50:03.000Z</time>
      </trkpt>
      <trkpt lat="49.70633" lon="5.22356">
        <ele>332.60000610352</ele>
        <time>2022-07-31T08:50:05.000Z</time>
      </trkpt>
      <trkpt lat="49.70623" lon="5.22314">
        <ele>331.79998779297</ele>
        <time>2022-07-31T08:50:09.000Z</time>
      </trkpt>
      <trkpt lat="49.70615" lon="5.22282">
        <ele>330.60000610352</ele>
        <time>2022-07-31T08:50:12.000Z</time>
      </trkpt>
      <trkpt lat="49.70608" lon="5.22251">
        <ele>330</ele>
        <time>2022-07-31T08:50:15.000Z</time>
      </trkpt>
      <trkpt lat="49.70601" lon="5.22221">
        <ele>329.39999389648</ele>
        <time>2022-07-31T08:50:18.000Z</time>
      </trkpt>
      <trkpt lat="49.70596" lon="5.22202">
        <ele>329.39999389648</ele>
        <time>2022-07-31T08:50:20.000Z</time>
      </trkpt>
      <trkpt lat="49.7059" lon="5.22174">
        <ele>329.39999389648</ele>
        <time>2022-07-31T08:50:23.000Z</time>
      </trkpt>
      <trkpt lat="49.70581" lon="5.22138">
        <ele>328.79998779297</ele>
        <time>2022-07-31T08:50:27.000Z</time>
      </trkpt>
      <trkpt lat="49.70574" lon="5.22111">
        <ele>327</ele>
        <time>2022-07-31T08:50:30.000Z</time>
      </trkpt>
      <trkpt lat="49.70555" lon="5.22029">
        <ele>324.20001220703</ele>
        <time>2022-07-31T08:50:39.000Z</time>
      </trkpt>
      <trkpt lat="49.70554" lon="5.2202">
        <ele>324.20001220703</ele>
        <time>2022-07-31T08:50:40.000Z</time>
      </trkpt>
      <trkpt lat="49.70543" lon="5.21973">
        <ele>324</ele>
        <time>2022-07-31T08:50:45.000Z</time>
      </trkpt>
      <trkpt lat="49.70537" lon="5.21954">
        <ele>323.60000610352</ele>
        <time>2022-07-31T08:50:47.000Z</time>
      </trkpt>
      <trkpt lat="49.70529" lon="5.21925">
        <ele>323</ele>
        <time>2022-07-31T08:50:50.000Z</time>
      </trkpt>
      <trkpt lat="49.70518" lon="5.21889">
        <ele>323</ele>
        <time>2022-07-31T08:50:54.000Z</time>
      </trkpt>
      <trkpt lat="49.70515" lon="5.2188">
        <ele>323</ele>
        <time>2022-07-31T08:50:55.000Z</time>
      </trkpt>
      <trkpt lat="49.70503" lon="5.21839">
        <ele>322.60000610352</ele>
        <time>2022-07-31T08:51:00.000Z</time>
      </trkpt>
      <trkpt lat="49.70502" lon="5.21832">
        <ele>322.39999389648</ele>
        <time>2022-07-31T08:51:01.000Z</time>
      </trkpt>
      <trkpt lat="49.70506" lon="5.21812">
        <ele>322</ele>
        <time>2022-07-31T08:51:04.000Z</time>
      </trkpt>
      <trkpt lat="49.70515" lon="5.21803">
        <ele>321.79998779297</ele>
        <time>2022-07-31T08:51:06.000Z</time>
      </trkpt>
      <trkpt lat="49.70526" lon="5.21793">
        <ele>321.39999389648</ele>
        <time>2022-07-31T08:51:08.000Z</time>
      </trkpt>
      <trkpt lat="49.70564" lon="5.21755">
        <ele>318.60000610352</ele>
        <time>2022-07-31T08:51:15.000Z</time>
      </trkpt>
      <trkpt lat="49.7057" lon="5.2175">
        <ele>318.60000610352</ele>
        <time>2022-07-31T08:51:16.000Z</time>
      </trkpt>
      <trkpt lat="49.70603" lon="5.21715">
        <ele>317.39999389648</ele>
        <time>2022-07-31T08:51:22.000Z</time>
      </trkpt>
      <trkpt lat="49.70614" lon="5.21703">
        <ele>317.20001220703</ele>
        <time>2022-07-31T08:51:24.000Z</time>
      </trkpt>
      <trkpt lat="49.70629" lon="5.21686">
        <ele>316.20001220703</ele>
        <time>2022-07-31T08:51:27.000Z</time>
      </trkpt>
      <trkpt lat="49.70637" lon="5.21678">
        <ele>315.79998779297</ele>
        <time>2022-07-31T08:51:29.000Z</time>
      </trkpt>
      <trkpt lat="49.70645" lon="5.21674">
        <ele>315</ele>
        <time>2022-07-31T08:51:31.000Z</time>
      </trkpt>
      <trkpt lat="49.70647" lon="5.21671">
        <ele>315</ele>
        <time>2022-07-31T08:51:32.000Z</time>
      </trkpt>
      <trkpt lat="49.70659" lon="5.21659">
        <ele>314</ele>
        <time>2022-07-31T08:51:36.000Z</time>
      </trkpt>
      <trkpt lat="49.70665" lon="5.21654">
        <ele>313.60000610352</ele>
        <time>2022-07-31T08:51:38.000Z</time>
      </trkpt>
      <trkpt lat="49.70673" lon="5.21646">
        <ele>313</ele>
        <time>2022-07-31T08:51:42.000Z</time>
      </trkpt>
      <trkpt lat="49.70686" lon="5.2163">
        <ele>312.60000610352</ele>
        <time>2022-07-31T08:51:47.000Z</time>
      </trkpt>
      <trkpt lat="49.70697" lon="5.21622">
        <ele>312.60000610352</ele>
        <time>2022-07-31T08:51:50.000Z</time>
      </trkpt>
      <trkpt lat="49.70704" lon="5.21618">
        <ele>312.39999389648</ele>
        <time>2022-07-31T08:51:52.000Z</time>
      </trkpt>
      <trkpt lat="49.70712" lon="5.21614">
        <ele>312.20001220703</ele>
        <time>2022-07-31T08:51:54.000Z</time>
      </trkpt>
      <trkpt lat="49.70719" lon="5.2161">
        <ele>311.20001220703</ele>
        <time>2022-07-31T08:51:56.000Z</time>
      </trkpt>
      <trkpt lat="49.70725" lon="5.21606">
        <ele>310.39999389648</ele>
        <time>2022-07-31T08:51:58.000Z</time>
      </trkpt>
      <trkpt lat="49.70733" lon="5.21597">
        <ele>310.39999389648</ele>
        <time>2022-07-31T08:52:01.000Z</time>
      </trkpt>
      <trkpt lat="49.70737" lon="5.21593">
        <ele>310.60000610352</ele>
        <time>2022-07-31T08:52:02.000Z</time>
      </trkpt>
      <trkpt lat="49.70747" lon="5.21585">
        <ele>310.20001220703</ele>
        <time>2022-07-31T08:52:05.000Z</time>
      </trkpt>
      <trkpt lat="49.70754" lon="5.2158">
        <ele>309.39999389648</ele>
        <time>2022-07-31T08:52:07.000Z</time>
      </trkpt>
      <trkpt lat="49.70756" lon="5.21577">
        <ele>309.20001220703</ele>
        <time>2022-07-31T08:52:08.000Z</time>
      </trkpt>
      <trkpt lat="49.70762" lon="5.21572">
        <ele>309.20001220703</ele>
        <time>2022-07-31T08:52:10.000Z</time>
      </trkpt>
      <trkpt lat="49.70767" lon="5.21569">
        <ele>309.39999389648</ele>
        <time>2022-07-31T08:52:12.000Z</time>
      </trkpt>
      <trkpt lat="49.7077" lon="5.21567">
        <ele>309.60000610352</ele>
        <time>2022-07-31T08:52:13.000Z</time>
      </trkpt>
      <trkpt lat="49.70772" lon="5.21566">
        <ele>309.60000610352</ele>
        <time>2022-07-31T08:52:14.000Z</time>
      </trkpt>
      <trkpt lat="49.7078" lon="5.2156">
        <ele>309</ele>
        <time>2022-07-31T08:52:16.000Z</time>
      </trkpt>
      <trkpt lat="49.70784" lon="5.21557">
        <ele>308.60000610352</ele>
        <time>2022-07-31T08:52:17.000Z</time>
      </trkpt>
      <trkpt lat="49.70789" lon="5.21554">
        <ele>308.20001220703</ele>
        <time>2022-07-31T08:52:18.000Z</time>
      </trkpt>
      <trkpt lat="49.70799" lon="5.21545">
        <ele>306.39999389648</ele>
        <time>2022-07-31T08:52:20.000Z</time>
      </trkpt>
      <trkpt lat="49.70803" lon="5.21541">
        <ele>306</ele>
        <time>2022-07-31T08:52:21.000Z</time>
      </trkpt>
      <trkpt lat="49.70805" lon="5.21538">
        <ele>305.60000610352</ele>
        <time>2022-07-31T08:52:22.000Z</time>
      </trkpt>
      <trkpt lat="49.70808" lon="5.21534">
        <ele>305</ele>
        <time>2022-07-31T08:52:24.000Z</time>
      </trkpt>
      <trkpt lat="49.70813" lon="5.21524">
        <ele>304.20001220703</ele>
        <time>2022-07-31T08:52:28.000Z</time>
      </trkpt>
      <trkpt lat="49.70814" lon="5.2152">
        <ele>304</ele>
        <time>2022-07-31T08:52:29.000Z</time>
      </trkpt>
      <trkpt lat="49.70822" lon="5.21493">
        <ele>303.60000610352</ele>
        <time>2022-07-31T08:52:35.000Z</time>
      </trkpt>
      <trkpt lat="49.70825" lon="5.21486">
        <ele>303.39999389648</ele>
        <time>2022-07-31T08:52:37.000Z</time>
      </trkpt>
      <trkpt lat="49.70829" lon="5.21475">
        <ele>302.60000610352</ele>
        <time>2022-07-31T08:52:40.000Z</time>
      </trkpt>
      <trkpt lat="49.7083" lon="5.21471">
        <ele>302.20001220703</ele>
        <time>2022-07-31T08:52:41.000Z</time>
      </trkpt>
      <trkpt lat="49.70832" lon="5.21458">
        <ele>301.39999389648</ele>
        <time>2022-07-31T08:52:43.000Z</time>
      </trkpt>
      <trkpt lat="49.70835" lon="5.21442">
        <ele>299.60000610352</ele>
        <time>2022-07-31T08:52:45.000Z</time>
      </trkpt>
      <trkpt lat="49.70834" lon="5.2139">
        <ele>295.39999389648</ele>
        <time>2022-07-31T08:52:51.000Z</time>
      </trkpt>
      <trkpt lat="49.70831" lon="5.2138">
        <ele>295.60000610352</ele>
        <time>2022-07-31T08:52:52.000Z</time>
      </trkpt>
      <trkpt lat="49.70818" lon="5.21348">
        <ele>297.79998779297</ele>
        <time>2022-07-31T08:52:56.000Z</time>
      </trkpt>
      <trkpt lat="49.70814" lon="5.21343">
        <ele>298</ele>
        <time>2022-07-31T08:52:57.000Z</time>
      </trkpt>
      <trkpt lat="49.70796" lon="5.21315">
        <ele>299.79998779297</ele>
        <time>2022-07-31T08:53:03.000Z</time>
      </trkpt>
      <trkpt lat="49.70789" lon="5.21305">
        <ele>300.39999389648</ele>
        <time>2022-07-31T08:53:05.000Z</time>
      </trkpt>
      <trkpt lat="49.7077" lon="5.21278">
        <ele>302</ele>
        <time>2022-07-31T08:53:10.000Z</time>
      </trkpt>
      <trkpt lat="49.70755" lon="5.21257">
        <ele>302</ele>
        <time>2022-07-31T08:53:14.000Z</time>
      </trkpt>
      <trkpt lat="49.70743" lon="5.21242">
        <ele>301.20001220703</ele>
        <time>2022-07-31T08:53:17.000Z</time>
      </trkpt>
      <trkpt lat="49.70719" lon="5.21216">
        <ele>298.39999389648</ele>
        <time>2022-07-31T08:53:23.000Z</time>
      </trkpt>
      <trkpt lat="49.70712" lon="5.21208">
        <ele>297</ele>
        <time>2022-07-31T08:53:25.000Z</time>
      </trkpt>
      <trkpt lat="49.70707" lon="5.21206">
        <ele>296.39999389648</ele>
        <time>2022-07-31T08:53:26.000Z</time>
      </trkpt>
      <trkpt lat="49.707" lon="5.21199">
        <ele>295.20001220703</ele>
        <time>2022-07-31T08:53:28.000Z</time>
      </trkpt>
      <trkpt lat="49.70697" lon="5.21196">
        <ele>295.20001220703</ele>
        <time>2022-07-31T08:53:29.000Z</time>
      </trkpt>
      <trkpt lat="49.70693" lon="5.21193">
        <ele>295.20001220703</ele>
        <time>2022-07-31T08:53:30.000Z</time>
      </trkpt>
      <trkpt lat="49.70682" lon="5.21183">
        <ele>295</ele>
        <time>2022-07-31T08:53:33.000Z</time>
      </trkpt>
      <trkpt lat="49.70677" lon="5.21179">
        <ele>295</ele>
        <time>2022-07-31T08:53:34.000Z</time>
      </trkpt>
      <trkpt lat="49.70672" lon="5.21176">
        <ele>295.20001220703</ele>
        <time>2022-07-31T08:53:35.000Z</time>
      </trkpt>
      <trkpt lat="49.70663" lon="5.2117">
        <ele>294.79998779297</ele>
        <time>2022-07-31T08:53:37.000Z</time>
      </trkpt>
      <trkpt lat="49.70658" lon="5.21168">
        <ele>294.79998779297</ele>
        <time>2022-07-31T08:53:38.000Z</time>
      </trkpt>
      <trkpt lat="49.70648" lon="5.21163">
        <ele>294.60000610352</ele>
        <time>2022-07-31T08:53:40.000Z</time>
      </trkpt>
      <trkpt lat="49.70643" lon="5.21159">
        <ele>294.39999389648</ele>
        <time>2022-07-31T08:53:41.000Z</time>
      </trkpt>
      <trkpt lat="49.70627" lon="5.21141">
        <ele>294</ele>
        <time>2022-07-31T08:53:46.000Z</time>
      </trkpt>
      <trkpt lat="49.70612" lon="5.21123">
        <ele>294.20001220703</ele>
        <time>2022-07-31T08:53:52.000Z</time>
      </trkpt>
      <trkpt lat="49.70595" lon="5.211">
        <ele>295.20001220703</ele>
        <time>2022-07-31T08:53:58.000Z</time>
      </trkpt>
      <trkpt lat="49.70581" lon="5.21071">
        <ele>294.20001220703</ele>
        <time>2022-07-31T08:54:04.000Z</time>
      </trkpt>
      <trkpt lat="49.70569" lon="5.21043">
        <ele>294</ele>
        <time>2022-07-31T08:54:09.000Z</time>
      </trkpt>
      <trkpt lat="49.70565" lon="5.21032">
        <ele>294.20001220703</ele>
        <time>2022-07-31T08:54:11.000Z</time>
      </trkpt>
      <trkpt lat="49.70552" lon="5.21003">
        <ele>294.79998779297</ele>
        <time>2022-07-31T08:54:17.000Z</time>
      </trkpt>
      <trkpt lat="49.70548" lon="5.20972">
        <ele>292.79998779297</ele>
        <time>2022-07-31T08:54:23.000Z</time>
      </trkpt>
      <trkpt lat="49.70546" lon="5.20932">
        <ele>289.20001220703</ele>
        <time>2022-07-31T08:54:28.000Z</time>
      </trkpt>
      <trkpt lat="49.70545" lon="5.20901">
        <ele>288.20001220703</ele>
        <time>2022-07-31T08:54:32.000Z</time>
      </trkpt>
      <trkpt lat="49.70544" lon="5.2087">
        <ele>288</ele>
        <time>2022-07-31T08:54:36.000Z</time>
      </trkpt>
      <trkpt lat="49.70541" lon="5.20816">
        <ele>287</ele>
        <time>2022-07-31T08:54:43.000Z</time>
      </trkpt>
      <trkpt lat="49.70532" lon="5.2077">
        <ele>287.79998779297</ele>
        <time>2022-07-31T08:54:49.000Z</time>
      </trkpt>
      <trkpt lat="49.7053" lon="5.20762">
        <ele>287.79998779297</ele>
        <time>2022-07-31T08:54:50.000Z</time>
      </trkpt>
      <trkpt lat="49.70528" lon="5.20754">
        <ele>287.60000610352</ele>
        <time>2022-07-31T08:54:51.000Z</time>
      </trkpt>
      <trkpt lat="49.7052" lon="5.2073">
        <ele>287.79998779297</ele>
        <time>2022-07-31T08:54:54.000Z</time>
      </trkpt>
      <trkpt lat="49.70508" lon="5.207">
        <ele>287.60000610352</ele>
        <time>2022-07-31T08:54:58.000Z</time>
      </trkpt>
      <trkpt lat="49.70493" lon="5.20667">
        <ele>286.39999389648</ele>
        <time>2022-07-31T08:55:03.000Z</time>
      </trkpt>
      <trkpt lat="49.70486" lon="5.20654">
        <ele>286</ele>
        <time>2022-07-31T08:55:05.000Z</time>
      </trkpt>
      <trkpt lat="49.70471" lon="5.20628">
        <ele>286.60000610352</ele>
        <time>2022-07-31T08:55:09.000Z</time>
      </trkpt>
      <trkpt lat="49.70457" lon="5.20604">
        <ele>287.39999389648</ele>
        <time>2022-07-31T08:55:13.000Z</time>
      </trkpt>
      <trkpt lat="49.70449" lon="5.20591">
        <ele>287.39999389648</ele>
        <time>2022-07-31T08:55:15.000Z</time>
      </trkpt>
      <trkpt lat="49.70422" lon="5.20541">
        <ele>286</ele>
        <time>2022-07-31T08:55:22.000Z</time>
      </trkpt>
      <trkpt lat="49.70397" lon="5.20484">
        <ele>280.79998779297</ele>
        <time>2022-07-31T08:55:29.000Z</time>
      </trkpt>
      <trkpt lat="49.7039" lon="5.20466">
        <ele>279.20001220703</ele>
        <time>2022-07-31T08:55:31.000Z</time>
      </trkpt>
      <trkpt lat="49.70379" lon="5.20433">
        <ele>278.79998779297</ele>
        <time>2022-07-31T08:55:35.000Z</time>
      </trkpt>
      <trkpt lat="49.70374" lon="5.20418">
        <ele>280.60000610352</ele>
        <time>2022-07-31T08:55:37.000Z</time>
      </trkpt>
      <trkpt lat="49.70372" lon="5.2041">
        <ele>281</ele>
        <time>2022-07-31T08:55:38.000Z</time>
      </trkpt>
      <trkpt lat="49.70366" lon="5.20383">
        <ele>283.60000610352</ele>
        <time>2022-07-31T08:55:41.000Z</time>
      </trkpt>
      <trkpt lat="49.70358" lon="5.20353">
        <ele>284.20001220703</ele>
        <time>2022-07-31T08:55:44.000Z</time>
      </trkpt>
      <trkpt lat="49.70348" lon="5.20315">
        <ele>283.39999389648</ele>
        <time>2022-07-31T08:55:48.000Z</time>
      </trkpt>
      <trkpt lat="49.70346" lon="5.20306">
        <ele>283.60000610352</ele>
        <time>2022-07-31T08:55:49.000Z</time>
      </trkpt>
      <trkpt lat="49.70331" lon="5.20247">
        <ele>278.20001220703</ele>
        <time>2022-07-31T08:55:55.000Z</time>
      </trkpt>
      <trkpt lat="49.70326" lon="5.20226">
        <ele>276</ele>
        <time>2022-07-31T08:55:57.000Z</time>
      </trkpt>
      <trkpt lat="49.70319" lon="5.20197">
        <ele>273.39999389648</ele>
        <time>2022-07-31T08:56:00.000Z</time>
      </trkpt>
      <trkpt lat="49.70308" lon="5.20151">
        <ele>271.39999389648</ele>
        <time>2022-07-31T08:56:05.000Z</time>
      </trkpt>
      <trkpt lat="49.70292" lon="5.20082">
        <ele>270.79998779297</ele>
        <time>2022-07-31T08:56:13.000Z</time>
      </trkpt>
      <trkpt lat="49.70292" lon="5.20073">
        <ele>270.39999389648</ele>
        <time>2022-07-31T08:56:14.000Z</time>
      </trkpt>
      <trkpt lat="49.70294" lon="5.20043">
        <ele>267.20001220703</ele>
        <time>2022-07-31T08:56:17.000Z</time>
      </trkpt>
      <trkpt lat="49.70296" lon="5.20032">
        <ele>267</ele>
        <time>2022-07-31T08:56:18.000Z</time>
      </trkpt>
      <trkpt lat="49.70301" lon="5.19997">
        <ele>266.60000610352</ele>
        <time>2022-07-31T08:56:21.000Z</time>
      </trkpt>
      <trkpt lat="49.70303" lon="5.19974">
        <ele>268</ele>
        <time>2022-07-31T08:56:23.000Z</time>
      </trkpt>
      <trkpt lat="49.70308" lon="5.19905">
        <ele>270.39999389648</ele>
        <time>2022-07-31T08:56:30.000Z</time>
      </trkpt>
      <trkpt lat="49.70313" lon="5.19839">
        <ele>267</ele>
        <time>2022-07-31T08:56:38.000Z</time>
      </trkpt>
      <trkpt lat="49.70312" lon="5.19799">
        <ele>264.60000610352</ele>
        <time>2022-07-31T08:56:43.000Z</time>
      </trkpt>
      <trkpt lat="49.70309" lon="5.19783">
        <ele>265.79998779297</ele>
        <time>2022-07-31T08:56:45.000Z</time>
      </trkpt>
      <trkpt lat="49.70302" lon="5.19732">
        <ele>268.20001220703</ele>
        <time>2022-07-31T08:56:51.000Z</time>
      </trkpt>
      <trkpt lat="49.70302" lon="5.19723">
        <ele>268.20001220703</ele>
        <time>2022-07-31T08:56:52.000Z</time>
      </trkpt>
      <trkpt lat="49.70302" lon="5.19697">
        <ele>267.60000610352</ele>
        <time>2022-07-31T08:56:55.000Z</time>
      </trkpt>
      <trkpt lat="49.70304" lon="5.19672">
        <ele>266.79998779297</ele>
        <time>2022-07-31T08:56:58.000Z</time>
      </trkpt>
      <trkpt lat="49.7031" lon="5.19623">
        <ele>270</ele>
        <time>2022-07-31T08:57:04.000Z</time>
      </trkpt>
      <trkpt lat="49.70316" lon="5.19604">
        <ele>271.60000610352</ele>
        <time>2022-07-31T08:57:07.000Z</time>
      </trkpt>
      <trkpt lat="49.70324" lon="5.1959">
        <ele>270.60000610352</ele>
        <time>2022-07-31T08:57:09.000Z</time>
      </trkpt>
      <trkpt lat="49.70334" lon="5.19573">
        <ele>268.79998779297</ele>
        <time>2022-07-31T08:57:11.000Z</time>
      </trkpt>
      <trkpt lat="49.70351" lon="5.19552">
        <ele>265.20001220703</ele>
        <time>2022-07-31T08:57:14.000Z</time>
      </trkpt>
      <trkpt lat="49.70368" lon="5.19541">
        <ele>261.39999389648</ele>
        <time>2022-07-31T08:57:16.000Z</time>
      </trkpt>
      <trkpt lat="49.70386" lon="5.19524">
        <ele>260.39999389648</ele>
        <time>2022-07-31T08:57:19.000Z</time>
      </trkpt>
      <trkpt lat="49.70406" lon="5.195">
        <ele>259.79998779297</ele>
        <time>2022-07-31T08:57:23.000Z</time>
      </trkpt>
      <trkpt lat="49.70433" lon="5.19467">
        <ele>256</ele>
        <time>2022-07-31T08:57:27.000Z</time>
      </trkpt>
      <trkpt lat="49.7044" lon="5.19457">
        <ele>255.19999694824</ele>
        <time>2022-07-31T08:57:28.000Z</time>
      </trkpt>
      <trkpt lat="49.70447" lon="5.19446">
        <ele>253</ele>
        <time>2022-07-31T08:57:29.000Z</time>
      </trkpt>
      <trkpt lat="49.70453" lon="5.19435">
        <ele>251</ele>
        <time>2022-07-31T08:57:30.000Z</time>
      </trkpt>
      <trkpt lat="49.7046" lon="5.19423">
        <ele>249.60000610352</ele>
        <time>2022-07-31T08:57:31.000Z</time>
      </trkpt>
      <trkpt lat="49.70467" lon="5.19412">
        <ele>247</ele>
        <time>2022-07-31T08:57:32.000Z</time>
      </trkpt>
      <trkpt lat="49.70476" lon="5.19402">
        <ele>243.80000305176</ele>
        <time>2022-07-31T08:57:33.000Z</time>
      </trkpt>
      <trkpt lat="49.70484" lon="5.19394">
        <ele>242</ele>
        <time>2022-07-31T08:57:34.000Z</time>
      </trkpt>
      <trkpt lat="49.70491" lon="5.19388">
        <ele>241.60000610352</ele>
        <time>2022-07-31T08:57:35.000Z</time>
      </trkpt>
      <trkpt lat="49.70499" lon="5.19385">
        <ele>241.19999694824</ele>
        <time>2022-07-31T08:57:36.000Z</time>
      </trkpt>
      <trkpt lat="49.70507" lon="5.19388">
        <ele>241</ele>
        <time>2022-07-31T08:57:37.000Z</time>
      </trkpt>
      <trkpt lat="49.70514" lon="5.19394">
        <ele>241.60000610352</ele>
        <time>2022-07-31T08:57:38.000Z</time>
      </trkpt>
      <trkpt lat="49.70527" lon="5.19409">
        <ele>242.60000610352</ele>
        <time>2022-07-31T08:57:40.000Z</time>
      </trkpt>
      <trkpt lat="49.70539" lon="5.19421">
        <ele>244.39999389648</ele>
        <time>2022-07-31T08:57:42.000Z</time>
      </trkpt>
      <trkpt lat="49.70551" lon="5.19422">
        <ele>245.80000305176</ele>
        <time>2022-07-31T08:57:44.000Z</time>
      </trkpt>
      <trkpt lat="49.7056" lon="5.19411">
        <ele>246</ele>
        <time>2022-07-31T08:57:46.000Z</time>
      </trkpt>
      <trkpt lat="49.70569" lon="5.19387">
        <ele>246.80000305176</ele>
        <time>2022-07-31T08:57:49.000Z</time>
      </trkpt>
      <trkpt lat="49.70572" lon="5.19379">
        <ele>247.39999389648</ele>
        <time>2022-07-31T08:57:50.000Z</time>
      </trkpt>
      <trkpt lat="49.70575" lon="5.19363">
        <ele>248.19999694824</ele>
        <time>2022-07-31T08:57:52.000Z</time>
      </trkpt>
      <trkpt lat="49.70576" lon="5.19355">
        <ele>248.60000610352</ele>
        <time>2022-07-31T08:57:53.000Z</time>
      </trkpt>
      <trkpt lat="49.70576" lon="5.19338">
        <ele>249.19999694824</ele>
        <time>2022-07-31T08:57:55.000Z</time>
      </trkpt>
      <trkpt lat="49.70576" lon="5.19329">
        <ele>249.60000610352</ele>
        <time>2022-07-31T08:57:56.000Z</time>
      </trkpt>
      <trkpt lat="49.70576" lon="5.1932">
        <ele>249.80000305176</ele>
        <time>2022-07-31T08:57:57.000Z</time>
      </trkpt>
      <trkpt lat="49.70575" lon="5.19283">
        <ele>252</ele>
        <time>2022-07-31T08:58:01.000Z</time>
      </trkpt>
      <trkpt lat="49.70574" lon="5.19256">
        <ele>252.80000305176</ele>
        <time>2022-07-31T08:58:04.000Z</time>
      </trkpt>
      <trkpt lat="49.70573" lon="5.19238">
        <ele>253.60000610352</ele>
        <time>2022-07-31T08:58:06.000Z</time>
      </trkpt>
      <trkpt lat="49.70574" lon="5.19212">
        <ele>253.80000305176</ele>
        <time>2022-07-31T08:58:09.000Z</time>
      </trkpt>
      <trkpt lat="49.70576" lon="5.19187">
        <ele>254.60000610352</ele>
        <time>2022-07-31T08:58:12.000Z</time>
      </trkpt>
      <trkpt lat="49.70577" lon="5.1918">
        <ele>254.80000305176</ele>
        <time>2022-07-31T08:58:13.000Z</time>
      </trkpt>
      <trkpt lat="49.7058" lon="5.19155">
        <ele>256</ele>
        <time>2022-07-31T08:58:16.000Z</time>
      </trkpt>
      <trkpt lat="49.70584" lon="5.1913">
        <ele>257.79998779297</ele>
        <time>2022-07-31T08:58:19.000Z</time>
      </trkpt>
      <trkpt lat="49.70587" lon="5.19122">
        <ele>258.39999389648</ele>
        <time>2022-07-31T08:58:20.000Z</time>
      </trkpt>
      <trkpt lat="49.706" lon="5.19097">
        <ele>259.60000610352</ele>
        <time>2022-07-31T08:58:24.000Z</time>
      </trkpt>
      <trkpt lat="49.70619" lon="5.1907">
        <ele>260</ele>
        <time>2022-07-31T08:58:30.000Z</time>
      </trkpt>
      <trkpt lat="49.70627" lon="5.19061">
        <ele>260.20001220703</ele>
        <time>2022-07-31T08:58:33.000Z</time>
      </trkpt>
      <trkpt lat="49.7063" lon="5.19057">
        <ele>260.20001220703</ele>
        <time>2022-07-31T08:58:34.000Z</time>
      </trkpt>
      <trkpt lat="49.70633" lon="5.19053">
        <ele>260.60000610352</ele>
        <time>2022-07-31T08:58:35.000Z</time>
      </trkpt>
      <trkpt lat="49.70636" lon="5.1905">
        <ele>261</ele>
        <time>2022-07-31T08:58:36.000Z</time>
      </trkpt>
      <trkpt lat="49.7065" lon="5.19035">
        <ele>262</ele>
        <time>2022-07-31T08:58:40.000Z</time>
      </trkpt>
      <trkpt lat="49.70654" lon="5.1903">
        <ele>262.20001220703</ele>
        <time>2022-07-31T08:58:41.000Z</time>
      </trkpt>
      <trkpt lat="49.70664" lon="5.19023">
        <ele>262.60000610352</ele>
        <time>2022-07-31T08:58:44.000Z</time>
      </trkpt>
      <trkpt lat="49.70668" lon="5.19023">
        <ele>263</ele>
        <time>2022-07-31T08:58:45.000Z</time>
      </trkpt>
      <trkpt lat="49.70673" lon="5.19028">
        <ele>264</ele>
        <time>2022-07-31T08:58:47.000Z</time>
      </trkpt>
      <trkpt lat="49.70674" lon="5.1903">
        <ele>264.39999389648</ele>
        <time>2022-07-31T08:58:48.000Z</time>
      </trkpt>
    </trkseg>
  </trk>
</gpx>